<?xml version="1.0" encoding="UTF-8"?>
<gpx version="1.1" creator="2bulu-scraper" xmlns="http://www.topografix.com/GPX/1/1">
  <metadata><name>乐山范店一线天</name><desc>source: 2bulu.com trackId=86901052; exported 2026-09-01T16:26:59.791Z</desc>
    <bounds minlat="29.332567" minlon="103.452059" maxlat="29.351037" maxlon="103.471484"/>
    <link href="https://www.2bulu.com/track/t-0ZlVkI0i0U%252Fp%252FR2KBg5Tzw%253D%253D.htm"><text>2bulu 源页面</text></link>
  </metadata>
  <wpt lat="29.333662" lon="103.468855"><ele>542</ele><name></name></wpt>
  <wpt lat="29.333915" lon="103.469777"><ele>548</ele><name></name></wpt>
  <wpt lat="29.335157" lon="103.469894"><ele>546</ele><name></name></wpt>
  <wpt lat="29.335594" lon="103.469411"><ele>547</ele><name></name></wpt>
  <wpt lat="29.339323" lon="103.469734"><ele>533</ele><name></name></wpt>
  <wpt lat="29.338146" lon="103.468749"><ele>531</ele><name></name></wpt>
  <wpt lat="29.337943" lon="103.464008"><ele>544</ele><name></name></wpt>
  <wpt lat="29.338679" lon="103.463433"><ele>571</ele><name></name></wpt>
  <wpt lat="29.339226" lon="103.462621"><ele>598</ele><name></name></wpt>
  <wpt lat="29.339226" lon="103.462621"><ele>598</ele><name></name></wpt>
  <wpt lat="29.3402" lon="103.461062"><ele>598</ele><name></name></wpt>
  <wpt lat="29.340353" lon="103.460205"><ele>604</ele><name></name></wpt>
  <wpt lat="29.341805" lon="103.455978"><ele>594</ele><name></name></wpt>
  <wpt lat="29.3421" lon="103.455843"><ele>601</ele><name></name></wpt>
  <wpt lat="29.346443" lon="103.452229"><ele>706</ele><name></name></wpt>
  <wpt lat="29.346528" lon="103.452195"><ele>707</ele><name></name></wpt>
  <wpt lat="29.346528" lon="103.452195"><ele>707</ele><name></name></wpt>
  <wpt lat="29.347487" lon="103.452362"><ele>762</ele><name></name></wpt>
  <wpt lat="29.347748" lon="103.452621"><ele>771</ele><name></name></wpt>
  <wpt lat="29.347748" lon="103.452621"><ele>771</ele><name></name></wpt>
  <wpt lat="29.347748" lon="103.452621"><ele>771</ele><name></name></wpt>
  <wpt lat="29.347238" lon="103.452745"><ele>748</ele><name></name></wpt>
  <trk><name>乐山范店一线天</name>
      <trkseg>
        <trkpt lat="29.332985" lon="103.46838"><ele>542.0899</ele><time>2026-07-01T19:08:00.000Z</time></trkpt>
        <trkpt lat="29.333039" lon="103.468373"><ele>542.3523</ele><time>2026-07-01T19:08:30.000Z</time></trkpt>
        <trkpt lat="29.333039" lon="103.468373"><ele>542.3523</ele><time>2026-07-01T19:08:32.000Z</time></trkpt>
        <trkpt lat="29.333038" lon="103.468374"><ele>542.35284</ele><time>2026-07-01T19:08:34.000Z</time></trkpt>
        <trkpt lat="29.333022" lon="103.468403"><ele>542.3523</ele><time>2026-07-01T19:08:46.000Z</time></trkpt>
        <trkpt lat="29.332978" lon="103.468425"><ele>542.3523</ele><time>2026-07-01T19:09:08.000Z</time></trkpt>
        <trkpt lat="29.332993" lon="103.468421"><ele>541.69495</ele><time>2026-07-01T19:09:22.000Z</time></trkpt>
        <trkpt lat="29.332993" lon="103.468421"><ele>541.3633</ele><time>2026-07-01T19:09:24.000Z</time></trkpt>
        <trkpt lat="29.333008" lon="103.468424"><ele>541.3633</ele><time>2026-07-01T19:10:12.000Z</time></trkpt>
        <trkpt lat="29.333019" lon="103.468433"><ele>541.1541</ele><time>2026-07-01T19:10:20.000Z</time></trkpt>
        <trkpt lat="29.33304" lon="103.468451"><ele>541.3633</ele><time>2026-07-01T19:10:22.000Z</time></trkpt>
        <trkpt lat="29.333041" lon="103.468452"><ele>541.4969</ele><time>2026-07-01T19:10:24.000Z</time></trkpt>
        <trkpt lat="29.333074" lon="103.46848"><ele>541.4973</ele><time>2026-07-01T19:10:27.000Z</time></trkpt>
        <trkpt lat="29.333076" lon="103.468481"><ele>541.4973</ele><time>2026-07-01T19:10:29.000Z</time></trkpt>
        <trkpt lat="29.333076" lon="103.468482"><ele>541.87915</ele><time>2026-07-01T19:10:31.000Z</time></trkpt>
        <trkpt lat="29.333075" lon="103.468443"><ele>541.96564</ele><time>2026-07-01T19:10:47.000Z</time></trkpt>
        <trkpt lat="29.333074" lon="103.468441"><ele>541.96704</ele><time>2026-07-01T19:10:49.000Z</time></trkpt>
        <trkpt lat="29.333073" lon="103.46844"><ele>542.65356</ele><time>2026-07-01T19:10:51.000Z</time></trkpt>
        <trkpt lat="29.332981" lon="103.46838"><ele>542.65356</ele><time>2026-07-01T19:11:17.000Z</time></trkpt>
        <trkpt lat="29.332981" lon="103.46838"><ele>542.65356</ele><time>2026-07-01T19:11:19.000Z</time></trkpt>
        <trkpt lat="29.332981" lon="103.468381"><ele>542.48645</ele><time>2026-07-01T19:11:21.000Z</time></trkpt>
        <trkpt lat="29.333028" lon="103.468429"><ele>542.48456</ele><time>2026-07-01T19:11:29.000Z</time></trkpt>
        <trkpt lat="29.333029" lon="103.468429"><ele>542.4344</ele><time>2026-07-01T19:11:31.000Z</time></trkpt>
        <trkpt lat="29.333033" lon="103.468433"><ele>541.1757</ele><time>2026-07-01T19:11:33.000Z</time></trkpt>
        <trkpt lat="29.333075" lon="103.468471"><ele>541.1757</ele><time>2026-07-01T19:11:37.000Z</time></trkpt>
        <trkpt lat="29.333095" lon="103.468491"><ele>541.1757</ele><time>2026-07-01T19:11:39.000Z</time></trkpt>
        <trkpt lat="29.333107" lon="103.468505"><ele>541.4283</ele><time>2026-07-01T19:11:41.000Z</time></trkpt>
        <trkpt lat="29.333106" lon="103.468508"><ele>541.4283</ele><time>2026-07-01T19:11:43.000Z</time></trkpt>
        <trkpt lat="29.333099" lon="103.468529"><ele>541.61786</ele><time>2026-07-01T19:11:59.000Z</time></trkpt>
        <trkpt lat="29.333142" lon="103.468507"><ele>541.61786</ele><time>2026-07-01T19:12:52.000Z</time></trkpt>
        <trkpt lat="29.333158" lon="103.468519"><ele>541.8805</ele><time>2026-07-01T19:12:54.000Z</time></trkpt>
        <trkpt lat="29.333176" lon="103.468527"><ele>543.1221</ele><time>2026-07-01T19:12:56.000Z</time></trkpt>
        <trkpt lat="29.333195" lon="103.468536"><ele>544.15344</ele><time>2026-07-01T19:12:59.000Z</time></trkpt>
        <trkpt lat="29.333197" lon="103.468536"><ele>544.31836</ele><time>2026-07-01T19:13:01.000Z</time></trkpt>
        <trkpt lat="29.333205" lon="103.46854"><ele>544.60175</ele><time>2026-07-01T19:13:05.000Z</time></trkpt>
        <trkpt lat="29.333248" lon="103.468559"><ele>544.6035</ele><time>2026-07-01T19:13:09.000Z</time></trkpt>
        <trkpt lat="29.333271" lon="103.468572"><ele>545.00275</ele><time>2026-07-01T19:13:11.000Z</time></trkpt>
        <trkpt lat="29.333293" lon="103.468584"><ele>546.1779</ele><time>2026-07-01T19:13:13.000Z</time></trkpt>
        <trkpt lat="29.33331" lon="103.468594"><ele>546.1779</ele><time>2026-07-01T19:13:15.000Z</time></trkpt>
        <trkpt lat="29.333327" lon="103.468606"><ele>546.1779</ele><time>2026-07-01T19:13:17.000Z</time></trkpt>
        <trkpt lat="29.333333" lon="103.468613"><ele>546.1084</ele><time>2026-07-01T19:13:19.000Z</time></trkpt>
        <trkpt lat="29.333339" lon="103.468618"><ele>545.3912</ele><time>2026-07-01T19:13:21.000Z</time></trkpt>
        <trkpt lat="29.333351" lon="103.468627"><ele>543.9079</ele><time>2026-07-01T19:13:23.000Z</time></trkpt>
        <trkpt lat="29.333368" lon="103.468638"><ele>542.5763</ele><time>2026-07-01T19:13:25.000Z</time></trkpt>
        <trkpt lat="29.33339" lon="103.46865"><ele>542.0168</ele><time>2026-07-01T19:13:27.000Z</time></trkpt>
        <trkpt lat="29.333414" lon="103.468662"><ele>542.0168</ele><time>2026-07-01T19:13:29.000Z</time></trkpt>
        <trkpt lat="29.333436" lon="103.468675"><ele>542.0168</ele><time>2026-07-01T19:13:31.000Z</time></trkpt>
        <trkpt lat="29.333462" lon="103.468691"><ele>542.3389</ele><time>2026-07-01T19:13:33.000Z</time></trkpt>
        <trkpt lat="29.333487" lon="103.468708"><ele>542.6747</ele><time>2026-07-01T19:13:35.000Z</time></trkpt>
        <trkpt lat="29.333514" lon="103.468724"><ele>543.0749</ele><time>2026-07-01T19:13:37.000Z</time></trkpt>
        <trkpt lat="29.33354" lon="103.468739"><ele>543.323</ele><time>2026-07-01T19:13:39.000Z</time></trkpt>
        <trkpt lat="29.333563" lon="103.468753"><ele>543.323</ele><time>2026-07-01T19:13:41.000Z</time></trkpt>
        <trkpt lat="29.333578" lon="103.468765"><ele>543.323</ele><time>2026-07-01T19:13:43.000Z</time></trkpt>
        <trkpt lat="29.333588" lon="103.468775"><ele>543.30054</ele><time>2026-07-01T19:13:45.000Z</time></trkpt>
        <trkpt lat="29.333598" lon="103.468785"><ele>543.2103</ele><time>2026-07-01T19:13:47.000Z</time></trkpt>
        <trkpt lat="29.333609" lon="103.468794"><ele>543.2103</ele><time>2026-07-01T19:13:49.000Z</time></trkpt>
        <trkpt lat="29.333623" lon="103.468806"><ele>543.2103</ele><time>2026-07-01T19:13:51.000Z</time></trkpt>
        <trkpt lat="29.333636" lon="103.468819"><ele>543.1801</ele><time>2026-07-01T19:13:53.000Z</time></trkpt>
        <trkpt lat="29.333648" lon="103.468832"><ele>543.14417</ele><time>2026-07-01T19:13:55.000Z</time></trkpt>
        <trkpt lat="29.333658" lon="103.468843"><ele>542.85767</ele><time>2026-07-01T19:13:57.000Z</time></trkpt>
        <trkpt lat="29.333657" lon="103.46885"><ele>542.66327</ele><time>2026-07-01T19:13:59.000Z</time></trkpt>
        <trkpt lat="29.333664" lon="103.468863"><ele>542.4595</ele><time>2026-07-01T19:14:21.000Z</time></trkpt>
        <trkpt lat="29.333634" lon="103.468803"><ele>542.3372</ele><time>2026-07-01T19:14:32.000Z</time></trkpt>
        <trkpt lat="29.333634" lon="103.468803"><ele>542.2396</ele><time>2026-07-01T19:14:34.000Z</time></trkpt>
        <trkpt lat="29.333634" lon="103.468803"><ele>541.69025</ele><time>2026-07-01T19:14:36.000Z</time></trkpt>
        <trkpt lat="29.333644" lon="103.468841"><ele>541.69025</ele><time>2026-07-01T19:14:44.000Z</time></trkpt>
        <trkpt lat="29.333657" lon="103.468886"><ele>541.69025</ele><time>2026-07-01T19:14:48.000Z</time></trkpt>
        <trkpt lat="29.333657" lon="103.468886"><ele>542.3579</ele><time>2026-07-01T19:14:50.000Z</time></trkpt>
        <trkpt lat="29.333658" lon="103.468893"><ele>542.3622</ele><time>2026-07-01T19:14:52.000Z</time></trkpt>
        <trkpt lat="29.333672" lon="103.468946"><ele>542.4619</ele><time>2026-07-01T19:14:56.000Z</time></trkpt>
        <trkpt lat="29.333677" lon="103.468968"><ele>542.4619</ele><time>2026-07-01T19:14:58.000Z</time></trkpt>
        <trkpt lat="29.33368" lon="103.468983"><ele>543.0515</ele><time>2026-07-01T19:15:00.000Z</time></trkpt>
        <trkpt lat="29.333679" lon="103.468987"><ele>543.5007</ele><time>2026-07-01T19:15:02.000Z</time></trkpt>
        <trkpt lat="29.333684" lon="103.469005"><ele>543.531</ele><time>2026-07-01T19:15:08.000Z</time></trkpt>
        <trkpt lat="29.333704" lon="103.469083"><ele>543.60333</ele><time>2026-07-01T19:15:12.000Z</time></trkpt>
        <trkpt lat="29.333704" lon="103.469084"><ele>543.85925</ele><time>2026-07-01T19:15:14.000Z</time></trkpt>
        <trkpt lat="29.333705" lon="103.469095"><ele>543.8666</ele><time>2026-07-01T19:15:16.000Z</time></trkpt>
        <trkpt lat="29.333719" lon="103.469181"><ele>543.97986</ele><time>2026-07-01T19:15:20.000Z</time></trkpt>
        <trkpt lat="29.333725" lon="103.469223"><ele>543.97986</ele><time>2026-07-01T19:15:22.000Z</time></trkpt>
        <trkpt lat="29.333728" lon="103.469262"><ele>544.42004</ele><time>2026-07-01T19:15:24.000Z</time></trkpt>
        <trkpt lat="29.333728" lon="103.469287"><ele>544.7539</ele><time>2026-07-01T19:15:26.000Z</time></trkpt>
        <trkpt lat="29.333726" lon="103.469302"><ele>544.7539</ele><time>2026-07-01T19:15:28.000Z</time></trkpt>
        <trkpt lat="29.333727" lon="103.469305"><ele>544.7539</ele><time>2026-07-01T19:15:30.000Z</time></trkpt>
        <trkpt lat="29.333737" lon="103.469324"><ele>544.58856</ele><time>2026-07-01T19:15:58.000Z</time></trkpt>
        <trkpt lat="29.333741" lon="103.469337"><ele>544.4895</ele><time>2026-07-01T19:16:00.000Z</time></trkpt>
        <trkpt lat="29.333757" lon="103.469385"><ele>544.2447</ele><time>2026-07-01T19:16:04.000Z</time></trkpt>
        <trkpt lat="29.333757" lon="103.469386"><ele>543.74786</ele><time>2026-07-01T19:16:06.000Z</time></trkpt>
        <trkpt lat="29.333762" lon="103.469398"><ele>543.74786</ele><time>2026-07-01T19:16:08.000Z</time></trkpt>
        <trkpt lat="29.333778" lon="103.469434"><ele>543.74786</ele><time>2026-07-01T19:16:10.000Z</time></trkpt>
        <trkpt lat="29.3338" lon="103.469482"><ele>544.22</ele><time>2026-07-01T19:16:12.000Z</time></trkpt>
        <trkpt lat="29.333818" lon="103.469525"><ele>545.31366</ele><time>2026-07-01T19:16:14.000Z</time></trkpt>
        <trkpt lat="29.333835" lon="103.469562"><ele>546.20966</ele><time>2026-07-01T19:16:16.000Z</time></trkpt>
        <trkpt lat="29.33385" lon="103.469597"><ele>546.7758</ele><time>2026-07-01T19:16:18.000Z</time></trkpt>
        <trkpt lat="29.333861" lon="103.469629"><ele>547.03033</ele><time>2026-07-01T19:16:20.000Z</time></trkpt>
        <trkpt lat="29.333871" lon="103.469659"><ele>547.30237</ele><time>2026-07-01T19:16:22.000Z</time></trkpt>
        <trkpt lat="29.33388" lon="103.469688"><ele>547.4941</ele><time>2026-07-01T19:16:24.000Z</time></trkpt>
        <trkpt lat="29.33389" lon="103.469715"><ele>547.5871</ele><time>2026-07-01T19:16:26.000Z</time></trkpt>
        <trkpt lat="29.3339" lon="103.469742"><ele>547.6009</ele><time>2026-07-01T19:16:28.000Z</time></trkpt>
        <trkpt lat="29.33391" lon="103.469768"><ele>547.6116</ele><time>2026-07-01T19:16:30.000Z</time></trkpt>
        <trkpt lat="29.333919" lon="103.469795"><ele>547.81824</ele><time>2026-07-01T19:16:32.000Z</time></trkpt>
        <trkpt lat="29.333931" lon="103.469823"><ele>548.0789</ele><time>2026-07-01T19:16:34.000Z</time></trkpt>
        <trkpt lat="29.333944" lon="103.469849"><ele>548.5578</ele><time>2026-07-01T19:16:36.000Z</time></trkpt>
        <trkpt lat="29.333954" lon="103.469873"><ele>548.62976</ele><time>2026-07-01T19:16:38.000Z</time></trkpt>
        <trkpt lat="29.333961" lon="103.469897"><ele>548.62976</ele><time>2026-07-01T19:16:40.000Z</time></trkpt>
        <trkpt lat="29.333968" lon="103.469925"><ele>548.62976</ele><time>2026-07-01T19:16:42.000Z</time></trkpt>
        <trkpt lat="29.333977" lon="103.469954"><ele>548.5891</ele><time>2026-07-01T19:16:44.000Z</time></trkpt>
        <trkpt lat="29.333986" lon="103.469983"><ele>548.5891</ele><time>2026-07-01T19:16:46.000Z</time></trkpt>
        <trkpt lat="29.333996" lon="103.470012"><ele>548.5891</ele><time>2026-07-01T19:16:48.000Z</time></trkpt>
        <trkpt lat="29.334006" lon="103.47004"><ele>548.7012</ele><time>2026-07-01T19:16:50.000Z</time></trkpt>
        <trkpt lat="29.334016" lon="103.470069"><ele>548.9786</ele><time>2026-07-01T19:16:52.000Z</time></trkpt>
        <trkpt lat="29.334025" lon="103.470098"><ele>549.03723</ele><time>2026-07-01T19:16:54.000Z</time></trkpt>
        <trkpt lat="29.334035" lon="103.470128"><ele>549.0473</ele><time>2026-07-01T19:16:56.000Z</time></trkpt>
        <trkpt lat="29.334044" lon="103.470156"><ele>549.2227</ele><time>2026-07-01T19:16:58.000Z</time></trkpt>
        <trkpt lat="29.334052" lon="103.470181"><ele>549.4605</ele><time>2026-07-01T19:17:00.000Z</time></trkpt>
        <trkpt lat="29.334061" lon="103.470207"><ele>549.6229</ele><time>2026-07-01T19:17:02.000Z</time></trkpt>
        <trkpt lat="29.334073" lon="103.470233"><ele>549.68</ele><time>2026-07-01T19:17:04.000Z</time></trkpt>
        <trkpt lat="29.334087" lon="103.470258"><ele>549.7458</ele><time>2026-07-01T19:17:06.000Z</time></trkpt>
        <trkpt lat="29.334101" lon="103.470284"><ele>549.7458</ele><time>2026-07-01T19:17:08.000Z</time></trkpt>
        <trkpt lat="29.334113" lon="103.47031"><ele>549.96423</ele><time>2026-07-01T19:17:10.000Z</time></trkpt>
        <trkpt lat="29.334123" lon="103.470338"><ele>550.0876</ele><time>2026-07-01T19:17:12.000Z</time></trkpt>
        <trkpt lat="29.334135" lon="103.470366"><ele>550.0876</ele><time>2026-07-01T19:17:14.000Z</time></trkpt>
        <trkpt lat="29.334148" lon="103.470392"><ele>550.13806</ele><time>2026-07-01T19:17:16.000Z</time></trkpt>
        <trkpt lat="29.334162" lon="103.470416"><ele>550.13806</ele><time>2026-07-01T19:17:18.000Z</time></trkpt>
        <trkpt lat="29.334176" lon="103.470437"><ele>550.18085</ele><time>2026-07-01T19:17:20.000Z</time></trkpt>
        <trkpt lat="29.334192" lon="103.470458"><ele>550.77875</ele><time>2026-07-01T19:17:22.000Z</time></trkpt>
        <trkpt lat="29.334208" lon="103.47048"><ele>551.0467</ele><time>2026-07-01T19:17:23.000Z</time></trkpt>
        <trkpt lat="29.334224" lon="103.470503"><ele>551.47845</ele><time>2026-07-01T19:17:25.000Z</time></trkpt>
        <trkpt lat="29.33424" lon="103.470528"><ele>551.55554</ele><time>2026-07-01T19:17:27.000Z</time></trkpt>
        <trkpt lat="29.334253" lon="103.470549"><ele>551.55554</ele><time>2026-07-01T19:17:29.000Z</time></trkpt>
        <trkpt lat="29.334264" lon="103.470569"><ele>551.55554</ele><time>2026-07-01T19:17:31.000Z</time></trkpt>
        <trkpt lat="29.334278" lon="103.470592"><ele>551.25586</ele><time>2026-07-01T19:17:33.000Z</time></trkpt>
        <trkpt lat="29.334291" lon="103.470613"><ele>550.9302</ele><time>2026-07-01T19:17:35.000Z</time></trkpt>
        <trkpt lat="29.334298" lon="103.470624"><ele>550.58484</ele><time>2026-07-01T19:17:37.000Z</time></trkpt>
        <trkpt lat="29.334303" lon="103.470631"><ele>550.58484</ele><time>2026-07-01T19:17:39.000Z</time></trkpt>
        <trkpt lat="29.334313" lon="103.470646"><ele>550.58484</ele><time>2026-07-01T19:17:41.000Z</time></trkpt>
        <trkpt lat="29.334325" lon="103.470665"><ele>550.61786</ele><time>2026-07-01T19:17:43.000Z</time></trkpt>
        <trkpt lat="29.334338" lon="103.470688"><ele>550.7081</ele><time>2026-07-01T19:17:45.000Z</time></trkpt>
        <trkpt lat="29.33435" lon="103.470709"><ele>550.7081</ele><time>2026-07-01T19:17:47.000Z</time></trkpt>
        <trkpt lat="29.334359" lon="103.47073"><ele>550.7081</ele><time>2026-07-01T19:17:49.000Z</time></trkpt>
        <trkpt lat="29.334371" lon="103.470751"><ele>550.6007</ele><time>2026-07-01T19:17:51.000Z</time></trkpt>
        <trkpt lat="29.334383" lon="103.470772"><ele>550.3775</ele><time>2026-07-01T19:17:53.000Z</time></trkpt>
        <trkpt lat="29.334396" lon="103.470794"><ele>550.31085</ele><time>2026-07-01T19:17:55.000Z</time></trkpt>
        <trkpt lat="29.334409" lon="103.470817"><ele>550.2208</ele><time>2026-07-01T19:17:57.000Z</time></trkpt>
        <trkpt lat="29.334425" lon="103.470842"><ele>550.2208</ele><time>2026-07-01T19:17:59.000Z</time></trkpt>
        <trkpt lat="29.334441" lon="103.470865"><ele>550.2208</ele><time>2026-07-01T19:18:01.000Z</time></trkpt>
        <trkpt lat="29.334458" lon="103.470887"><ele>550.4249</ele><time>2026-07-01T19:18:03.000Z</time></trkpt>
        <trkpt lat="29.334466" lon="103.470897"><ele>550.4249</ele><time>2026-07-01T19:18:05.000Z</time></trkpt>
        <trkpt lat="29.334471" lon="103.470904"><ele>550.4249</ele><time>2026-07-01T19:18:07.000Z</time></trkpt>
        <trkpt lat="29.33448" lon="103.470916"><ele>550.414</ele><time>2026-07-01T19:18:09.000Z</time></trkpt>
        <trkpt lat="29.334492" lon="103.470931"><ele>550.30853</ele><time>2026-07-01T19:18:11.000Z</time></trkpt>
        <trkpt lat="29.334505" lon="103.470945"><ele>550.15314</ele><time>2026-07-01T19:18:13.000Z</time></trkpt>
        <trkpt lat="29.334516" lon="103.470958"><ele>549.9197</ele><time>2026-07-01T19:18:15.000Z</time></trkpt>
        <trkpt lat="29.334524" lon="103.470966"><ele>549.5897</ele><time>2026-07-01T19:18:17.000Z</time></trkpt>
        <trkpt lat="29.334528" lon="103.470972"><ele>549.2698</ele><time>2026-07-01T19:18:19.000Z</time></trkpt>
        <trkpt lat="29.334537" lon="103.470989"><ele>548.60657</ele><time>2026-07-01T19:18:23.000Z</time></trkpt>
        <trkpt lat="29.334541" lon="103.470999"><ele>548.60657</ele><time>2026-07-01T19:18:25.000Z</time></trkpt>
        <trkpt lat="29.334548" lon="103.471019"><ele>548.60657</ele><time>2026-07-01T19:18:27.000Z</time></trkpt>
        <trkpt lat="29.334555" lon="103.471041"><ele>548.6161</ele><time>2026-07-01T19:18:29.000Z</time></trkpt>
        <trkpt lat="29.334562" lon="103.471057"><ele>548.8005</ele><time>2026-07-01T19:18:31.000Z</time></trkpt>
        <trkpt lat="29.334569" lon="103.471074"><ele>548.8258</ele><time>2026-07-01T19:18:33.000Z</time></trkpt>
        <trkpt lat="29.334579" lon="103.471095"><ele>548.91644</ele><time>2026-07-01T19:18:35.000Z</time></trkpt>
        <trkpt lat="29.334593" lon="103.471119"><ele>548.92236</ele><time>2026-07-01T19:18:38.000Z</time></trkpt>
        <trkpt lat="29.334608" lon="103.471145"><ele>548.97485</ele><time>2026-07-01T19:18:40.000Z</time></trkpt>
        <trkpt lat="29.334622" lon="103.471171"><ele>549.0191</ele><time>2026-07-01T19:18:42.000Z</time></trkpt>
        <trkpt lat="29.334635" lon="103.471196"><ele>549.1445</ele><time>2026-07-01T19:18:44.000Z</time></trkpt>
        <trkpt lat="29.334649" lon="103.471225"><ele>549.3922</ele><time>2026-07-01T19:18:46.000Z</time></trkpt>
        <trkpt lat="29.334658" lon="103.47125"><ele>549.5085</ele><time>2026-07-01T19:18:48.000Z</time></trkpt>
        <trkpt lat="29.334662" lon="103.471265"><ele>549.7644</ele><time>2026-07-01T19:18:50.000Z</time></trkpt>
        <trkpt lat="29.334668" lon="103.47127"><ele>549.7644</ele><time>2026-07-01T19:18:52.000Z</time></trkpt>
        <trkpt lat="29.334691" lon="103.471285"><ele>549.83887</ele><time>2026-07-01T19:19:04.000Z</time></trkpt>
        <trkpt lat="29.334764" lon="103.471333"><ele>549.7644</ele><time>2026-07-01T19:19:09.000Z</time></trkpt>
        <trkpt lat="29.334765" lon="103.471333"><ele>549.6693</ele><time>2026-07-01T19:19:11.000Z</time></trkpt>
        <trkpt lat="29.334772" lon="103.471339"><ele>549.6693</ele><time>2026-07-01T19:19:13.000Z</time></trkpt>
        <trkpt lat="29.334798" lon="103.471351"><ele>549.7208</ele><time>2026-07-01T19:19:15.000Z</time></trkpt>
        <trkpt lat="29.334887" lon="103.471395"><ele>549.6693</ele><time>2026-07-01T19:19:19.000Z</time></trkpt>
        <trkpt lat="29.334888" lon="103.471395"><ele>549.6693</ele><time>2026-07-01T19:19:21.000Z</time></trkpt>
        <trkpt lat="29.334896" lon="103.471398"><ele>549.46875</ele><time>2026-07-01T19:19:23.000Z</time></trkpt>
        <trkpt lat="29.334963" lon="103.471412"><ele>549.46875</ele><time>2026-07-01T19:19:27.000Z</time></trkpt>
        <trkpt lat="29.335074" lon="103.471434"><ele>549.4626</ele><time>2026-07-01T19:19:32.000Z</time></trkpt>
        <trkpt lat="29.335074" lon="103.471434"><ele>549.4626</ele><time>2026-07-01T19:19:34.000Z</time></trkpt>
        <trkpt lat="29.335083" lon="103.471435"><ele>549.2515</ele><time>2026-07-01T19:19:36.000Z</time></trkpt>
        <trkpt lat="29.335148" lon="103.471439"><ele>549.25</ele><time>2026-07-01T19:19:40.000Z</time></trkpt>
        <trkpt lat="29.335178" lon="103.471443"><ele>549.2004</ele><time>2026-07-01T19:19:42.000Z</time></trkpt>
        <trkpt lat="29.335208" lon="103.471447"><ele>548.615</ele><time>2026-07-01T19:19:44.000Z</time></trkpt>
        <trkpt lat="29.335231" lon="103.471448"><ele>548.4972</ele><time>2026-07-01T19:19:46.000Z</time></trkpt>
        <trkpt lat="29.335254" lon="103.471451"><ele>548.4972</ele><time>2026-07-01T19:19:48.000Z</time></trkpt>
        <trkpt lat="29.335275" lon="103.471456"><ele>548.47815</ele><time>2026-07-01T19:19:50.000Z</time></trkpt>
        <trkpt lat="29.335294" lon="103.47146"><ele>548.4229</ele><time>2026-07-01T19:19:52.000Z</time></trkpt>
        <trkpt lat="29.335316" lon="103.471462"><ele>548.36346</ele><time>2026-07-01T19:19:54.000Z</time></trkpt>
        <trkpt lat="29.335341" lon="103.471463"><ele>548.36346</ele><time>2026-07-01T19:19:57.000Z</time></trkpt>
        <trkpt lat="29.335364" lon="103.471461"><ele>548.36346</ele><time>2026-07-01T19:19:59.000Z</time></trkpt>
        <trkpt lat="29.335386" lon="103.471454"><ele>548.5649</ele><time>2026-07-01T19:20:01.000Z</time></trkpt>
        <trkpt lat="29.335406" lon="103.471441"><ele>548.7754</ele><time>2026-07-01T19:20:03.000Z</time></trkpt>
        <trkpt lat="29.335426" lon="103.471423"><ele>548.83167</ele><time>2026-07-01T19:20:05.000Z</time></trkpt>
        <trkpt lat="29.335445" lon="103.471401"><ele>549.0762</ele><time>2026-07-01T19:20:07.000Z</time></trkpt>
        <trkpt lat="29.335459" lon="103.471375"><ele>549.32904</ele><time>2026-07-01T19:20:09.000Z</time></trkpt>
        <trkpt lat="29.335467" lon="103.47135"><ele>549.73914</ele><time>2026-07-01T19:20:11.000Z</time></trkpt>
        <trkpt lat="29.335469" lon="103.471328"><ele>550.36475</ele><time>2026-07-01T19:20:13.000Z</time></trkpt>
        <trkpt lat="29.335469" lon="103.471309"><ele>551.08264</ele><time>2026-07-01T19:20:15.000Z</time></trkpt>
        <trkpt lat="29.335467" lon="103.47129"><ele>551.3959</ele><time>2026-07-01T19:20:17.000Z</time></trkpt>
        <trkpt lat="29.335461" lon="103.471269"><ele>551.5625</ele><time>2026-07-01T19:20:19.000Z</time></trkpt>
        <trkpt lat="29.335454" lon="103.471245"><ele>551.5736</ele><time>2026-07-01T19:20:21.000Z</time></trkpt>
        <trkpt lat="29.335444" lon="103.471217"><ele>551.8798</ele><time>2026-07-01T19:20:23.000Z</time></trkpt>
        <trkpt lat="29.335436" lon="103.47119"><ele>552.27057</ele><time>2026-07-01T19:20:25.000Z</time></trkpt>
        <trkpt lat="29.335428" lon="103.471166"><ele>552.6427</ele><time>2026-07-01T19:20:27.000Z</time></trkpt>
        <trkpt lat="29.335421" lon="103.471138"><ele>552.6714</ele><time>2026-07-01T19:20:29.000Z</time></trkpt>
        <trkpt lat="29.335414" lon="103.471111"><ele>552.7352</ele><time>2026-07-01T19:20:31.000Z</time></trkpt>
        <trkpt lat="29.335407" lon="103.471082"><ele>552.7352</ele><time>2026-07-01T19:20:33.000Z</time></trkpt>
        <trkpt lat="29.335398" lon="103.471054"><ele>552.6921</ele><time>2026-07-01T19:20:35.000Z</time></trkpt>
        <trkpt lat="29.335391" lon="103.471026"><ele>552.6921</ele><time>2026-07-01T19:20:37.000Z</time></trkpt>
        <trkpt lat="29.335381" lon="103.470994"><ele>552.4735</ele><time>2026-07-01T19:20:39.000Z</time></trkpt>
        <trkpt lat="29.335373" lon="103.470965"><ele>552.3494</ele><time>2026-07-01T19:20:41.000Z</time></trkpt>
        <trkpt lat="29.335366" lon="103.470934"><ele>552.262</ele><time>2026-07-01T19:20:43.000Z</time></trkpt>
        <trkpt lat="29.335359" lon="103.470905"><ele>552.2548</ele><time>2026-07-01T19:20:45.000Z</time></trkpt>
        <trkpt lat="29.335353" lon="103.470879"><ele>552.2548</ele><time>2026-07-01T19:20:47.000Z</time></trkpt>
        <trkpt lat="29.335346" lon="103.470856"><ele>552.2548</ele><time>2026-07-01T19:20:49.000Z</time></trkpt>
        <trkpt lat="29.335337" lon="103.470831"><ele>552.55194</ele><time>2026-07-01T19:20:51.000Z</time></trkpt>
        <trkpt lat="29.335329" lon="103.470806"><ele>552.6102</ele><time>2026-07-01T19:20:53.000Z</time></trkpt>
        <trkpt lat="29.335324" lon="103.470784"><ele>552.6102</ele><time>2026-07-01T19:20:55.000Z</time></trkpt>
        <trkpt lat="29.335321" lon="103.470763"><ele>552.6102</ele><time>2026-07-01T19:20:57.000Z</time></trkpt>
        <trkpt lat="29.335317" lon="103.470742"><ele>552.2543</ele><time>2026-07-01T19:20:59.000Z</time></trkpt>
        <trkpt lat="29.335314" lon="103.47072"><ele>551.80475</ele><time>2026-07-01T19:21:01.000Z</time></trkpt>
        <trkpt lat="29.33531" lon="103.470693"><ele>551.62225</ele><time>2026-07-01T19:21:03.000Z</time></trkpt>
        <trkpt lat="29.335307" lon="103.470666"><ele>551.1672</ele><time>2026-07-01T19:21:05.000Z</time></trkpt>
        <trkpt lat="29.335305" lon="103.470639"><ele>550.6358</ele><time>2026-07-01T19:21:07.000Z</time></trkpt>
        <trkpt lat="29.335302" lon="103.470613"><ele>550.2946</ele><time>2026-07-01T19:21:09.000Z</time></trkpt>
        <trkpt lat="29.3353" lon="103.470587"><ele>550.1479</ele><time>2026-07-01T19:21:11.000Z</time></trkpt>
        <trkpt lat="29.335298" lon="103.470561"><ele>550.0156</ele><time>2026-07-01T19:21:13.000Z</time></trkpt>
        <trkpt lat="29.335295" lon="103.470535"><ele>549.7073</ele><time>2026-07-01T19:21:15.000Z</time></trkpt>
        <trkpt lat="29.335292" lon="103.470511"><ele>549.308</ele><time>2026-07-01T19:21:17.000Z</time></trkpt>
        <trkpt lat="29.335287" lon="103.470487"><ele>549.1473</ele><time>2026-07-01T19:21:19.000Z</time></trkpt>
        <trkpt lat="29.335281" lon="103.470463"><ele>549.1473</ele><time>2026-07-01T19:21:21.000Z</time></trkpt>
        <trkpt lat="29.335276" lon="103.47044"><ele>549.1473</ele><time>2026-07-01T19:21:23.000Z</time></trkpt>
        <trkpt lat="29.335271" lon="103.470418"><ele>549.1473</ele><time>2026-07-01T19:21:25.000Z</time></trkpt>
        <trkpt lat="29.335266" lon="103.470396"><ele>549.1473</ele><time>2026-07-01T19:21:27.000Z</time></trkpt>
        <trkpt lat="29.33526" lon="103.470373"><ele>548.8428</ele><time>2026-07-01T19:21:29.000Z</time></trkpt>
        <trkpt lat="29.335254" lon="103.47035"><ele>548.58093</ele><time>2026-07-01T19:21:31.000Z</time></trkpt>
        <trkpt lat="29.335248" lon="103.470327"><ele>548.3141</ele><time>2026-07-01T19:21:33.000Z</time></trkpt>
        <trkpt lat="29.33524" lon="103.470302"><ele>548.0087</ele><time>2026-07-01T19:21:35.000Z</time></trkpt>
        <trkpt lat="29.33523" lon="103.470275"><ele>547.6623</ele><time>2026-07-01T19:21:37.000Z</time></trkpt>
        <trkpt lat="29.335221" lon="103.47025"><ele>547.6623</ele><time>2026-07-01T19:21:39.000Z</time></trkpt>
        <trkpt lat="29.335211" lon="103.470227"><ele>547.6623</ele><time>2026-07-01T19:21:41.000Z</time></trkpt>
        <trkpt lat="29.335201" lon="103.470206"><ele>547.8844</ele><time>2026-07-01T19:21:43.000Z</time></trkpt>
        <trkpt lat="29.335194" lon="103.470186"><ele>547.9513</ele><time>2026-07-01T19:21:45.000Z</time></trkpt>
        <trkpt lat="29.335188" lon="103.470166"><ele>547.9513</ele><time>2026-07-01T19:21:47.000Z</time></trkpt>
        <trkpt lat="29.335182" lon="103.470143"><ele>547.9513</ele><time>2026-07-01T19:21:49.000Z</time></trkpt>
        <trkpt lat="29.335178" lon="103.470124"><ele>547.8743</ele><time>2026-07-01T19:21:51.000Z</time></trkpt>
        <trkpt lat="29.335175" lon="103.470105"><ele>547.784</ele><time>2026-07-01T19:21:53.000Z</time></trkpt>
        <trkpt lat="29.335174" lon="103.470082"><ele>547.5339</ele><time>2026-07-01T19:21:55.000Z</time></trkpt>
        <trkpt lat="29.335173" lon="103.470057"><ele>547.11273</ele><time>2026-07-01T19:21:57.000Z</time></trkpt>
        <trkpt lat="29.335172" lon="103.470033"><ele>546.5017</ele><time>2026-07-01T19:21:59.000Z</time></trkpt>
        <trkpt lat="29.335171" lon="103.470003"><ele>546.1099</ele><time>2026-07-01T19:22:01.000Z</time></trkpt>
        <trkpt lat="29.335169" lon="103.46997"><ele>546.0663</ele><time>2026-07-01T19:22:03.000Z</time></trkpt>
        <trkpt lat="29.335166" lon="103.469942"><ele>545.71826</ele><time>2026-07-01T19:22:05.000Z</time></trkpt>
        <trkpt lat="29.335163" lon="103.469916"><ele>545.71826</ele><time>2026-07-01T19:22:07.000Z</time></trkpt>
        <trkpt lat="29.335159" lon="103.469891"><ele>545.71826</ele><time>2026-07-01T19:22:09.000Z</time></trkpt>
        <trkpt lat="29.335155" lon="103.469864"><ele>545.6709</ele><time>2026-07-01T19:22:11.000Z</time></trkpt>
        <trkpt lat="29.335149" lon="103.469835"><ele>545.70264</ele><time>2026-07-01T19:22:13.000Z</time></trkpt>
        <trkpt lat="29.335143" lon="103.469808"><ele>545.70264</ele><time>2026-07-01T19:22:15.000Z</time></trkpt>
        <trkpt lat="29.335133" lon="103.469784"><ele>545.6709</ele><time>2026-07-01T19:22:17.000Z</time></trkpt>
        <trkpt lat="29.335124" lon="103.469766"><ele>545.6129</ele><time>2026-07-01T19:22:19.000Z</time></trkpt>
        <trkpt lat="29.335115" lon="103.46975"><ele>545.45404</ele><time>2026-07-01T19:22:21.000Z</time></trkpt>
        <trkpt lat="29.335108" lon="103.469741"><ele>545.45404</ele><time>2026-07-01T19:22:23.000Z</time></trkpt>
        <trkpt lat="29.335108" lon="103.469737"><ele>545.45404</ele><time>2026-07-01T19:22:25.000Z</time></trkpt>
        <trkpt lat="29.335107" lon="103.469686"><ele>545.45404</ele><time>2026-07-01T19:22:31.000Z</time></trkpt>
        <trkpt lat="29.335107" lon="103.469685"><ele>545.45404</ele><time>2026-07-01T19:22:33.000Z</time></trkpt>
        <trkpt lat="29.335109" lon="103.469677"><ele>545.39996</ele><time>2026-07-01T19:22:35.000Z</time></trkpt>
        <trkpt lat="29.335119" lon="103.469651"><ele>545.39996</ele><time>2026-07-01T19:22:37.000Z</time></trkpt>
        <trkpt lat="29.335152" lon="103.469561"><ele>545.39996</ele><time>2026-07-01T19:22:41.000Z</time></trkpt>
        <trkpt lat="29.335164" lon="103.469542"><ele>545.8768</ele><time>2026-07-01T19:22:43.000Z</time></trkpt>
        <trkpt lat="29.33518" lon="103.469529"><ele>545.8768</ele><time>2026-07-01T19:22:45.000Z</time></trkpt>
        <trkpt lat="29.335201" lon="103.469515"><ele>545.8768</ele><time>2026-07-01T19:22:47.000Z</time></trkpt>
        <trkpt lat="29.335226" lon="103.469499"><ele>545.79114</ele><time>2026-07-01T19:22:49.000Z</time></trkpt>
        <trkpt lat="29.33525" lon="103.46948"><ele>545.79114</ele><time>2026-07-01T19:22:51.000Z</time></trkpt>
        <trkpt lat="29.335273" lon="103.469461"><ele>545.79114</ele><time>2026-07-01T19:22:53.000Z</time></trkpt>
        <trkpt lat="29.335296" lon="103.469445"><ele>546.1262</ele><time>2026-07-01T19:22:55.000Z</time></trkpt>
        <trkpt lat="29.335315" lon="103.469434"><ele>546.1262</ele><time>2026-07-01T19:22:57.000Z</time></trkpt>
        <trkpt lat="29.335337" lon="103.469423"><ele>546.1262</ele><time>2026-07-01T19:22:59.000Z</time></trkpt>
        <trkpt lat="29.335358" lon="103.469416"><ele>546.06903</ele><time>2026-07-01T19:23:01.000Z</time></trkpt>
        <trkpt lat="29.335377" lon="103.46941"><ele>545.72345</ele><time>2026-07-01T19:23:03.000Z</time></trkpt>
        <trkpt lat="29.335396" lon="103.469403"><ele>545.5106</ele><time>2026-07-01T19:23:05.000Z</time></trkpt>
        <trkpt lat="29.335415" lon="103.469395"><ele>544.86084</ele><time>2026-07-01T19:23:07.000Z</time></trkpt>
        <trkpt lat="29.335436" lon="103.469387"><ele>544.5113</ele><time>2026-07-01T19:23:09.000Z</time></trkpt>
        <trkpt lat="29.335458" lon="103.469382"><ele>544.4978</ele><time>2026-07-01T19:23:11.000Z</time></trkpt>
        <trkpt lat="29.335481" lon="103.469379"><ele>544.4978</ele><time>2026-07-01T19:23:13.000Z</time></trkpt>
        <trkpt lat="29.335502" lon="103.46938"><ele>544.4978</ele><time>2026-07-01T19:23:15.000Z</time></trkpt>
        <trkpt lat="29.335523" lon="103.469383"><ele>544.6707</ele><time>2026-07-01T19:23:17.000Z</time></trkpt>
        <trkpt lat="29.335544" lon="103.469388"><ele>545.0947</ele><time>2026-07-01T19:23:19.000Z</time></trkpt>
        <trkpt lat="29.335565" lon="103.469396"><ele>545.49005</ele><time>2026-07-01T19:23:21.000Z</time></trkpt>
        <trkpt lat="29.335586" lon="103.469406"><ele>545.86426</ele><time>2026-07-01T19:23:23.000Z</time></trkpt>
        <trkpt lat="29.335607" lon="103.469417"><ele>546.3491</ele><time>2026-07-01T19:23:25.000Z</time></trkpt>
        <trkpt lat="29.335629" lon="103.469428"><ele>546.3491</ele><time>2026-07-01T19:23:27.000Z</time></trkpt>
        <trkpt lat="29.335653" lon="103.469437"><ele>546.3491</ele><time>2026-07-01T19:23:29.000Z</time></trkpt>
        <trkpt lat="29.335675" lon="103.469445"><ele>546.3228</ele><time>2026-07-01T19:23:31.000Z</time></trkpt>
        <trkpt lat="29.3357" lon="103.469453"><ele>546.0343</ele><time>2026-07-01T19:23:33.000Z</time></trkpt>
        <trkpt lat="29.335731" lon="103.469461"><ele>545.74115</ele><time>2026-07-01T19:23:35.000Z</time></trkpt>
        <trkpt lat="29.335757" lon="103.469468"><ele>545.70856</ele><time>2026-07-01T19:23:37.000Z</time></trkpt>
        <trkpt lat="29.335785" lon="103.469474"><ele>545.4736</ele><time>2026-07-01T19:23:39.000Z</time></trkpt>
        <trkpt lat="29.335811" lon="103.469478"><ele>545.43066</ele><time>2026-07-01T19:23:41.000Z</time></trkpt>
        <trkpt lat="29.335835" lon="103.469479"><ele>545.2073</ele><time>2026-07-01T19:23:42.000Z</time></trkpt>
        <trkpt lat="29.335856" lon="103.46948"><ele>544.89136</ele><time>2026-07-01T19:23:44.000Z</time></trkpt>
        <trkpt lat="29.335879" lon="103.46948"><ele>544.7302</ele><time>2026-07-01T19:23:46.000Z</time></trkpt>
        <trkpt lat="29.335902" lon="103.469482"><ele>544.56494</ele><time>2026-07-01T19:23:48.000Z</time></trkpt>
        <trkpt lat="29.335923" lon="103.469488"><ele>544.56494</ele><time>2026-07-01T19:23:50.000Z</time></trkpt>
        <trkpt lat="29.335946" lon="103.469499"><ele>544.50793</ele><time>2026-07-01T19:23:52.000Z</time></trkpt>
        <trkpt lat="29.335964" lon="103.469513"><ele>544.4699</ele><time>2026-07-01T19:23:54.000Z</time></trkpt>
        <trkpt lat="29.33598" lon="103.469527"><ele>544.4532</ele><time>2026-07-01T19:23:56.000Z</time></trkpt>
        <trkpt lat="29.335997" lon="103.469542"><ele>543.92175</ele><time>2026-07-01T19:23:58.000Z</time></trkpt>
        <trkpt lat="29.336016" lon="103.469558"><ele>543.3207</ele><time>2026-07-01T19:24:00.000Z</time></trkpt>
        <trkpt lat="29.336038" lon="103.469576"><ele>543.1365</ele><time>2026-07-01T19:24:02.000Z</time></trkpt>
        <trkpt lat="29.33606" lon="103.469592"><ele>542.80255</ele><time>2026-07-01T19:24:04.000Z</time></trkpt>
        <trkpt lat="29.336081" lon="103.469607"><ele>542.80255</ele><time>2026-07-01T19:24:06.000Z</time></trkpt>
        <trkpt lat="29.336103" lon="103.469624"><ele>542.80255</ele><time>2026-07-01T19:24:08.000Z</time></trkpt>
        <trkpt lat="29.336126" lon="103.46964"><ele>542.87134</ele><time>2026-07-01T19:24:10.000Z</time></trkpt>
        <trkpt lat="29.336147" lon="103.469656"><ele>543.391</ele><time>2026-07-01T19:24:12.000Z</time></trkpt>
        <trkpt lat="29.336169" lon="103.469674"><ele>543.80133</ele><time>2026-07-01T19:24:14.000Z</time></trkpt>
        <trkpt lat="29.336189" lon="103.469691"><ele>544.0997</ele><time>2026-07-01T19:24:16.000Z</time></trkpt>
        <trkpt lat="29.336209" lon="103.469706"><ele>544.44525</ele><time>2026-07-01T19:24:18.000Z</time></trkpt>
        <trkpt lat="29.336228" lon="103.469723"><ele>544.7527</ele><time>2026-07-01T19:24:21.000Z</time></trkpt>
        <trkpt lat="29.336244" lon="103.469738"><ele>544.7527</ele><time>2026-07-01T19:24:23.000Z</time></trkpt>
        <trkpt lat="29.33626" lon="103.469754"><ele>544.7527</ele><time>2026-07-01T19:24:25.000Z</time></trkpt>
        <trkpt lat="29.336276" lon="103.469771"><ele>544.7458</ele><time>2026-07-01T19:24:27.000Z</time></trkpt>
        <trkpt lat="29.33629" lon="103.469784"><ele>544.7458</ele><time>2026-07-01T19:24:29.000Z</time></trkpt>
        <trkpt lat="29.336306" lon="103.469797"><ele>544.7458</ele><time>2026-07-01T19:24:31.000Z</time></trkpt>
        <trkpt lat="29.336323" lon="103.469807"><ele>545.0628</ele><time>2026-07-01T19:24:33.000Z</time></trkpt>
        <trkpt lat="29.336336" lon="103.469812"><ele>545.1027</ele><time>2026-07-01T19:24:35.000Z</time></trkpt>
        <trkpt lat="29.336347" lon="103.469816"><ele>545.11505</ele><time>2026-07-01T19:24:37.000Z</time></trkpt>
        <trkpt lat="29.336354" lon="103.469821"><ele>545.4017</ele><time>2026-07-01T19:24:39.000Z</time></trkpt>
        <trkpt lat="29.336371" lon="103.469837"><ele>545.4352</ele><time>2026-07-01T19:24:43.000Z</time></trkpt>
        <trkpt lat="29.336379" lon="103.469847"><ele>545.4755</ele><time>2026-07-01T19:24:45.000Z</time></trkpt>
        <trkpt lat="29.336392" lon="103.469863"><ele>546.0176</ele><time>2026-07-01T19:24:47.000Z</time></trkpt>
        <trkpt lat="29.336405" lon="103.469878"><ele>546.20984</ele><time>2026-07-01T19:24:49.000Z</time></trkpt>
        <trkpt lat="29.336422" lon="103.469893"><ele>546.27313</ele><time>2026-07-01T19:24:51.000Z</time></trkpt>
        <trkpt lat="29.33644" lon="103.46991"><ele>546.36633</ele><time>2026-07-01T19:24:53.000Z</time></trkpt>
        <trkpt lat="29.336455" lon="103.469927"><ele>546.41473</ele><time>2026-07-01T19:24:55.000Z</time></trkpt>
        <trkpt lat="29.336467" lon="103.469945"><ele>546.5195</ele><time>2026-07-01T19:24:57.000Z</time></trkpt>
        <trkpt lat="29.336478" lon="103.469964"><ele>546.57666</ele><time>2026-07-01T19:24:59.000Z</time></trkpt>
        <trkpt lat="29.336491" lon="103.469988"><ele>546.58435</ele><time>2026-07-01T19:25:01.000Z</time></trkpt>
        <trkpt lat="29.336502" lon="103.470015"><ele>546.77936</ele><time>2026-07-01T19:25:03.000Z</time></trkpt>
        <trkpt lat="29.336512" lon="103.47004"><ele>547.0948</ele><time>2026-07-01T19:25:05.000Z</time></trkpt>
        <trkpt lat="29.336518" lon="103.47006"><ele>547.34814</ele><time>2026-07-01T19:25:07.000Z</time></trkpt>
        <trkpt lat="29.336526" lon="103.470086"><ele>547.34814</ele><time>2026-07-01T19:25:09.000Z</time></trkpt>
        <trkpt lat="29.336532" lon="103.470112"><ele>547.34814</ele><time>2026-07-01T19:25:11.000Z</time></trkpt>
        <trkpt lat="29.33654" lon="103.470137"><ele>546.85046</ele><time>2026-07-01T19:25:13.000Z</time></trkpt>
        <trkpt lat="29.33655" lon="103.47016"><ele>546.7602</ele><time>2026-07-01T19:25:15.000Z</time></trkpt>
        <trkpt lat="29.336561" lon="103.470182"><ele>546.70685</ele><time>2026-07-01T19:25:17.000Z</time></trkpt>
        <trkpt lat="29.336575" lon="103.470208"><ele>546.58734</ele><time>2026-07-01T19:25:19.000Z</time></trkpt>
        <trkpt lat="29.336588" lon="103.470236"><ele>546.55615</ele><time>2026-07-01T19:25:21.000Z</time></trkpt>
        <trkpt lat="29.336599" lon="103.470262"><ele>546.50073</ele><time>2026-07-01T19:25:23.000Z</time></trkpt>
        <trkpt lat="29.336608" lon="103.470286"><ele>545.81146</ele><time>2026-07-01T19:25:25.000Z</time></trkpt>
        <trkpt lat="29.336618" lon="103.470309"><ele>545.58594</ele><time>2026-07-01T19:25:27.000Z</time></trkpt>
        <trkpt lat="29.336629" lon="103.47033"><ele>545.5489</ele><time>2026-07-01T19:25:29.000Z</time></trkpt>
        <trkpt lat="29.336644" lon="103.47035"><ele>545.4831</ele><time>2026-07-01T19:25:31.000Z</time></trkpt>
        <trkpt lat="29.336662" lon="103.47037"><ele>545.3811</ele><time>2026-07-01T19:25:33.000Z</time></trkpt>
        <trkpt lat="29.336681" lon="103.470386"><ele>545.3811</ele><time>2026-07-01T19:25:35.000Z</time></trkpt>
        <trkpt lat="29.336704" lon="103.470403"><ele>545.35596</ele><time>2026-07-01T19:25:37.000Z</time></trkpt>
        <trkpt lat="29.336729" lon="103.470419"><ele>545.2099</ele><time>2026-07-01T19:25:39.000Z</time></trkpt>
        <trkpt lat="29.336752" lon="103.470435"><ele>544.995</ele><time>2026-07-01T19:25:41.000Z</time></trkpt>
        <trkpt lat="29.336774" lon="103.47045"><ele>544.6323</ele><time>2026-07-01T19:25:43.000Z</time></trkpt>
        <trkpt lat="29.336794" lon="103.470465"><ele>544.32635</ele><time>2026-07-01T19:25:45.000Z</time></trkpt>
        <trkpt lat="29.336817" lon="103.47048"><ele>544.32245</ele><time>2026-07-01T19:25:47.000Z</time></trkpt>
        <trkpt lat="29.336841" lon="103.470494"><ele>543.9131</ele><time>2026-07-01T19:25:48.000Z</time></trkpt>
        <trkpt lat="29.336865" lon="103.470508"><ele>543.6774</ele><time>2026-07-01T19:25:50.000Z</time></trkpt>
        <trkpt lat="29.336889" lon="103.470524"><ele>543.2027</ele><time>2026-07-01T19:25:52.000Z</time></trkpt>
        <trkpt lat="29.336912" lon="103.470541"><ele>542.7595</ele><time>2026-07-01T19:25:54.000Z</time></trkpt>
        <trkpt lat="29.336934" lon="103.470557"><ele>542.627</ele><time>2026-07-01T19:25:56.000Z</time></trkpt>
        <trkpt lat="29.336954" lon="103.470574"><ele>542.47577</ele><time>2026-07-01T19:25:58.000Z</time></trkpt>
        <trkpt lat="29.336974" lon="103.470592"><ele>541.96387</ele><time>2026-07-01T19:26:00.000Z</time></trkpt>
        <trkpt lat="29.336993" lon="103.470611"><ele>541.2477</ele><time>2026-07-01T19:26:02.000Z</time></trkpt>
        <trkpt lat="29.337011" lon="103.470631"><ele>540.7909</ele><time>2026-07-01T19:26:04.000Z</time></trkpt>
        <trkpt lat="29.337027" lon="103.470653"><ele>540.654</ele><time>2026-07-01T19:26:06.000Z</time></trkpt>
        <trkpt lat="29.337042" lon="103.470673"><ele>540.45807</ele><time>2026-07-01T19:26:08.000Z</time></trkpt>
        <trkpt lat="29.337056" lon="103.470693"><ele>540.2087</ele><time>2026-07-01T19:26:10.000Z</time></trkpt>
        <trkpt lat="29.337069" lon="103.470714"><ele>540.01306</ele><time>2026-07-01T19:26:12.000Z</time></trkpt>
        <trkpt lat="29.33708" lon="103.47073"><ele>539.8638</ele><time>2026-07-01T19:26:14.000Z</time></trkpt>
        <trkpt lat="29.337097" lon="103.470746"><ele>539.82336</ele><time>2026-07-01T19:26:16.000Z</time></trkpt>
        <trkpt lat="29.337116" lon="103.470762"><ele>539.81464</ele><time>2026-07-01T19:26:18.000Z</time></trkpt>
        <trkpt lat="29.337133" lon="103.470776"><ele>539.77155</ele><time>2026-07-01T19:26:20.000Z</time></trkpt>
        <trkpt lat="29.337148" lon="103.47079"><ele>539.6784</ele><time>2026-07-01T19:26:22.000Z</time></trkpt>
        <trkpt lat="29.337162" lon="103.470804"><ele>539.6784</ele><time>2026-07-01T19:26:24.000Z</time></trkpt>
        <trkpt lat="29.337177" lon="103.470817"><ele>539.6784</ele><time>2026-07-01T19:26:26.000Z</time></trkpt>
        <trkpt lat="29.337195" lon="103.470829"><ele>539.6784</ele><time>2026-07-01T19:26:28.000Z</time></trkpt>
        <trkpt lat="29.337218" lon="103.47084"><ele>539.65015</ele><time>2026-07-01T19:26:30.000Z</time></trkpt>
        <trkpt lat="29.337243" lon="103.470849"><ele>539.3703</ele><time>2026-07-01T19:26:32.000Z</time></trkpt>
        <trkpt lat="29.337269" lon="103.470856"><ele>538.8428</ele><time>2026-07-01T19:26:35.000Z</time></trkpt>
        <trkpt lat="29.33729" lon="103.47086"><ele>538.61664</ele><time>2026-07-01T19:26:37.000Z</time></trkpt>
        <trkpt lat="29.337313" lon="103.470863"><ele>538.41486</ele><time>2026-07-01T19:26:39.000Z</time></trkpt>
        <trkpt lat="29.337334" lon="103.470866"><ele>538.4022</ele><time>2026-07-01T19:26:41.000Z</time></trkpt>
        <trkpt lat="29.337356" lon="103.470869"><ele>538.26843</ele><time>2026-07-01T19:26:43.000Z</time></trkpt>
        <trkpt lat="29.337379" lon="103.470875"><ele>537.90533</ele><time>2026-07-01T19:26:45.000Z</time></trkpt>
        <trkpt lat="29.337404" lon="103.470882"><ele>537.7411</ele><time>2026-07-01T19:26:47.000Z</time></trkpt>
        <trkpt lat="29.33743" lon="103.470889"><ele>537.33356</ele><time>2026-07-01T19:26:49.000Z</time></trkpt>
        <trkpt lat="29.337458" lon="103.470895"><ele>536.8308</ele><time>2026-07-01T19:26:51.000Z</time></trkpt>
        <trkpt lat="29.337485" lon="103.470899"><ele>536.48663</ele><time>2026-07-01T19:26:53.000Z</time></trkpt>
        <trkpt lat="29.337512" lon="103.470901"><ele>536.35065</ele><time>2026-07-01T19:26:55.000Z</time></trkpt>
        <trkpt lat="29.337537" lon="103.470903"><ele>536.23096</ele><time>2026-07-01T19:26:57.000Z</time></trkpt>
        <trkpt lat="29.337558" lon="103.470903"><ele>536.23096</ele><time>2026-07-01T19:26:59.000Z</time></trkpt>
        <trkpt lat="29.337575" lon="103.470903"><ele>536.21387</ele><time>2026-07-01T19:27:01.000Z</time></trkpt>
        <trkpt lat="29.337595" lon="103.470902"><ele>536.23096</ele><time>2026-07-01T19:27:03.000Z</time></trkpt>
        <trkpt lat="29.337617" lon="103.470901"><ele>536.2975</ele><time>2026-07-01T19:27:05.000Z</time></trkpt>
        <trkpt lat="29.337639" lon="103.470897"><ele>536.3449</ele><time>2026-07-01T19:27:07.000Z</time></trkpt>
        <trkpt lat="29.337659" lon="103.470894"><ele>536.4706</ele><time>2026-07-01T19:27:09.000Z</time></trkpt>
        <trkpt lat="29.337678" lon="103.47089"><ele>536.6873</ele><time>2026-07-01T19:27:11.000Z</time></trkpt>
        <trkpt lat="29.3377" lon="103.470882"><ele>536.6907</ele><time>2026-07-01T19:27:13.000Z</time></trkpt>
        <trkpt lat="29.337721" lon="103.470871"><ele>536.6907</ele><time>2026-07-01T19:27:15.000Z</time></trkpt>
        <trkpt lat="29.337738" lon="103.470857"><ele>536.6907</ele><time>2026-07-01T19:27:17.000Z</time></trkpt>
        <trkpt lat="29.337752" lon="103.470839"><ele>536.40393</ele><time>2026-07-01T19:27:19.000Z</time></trkpt>
        <trkpt lat="29.337761" lon="103.470821"><ele>535.9576</ele><time>2026-07-01T19:27:21.000Z</time></trkpt>
        <trkpt lat="29.337764" lon="103.470804"><ele>535.69305</ele><time>2026-07-01T19:27:23.000Z</time></trkpt>
        <trkpt lat="29.337766" lon="103.470785"><ele>535.41626</ele><time>2026-07-01T19:27:25.000Z</time></trkpt>
        <trkpt lat="29.337768" lon="103.470769"><ele>534.8889</ele><time>2026-07-01T19:27:27.000Z</time></trkpt>
        <trkpt lat="29.337767" lon="103.470763"><ele>534.8889</ele><time>2026-07-01T19:27:29.000Z</time></trkpt>
        <trkpt lat="29.337767" lon="103.47075"><ele>534.8889</ele><time>2026-07-01T19:27:31.000Z</time></trkpt>
        <trkpt lat="29.337769" lon="103.47072"><ele>534.8365</ele><time>2026-07-01T19:27:35.000Z</time></trkpt>
        <trkpt lat="29.337772" lon="103.470704"><ele>534.8146</ele><time>2026-07-01T19:27:37.000Z</time></trkpt>
        <trkpt lat="29.337775" lon="103.470689"><ele>534.2431</ele><time>2026-07-01T19:27:39.000Z</time></trkpt>
        <trkpt lat="29.337779" lon="103.47067"><ele>533.9689</ele><time>2026-07-01T19:27:41.000Z</time></trkpt>
        <trkpt lat="29.337785" lon="103.470647"><ele>533.7819</ele><time>2026-07-01T19:27:43.000Z</time></trkpt>
        <trkpt lat="29.337794" lon="103.470619"><ele>533.4088</ele><time>2026-07-01T19:27:45.000Z</time></trkpt>
        <trkpt lat="29.337804" lon="103.470592"><ele>533.1816</ele><time>2026-07-01T19:27:47.000Z</time></trkpt>
        <trkpt lat="29.337817" lon="103.470568"><ele>533.0196</ele><time>2026-07-01T19:27:49.000Z</time></trkpt>
        <trkpt lat="29.33783" lon="103.470545"><ele>532.7098</ele><time>2026-07-01T19:27:51.000Z</time></trkpt>
        <trkpt lat="29.337844" lon="103.470522"><ele>532.3335</ele><time>2026-07-01T19:27:53.000Z</time></trkpt>
        <trkpt lat="29.33786" lon="103.470503"><ele>531.9144</ele><time>2026-07-01T19:27:54.000Z</time></trkpt>
        <trkpt lat="29.337879" lon="103.470488"><ele>531.29706</ele><time>2026-07-01T19:27:56.000Z</time></trkpt>
        <trkpt lat="29.337902" lon="103.470477"><ele>530.73047</ele><time>2026-07-01T19:27:58.000Z</time></trkpt>
        <trkpt lat="29.337926" lon="103.470469"><ele>530.1787</ele><time>2026-07-01T19:28:00.000Z</time></trkpt>
        <trkpt lat="29.337952" lon="103.470466"><ele>529.7887</ele><time>2026-07-01T19:28:02.000Z</time></trkpt>
        <trkpt lat="29.337977" lon="103.470465"><ele>529.4085</ele><time>2026-07-01T19:28:04.000Z</time></trkpt>
        <trkpt lat="29.338001" lon="103.470464"><ele>529.28296</ele><time>2026-07-01T19:28:06.000Z</time></trkpt>
        <trkpt lat="29.338023" lon="103.470462"><ele>529.1168</ele><time>2026-07-01T19:28:08.000Z</time></trkpt>
        <trkpt lat="29.338047" lon="103.470462"><ele>529.0567</ele><time>2026-07-01T19:28:10.000Z</time></trkpt>
        <trkpt lat="29.338069" lon="103.470463"><ele>528.9076</ele><time>2026-07-01T19:28:13.000Z</time></trkpt>
        <trkpt lat="29.338092" lon="103.470465"><ele>528.9076</ele><time>2026-07-01T19:28:15.000Z</time></trkpt>
        <trkpt lat="29.338117" lon="103.470467"><ele>528.88403</ele><time>2026-07-01T19:28:17.000Z</time></trkpt>
        <trkpt lat="29.338144" lon="103.470468"><ele>528.88403</ele><time>2026-07-01T19:28:19.000Z</time></trkpt>
        <trkpt lat="29.338171" lon="103.470467"><ele>528.88403</ele><time>2026-07-01T19:28:21.000Z</time></trkpt>
        <trkpt lat="29.338196" lon="103.470466"><ele>528.8465</ele><time>2026-07-01T19:28:23.000Z</time></trkpt>
        <trkpt lat="29.33822" lon="103.470463"><ele>528.8164</ele><time>2026-07-01T19:28:25.000Z</time></trkpt>
        <trkpt lat="29.338244" lon="103.470458"><ele>528.8164</ele><time>2026-07-01T19:28:27.000Z</time></trkpt>
        <trkpt lat="29.33827" lon="103.470453"><ele>528.8164</ele><time>2026-07-01T19:28:29.000Z</time></trkpt>
        <trkpt lat="29.338294" lon="103.470449"><ele>528.855</ele><time>2026-07-01T19:28:31.000Z</time></trkpt>
        <trkpt lat="29.33832" lon="103.470445"><ele>528.88385</ele><time>2026-07-01T19:28:33.000Z</time></trkpt>
        <trkpt lat="29.338346" lon="103.470439"><ele>529.16284</ele><time>2026-07-01T19:28:35.000Z</time></trkpt>
        <trkpt lat="29.33837" lon="103.470432"><ele>529.4272</ele><time>2026-07-01T19:28:37.000Z</time></trkpt>
        <trkpt lat="29.338395" lon="103.470424"><ele>529.75903</ele><time>2026-07-01T19:28:39.000Z</time></trkpt>
        <trkpt lat="29.33842" lon="103.470415"><ele>530.0926</ele><time>2026-07-01T19:28:41.000Z</time></trkpt>
        <trkpt lat="29.338444" lon="103.470406"><ele>530.1083</ele><time>2026-07-01T19:28:43.000Z</time></trkpt>
        <trkpt lat="29.338468" lon="103.470398"><ele>530.1083</ele><time>2026-07-01T19:28:45.000Z</time></trkpt>
        <trkpt lat="29.338488" lon="103.470392"><ele>530.1083</ele><time>2026-07-01T19:28:47.000Z</time></trkpt>
        <trkpt lat="29.33851" lon="103.470385"><ele>529.77094</ele><time>2026-07-01T19:28:49.000Z</time></trkpt>
        <trkpt lat="29.338532" lon="103.470379"><ele>529.7248</ele><time>2026-07-01T19:28:51.000Z</time></trkpt>
        <trkpt lat="29.338554" lon="103.470374"><ele>529.7248</ele><time>2026-07-01T19:28:53.000Z</time></trkpt>
        <trkpt lat="29.338577" lon="103.470369"><ele>529.64514</ele><time>2026-07-01T19:28:55.000Z</time></trkpt>
        <trkpt lat="29.3386" lon="103.470363"><ele>529.64514</ele><time>2026-07-01T19:28:57.000Z</time></trkpt>
        <trkpt lat="29.338622" lon="103.470357"><ele>529.64514</ele><time>2026-07-01T19:28:59.000Z</time></trkpt>
        <trkpt lat="29.338644" lon="103.47035"><ele>529.5137</ele><time>2026-07-01T19:29:01.000Z</time></trkpt>
        <trkpt lat="29.338666" lon="103.470343"><ele>529.5137</ele><time>2026-07-01T19:29:03.000Z</time></trkpt>
        <trkpt lat="29.338689" lon="103.470336"><ele>529.5137</ele><time>2026-07-01T19:29:05.000Z</time></trkpt>
        <trkpt lat="29.33871" lon="103.470329"><ele>529.5638</ele><time>2026-07-01T19:29:07.000Z</time></trkpt>
        <trkpt lat="29.338732" lon="103.470321"><ele>529.6533</ele><time>2026-07-01T19:29:09.000Z</time></trkpt>
        <trkpt lat="29.338755" lon="103.470313"><ele>529.74274</ele><time>2026-07-01T19:29:11.000Z</time></trkpt>
        <trkpt lat="29.338777" lon="103.470304"><ele>529.79333</ele><time>2026-07-01T19:29:13.000Z</time></trkpt>
        <trkpt lat="29.338797" lon="103.470295"><ele>529.8033</ele><time>2026-07-01T19:29:15.000Z</time></trkpt>
        <trkpt lat="29.338817" lon="103.470284"><ele>529.83826</ele><time>2026-07-01T19:29:17.000Z</time></trkpt>
        <trkpt lat="29.338838" lon="103.470273"><ele>529.83826</ele><time>2026-07-01T19:29:19.000Z</time></trkpt>
        <trkpt lat="29.338858" lon="103.470262"><ele>529.9</ele><time>2026-07-01T19:29:21.000Z</time></trkpt>
        <trkpt lat="29.338878" lon="103.470252"><ele>529.99756</ele><time>2026-07-01T19:29:23.000Z</time></trkpt>
        <trkpt lat="29.338896" lon="103.470242"><ele>530.0005</ele><time>2026-07-01T19:29:25.000Z</time></trkpt>
        <trkpt lat="29.338917" lon="103.470229"><ele>530.02106</ele><time>2026-07-01T19:29:27.000Z</time></trkpt>
        <trkpt lat="29.338936" lon="103.470219"><ele>530.02106</ele><time>2026-07-01T19:29:29.000Z</time></trkpt>
        <trkpt lat="29.338957" lon="103.470208"><ele>530.02106</ele><time>2026-07-01T19:29:31.000Z</time></trkpt>
        <trkpt lat="29.338978" lon="103.470199"><ele>529.95636</ele><time>2026-07-01T19:29:33.000Z</time></trkpt>
        <trkpt lat="29.338998" lon="103.470188"><ele>529.95636</ele><time>2026-07-01T19:29:35.000Z</time></trkpt>
        <trkpt lat="29.339018" lon="103.470177"><ele>529.95636</ele><time>2026-07-01T19:29:37.000Z</time></trkpt>
        <trkpt lat="29.339037" lon="103.470165"><ele>529.99445</ele><time>2026-07-01T19:29:39.000Z</time></trkpt>
        <trkpt lat="29.339058" lon="103.470153"><ele>530.1585</ele><time>2026-07-01T19:29:41.000Z</time></trkpt>
        <trkpt lat="29.339078" lon="103.470143"><ele>530.2762</ele><time>2026-07-01T19:29:43.000Z</time></trkpt>
        <trkpt lat="29.339099" lon="103.470134"><ele>530.3516</ele><time>2026-07-01T19:29:45.000Z</time></trkpt>
        <trkpt lat="29.339119" lon="103.470128"><ele>530.356</ele><time>2026-07-01T19:29:47.000Z</time></trkpt>
        <trkpt lat="29.33914" lon="103.470122"><ele>530.5503</ele><time>2026-07-01T19:29:49.000Z</time></trkpt>
        <trkpt lat="29.339165" lon="103.470115"><ele>530.8812</ele><time>2026-07-01T19:29:51.000Z</time></trkpt>
        <trkpt lat="29.339189" lon="103.470108"><ele>530.8812</ele><time>2026-07-01T19:29:53.000Z</time></trkpt>
        <trkpt lat="29.339212" lon="103.4701"><ele>530.8812</ele><time>2026-07-01T19:29:55.000Z</time></trkpt>
        <trkpt lat="29.339231" lon="103.470092"><ele>530.8433</ele><time>2026-07-01T19:29:57.000Z</time></trkpt>
        <trkpt lat="29.339253" lon="103.470083"><ele>530.6279</ele><time>2026-07-01T19:29:59.000Z</time></trkpt>
        <trkpt lat="29.339274" lon="103.470075"><ele>530.57294</ele><time>2026-07-01T19:30:01.000Z</time></trkpt>
        <trkpt lat="29.339298" lon="103.470066"><ele>530.4085</ele><time>2026-07-01T19:30:03.000Z</time></trkpt>
        <trkpt lat="29.33932" lon="103.470056"><ele>530.4085</ele><time>2026-07-01T19:30:05.000Z</time></trkpt>
        <trkpt lat="29.339337" lon="103.470045"><ele>530.4085</ele><time>2026-07-01T19:30:07.000Z</time></trkpt>
        <trkpt lat="29.33935" lon="103.470029"><ele>530.7937</ele><time>2026-07-01T19:30:09.000Z</time></trkpt>
        <trkpt lat="29.339363" lon="103.470008"><ele>531.2914</ele><time>2026-07-01T19:30:11.000Z</time></trkpt>
        <trkpt lat="29.339373" lon="103.469984"><ele>531.7699</ele><time>2026-07-01T19:30:13.000Z</time></trkpt>
        <trkpt lat="29.33938" lon="103.46996"><ele>532.50146</ele><time>2026-07-01T19:30:15.000Z</time></trkpt>
        <trkpt lat="29.339383" lon="103.469933"><ele>533.25116</ele><time>2026-07-01T19:30:17.000Z</time></trkpt>
        <trkpt lat="29.339382" lon="103.469905"><ele>534.0445</ele><time>2026-07-01T19:30:19.000Z</time></trkpt>
        <trkpt lat="29.33938" lon="103.46988"><ele>534.5655</ele><time>2026-07-01T19:30:21.000Z</time></trkpt>
        <trkpt lat="29.339377" lon="103.469868"><ele>534.77094</ele><time>2026-07-01T19:30:23.000Z</time></trkpt>
        <trkpt lat="29.339375" lon="103.469862"><ele>534.77094</ele><time>2026-07-01T19:30:25.000Z</time></trkpt>
        <trkpt lat="29.339366" lon="103.469843"><ele>534.77094</ele><time>2026-07-01T19:30:37.000Z</time></trkpt>
        <trkpt lat="29.339347" lon="103.469802"><ele>534.51605</ele><time>2026-07-01T19:30:42.000Z</time></trkpt>
        <trkpt lat="29.339347" lon="103.469801"><ele>534.1816</ele><time>2026-07-01T19:30:44.000Z</time></trkpt>
        <trkpt lat="29.339346" lon="103.469797"><ele>533.6607</ele><time>2026-07-01T19:30:46.000Z</time></trkpt>
        <trkpt lat="29.33933" lon="103.469756"><ele>533.6546</ele><time>2026-07-01T19:30:50.000Z</time></trkpt>
        <trkpt lat="29.339317" lon="103.469731"><ele>533.5079</ele><time>2026-07-01T19:30:52.000Z</time></trkpt>
        <trkpt lat="29.339302" lon="103.469706"><ele>533.4838</ele><time>2026-07-01T19:30:54.000Z</time></trkpt>
        <trkpt lat="29.339286" lon="103.469684"><ele>533.4838</ele><time>2026-07-01T19:30:56.000Z</time></trkpt>
        <trkpt lat="29.339269" lon="103.469664"><ele>533.4838</ele><time>2026-07-01T19:30:58.000Z</time></trkpt>
        <trkpt lat="29.339249" lon="103.469649"><ele>533.81793</ele><time>2026-07-01T19:31:00.000Z</time></trkpt>
        <trkpt lat="29.339229" lon="103.46964"><ele>534.18115</ele><time>2026-07-01T19:31:02.000Z</time></trkpt>
        <trkpt lat="29.339211" lon="103.469638"><ele>534.5764</ele><time>2026-07-01T19:31:04.000Z</time></trkpt>
        <trkpt lat="29.339199" lon="103.46964"><ele>535.00854</ele><time>2026-07-01T19:31:06.000Z</time></trkpt>
        <trkpt lat="29.339184" lon="103.469645"><ele>535.4152</ele><time>2026-07-01T19:31:08.000Z</time></trkpt>
        <trkpt lat="29.339165" lon="103.469653"><ele>535.7502</ele><time>2026-07-01T19:31:10.000Z</time></trkpt>
        <trkpt lat="29.339146" lon="103.469662"><ele>536.0378</ele><time>2026-07-01T19:31:12.000Z</time></trkpt>
        <trkpt lat="29.339125" lon="103.469671"><ele>536.0378</ele><time>2026-07-01T19:31:14.000Z</time></trkpt>
        <trkpt lat="29.339102" lon="103.469679"><ele>536.0378</ele><time>2026-07-01T19:31:16.000Z</time></trkpt>
        <trkpt lat="29.339078" lon="103.469685"><ele>535.97754</ele><time>2026-07-01T19:31:18.000Z</time></trkpt>
        <trkpt lat="29.339055" lon="103.46969"><ele>535.97705</ele><time>2026-07-01T19:31:20.000Z</time></trkpt>
        <trkpt lat="29.339031" lon="103.469695"><ele>535.7142</ele><time>2026-07-01T19:31:22.000Z</time></trkpt>
        <trkpt lat="29.339008" lon="103.469702"><ele>535.33014</ele><time>2026-07-01T19:31:24.000Z</time></trkpt>
        <trkpt lat="29.338984" lon="103.469709"><ele>535.0519</ele><time>2026-07-01T19:31:26.000Z</time></trkpt>
        <trkpt lat="29.338961" lon="103.469718"><ele>534.9945</ele><time>2026-07-01T19:31:28.000Z</time></trkpt>
        <trkpt lat="29.33894" lon="103.46973"><ele>534.9945</ele><time>2026-07-01T19:31:30.000Z</time></trkpt>
        <trkpt lat="29.338918" lon="103.469742"><ele>534.9945</ele><time>2026-07-01T19:31:32.000Z</time></trkpt>
        <trkpt lat="29.338895" lon="103.469754"><ele>535.4931</ele><time>2026-07-01T19:31:34.000Z</time></trkpt>
        <trkpt lat="29.338875" lon="103.469763"><ele>535.6063</ele><time>2026-07-01T19:31:36.000Z</time></trkpt>
        <trkpt lat="29.338853" lon="103.469772"><ele>535.70807</ele><time>2026-07-01T19:31:38.000Z</time></trkpt>
        <trkpt lat="29.338832" lon="103.469779"><ele>535.70807</ele><time>2026-07-01T19:31:40.000Z</time></trkpt>
        <trkpt lat="29.338811" lon="103.469787"><ele>535.70807</ele><time>2026-07-01T19:31:42.000Z</time></trkpt>
        <trkpt lat="29.338792" lon="103.469793"><ele>535.54913</ele><time>2026-07-01T19:31:44.000Z</time></trkpt>
        <trkpt lat="29.338776" lon="103.469799"><ele>535.01514</ele><time>2026-07-01T19:31:46.000Z</time></trkpt>
        <trkpt lat="29.33876" lon="103.469803"><ele>534.4389</ele><time>2026-07-01T19:31:48.000Z</time></trkpt>
        <trkpt lat="29.338743" lon="103.469807"><ele>534.16394</ele><time>2026-07-01T19:31:50.000Z</time></trkpt>
        <trkpt lat="29.338723" lon="103.469813"><ele>533.92755</ele><time>2026-07-01T19:31:52.000Z</time></trkpt>
        <trkpt lat="29.338701" lon="103.469821"><ele>533.59973</ele><time>2026-07-01T19:31:54.000Z</time></trkpt>
        <trkpt lat="29.338677" lon="103.46983"><ele>533.21075</ele><time>2026-07-01T19:31:56.000Z</time></trkpt>
        <trkpt lat="29.338652" lon="103.469839"><ele>532.7016</ele><time>2026-07-01T19:31:58.000Z</time></trkpt>
        <trkpt lat="29.338628" lon="103.469845"><ele>532.2462</ele><time>2026-07-01T19:32:00.000Z</time></trkpt>
        <trkpt lat="29.338603" lon="103.469849"><ele>532.0772</ele><time>2026-07-01T19:32:02.000Z</time></trkpt>
        <trkpt lat="29.338582" lon="103.469851"><ele>531.93646</ele><time>2026-07-01T19:32:04.000Z</time></trkpt>
        <trkpt lat="29.338566" lon="103.46985"><ele>531.90015</ele><time>2026-07-01T19:32:06.000Z</time></trkpt>
        <trkpt lat="29.338551" lon="103.469847"><ele>531.8825</ele><time>2026-07-01T19:32:08.000Z</time></trkpt>
        <trkpt lat="29.338537" lon="103.469838"><ele>531.8825</ele><time>2026-07-01T19:32:10.000Z</time></trkpt>
        <trkpt lat="29.338521" lon="103.469824"><ele>531.932</ele><time>2026-07-01T19:32:12.000Z</time></trkpt>
        <trkpt lat="29.338506" lon="103.469805"><ele>531.932</ele><time>2026-07-01T19:32:14.000Z</time></trkpt>
        <trkpt lat="29.338491" lon="103.469786"><ele>531.9549</ele><time>2026-07-01T19:32:16.000Z</time></trkpt>
        <trkpt lat="29.338477" lon="103.469766"><ele>531.9549</ele><time>2026-07-01T19:32:18.000Z</time></trkpt>
        <trkpt lat="29.338463" lon="103.469743"><ele>531.9549</ele><time>2026-07-01T19:32:20.000Z</time></trkpt>
        <trkpt lat="29.33845" lon="103.469721"><ele>531.74805</ele><time>2026-07-01T19:32:22.000Z</time></trkpt>
        <trkpt lat="29.338438" lon="103.4697"><ele>531.6991</ele><time>2026-07-01T19:32:24.000Z</time></trkpt>
        <trkpt lat="29.338425" lon="103.469675"><ele>531.54095</ele><time>2026-07-01T19:32:26.000Z</time></trkpt>
        <trkpt lat="29.338414" lon="103.469653"><ele>531.3821</ele><time>2026-07-01T19:32:28.000Z</time></trkpt>
        <trkpt lat="29.338404" lon="103.46963"><ele>531.24536</ele><time>2026-07-01T19:32:30.000Z</time></trkpt>
        <trkpt lat="29.338392" lon="103.469604"><ele>530.9033</ele><time>2026-07-01T19:32:32.000Z</time></trkpt>
        <trkpt lat="29.338382" lon="103.469579"><ele>530.8921</ele><time>2026-07-01T19:32:34.000Z</time></trkpt>
        <trkpt lat="29.338372" lon="103.469555"><ele>530.8921</ele><time>2026-07-01T19:32:36.000Z</time></trkpt>
        <trkpt lat="29.338364" lon="103.469533"><ele>530.8921</ele><time>2026-07-01T19:32:38.000Z</time></trkpt>
        <trkpt lat="29.338358" lon="103.469514"><ele>530.9894</ele><time>2026-07-01T19:32:40.000Z</time></trkpt>
        <trkpt lat="29.33835" lon="103.469494"><ele>531.1702</ele><time>2026-07-01T19:32:42.000Z</time></trkpt>
        <trkpt lat="29.33834" lon="103.469471"><ele>531.25867</ele><time>2026-07-01T19:32:44.000Z</time></trkpt>
        <trkpt lat="29.33833" lon="103.469445"><ele>531.485</ele><time>2026-07-01T19:32:46.000Z</time></trkpt>
        <trkpt lat="29.338322" lon="103.469419"><ele>531.68665</ele><time>2026-07-01T19:32:48.000Z</time></trkpt>
        <trkpt lat="29.338314" lon="103.469391"><ele>531.78906</ele><time>2026-07-01T19:32:50.000Z</time></trkpt>
        <trkpt lat="29.338307" lon="103.469364"><ele>531.78906</ele><time>2026-07-01T19:32:52.000Z</time></trkpt>
        <trkpt lat="29.338302" lon="103.46934"><ele>531.78906</ele><time>2026-07-01T19:32:54.000Z</time></trkpt>
        <trkpt lat="29.338296" lon="103.469316"><ele>531.3763</ele><time>2026-07-01T19:32:56.000Z</time></trkpt>
        <trkpt lat="29.33829" lon="103.469289"><ele>531.15234</ele><time>2026-07-01T19:32:58.000Z</time></trkpt>
        <trkpt lat="29.338283" lon="103.469262"><ele>531.07513</ele><time>2026-07-01T19:33:00.000Z</time></trkpt>
        <trkpt lat="29.338276" lon="103.469234"><ele>530.9453</ele><time>2026-07-01T19:33:02.000Z</time></trkpt>
        <trkpt lat="29.338268" lon="103.469205"><ele>530.9453</ele><time>2026-07-01T19:33:04.000Z</time></trkpt>
        <trkpt lat="29.338262" lon="103.469178"><ele>530.9453</ele><time>2026-07-01T19:33:06.000Z</time></trkpt>
        <trkpt lat="29.338254" lon="103.469154"><ele>531.0747</ele><time>2026-07-01T19:33:08.000Z</time></trkpt>
        <trkpt lat="29.338246" lon="103.469131"><ele>531.0911</ele><time>2026-07-01T19:33:10.000Z</time></trkpt>
        <trkpt lat="29.338238" lon="103.469107"><ele>531.2058</ele><time>2026-07-01T19:33:12.000Z</time></trkpt>
        <trkpt lat="29.33823" lon="103.469081"><ele>531.3057</ele><time>2026-07-01T19:33:14.000Z</time></trkpt>
        <trkpt lat="29.338223" lon="103.469054"><ele>531.30743</ele><time>2026-07-01T19:33:16.000Z</time></trkpt>
        <trkpt lat="29.338215" lon="103.469027"><ele>531.38776</ele><time>2026-07-01T19:33:18.000Z</time></trkpt>
        <trkpt lat="29.338208" lon="103.469001"><ele>531.4124</ele><time>2026-07-01T19:33:20.000Z</time></trkpt>
        <trkpt lat="29.338201" lon="103.468976"><ele>531.4774</ele><time>2026-07-01T19:33:22.000Z</time></trkpt>
        <trkpt lat="29.338195" lon="103.468953"><ele>531.6772</ele><time>2026-07-01T19:33:24.000Z</time></trkpt>
        <trkpt lat="29.33819" lon="103.468926"><ele>531.6772</ele><time>2026-07-01T19:33:26.000Z</time></trkpt>
        <trkpt lat="29.338184" lon="103.4689"><ele>531.6772</ele><time>2026-07-01T19:33:28.000Z</time></trkpt>
        <trkpt lat="29.338177" lon="103.468875"><ele>531.6488</ele><time>2026-07-01T19:33:30.000Z</time></trkpt>
        <trkpt lat="29.338171" lon="103.468849"><ele>531.45135</ele><time>2026-07-01T19:33:32.000Z</time></trkpt>
        <trkpt lat="29.338166" lon="103.468823"><ele>531.33344</ele><time>2026-07-01T19:33:34.000Z</time></trkpt>
        <trkpt lat="29.338161" lon="103.468797"><ele>531.0534</ele><time>2026-07-01T19:33:36.000Z</time></trkpt>
        <trkpt lat="29.338154" lon="103.468772"><ele>531.04956</ele><time>2026-07-01T19:33:38.000Z</time></trkpt>
        <trkpt lat="29.338145" lon="103.468746"><ele>530.8852</ele><time>2026-07-01T19:33:40.000Z</time></trkpt>
        <trkpt lat="29.338136" lon="103.46872"><ele>530.8549</ele><time>2026-07-01T19:33:42.000Z</time></trkpt>
        <trkpt lat="29.338127" lon="103.468693"><ele>530.8549</ele><time>2026-07-01T19:33:44.000Z</time></trkpt>
        <trkpt lat="29.338118" lon="103.468667"><ele>530.8484</ele><time>2026-07-01T19:33:46.000Z</time></trkpt>
        <trkpt lat="29.338108" lon="103.468641"><ele>530.8484</ele><time>2026-07-01T19:33:48.000Z</time></trkpt>
        <trkpt lat="29.338098" lon="103.468615"><ele>530.8484</ele><time>2026-07-01T19:33:50.000Z</time></trkpt>
        <trkpt lat="29.338087" lon="103.46859"><ele>530.8484</ele><time>2026-07-01T19:33:52.000Z</time></trkpt>
        <trkpt lat="29.338076" lon="103.468566"><ele>530.8484</ele><time>2026-07-01T19:33:54.000Z</time></trkpt>
        <trkpt lat="29.338064" lon="103.468546"><ele>531.0157</ele><time>2026-07-01T19:33:56.000Z</time></trkpt>
        <trkpt lat="29.338053" lon="103.468525"><ele>531.0157</ele><time>2026-07-01T19:33:58.000Z</time></trkpt>
        <trkpt lat="29.338042" lon="103.468502"><ele>531.0157</ele><time>2026-07-01T19:34:00.000Z</time></trkpt>
        <trkpt lat="29.338033" lon="103.468477"><ele>530.9376</ele><time>2026-07-01T19:34:02.000Z</time></trkpt>
        <trkpt lat="29.338025" lon="103.46845"><ele>530.9205</ele><time>2026-07-01T19:34:04.000Z</time></trkpt>
        <trkpt lat="29.33802" lon="103.468425"><ele>530.88544</ele><time>2026-07-01T19:34:06.000Z</time></trkpt>
        <trkpt lat="29.338016" lon="103.468399"><ele>530.86163</ele><time>2026-07-01T19:34:08.000Z</time></trkpt>
        <trkpt lat="29.338011" lon="103.468371"><ele>530.7587</ele><time>2026-07-01T19:34:10.000Z</time></trkpt>
        <trkpt lat="29.338005" lon="103.468344"><ele>530.27094</ele><time>2026-07-01T19:34:12.000Z</time></trkpt>
        <trkpt lat="29.338" lon="103.468317"><ele>530.27094</ele><time>2026-07-01T19:34:14.000Z</time></trkpt>
        <trkpt lat="29.337996" lon="103.468295"><ele>530.19214</ele><time>2026-07-01T19:34:16.000Z</time></trkpt>
        <trkpt lat="29.337992" lon="103.468269"><ele>530.17334</ele><time>2026-07-01T19:34:18.000Z</time></trkpt>
        <trkpt lat="29.33799" lon="103.468242"><ele>530.19214</ele><time>2026-07-01T19:34:20.000Z</time></trkpt>
        <trkpt lat="29.337988" lon="103.468215"><ele>530.26074</ele><time>2026-07-01T19:34:22.000Z</time></trkpt>
        <trkpt lat="29.337984" lon="103.468188"><ele>530.26074</ele><time>2026-07-01T19:34:24.000Z</time></trkpt>
        <trkpt lat="29.337979" lon="103.468161"><ele>530.36383</ele><time>2026-07-01T19:34:26.000Z</time></trkpt>
        <trkpt lat="29.337975" lon="103.468136"><ele>530.36383</ele><time>2026-07-01T19:34:28.000Z</time></trkpt>
        <trkpt lat="29.337969" lon="103.468113"><ele>530.36383</ele><time>2026-07-01T19:34:30.000Z</time></trkpt>
        <trkpt lat="29.337964" lon="103.468089"><ele>530.18134</ele><time>2026-07-01T19:34:32.000Z</time></trkpt>
        <trkpt lat="29.337959" lon="103.468063"><ele>529.8083</ele><time>2026-07-01T19:34:34.000Z</time></trkpt>
        <trkpt lat="29.337956" lon="103.468036"><ele>529.52594</ele><time>2026-07-01T19:34:36.000Z</time></trkpt>
        <trkpt lat="29.337953" lon="103.468009"><ele>529.52594</ele><time>2026-07-01T19:34:38.000Z</time></trkpt>
        <trkpt lat="29.337949" lon="103.467982"><ele>529.52594</ele><time>2026-07-01T19:34:40.000Z</time></trkpt>
        <trkpt lat="29.337945" lon="103.467956"><ele>529.77734</ele><time>2026-07-01T19:34:42.000Z</time></trkpt>
        <trkpt lat="29.337939" lon="103.467928"><ele>529.99854</ele><time>2026-07-01T19:34:44.000Z</time></trkpt>
        <trkpt lat="29.337931" lon="103.467904"><ele>530.06604</ele><time>2026-07-01T19:34:46.000Z</time></trkpt>
        <trkpt lat="29.337924" lon="103.467879"><ele>530.36487</ele><time>2026-07-01T19:34:48.000Z</time></trkpt>
        <trkpt lat="29.337917" lon="103.467857"><ele>530.52264</ele><time>2026-07-01T19:34:50.000Z</time></trkpt>
        <trkpt lat="29.337911" lon="103.467833"><ele>530.52264</ele><time>2026-07-01T19:34:52.000Z</time></trkpt>
        <trkpt lat="29.337904" lon="103.467807"><ele>530.52264</ele><time>2026-07-01T19:34:54.000Z</time></trkpt>
        <trkpt lat="29.337897" lon="103.467782"><ele>530.26306</ele><time>2026-07-01T19:34:56.000Z</time></trkpt>
        <trkpt lat="29.33789" lon="103.467756"><ele>530.0194</ele><time>2026-07-01T19:34:58.000Z</time></trkpt>
        <trkpt lat="29.337883" lon="103.467731"><ele>529.8686</ele><time>2026-07-01T19:35:00.000Z</time></trkpt>
        <trkpt lat="29.337875" lon="103.467704"><ele>529.8333</ele><time>2026-07-01T19:35:02.000Z</time></trkpt>
        <trkpt lat="29.337868" lon="103.467679"><ele>529.6578</ele><time>2026-07-01T19:35:04.000Z</time></trkpt>
        <trkpt lat="29.337859" lon="103.467651"><ele>529.6578</ele><time>2026-07-01T19:35:06.000Z</time></trkpt>
        <trkpt lat="29.337851" lon="103.467626"><ele>529.6578</ele><time>2026-07-01T19:35:08.000Z</time></trkpt>
        <trkpt lat="29.337844" lon="103.467603"><ele>529.79974</ele><time>2026-07-01T19:35:10.000Z</time></trkpt>
        <trkpt lat="29.337838" lon="103.467579"><ele>530.0372</ele><time>2026-07-01T19:35:12.000Z</time></trkpt>
        <trkpt lat="29.337833" lon="103.467556"><ele>530.0372</ele><time>2026-07-01T19:35:14.000Z</time></trkpt>
        <trkpt lat="29.337828" lon="103.467532"><ele>530.0372</ele><time>2026-07-01T19:35:16.000Z</time></trkpt>
        <trkpt lat="29.337823" lon="103.467509"><ele>529.98016</ele><time>2026-07-01T19:35:18.000Z</time></trkpt>
        <trkpt lat="29.337818" lon="103.467484"><ele>529.8631</ele><time>2026-07-01T19:35:20.000Z</time></trkpt>
        <trkpt lat="29.337813" lon="103.467459"><ele>529.70636</ele><time>2026-07-01T19:35:22.000Z</time></trkpt>
        <trkpt lat="29.337808" lon="103.467433"><ele>529.42426</ele><time>2026-07-01T19:35:24.000Z</time></trkpt>
        <trkpt lat="29.337803" lon="103.467406"><ele>529.05725</ele><time>2026-07-01T19:35:26.000Z</time></trkpt>
        <trkpt lat="29.337797" lon="103.46738"><ele>528.89404</ele><time>2026-07-01T19:35:28.000Z</time></trkpt>
        <trkpt lat="29.337791" lon="103.467354"><ele>528.89404</ele><time>2026-07-01T19:35:30.000Z</time></trkpt>
        <trkpt lat="29.337784" lon="103.467326"><ele>528.89404</ele><time>2026-07-01T19:35:32.000Z</time></trkpt>
        <trkpt lat="29.337778" lon="103.467298"><ele>529.0136</ele><time>2026-07-01T19:35:34.000Z</time></trkpt>
        <trkpt lat="29.337772" lon="103.467273"><ele>529.128</ele><time>2026-07-01T19:35:36.000Z</time></trkpt>
        <trkpt lat="29.337765" lon="103.467249"><ele>529.128</ele><time>2026-07-01T19:35:38.000Z</time></trkpt>
        <trkpt lat="29.33776" lon="103.467226"><ele>529.128</ele><time>2026-07-01T19:35:40.000Z</time></trkpt>
        <trkpt lat="29.337754" lon="103.467201"><ele>528.98773</ele><time>2026-07-01T19:35:42.000Z</time></trkpt>
        <trkpt lat="29.337748" lon="103.467176"><ele>528.8528</ele><time>2026-07-01T19:35:44.000Z</time></trkpt>
        <trkpt lat="29.337741" lon="103.467149"><ele>528.8528</ele><time>2026-07-01T19:35:46.000Z</time></trkpt>
        <trkpt lat="29.337734" lon="103.467122"><ele>528.8528</ele><time>2026-07-01T19:35:48.000Z</time></trkpt>
        <trkpt lat="29.337727" lon="103.467096"><ele>529.1124</ele><time>2026-07-01T19:35:50.000Z</time></trkpt>
        <trkpt lat="29.337719" lon="103.467072"><ele>529.4029</ele><time>2026-07-01T19:35:52.000Z</time></trkpt>
        <trkpt lat="29.337713" lon="103.467048"><ele>529.52484</ele><time>2026-07-01T19:35:54.000Z</time></trkpt>
        <trkpt lat="29.337706" lon="103.467022"><ele>529.52484</ele><time>2026-07-01T19:35:56.000Z</time></trkpt>
        <trkpt lat="29.337698" lon="103.466998"><ele>529.52484</ele><time>2026-07-01T19:35:58.000Z</time></trkpt>
        <trkpt lat="29.337687" lon="103.466976"><ele>529.49426</ele><time>2026-07-01T19:36:00.000Z</time></trkpt>
        <trkpt lat="29.337674" lon="103.466954"><ele>529.37274</ele><time>2026-07-01T19:36:02.000Z</time></trkpt>
        <trkpt lat="29.337663" lon="103.466936"><ele>529.3532</ele><time>2026-07-01T19:36:04.000Z</time></trkpt>
        <trkpt lat="29.337652" lon="103.466915"><ele>529.1955</ele><time>2026-07-01T19:36:06.000Z</time></trkpt>
        <trkpt lat="29.337643" lon="103.466895"><ele>528.8905</ele><time>2026-07-01T19:36:08.000Z</time></trkpt>
        <trkpt lat="29.337639" lon="103.466881"><ele>528.86597</ele><time>2026-07-01T19:36:10.000Z</time></trkpt>
        <trkpt lat="29.337638" lon="103.466867"><ele>528.84515</ele><time>2026-07-01T19:36:12.000Z</time></trkpt>
        <trkpt lat="29.337636" lon="103.466852"><ele>528.7785</ele><time>2026-07-01T19:36:14.000Z</time></trkpt>
        <trkpt lat="29.337631" lon="103.466828"><ele>528.7785</ele><time>2026-07-01T19:36:16.000Z</time></trkpt>
        <trkpt lat="29.337624" lon="103.4668"><ele>528.7785</ele><time>2026-07-01T19:36:18.000Z</time></trkpt>
        <trkpt lat="29.337616" lon="103.466774"><ele>529.1027</ele><time>2026-07-01T19:36:20.000Z</time></trkpt>
        <trkpt lat="29.337609" lon="103.466747"><ele>529.4903</ele><time>2026-07-01T19:36:22.000Z</time></trkpt>
        <trkpt lat="29.337602" lon="103.466719"><ele>529.4903</ele><time>2026-07-01T19:36:24.000Z</time></trkpt>
        <trkpt lat="29.337592" lon="103.466692"><ele>529.4903</ele><time>2026-07-01T19:36:26.000Z</time></trkpt>
        <trkpt lat="29.337582" lon="103.466666"><ele>529.1814</ele><time>2026-07-01T19:36:28.000Z</time></trkpt>
        <trkpt lat="29.337572" lon="103.466641"><ele>529.0178</ele><time>2026-07-01T19:36:30.000Z</time></trkpt>
        <trkpt lat="29.337561" lon="103.466615"><ele>528.98553</ele><time>2026-07-01T19:36:32.000Z</time></trkpt>
        <trkpt lat="29.337551" lon="103.466588"><ele>528.9406</ele><time>2026-07-01T19:36:34.000Z</time></trkpt>
        <trkpt lat="29.337542" lon="103.466562"><ele>528.9406</ele><time>2026-07-01T19:36:36.000Z</time></trkpt>
        <trkpt lat="29.337533" lon="103.466539"><ele>528.6603</ele><time>2026-07-01T19:36:38.000Z</time></trkpt>
        <trkpt lat="29.337522" lon="103.466514"><ele>528.3436</ele><time>2026-07-01T19:36:40.000Z</time></trkpt>
        <trkpt lat="29.337511" lon="103.466491"><ele>528.0665</ele><time>2026-07-01T19:36:42.000Z</time></trkpt>
        <trkpt lat="29.337499" lon="103.466467"><ele>528.0665</ele><time>2026-07-01T19:36:44.000Z</time></trkpt>
        <trkpt lat="29.337491" lon="103.466446"><ele>528.0665</ele><time>2026-07-01T19:36:46.000Z</time></trkpt>
        <trkpt lat="29.337484" lon="103.466428"><ele>528.06586</ele><time>2026-07-01T19:36:48.000Z</time></trkpt>
        <trkpt lat="29.337475" lon="103.46641"><ele>528.06586</ele><time>2026-07-01T19:36:50.000Z</time></trkpt>
        <trkpt lat="29.337465" lon="103.466388"><ele>528.06586</ele><time>2026-07-01T19:36:52.000Z</time></trkpt>
        <trkpt lat="29.337455" lon="103.466366"><ele>528.0274</ele><time>2026-07-01T19:36:54.000Z</time></trkpt>
        <trkpt lat="29.337441" lon="103.46634"><ele>527.85394</ele><time>2026-07-01T19:36:56.000Z</time></trkpt>
        <trkpt lat="29.337427" lon="103.466317"><ele>527.7998</ele><time>2026-07-01T19:36:58.000Z</time></trkpt>
        <trkpt lat="29.337411" lon="103.466294"><ele>527.7671</ele><time>2026-07-01T19:37:00.000Z</time></trkpt>
        <trkpt lat="29.337395" lon="103.466272"><ele>527.75977</ele><time>2026-07-01T19:37:02.000Z</time></trkpt>
        <trkpt lat="29.337377" lon="103.466248"><ele>527.4445</ele><time>2026-07-01T19:37:04.000Z</time></trkpt>
        <trkpt lat="29.337362" lon="103.466224"><ele>527.4107</ele><time>2026-07-01T19:37:06.000Z</time></trkpt>
        <trkpt lat="29.337349" lon="103.466204"><ele>527.39056</ele><time>2026-07-01T19:37:08.000Z</time></trkpt>
        <trkpt lat="29.337337" lon="103.466184"><ele>527.3496</ele><time>2026-07-01T19:37:10.000Z</time></trkpt>
        <trkpt lat="29.337322" lon="103.466163"><ele>527.3318</ele><time>2026-07-01T19:37:12.000Z</time></trkpt>
        <trkpt lat="29.337306" lon="103.466142"><ele>527.2278</ele><time>2026-07-01T19:37:14.000Z</time></trkpt>
        <trkpt lat="29.337289" lon="103.466119"><ele>527.09076</ele><time>2026-07-01T19:37:16.000Z</time></trkpt>
        <trkpt lat="29.337274" lon="103.466096"><ele>527.0523</ele><time>2026-07-01T19:37:18.000Z</time></trkpt>
        <trkpt lat="29.337263" lon="103.466075"><ele>527.04346</ele><time>2026-07-01T19:37:20.000Z</time></trkpt>
        <trkpt lat="29.337252" lon="103.466054"><ele>527.04346</ele><time>2026-07-01T19:37:22.000Z</time></trkpt>
        <trkpt lat="29.337242" lon="103.466032"><ele>527.09076</ele><time>2026-07-01T19:37:24.000Z</time></trkpt>
        <trkpt lat="29.337232" lon="103.46601"><ele>527.12915</ele><time>2026-07-01T19:37:26.000Z</time></trkpt>
        <trkpt lat="29.337223" lon="103.465991"><ele>527.21063</ele><time>2026-07-01T19:37:28.000Z</time></trkpt>
        <trkpt lat="29.337218" lon="103.465978"><ele>527.23755</ele><time>2026-07-01T19:37:30.000Z</time></trkpt>
        <trkpt lat="29.337212" lon="103.465967"><ele>527.3092</ele><time>2026-07-01T19:37:32.000Z</time></trkpt>
        <trkpt lat="29.337204" lon="103.465947"><ele>527.5373</ele><time>2026-07-01T19:37:34.000Z</time></trkpt>
        <trkpt lat="29.337195" lon="103.465925"><ele>527.9006</ele><time>2026-07-01T19:37:36.000Z</time></trkpt>
        <trkpt lat="29.337184" lon="103.465901"><ele>528.29364</ele><time>2026-07-01T19:37:38.000Z</time></trkpt>
        <trkpt lat="29.337172" lon="103.465875"><ele>528.34406</ele><time>2026-07-01T19:37:40.000Z</time></trkpt>
        <trkpt lat="29.337157" lon="103.465848"><ele>528.37036</ele><time>2026-07-01T19:37:42.000Z</time></trkpt>
        <trkpt lat="29.337141" lon="103.465822"><ele>528.64954</ele><time>2026-07-01T19:37:44.000Z</time></trkpt>
        <trkpt lat="29.337127" lon="103.465799"><ele>528.64954</ele><time>2026-07-01T19:37:46.000Z</time></trkpt>
        <trkpt lat="29.337114" lon="103.465776"><ele>528.64954</ele><time>2026-07-01T19:37:48.000Z</time></trkpt>
        <trkpt lat="29.337103" lon="103.465754"><ele>528.59094</ele><time>2026-07-01T19:37:50.000Z</time></trkpt>
        <trkpt lat="29.337095" lon="103.465735"><ele>528.59094</ele><time>2026-07-01T19:37:52.000Z</time></trkpt>
        <trkpt lat="29.337088" lon="103.465716"><ele>528.59094</ele><time>2026-07-01T19:37:54.000Z</time></trkpt>
        <trkpt lat="29.337081" lon="103.465694"><ele>528.6691</ele><time>2026-07-01T19:37:56.000Z</time></trkpt>
        <trkpt lat="29.337076" lon="103.465669"><ele>528.8005</ele><time>2026-07-01T19:37:58.000Z</time></trkpt>
        <trkpt lat="29.337072" lon="103.465642"><ele>528.85236</ele><time>2026-07-01T19:38:00.000Z</time></trkpt>
        <trkpt lat="29.337069" lon="103.465615"><ele>528.92645</ele><time>2026-07-01T19:38:02.000Z</time></trkpt>
        <trkpt lat="29.337067" lon="103.465584"><ele>529.2002</ele><time>2026-07-01T19:38:04.000Z</time></trkpt>
        <trkpt lat="29.337065" lon="103.465552"><ele>529.23285</ele><time>2026-07-01T19:38:06.000Z</time></trkpt>
        <trkpt lat="29.337066" lon="103.465523"><ele>529.31</ele><time>2026-07-01T19:38:08.000Z</time></trkpt>
        <trkpt lat="29.337069" lon="103.465492"><ele>529.464</ele><time>2026-07-01T19:38:10.000Z</time></trkpt>
        <trkpt lat="29.337074" lon="103.465462"><ele>529.63074</ele><time>2026-07-01T19:38:12.000Z</time></trkpt>
        <trkpt lat="29.33708" lon="103.465433"><ele>529.9387</ele><time>2026-07-01T19:38:14.000Z</time></trkpt>
        <trkpt lat="29.33709" lon="103.465407"><ele>530.12646</ele><time>2026-07-01T19:38:16.000Z</time></trkpt>
        <trkpt lat="29.337103" lon="103.465386"><ele>530.37555</ele><time>2026-07-01T19:38:18.000Z</time></trkpt>
        <trkpt lat="29.337119" lon="103.46537"><ele>530.58795</ele><time>2026-07-01T19:38:20.000Z</time></trkpt>
        <trkpt lat="29.337139" lon="103.465354"><ele>531.13214</ele><time>2026-07-01T19:38:22.000Z</time></trkpt>
        <trkpt lat="29.337155" lon="103.465345"><ele>531.44806</ele><time>2026-07-01T19:38:24.000Z</time></trkpt>
        <trkpt lat="29.337172" lon="103.465342"><ele>531.72876</ele><time>2026-07-01T19:38:26.000Z</time></trkpt>
        <trkpt lat="29.337189" lon="103.46534"><ele>531.89325</ele><time>2026-07-01T19:38:28.000Z</time></trkpt>
        <trkpt lat="29.337207" lon="103.465341"><ele>532.02545</ele><time>2026-07-01T19:38:30.000Z</time></trkpt>
        <trkpt lat="29.337219" lon="103.465346"><ele>532.9277</ele><time>2026-07-01T19:38:32.000Z</time></trkpt>
        <trkpt lat="29.33723" lon="103.465354"><ele>533.84717</ele><time>2026-07-01T19:38:34.000Z</time></trkpt>
        <trkpt lat="29.337234" lon="103.465356"><ele>534.6187</ele><time>2026-07-01T19:38:36.000Z</time></trkpt>
        <trkpt lat="29.337261" lon="103.465378"><ele>535.26965</ele><time>2026-07-01T19:42:04.000Z</time></trkpt>
        <trkpt lat="29.337274" lon="103.46539"><ele>535.9571</ele><time>2026-07-01T19:42:06.000Z</time></trkpt>
        <trkpt lat="29.337274" lon="103.465391"><ele>540.5509</ele><time>2026-07-01T19:42:08.000Z</time></trkpt>
        <trkpt lat="29.337272" lon="103.465414"><ele>540.86017</ele><time>2026-07-01T19:42:12.000Z</time></trkpt>
        <trkpt lat="29.337273" lon="103.465432"><ele>540.86017</ele><time>2026-07-01T19:42:14.000Z</time></trkpt>
        <trkpt lat="29.337275" lon="103.46545"><ele>540.86017</ele><time>2026-07-01T19:42:16.000Z</time></trkpt>
        <trkpt lat="29.33728" lon="103.465457"><ele>540.82324</ele><time>2026-07-01T19:42:18.000Z</time></trkpt>
        <trkpt lat="29.33724" lon="103.465397"><ele>540.82324</ele><time>2026-07-01T19:42:44.000Z</time></trkpt>
        <trkpt lat="29.337241" lon="103.46536"><ele>540.82324</ele><time>2026-07-01T19:43:00.000Z</time></trkpt>
        <trkpt lat="29.337241" lon="103.46536"><ele>541.2391</ele><time>2026-07-01T19:43:15.000Z</time></trkpt>
        <trkpt lat="29.337235" lon="103.465368"><ele>542.0934</ele><time>2026-07-01T19:43:18.000Z</time></trkpt>
        <trkpt lat="29.33722" lon="103.465392"><ele>542.10724</ele><time>2026-07-01T19:43:24.000Z</time></trkpt>
        <trkpt lat="29.337217" lon="103.465399"><ele>542.10724</ele><time>2026-07-01T19:43:26.000Z</time></trkpt>
        <trkpt lat="29.337216" lon="103.465402"><ele>542.0934</ele><time>2026-07-01T19:43:28.000Z</time></trkpt>
        <trkpt lat="29.337201" lon="103.465453"><ele>542.0934</ele><time>2026-07-01T19:44:24.000Z</time></trkpt>
        <trkpt lat="29.337229" lon="103.465449"><ele>542.1774</ele><time>2026-07-01T19:44:56.000Z</time></trkpt>
        <trkpt lat="29.337258" lon="103.465445"><ele>542.02716</ele><time>2026-07-01T19:45:08.000Z</time></trkpt>
        <trkpt lat="29.337258" lon="103.465445"><ele>541.6328</ele><time>2026-07-01T19:45:10.000Z</time></trkpt>
        <trkpt lat="29.337197" lon="103.465461"><ele>541.6039</ele><time>2026-07-01T19:45:29.000Z</time></trkpt>
        <trkpt lat="29.337198" lon="103.46546"><ele>541.0968</ele><time>2026-07-01T19:45:38.000Z</time></trkpt>
        <trkpt lat="29.337198" lon="103.46546"><ele>541.0957</ele><time>2026-07-01T19:45:40.000Z</time></trkpt>
        <trkpt lat="29.337194" lon="103.465423"><ele>540.8946</ele><time>2026-07-01T19:45:44.000Z</time></trkpt>
        <trkpt lat="29.337188" lon="103.465395"><ele>540.89215</ele><time>2026-07-01T19:45:46.000Z</time></trkpt>
        <trkpt lat="29.337181" lon="103.465375"><ele>540.89215</ele><time>2026-07-01T19:45:48.000Z</time></trkpt>
        <trkpt lat="29.337175" lon="103.465364"><ele>540.8946</ele><time>2026-07-01T19:45:50.000Z</time></trkpt>
        <trkpt lat="29.337174" lon="103.465362"><ele>541.30597</ele><time>2026-07-01T19:45:52.000Z</time></trkpt>
        <trkpt lat="29.337227" lon="103.465445"><ele>541.30597</ele><time>2026-07-01T19:46:15.000Z</time></trkpt>
        <trkpt lat="29.337229" lon="103.465461"><ele>541.30597</ele><time>2026-07-01T19:46:30.000Z</time></trkpt>
        <trkpt lat="29.337233" lon="103.465484"><ele>540.9424</ele><time>2026-07-01T19:46:45.000Z</time></trkpt>
        <trkpt lat="29.337253" lon="103.465467"><ele>540.9424</ele><time>2026-07-01T19:47:31.000Z</time></trkpt>
        <trkpt lat="29.337239" lon="103.465501"><ele>540.9424</ele><time>2026-07-01T19:48:01.000Z</time></trkpt>
        <trkpt lat="29.337216" lon="103.465453"><ele>541.19275</ele><time>2026-07-01T19:48:08.000Z</time></trkpt>
        <trkpt lat="29.337216" lon="103.465453"><ele>541.7377</ele><time>2026-07-01T19:48:10.000Z</time></trkpt>
        <trkpt lat="29.337217" lon="103.46545"><ele>541.7377</ele><time>2026-07-01T19:48:12.000Z</time></trkpt>
        <trkpt lat="29.337223" lon="103.465406"><ele>541.7377</ele><time>2026-07-01T19:48:16.000Z</time></trkpt>
        <trkpt lat="29.337225" lon="103.465384"><ele>541.69305</ele><time>2026-07-01T19:48:18.000Z</time></trkpt>
        <trkpt lat="29.337224" lon="103.465374"><ele>541.4433</ele><time>2026-07-01T19:48:20.000Z</time></trkpt>
        <trkpt lat="29.337221" lon="103.465369"><ele>541.4195</ele><time>2026-07-01T19:48:22.000Z</time></trkpt>
        <trkpt lat="29.337199" lon="103.465329"><ele>541.4195</ele><time>2026-07-01T19:48:30.000Z</time></trkpt>
        <trkpt lat="29.337201" lon="103.46543"><ele>541.4433</ele><time>2026-07-01T19:48:59.000Z</time></trkpt>
        <trkpt lat="29.337201" lon="103.46543"><ele>542.5362</ele><time>2026-07-01T19:49:01.000Z</time></trkpt>
        <trkpt lat="29.3372" lon="103.46543"><ele>543.2855</ele><time>2026-07-01T19:49:03.000Z</time></trkpt>
        <trkpt lat="29.337264" lon="103.465395"><ele>543.2855</ele><time>2026-07-01T19:49:15.000Z</time></trkpt>
        <trkpt lat="29.337267" lon="103.465386"><ele>543.2855</ele><time>2026-07-01T19:49:17.000Z</time></trkpt>
        <trkpt lat="29.337278" lon="103.46538"><ele>542.38824</ele><time>2026-07-01T19:49:19.000Z</time></trkpt>
        <trkpt lat="29.337175" lon="103.465435"><ele>542.38824</ele><time>2026-07-01T19:49:45.000Z</time></trkpt>
        <trkpt lat="29.337176" lon="103.465435"><ele>542.38824</ele><time>2026-07-01T19:49:47.000Z</time></trkpt>
        <trkpt lat="29.337181" lon="103.465435"><ele>542.9218</ele><time>2026-07-01T19:49:49.000Z</time></trkpt>
        <trkpt lat="29.337243" lon="103.465433"><ele>542.9218</ele><time>2026-07-01T19:49:54.000Z</time></trkpt>
        <trkpt lat="29.337243" lon="103.465433"><ele>542.9218</ele><time>2026-07-01T19:49:56.000Z</time></trkpt>
        <trkpt lat="29.337243" lon="103.465433"><ele>542.2656</ele><time>2026-07-01T19:49:58.000Z</time></trkpt>
        <trkpt lat="29.33725" lon="103.465349"><ele>542.2648</ele><time>2026-07-01T19:50:17.000Z</time></trkpt>
        <trkpt lat="29.33725" lon="103.465349"><ele>542.2537</ele><time>2026-07-01T19:50:19.000Z</time></trkpt>
        <trkpt lat="29.337286" lon="103.465451"><ele>541.0625</ele><time>2026-07-01T19:50:27.000Z</time></trkpt>
        <trkpt lat="29.337286" lon="103.465451"><ele>541.0614</ele><time>2026-07-01T19:50:29.000Z</time></trkpt>
        <trkpt lat="29.337286" lon="103.465452"><ele>540.77966</ele><time>2026-07-01T19:50:31.000Z</time></trkpt>
        <trkpt lat="29.337283" lon="103.465402"><ele>540.77966</ele><time>2026-07-01T19:51:08.000Z</time></trkpt>
        <trkpt lat="29.337264" lon="103.465397"><ele>540.77966</ele><time>2026-07-01T19:51:30.000Z</time></trkpt>
        <trkpt lat="29.337301" lon="103.465408"><ele>542.1248</ele><time>2026-07-01T19:51:46.000Z</time></trkpt>
        <trkpt lat="29.337203" lon="103.465377"><ele>542.5148</ele><time>2026-07-01T19:52:03.000Z</time></trkpt>
        <trkpt lat="29.337203" lon="103.465377"><ele>543.02466</ele><time>2026-07-01T19:52:05.000Z</time></trkpt>
        <trkpt lat="29.337171" lon="103.465307"><ele>543.0261</ele><time>2026-07-01T19:52:10.000Z</time></trkpt>
        <trkpt lat="29.337171" lon="103.465307"><ele>543.2264</ele><time>2026-07-01T19:52:12.000Z</time></trkpt>
        <trkpt lat="29.337172" lon="103.465307"><ele>543.2264</ele><time>2026-07-01T19:52:14.000Z</time></trkpt>
        <trkpt lat="29.337202" lon="103.4653"><ele>543.2294</ele><time>2026-07-01T19:52:22.000Z</time></trkpt>
        <trkpt lat="29.337204" lon="103.4653"><ele>543.2875</ele><time>2026-07-01T19:52:24.000Z</time></trkpt>
        <trkpt lat="29.337204" lon="103.4653"><ele>544.74536</ele><time>2026-07-01T19:52:26.000Z</time></trkpt>
        <trkpt lat="29.337208" lon="103.465339"><ele>544.74536</ele><time>2026-07-01T19:52:43.000Z</time></trkpt>
        <trkpt lat="29.337208" lon="103.465343"><ele>544.74536</ele><time>2026-07-01T19:52:45.000Z</time></trkpt>
        <trkpt lat="29.337207" lon="103.465346"><ele>544.2763</ele><time>2026-07-01T19:52:47.000Z</time></trkpt>
        <trkpt lat="29.337224" lon="103.4653"><ele>544.09454</ele><time>2026-07-01T19:53:33.000Z</time></trkpt>
        <trkpt lat="29.337224" lon="103.4653"><ele>543.9668</ele><time>2026-07-01T19:53:35.000Z</time></trkpt>
        <trkpt lat="29.337225" lon="103.465299"><ele>541.8274</ele><time>2026-07-01T19:53:37.000Z</time></trkpt>
        <trkpt lat="29.337194" lon="103.465312"><ele>541.8274</ele><time>2026-07-01T19:53:53.000Z</time></trkpt>
        <trkpt lat="29.337225" lon="103.46537"><ele>541.8274</ele><time>2026-07-01T19:54:10.000Z</time></trkpt>
        <trkpt lat="29.337208" lon="103.465374"><ele>542.4543</ele><time>2026-07-01T19:54:08.000Z</time></trkpt>
        <trkpt lat="29.337243" lon="103.465406"><ele>542.4543</ele><time>2026-07-01T19:54:14.000Z</time></trkpt>
        <trkpt lat="29.337243" lon="103.465406"><ele>542.4543</ele><time>2026-07-01T19:54:16.000Z</time></trkpt>
        <trkpt lat="29.337243" lon="103.465406"><ele>541.33295</ele><time>2026-07-01T19:54:18.000Z</time></trkpt>
        <trkpt lat="29.337276" lon="103.465327"><ele>541.33295</ele><time>2026-07-01T19:55:24.000Z</time></trkpt>
        <trkpt lat="29.337262" lon="103.465317"><ele>541.33295</ele><time>2026-07-01T19:55:26.000Z</time></trkpt>
        <trkpt lat="29.337262" lon="103.465317"><ele>543.1193</ele><time>2026-07-01T19:55:28.000Z</time></trkpt>
        <trkpt lat="29.337243" lon="103.465378"><ele>543.1193</ele><time>2026-07-01T19:56:02.000Z</time></trkpt>
        <trkpt lat="29.337242" lon="103.465376"><ele>543.1193</ele><time>2026-07-01T19:56:18.000Z</time></trkpt>
        <trkpt lat="29.337236" lon="103.46536"><ele>542.494</ele><time>2026-07-01T19:56:32.000Z</time></trkpt>
        <trkpt lat="29.337215" lon="103.465403"><ele>542.494</ele><time>2026-07-01T19:58:18.000Z</time></trkpt>
        <trkpt lat="29.337216" lon="103.465409"><ele>542.494</ele><time>2026-07-01T19:58:20.000Z</time></trkpt>
        <trkpt lat="29.337222" lon="103.465412"><ele>542.7096</ele><time>2026-07-01T19:58:22.000Z</time></trkpt>
        <trkpt lat="29.337258" lon="103.465416"><ele>542.7096</ele><time>2026-07-01T19:58:30.000Z</time></trkpt>
        <trkpt lat="29.337272" lon="103.46541"><ele>542.7096</ele><time>2026-07-01T19:58:32.000Z</time></trkpt>
        <trkpt lat="29.337277" lon="103.465399"><ele>542.2891</ele><time>2026-07-01T19:58:34.000Z</time></trkpt>
        <trkpt lat="29.337284" lon="103.465385"><ele>541.9455</ele><time>2026-07-01T19:58:36.000Z</time></trkpt>
        <trkpt lat="29.33725" lon="103.465384"><ele>541.6813</ele><time>2026-07-01T19:58:39.000Z</time></trkpt>
        <trkpt lat="29.33724" lon="103.465377"><ele>541.6415</ele><time>2026-07-01T19:58:41.000Z</time></trkpt>
        <trkpt lat="29.337235" lon="103.465368"><ele>541.5991</ele><time>2026-07-01T19:58:43.000Z</time></trkpt>
        <trkpt lat="29.33723" lon="103.465355"><ele>541.54706</ele><time>2026-07-01T19:58:45.000Z</time></trkpt>
        <trkpt lat="29.337224" lon="103.46534"><ele>541.2824</ele><time>2026-07-01T19:58:49.000Z</time></trkpt>
        <trkpt lat="29.337221" lon="103.465332"><ele>541.2824</ele><time>2026-07-01T19:58:51.000Z</time></trkpt>
        <trkpt lat="29.337248" lon="103.465397"><ele>541.2824</ele><time>2026-07-01T19:59:25.000Z</time></trkpt>
        <trkpt lat="29.337259" lon="103.465373"><ele>541.40515</ele><time>2026-07-01T19:59:41.000Z</time></trkpt>
        <trkpt lat="29.337268" lon="103.465354"><ele>541.67096</ele><time>2026-07-01T19:59:48.000Z</time></trkpt>
        <trkpt lat="29.337269" lon="103.465354"><ele>541.9985</ele><time>2026-07-01T19:59:50.000Z</time></trkpt>
        <trkpt lat="29.337228" lon="103.465349"><ele>542.68494</ele><time>2026-07-01T20:00:00.000Z</time></trkpt>
        <trkpt lat="29.337228" lon="103.465349"><ele>542.71106</ele><time>2026-07-01T20:00:02.000Z</time></trkpt>
        <trkpt lat="29.337228" lon="103.465349"><ele>542.71106</ele><time>2026-07-01T20:00:04.000Z</time></trkpt>
        <trkpt lat="29.337208" lon="103.465322"><ele>542.71106</ele><time>2026-07-01T20:00:40.000Z</time></trkpt>
        <trkpt lat="29.337174" lon="103.465338"><ele>542.71106</ele><time>2026-07-01T20:00:56.000Z</time></trkpt>
        <trkpt lat="29.337198" lon="103.46532"><ele>542.9954</ele><time>2026-07-01T20:01:12.000Z</time></trkpt>
        <trkpt lat="29.337221" lon="103.465354"><ele>544.5411</ele><time>2026-07-01T20:02:32.000Z</time></trkpt>
        <trkpt lat="29.337232" lon="103.46537"><ele>544.5411</ele><time>2026-07-01T20:02:48.000Z</time></trkpt>
        <trkpt lat="29.337218" lon="103.465354"><ele>544.5411</ele><time>2026-07-01T20:03:04.000Z</time></trkpt>
        <trkpt lat="29.337196" lon="103.465328"><ele>544.4331</ele><time>2026-07-01T20:04:40.000Z</time></trkpt>
        <trkpt lat="29.337195" lon="103.465326"><ele>544.1468</ele><time>2026-07-01T20:04:42.000Z</time></trkpt>
        <trkpt lat="29.337195" lon="103.465326"><ele>543.3412</ele><time>2026-07-01T20:04:44.000Z</time></trkpt>
        <trkpt lat="29.337144" lon="103.465296"><ele>543.3412</ele><time>2026-07-01T20:05:07.000Z</time></trkpt>
        <trkpt lat="29.337144" lon="103.465296"><ele>543.3412</ele><time>2026-07-01T20:05:09.000Z</time></trkpt>
        <trkpt lat="29.337144" lon="103.465296"><ele>544.2273</ele><time>2026-07-01T20:05:11.000Z</time></trkpt>
        <trkpt lat="29.337174" lon="103.465273"><ele>544.2502</ele><time>2026-07-01T20:05:25.000Z</time></trkpt>
        <trkpt lat="29.337179" lon="103.465267"><ele>544.2514</ele><time>2026-07-01T20:05:27.000Z</time></trkpt>
        <trkpt lat="29.337183" lon="103.465261"><ele>544.5611</ele><time>2026-07-01T20:05:29.000Z</time></trkpt>
        <trkpt lat="29.337152" lon="103.465305"><ele>544.5611</ele><time>2026-07-01T20:06:42.000Z</time></trkpt>
        <trkpt lat="29.337149" lon="103.465309"><ele>544.5611</ele><time>2026-07-01T20:06:44.000Z</time></trkpt>
        <trkpt lat="29.337149" lon="103.465309"><ele>543.9704</ele><time>2026-07-01T20:06:46.000Z</time></trkpt>
        <trkpt lat="29.337171" lon="103.465343"><ele>543.6207</ele><time>2026-07-01T20:07:53.000Z</time></trkpt>
        <trkpt lat="29.337143" lon="103.465343"><ele>543.22974</ele><time>2026-07-01T20:07:55.000Z</time></trkpt>
        <trkpt lat="29.337115" lon="103.465356"><ele>540.46375</ele><time>2026-07-01T20:07:57.000Z</time></trkpt>
        <trkpt lat="29.337052" lon="103.465383"><ele>540.2085</ele><time>2026-07-01T20:08:04.000Z</time></trkpt>
        <trkpt lat="29.337052" lon="103.465383"><ele>540.05304</ele><time>2026-07-01T20:08:06.000Z</time></trkpt>
        <trkpt lat="29.337052" lon="103.465383"><ele>539.9162</ele><time>2026-07-01T20:08:08.000Z</time></trkpt>
        <trkpt lat="29.337133" lon="103.465375"><ele>539.9162</ele><time>2026-07-01T20:08:25.000Z</time></trkpt>
        <trkpt lat="29.337133" lon="103.465375"><ele>539.9162</ele><time>2026-07-01T20:08:27.000Z</time></trkpt>
        <trkpt lat="29.337136" lon="103.465374"><ele>542.5853</ele><time>2026-07-01T20:08:29.000Z</time></trkpt>
        <trkpt lat="29.337167" lon="103.465359"><ele>542.5853</ele><time>2026-07-01T20:08:33.000Z</time></trkpt>
        <trkpt lat="29.337181" lon="103.465352"><ele>542.5853</ele><time>2026-07-01T20:08:35.000Z</time></trkpt>
        <trkpt lat="29.337191" lon="103.465349"><ele>541.90314</ele><time>2026-07-01T20:08:37.000Z</time></trkpt>
        <trkpt lat="29.337201" lon="103.465347"><ele>541.5646</ele><time>2026-07-01T20:08:39.000Z</time></trkpt>
        <trkpt lat="29.337212" lon="103.465346"><ele>541.3539</ele><time>2026-07-01T20:08:45.000Z</time></trkpt>
        <trkpt lat="29.337216" lon="103.465337"><ele>541.3483</ele><time>2026-07-01T20:09:39.000Z</time></trkpt>
        <trkpt lat="29.337222" lon="103.465337"><ele>541.3483</ele><time>2026-07-01T20:09:54.000Z</time></trkpt>
        <trkpt lat="29.337165" lon="103.46533"><ele>541.3483</ele><time>2026-07-01T20:10:25.000Z</time></trkpt>
        <trkpt lat="29.337149" lon="103.465349"><ele>542.3159</ele><time>2026-07-01T20:10:41.000Z</time></trkpt>
        <trkpt lat="29.337167" lon="103.46537"><ele>542.569</ele><time>2026-07-01T20:10:57.000Z</time></trkpt>
        <trkpt lat="29.337188" lon="103.465359"><ele>542.9769</ele><time>2026-07-01T20:11:13.000Z</time></trkpt>
        <trkpt lat="29.337194" lon="103.465355"><ele>543.04224</ele><time>2026-07-01T20:11:26.000Z</time></trkpt>
        <trkpt lat="29.337208" lon="103.46533"><ele>543.1239</ele><time>2026-07-01T20:12:21.000Z</time></trkpt>
        <trkpt lat="29.337209" lon="103.465331"><ele>543.1239</ele><time>2026-07-01T20:12:37.000Z</time></trkpt>
        <trkpt lat="29.337188" lon="103.465287"><ele>543.66156</ele><time>2026-07-01T20:13:34.000Z</time></trkpt>
        <trkpt lat="29.337188" lon="103.465287"><ele>544.4905</ele><time>2026-07-01T20:13:36.000Z</time></trkpt>
        <trkpt lat="29.337188" lon="103.465286"><ele>546.29266</ele><time>2026-07-01T20:13:38.000Z</time></trkpt>
        <trkpt lat="29.337171" lon="103.465253"><ele>546.2957</ele><time>2026-07-01T20:13:41.000Z</time></trkpt>
        <trkpt lat="29.33717" lon="103.465252"><ele>546.40906</ele><time>2026-07-01T20:13:43.000Z</time></trkpt>
        <trkpt lat="29.33717" lon="103.465252"><ele>547.8414</ele><time>2026-07-01T20:13:45.000Z</time></trkpt>
        <trkpt lat="29.337154" lon="103.465295"><ele>547.851</ele><time>2026-07-01T20:13:51.000Z</time></trkpt>
        <trkpt lat="29.337147" lon="103.465305"><ele>547.85175</ele><time>2026-07-01T20:13:53.000Z</time></trkpt>
        <trkpt lat="29.337134" lon="103.465315"><ele>548.03766</ele><time>2026-07-01T20:13:55.000Z</time></trkpt>
        <trkpt lat="29.337113" lon="103.465324"><ele>548.03766</ele><time>2026-07-01T20:13:57.000Z</time></trkpt>
        <trkpt lat="29.337086" lon="103.465331"><ele>548.03766</ele><time>2026-07-01T20:13:59.000Z</time></trkpt>
        <trkpt lat="29.337057" lon="103.465338"><ele>547.90564</ele><time>2026-07-01T20:14:01.000Z</time></trkpt>
        <trkpt lat="29.337031" lon="103.465346"><ele>547.37006</ele><time>2026-07-01T20:14:03.000Z</time></trkpt>
        <trkpt lat="29.337012" lon="103.465356"><ele>546.75214</ele><time>2026-07-01T20:14:06.000Z</time></trkpt>
        <trkpt lat="29.337006" lon="103.465362"><ele>546.4414</ele><time>2026-07-01T20:14:08.000Z</time></trkpt>
        <trkpt lat="29.337003" lon="103.465364"><ele>546.20984</ele><time>2026-07-01T20:14:10.000Z</time></trkpt>
        <trkpt lat="29.337042" lon="103.465342"><ele>546.20984</ele><time>2026-07-01T20:14:20.000Z</time></trkpt>
        <trkpt lat="29.33714" lon="103.465288"><ele>546.1381</ele><time>2026-07-01T20:14:27.000Z</time></trkpt>
        <trkpt lat="29.33714" lon="103.465288"><ele>546.13544</ele><time>2026-07-01T20:14:29.000Z</time></trkpt>
        <trkpt lat="29.337141" lon="103.465286"><ele>544.26306</ele><time>2026-07-01T20:14:31.000Z</time></trkpt>
        <trkpt lat="29.337151" lon="103.465252"><ele>544.26013</ele><time>2026-07-01T20:14:35.000Z</time></trkpt>
        <trkpt lat="29.337158" lon="103.465227"><ele>544.0948</ele><time>2026-07-01T20:14:37.000Z</time></trkpt>
        <trkpt lat="29.337166" lon="103.4652"><ele>542.64984</ele><time>2026-07-01T20:14:39.000Z</time></trkpt>
        <trkpt lat="29.337176" lon="103.465173"><ele>541.99786</ele><time>2026-07-01T20:14:41.000Z</time></trkpt>
        <trkpt lat="29.337185" lon="103.465146"><ele>541.5372</ele><time>2026-07-01T20:14:43.000Z</time></trkpt>
        <trkpt lat="29.337192" lon="103.465122"><ele>541.1728</ele><time>2026-07-01T20:14:45.000Z</time></trkpt>
        <trkpt lat="29.337197" lon="103.465097"><ele>541.13165</ele><time>2026-07-01T20:14:47.000Z</time></trkpt>
        <trkpt lat="29.337201" lon="103.465071"><ele>541.06555</ele><time>2026-07-01T20:14:49.000Z</time></trkpt>
        <trkpt lat="29.337206" lon="103.465046"><ele>541.06555</ele><time>2026-07-01T20:14:51.000Z</time></trkpt>
        <trkpt lat="29.337212" lon="103.46502"><ele>541.06555</ele><time>2026-07-01T20:14:53.000Z</time></trkpt>
        <trkpt lat="29.337221" lon="103.464996"><ele>541.0731</ele><time>2026-07-01T20:14:55.000Z</time></trkpt>
        <trkpt lat="29.337232" lon="103.464974"><ele>541.1425</ele><time>2026-07-01T20:14:57.000Z</time></trkpt>
        <trkpt lat="29.337241" lon="103.464954"><ele>541.3861</ele><time>2026-07-01T20:14:59.000Z</time></trkpt>
        <trkpt lat="29.337248" lon="103.46494"><ele>541.883</ele><time>2026-07-01T20:15:01.000Z</time></trkpt>
        <trkpt lat="29.337257" lon="103.464923"><ele>542.30994</ele><time>2026-07-01T20:15:03.000Z</time></trkpt>
        <trkpt lat="29.337269" lon="103.464905"><ele>542.5477</ele><time>2026-07-01T20:15:05.000Z</time></trkpt>
        <trkpt lat="29.337282" lon="103.464887"><ele>542.6015</ele><time>2026-07-01T20:15:07.000Z</time></trkpt>
        <trkpt lat="29.337296" lon="103.464866"><ele>542.6015</ele><time>2026-07-01T20:15:09.000Z</time></trkpt>
        <trkpt lat="29.337309" lon="103.464842"><ele>542.6015</ele><time>2026-07-01T20:15:11.000Z</time></trkpt>
        <trkpt lat="29.33732" lon="103.464821"><ele>542.58636</ele><time>2026-07-01T20:15:13.000Z</time></trkpt>
        <trkpt lat="29.33733" lon="103.464801"><ele>542.56506</ele><time>2026-07-01T20:15:15.000Z</time></trkpt>
        <trkpt lat="29.33734" lon="103.464787"><ele>542.4715</ele><time>2026-07-01T20:15:17.000Z</time></trkpt>
        <trkpt lat="29.33735" lon="103.464774"><ele>542.4715</ele><time>2026-07-01T20:15:19.000Z</time></trkpt>
        <trkpt lat="29.337362" lon="103.464762"><ele>542.4715</ele><time>2026-07-01T20:15:21.000Z</time></trkpt>
        <trkpt lat="29.337375" lon="103.464748"><ele>542.614</ele><time>2026-07-01T20:15:23.000Z</time></trkpt>
        <trkpt lat="29.33739" lon="103.464734"><ele>543.14685</ele><time>2026-07-01T20:15:24.000Z</time></trkpt>
        <trkpt lat="29.337405" lon="103.464721"><ele>543.5801</ele><time>2026-07-01T20:15:26.000Z</time></trkpt>
        <trkpt lat="29.33742" lon="103.464706"><ele>544.05646</ele><time>2026-07-01T20:15:28.000Z</time></trkpt>
        <trkpt lat="29.337435" lon="103.464691"><ele>544.5132</ele><time>2026-07-01T20:15:30.000Z</time></trkpt>
        <trkpt lat="29.337451" lon="103.464675"><ele>544.9008</ele><time>2026-07-01T20:15:32.000Z</time></trkpt>
        <trkpt lat="29.337467" lon="103.46466"><ele>545.1606</ele><time>2026-07-01T20:15:34.000Z</time></trkpt>
        <trkpt lat="29.337481" lon="103.464648"><ele>545.2458</ele><time>2026-07-01T20:15:36.000Z</time></trkpt>
        <trkpt lat="29.337497" lon="103.464634"><ele>545.5542</ele><time>2026-07-01T20:15:38.000Z</time></trkpt>
        <trkpt lat="29.337515" lon="103.464621"><ele>545.9883</ele><time>2026-07-01T20:15:40.000Z</time></trkpt>
        <trkpt lat="29.337532" lon="103.464608"><ele>545.9883</ele><time>2026-07-01T20:15:42.000Z</time></trkpt>
        <trkpt lat="29.337549" lon="103.464593"><ele>545.9883</ele><time>2026-07-01T20:15:44.000Z</time></trkpt>
        <trkpt lat="29.337566" lon="103.464578"><ele>545.8186</ele><time>2026-07-01T20:15:46.000Z</time></trkpt>
        <trkpt lat="29.337585" lon="103.464564"><ele>545.36505</ele><time>2026-07-01T20:15:48.000Z</time></trkpt>
        <trkpt lat="29.337605" lon="103.464549"><ele>545.1787</ele><time>2026-07-01T20:15:50.000Z</time></trkpt>
        <trkpt lat="29.337616" lon="103.464538"><ele>544.8461</ele><time>2026-07-01T20:15:52.000Z</time></trkpt>
        <trkpt lat="29.337621" lon="103.464531"><ele>544.52515</ele><time>2026-07-01T20:15:54.000Z</time></trkpt>
        <trkpt lat="29.337627" lon="103.464517"><ele>544.16754</ele><time>2026-07-01T20:16:01.000Z</time></trkpt>
        <trkpt lat="29.337634" lon="103.464486"><ele>543.5401</ele><time>2026-07-01T20:16:07.000Z</time></trkpt>
        <trkpt lat="29.337637" lon="103.464449"><ele>542.40436</ele><time>2026-07-01T20:16:09.000Z</time></trkpt>
        <trkpt lat="29.33765" lon="103.46429"><ele>542.40436</ele><time>2026-07-01T20:16:18.000Z</time></trkpt>
        <trkpt lat="29.33765" lon="103.46429"><ele>542.40436</ele><time>2026-07-01T20:16:20.000Z</time></trkpt>
        <trkpt lat="29.337653" lon="103.464286"><ele>542.7321</ele><time>2026-07-01T20:16:22.000Z</time></trkpt>
        <trkpt lat="29.337693" lon="103.464238"><ele>542.7369</ele><time>2026-07-01T20:16:26.000Z</time></trkpt>
        <trkpt lat="29.33772" lon="103.464209"><ele>542.87897</ele><time>2026-07-01T20:16:28.000Z</time></trkpt>
        <trkpt lat="29.337747" lon="103.464182"><ele>544.0919</ele><time>2026-07-01T20:16:30.000Z</time></trkpt>
        <trkpt lat="29.337763" lon="103.464166"><ele>544.0919</ele><time>2026-07-01T20:16:32.000Z</time></trkpt>
        <trkpt lat="29.337769" lon="103.46416"><ele>544.0919</ele><time>2026-07-01T20:16:34.000Z</time></trkpt>
        <trkpt lat="29.337796" lon="103.464133"><ele>543.98724</ele><time>2026-07-01T20:16:45.000Z</time></trkpt>
        <trkpt lat="29.337796" lon="103.464133"><ele>543.6076</ele><time>2026-07-01T20:16:47.000Z</time></trkpt>
        <trkpt lat="29.337799" lon="103.46413"><ele>542.8175</ele><time>2026-07-01T20:16:49.000Z</time></trkpt>
        <trkpt lat="29.337826" lon="103.464109"><ele>542.8175</ele><time>2026-07-01T20:16:53.000Z</time></trkpt>
        <trkpt lat="29.337843" lon="103.464096"><ele>542.8175</ele><time>2026-07-01T20:16:55.000Z</time></trkpt>
        <trkpt lat="29.337862" lon="103.464081"><ele>543.17566</ele><time>2026-07-01T20:16:57.000Z</time></trkpt>
        <trkpt lat="29.33788" lon="103.464067"><ele>543.3788</ele><time>2026-07-01T20:16:59.000Z</time></trkpt>
        <trkpt lat="29.337898" lon="103.464054"><ele>543.8304</ele><time>2026-07-01T20:17:00.000Z</time></trkpt>
        <trkpt lat="29.337915" lon="103.46404"><ele>544.15027</ele><time>2026-07-01T20:17:02.000Z</time></trkpt>
        <trkpt lat="29.337929" lon="103.464027"><ele>544.4188</ele><time>2026-07-01T20:17:04.000Z</time></trkpt>
        <trkpt lat="29.337942" lon="103.464014"><ele>544.4188</ele><time>2026-07-01T20:17:06.000Z</time></trkpt>
        <trkpt lat="29.337955" lon="103.464002"><ele>544.4188</ele><time>2026-07-01T20:17:08.000Z</time></trkpt>
        <trkpt lat="29.337969" lon="103.463992"><ele>544.3672</ele><time>2026-07-01T20:17:10.000Z</time></trkpt>
        <trkpt lat="29.337979" lon="103.463983"><ele>544.3672</ele><time>2026-07-01T20:17:12.000Z</time></trkpt>
        <trkpt lat="29.337991" lon="103.463972"><ele>544.3672</ele><time>2026-07-01T20:17:14.000Z</time></trkpt>
        <trkpt lat="29.338005" lon="103.46396"><ele>544.58875</ele><time>2026-07-01T20:17:16.000Z</time></trkpt>
        <trkpt lat="29.338019" lon="103.463948"><ele>544.5904</ele><time>2026-07-01T20:17:18.000Z</time></trkpt>
        <trkpt lat="29.338034" lon="103.463934"><ele>544.59827</ele><time>2026-07-01T20:17:20.000Z</time></trkpt>
        <trkpt lat="29.338047" lon="103.463919"><ele>544.59827</ele><time>2026-07-01T20:17:22.000Z</time></trkpt>
        <trkpt lat="29.338063" lon="103.463902"><ele>544.59827</ele><time>2026-07-01T20:17:24.000Z</time></trkpt>
        <trkpt lat="29.338079" lon="103.463887"><ele>544.59827</ele><time>2026-07-01T20:17:26.000Z</time></trkpt>
        <trkpt lat="29.338094" lon="103.463873"><ele>544.4437</ele><time>2026-07-01T20:17:28.000Z</time></trkpt>
        <trkpt lat="29.338108" lon="103.463862"><ele>544.3581</ele><time>2026-07-01T20:17:30.000Z</time></trkpt>
        <trkpt lat="29.338122" lon="103.463851"><ele>544.3581</ele><time>2026-07-01T20:17:32.000Z</time></trkpt>
        <trkpt lat="29.338133" lon="103.46384"><ele>544.3581</ele><time>2026-07-01T20:17:34.000Z</time></trkpt>
        <trkpt lat="29.338141" lon="103.463835"><ele>544.6424</ele><time>2026-07-01T20:17:36.000Z</time></trkpt>
        <trkpt lat="29.338153" lon="103.463828"><ele>545.2667</ele><time>2026-07-01T20:17:40.000Z</time></trkpt>
        <trkpt lat="29.338166" lon="103.463819"><ele>545.9621</ele><time>2026-07-01T20:17:42.000Z</time></trkpt>
        <trkpt lat="29.338182" lon="103.46381"><ele>547.62274</ele><time>2026-07-01T20:17:44.000Z</time></trkpt>
        <trkpt lat="29.338202" lon="103.463798"><ele>548.51575</ele><time>2026-07-01T20:17:46.000Z</time></trkpt>
        <trkpt lat="29.338224" lon="103.463787"><ele>549.2158</ele><time>2026-07-01T20:17:48.000Z</time></trkpt>
        <trkpt lat="29.338245" lon="103.463775"><ele>550.0078</ele><time>2026-07-01T20:17:50.000Z</time></trkpt>
        <trkpt lat="29.338269" lon="103.463765"><ele>550.7336</ele><time>2026-07-01T20:17:52.000Z</time></trkpt>
        <trkpt lat="29.338291" lon="103.463759"><ele>551.517</ele><time>2026-07-01T20:17:54.000Z</time></trkpt>
        <trkpt lat="29.338306" lon="103.463746"><ele>552.27026</ele><time>2026-07-01T20:17:56.000Z</time></trkpt>
        <trkpt lat="29.33832" lon="103.463726"><ele>552.8358</ele><time>2026-07-01T20:17:58.000Z</time></trkpt>
        <trkpt lat="29.338332" lon="103.463703"><ele>552.8485</ele><time>2026-07-01T20:18:00.000Z</time></trkpt>
        <trkpt lat="29.338344" lon="103.463679"><ele>552.8485</ele><time>2026-07-01T20:18:02.000Z</time></trkpt>
        <trkpt lat="29.338356" lon="103.463656"><ele>552.8358</ele><time>2026-07-01T20:18:04.000Z</time></trkpt>
        <trkpt lat="29.338368" lon="103.463637"><ele>552.50024</ele><time>2026-07-01T20:18:06.000Z</time></trkpt>
        <trkpt lat="29.33838" lon="103.463623"><ele>552.3274</ele><time>2026-07-01T20:18:08.000Z</time></trkpt>
        <trkpt lat="29.338395" lon="103.463614"><ele>551.9048</ele><time>2026-07-01T20:18:10.000Z</time></trkpt>
        <trkpt lat="29.338413" lon="103.463606"><ele>551.77814</ele><time>2026-07-01T20:18:12.000Z</time></trkpt>
        <trkpt lat="29.338432" lon="103.4636"><ele>551.1836</ele><time>2026-07-01T20:18:14.000Z</time></trkpt>
        <trkpt lat="29.338452" lon="103.463592"><ele>550.9701</ele><time>2026-07-01T20:18:16.000Z</time></trkpt>
        <trkpt lat="29.33847" lon="103.463581"><ele>550.9701</ele><time>2026-07-01T20:18:18.000Z</time></trkpt>
        <trkpt lat="29.338492" lon="103.463571"><ele>550.9701</ele><time>2026-07-01T20:18:20.000Z</time></trkpt>
        <trkpt lat="29.338508" lon="103.463566"><ele>551.0948</ele><time>2026-07-01T20:18:22.000Z</time></trkpt>
        <trkpt lat="29.338522" lon="103.463565"><ele>551.63727</ele><time>2026-07-01T20:18:24.000Z</time></trkpt>
        <trkpt lat="29.33853" lon="103.463564"><ele>552.4753</ele><time>2026-07-01T20:18:26.000Z</time></trkpt>
        <trkpt lat="29.338542" lon="103.46356"><ele>553.614</ele><time>2026-07-01T20:18:28.000Z</time></trkpt>
        <trkpt lat="29.338552" lon="103.463556"><ele>555.1297</ele><time>2026-07-01T20:18:30.000Z</time></trkpt>
        <trkpt lat="29.338567" lon="103.463546"><ele>555.92175</ele><time>2026-07-01T20:18:32.000Z</time></trkpt>
        <trkpt lat="29.338582" lon="103.463541"><ele>556.52704</ele><time>2026-07-01T20:18:34.000Z</time></trkpt>
        <trkpt lat="29.33861" lon="103.46354"><ele>557.537</ele><time>2026-07-01T20:18:36.000Z</time></trkpt>
        <trkpt lat="29.338641" lon="103.463543"><ele>558.64484</ele><time>2026-07-01T20:18:38.000Z</time></trkpt>
        <trkpt lat="29.338666" lon="103.463548"><ele>560.10394</ele><time>2026-07-01T20:18:40.000Z</time></trkpt>
        <trkpt lat="29.338681" lon="103.463548"><ele>561.4363</ele><time>2026-07-01T20:18:42.000Z</time></trkpt>
        <trkpt lat="29.338682" lon="103.463544"><ele>562.7123</ele><time>2026-07-01T20:18:44.000Z</time></trkpt>
        <trkpt lat="29.338693" lon="103.463498"><ele>563.832</ele><time>2026-07-01T20:18:52.000Z</time></trkpt>
        <trkpt lat="29.338696" lon="103.463485"><ele>564.3113</ele><time>2026-07-01T20:18:54.000Z</time></trkpt>
        <trkpt lat="29.338702" lon="103.463469"><ele>567.0954</ele><time>2026-07-01T20:18:56.000Z</time></trkpt>
        <trkpt lat="29.338701" lon="103.463456"><ele>568.2509</ele><time>2026-07-01T20:18:58.000Z</time></trkpt>
        <trkpt lat="29.338694" lon="103.463444"><ele>569.21765</ele><time>2026-07-01T20:19:00.000Z</time></trkpt>
        <trkpt lat="29.338683" lon="103.463418"><ele>570.2754</ele><time>2026-07-01T20:19:02.000Z</time></trkpt>
        <trkpt lat="29.338682" lon="103.463397"><ele>571.1881</ele><time>2026-07-01T20:19:04.000Z</time></trkpt>
        <trkpt lat="29.338688" lon="103.463376"><ele>571.73944</ele><time>2026-07-01T20:19:06.000Z</time></trkpt>
        <trkpt lat="29.338695" lon="103.463358"><ele>572.48126</ele><time>2026-07-01T20:19:08.000Z</time></trkpt>
        <trkpt lat="29.338704" lon="103.463339"><ele>573.2853</ele><time>2026-07-01T20:19:10.000Z</time></trkpt>
        <trkpt lat="29.338713" lon="103.46332"><ele>574.25836</ele><time>2026-07-01T20:19:12.000Z</time></trkpt>
        <trkpt lat="29.338718" lon="103.463304"><ele>575.2355</ele><time>2026-07-01T20:19:14.000Z</time></trkpt>
        <trkpt lat="29.33872" lon="103.463286"><ele>576.23724</ele><time>2026-07-01T20:19:16.000Z</time></trkpt>
        <trkpt lat="29.338721" lon="103.463268"><ele>577.27167</ele><time>2026-07-01T20:19:18.000Z</time></trkpt>
        <trkpt lat="29.338718" lon="103.46325"><ele>578.1967</ele><time>2026-07-01T20:19:20.000Z</time></trkpt>
        <trkpt lat="29.338708" lon="103.463222"><ele>578.82623</ele><time>2026-07-01T20:19:22.000Z</time></trkpt>
        <trkpt lat="29.338691" lon="103.463195"><ele>578.9278</ele><time>2026-07-01T20:19:24.000Z</time></trkpt>
        <trkpt lat="29.338672" lon="103.463168"><ele>578.9278</ele><time>2026-07-01T20:19:26.000Z</time></trkpt>
        <trkpt lat="29.338659" lon="103.46314"><ele>578.9278</ele><time>2026-07-01T20:19:28.000Z</time></trkpt>
        <trkpt lat="29.338656" lon="103.463125"><ele>578.71735</ele><time>2026-07-01T20:19:30.000Z</time></trkpt>
        <trkpt lat="29.338656" lon="103.463125"><ele>578.1594</ele><time>2026-07-01T20:19:32.000Z</time></trkpt>
        <trkpt lat="29.338685" lon="103.46312"><ele>577.66724</ele><time>2026-07-01T20:19:42.000Z</time></trkpt>
        <trkpt lat="29.338693" lon="103.463119"><ele>576.9291</ele><time>2026-07-01T20:19:44.000Z</time></trkpt>
        <trkpt lat="29.338698" lon="103.463123"><ele>574.4515</ele><time>2026-07-01T20:19:46.000Z</time></trkpt>
        <trkpt lat="29.338715" lon="103.463129"><ele>574.4515</ele><time>2026-07-01T20:19:54.000Z</time></trkpt>
        <trkpt lat="29.338723" lon="103.46313"><ele>574.4515</ele><time>2026-07-01T20:20:00.000Z</time></trkpt>
        <trkpt lat="29.338743" lon="103.463133"><ele>574.46027</ele><time>2026-07-01T20:20:22.000Z</time></trkpt>
        <trkpt lat="29.338746" lon="103.463167"><ele>574.8245</ele><time>2026-07-01T20:20:24.000Z</time></trkpt>
        <trkpt lat="29.338745" lon="103.463169"><ele>579.13434</ele><time>2026-07-01T20:20:26.000Z</time></trkpt>
        <trkpt lat="29.338745" lon="103.46317"><ele>579.1383</ele><time>2026-07-01T20:20:28.000Z</time></trkpt>
        <trkpt lat="29.338738" lon="103.463203"><ele>579.22217</ele><time>2026-07-01T20:20:40.000Z</time></trkpt>
        <trkpt lat="29.338738" lon="103.463203"><ele>579.22217</ele><time>2026-07-01T20:20:42.000Z</time></trkpt>
        <trkpt lat="29.33877" lon="103.463212"><ele>581.0683</ele><time>2026-07-01T20:21:29.000Z</time></trkpt>
        <trkpt lat="29.338781" lon="103.463214"><ele>581.183</ele><time>2026-07-01T20:21:33.000Z</time></trkpt>
        <trkpt lat="29.338782" lon="103.463214"><ele>582.9174</ele><time>2026-07-01T20:21:35.000Z</time></trkpt>
        <trkpt lat="29.338793" lon="103.463243"><ele>582.9174</ele><time>2026-07-01T20:21:45.000Z</time></trkpt>
        <trkpt lat="29.338796" lon="103.46325"><ele>582.9174</ele><time>2026-07-01T20:21:47.000Z</time></trkpt>
        <trkpt lat="29.338796" lon="103.46325"><ele>582.67865</ele><time>2026-07-01T20:21:49.000Z</time></trkpt>
        <trkpt lat="29.338825" lon="103.463233"><ele>582.67865</ele><time>2026-07-01T20:23:25.000Z</time></trkpt>
        <trkpt lat="29.338825" lon="103.463233"><ele>582.67865</ele><time>2026-07-01T20:23:27.000Z</time></trkpt>
        <trkpt lat="29.338873" lon="103.463282"><ele>583.60846</ele><time>2026-07-01T20:23:33.000Z</time></trkpt>
        <trkpt lat="29.338873" lon="103.463282"><ele>583.89185</ele><time>2026-07-01T20:23:35.000Z</time></trkpt>
        <trkpt lat="29.338869" lon="103.463284"><ele>584.1239</ele><time>2026-07-01T20:23:37.000Z</time></trkpt>
        <trkpt lat="29.338814" lon="103.4633"><ele>584.14264</ele><time>2026-07-01T20:23:41.000Z</time></trkpt>
        <trkpt lat="29.338792" lon="103.463307"><ele>584.14514</ele><time>2026-07-01T20:23:43.000Z</time></trkpt>
        <trkpt lat="29.338777" lon="103.463311"><ele>584.28687</ele><time>2026-07-01T20:23:45.000Z</time></trkpt>
        <trkpt lat="29.338854" lon="103.463006"><ele>584.5674</ele><time>2026-07-01T20:24:10.000Z</time></trkpt>
        <trkpt lat="29.338854" lon="103.463006"><ele>584.7878</ele><time>2026-07-01T20:24:12.000Z</time></trkpt>
        <trkpt lat="29.338854" lon="103.463007"><ele>587.71826</ele><time>2026-07-01T20:24:14.000Z</time></trkpt>
        <trkpt lat="29.338952" lon="103.463093"><ele>587.71826</ele><time>2026-07-01T20:24:30.000Z</time></trkpt>
        <trkpt lat="29.339052" lon="103.463027"><ele>587.79</ele><time>2026-07-01T20:24:34.000Z</time></trkpt>
        <trkpt lat="29.339052" lon="103.463027"><ele>587.79</ele><time>2026-07-01T20:24:36.000Z</time></trkpt>
        <trkpt lat="29.339087" lon="103.462981"><ele>587.8433</ele><time>2026-07-01T20:24:43.000Z</time></trkpt>
        <trkpt lat="29.339211" lon="103.462921"><ele>587.84357</ele><time>2026-07-01T20:24:47.000Z</time></trkpt>
        <trkpt lat="29.339252" lon="103.462901"><ele>588.4437</ele><time>2026-07-01T20:24:49.000Z</time></trkpt>
        <trkpt lat="29.339223" lon="103.462626"><ele>590.9645</ele><time>2026-07-01T20:25:12.000Z</time></trkpt>
        <trkpt lat="29.339223" lon="103.462625"><ele>592.1322</ele><time>2026-07-01T20:25:14.000Z</time></trkpt>
        <trkpt lat="29.339223" lon="103.462626"><ele>598.4447</ele><time>2026-07-01T20:25:16.000Z</time></trkpt>
        <trkpt lat="29.339186" lon="103.462526"><ele>598.90283</ele><time>2026-07-01T20:25:43.000Z</time></trkpt>
        <trkpt lat="29.339138" lon="103.462511"><ele>599.50494</ele><time>2026-07-01T20:25:45.000Z</time></trkpt>
        <trkpt lat="29.339109" lon="103.462501"><ele>600.89124</ele><time>2026-07-01T20:25:50.000Z</time></trkpt>
        <trkpt lat="29.339105" lon="103.462492"><ele>600.89124</ele><time>2026-07-01T20:25:52.000Z</time></trkpt>
        <trkpt lat="29.33917" lon="103.462633"><ele>600.89124</ele><time>2026-07-01T20:26:05.000Z</time></trkpt>
        <trkpt lat="29.339172" lon="103.462639"><ele>599.9758</ele><time>2026-07-01T20:26:07.000Z</time></trkpt>
        <trkpt lat="29.339172" lon="103.462641"><ele>599.9048</ele><time>2026-07-01T20:26:09.000Z</time></trkpt>
        <trkpt lat="29.339211" lon="103.462413"><ele>599.9048</ele><time>2026-07-01T20:26:31.000Z</time></trkpt>
        <trkpt lat="29.338914" lon="103.462397"><ele>602.77203</ele><time>2026-07-01T20:28:43.000Z</time></trkpt>
        <trkpt lat="29.338914" lon="103.462396"><ele>602.77203</ele><time>2026-07-01T20:28:45.000Z</time></trkpt>
        <trkpt lat="29.338913" lon="103.462397"><ele>528.869</ele><time>2026-07-01T20:28:47.000Z</time></trkpt>
        <trkpt lat="29.339424" lon="103.462347"><ele>528.869</ele><time>2026-07-01T20:29:15.000Z</time></trkpt>
        <trkpt lat="29.339424" lon="103.462347"><ele>528.869</ele><time>2026-07-01T20:29:17.000Z</time></trkpt>
        <trkpt lat="29.339424" lon="103.462347"><ele>608.4182</ele><time>2026-07-01T20:29:19.000Z</time></trkpt>
        <trkpt lat="29.339181" lon="103.46233"><ele>608.4182</ele><time>2026-07-01T20:29:26.000Z</time></trkpt>
        <trkpt lat="29.339108" lon="103.46238"><ele>608.4182</ele><time>2026-07-01T20:29:28.000Z</time></trkpt>
        <trkpt lat="29.339086" lon="103.462449"><ele>608.4182</ele><time>2026-07-01T20:29:30.000Z</time></trkpt>
        <trkpt lat="29.33911" lon="103.462571"><ele>608.4182</ele><time>2026-07-01T20:29:34.000Z</time></trkpt>
        <trkpt lat="29.338985" lon="103.462531"><ele>608.4182</ele><time>2026-07-01T20:30:09.000Z</time></trkpt>
        <trkpt lat="29.338888" lon="103.462359"><ele>608.4182</ele><time>2026-07-01T20:30:40.000Z</time></trkpt>
        <trkpt lat="29.339336" lon="103.462693"><ele>608.4182</ele><time>2026-07-01T20:30:11.000Z</time></trkpt>
        <trkpt lat="29.33854" lon="103.462081"><ele>607.0787</ele><time>2026-07-01T20:30:45.000Z</time></trkpt>
        <trkpt lat="29.33854" lon="103.462081"><ele>607.0786</ele><time>2026-07-01T20:30:47.000Z</time></trkpt>
        <trkpt lat="29.338541" lon="103.462081"><ele>607.0786</ele><time>2026-07-01T20:30:49.000Z</time></trkpt>
        <trkpt lat="29.339127" lon="103.462408"><ele>607.0787</ele><time>2026-07-01T20:31:00.000Z</time></trkpt>
        <trkpt lat="29.339128" lon="103.462409"><ele>607.0787</ele><time>2026-07-01T20:31:04.000Z</time></trkpt>
        <trkpt lat="29.339134" lon="103.462415"><ele>607.0786</ele><time>2026-07-01T20:31:06.000Z</time></trkpt>
        <trkpt lat="29.338763" lon="103.462076"><ele>607.0787</ele><time>2026-07-01T20:31:20.000Z</time></trkpt>
        <trkpt lat="29.338763" lon="103.462076"><ele>607.0787</ele><time>2026-07-01T20:31:22.000Z</time></trkpt>
        <trkpt lat="29.338767" lon="103.462077"><ele>612.8193</ele><time>2026-07-01T20:31:24.000Z</time></trkpt>
        <trkpt lat="29.33888" lon="103.462124"><ele>612.8209</ele><time>2026-07-01T20:31:32.000Z</time></trkpt>
        <trkpt lat="29.338902" lon="103.462137"><ele>612.87964</ele><time>2026-07-01T20:31:34.000Z</time></trkpt>
        <trkpt lat="29.339078" lon="103.462245"><ele>614.6772</ele><time>2026-07-01T20:31:36.000Z</time></trkpt>
        <trkpt lat="29.339655" lon="103.461952"><ele>617.7524</ele><time>2026-07-01T20:32:40.000Z</time></trkpt>
        <trkpt lat="29.339655" lon="103.461952"><ele>617.7524</ele><time>2026-07-01T20:32:42.000Z</time></trkpt>
        <trkpt lat="29.339657" lon="103.461942"><ele>615.5977</ele><time>2026-07-01T20:32:44.000Z</time></trkpt>
        <trkpt lat="29.33967" lon="103.461809"><ele>615.59216</ele><time>2026-07-01T20:32:50.000Z</time></trkpt>
        <trkpt lat="29.339676" lon="103.461773"><ele>615.40784</ele><time>2026-07-01T20:32:52.000Z</time></trkpt>
        <trkpt lat="29.339687" lon="103.461742"><ele>612.9659</ele><time>2026-07-01T20:32:54.000Z</time></trkpt>
        <trkpt lat="29.339706" lon="103.461708"><ele>612.5037</ele><time>2026-07-01T20:32:56.000Z</time></trkpt>
        <trkpt lat="29.339724" lon="103.461683"><ele>612.219</ele><time>2026-07-01T20:32:58.000Z</time></trkpt>
        <trkpt lat="29.339742" lon="103.461664"><ele>611.84705</ele><time>2026-07-01T20:33:00.000Z</time></trkpt>
        <trkpt lat="29.339762" lon="103.461648"><ele>611.79816</ele><time>2026-07-01T20:33:02.000Z</time></trkpt>
        <trkpt lat="29.339784" lon="103.461633"><ele>611.4779</ele><time>2026-07-01T20:33:04.000Z</time></trkpt>
        <trkpt lat="29.339811" lon="103.461618"><ele>611.3823</ele><time>2026-07-01T20:33:06.000Z</time></trkpt>
        <trkpt lat="29.339839" lon="103.461608"><ele>611.0611</ele><time>2026-07-01T20:33:08.000Z</time></trkpt>
        <trkpt lat="29.339863" lon="103.461599"><ele>610.8778</ele><time>2026-07-01T20:33:10.000Z</time></trkpt>
        <trkpt lat="29.339859" lon="103.461703"><ele>610.2606</ele><time>2026-07-01T20:33:14.000Z</time></trkpt>
        <trkpt lat="29.339858" lon="103.461724"><ele>610.104</ele><time>2026-07-01T20:33:16.000Z</time></trkpt>
        <trkpt lat="29.33986" lon="103.461726"><ele>609.8518</ele><time>2026-07-01T20:33:18.000Z</time></trkpt>
        <trkpt lat="29.339976" lon="103.461906"><ele>609.48346</ele><time>2026-07-01T20:33:29.000Z</time></trkpt>
        <trkpt lat="29.339978" lon="103.461906"><ele>609.0205</ele><time>2026-07-01T20:33:33.000Z</time></trkpt>
        <trkpt lat="29.33998" lon="103.46191"><ele>605.42</ele><time>2026-07-01T20:33:35.000Z</time></trkpt>
        <trkpt lat="29.339865" lon="103.461616"><ele>605.38135</ele><time>2026-07-01T20:33:51.000Z</time></trkpt>
        <trkpt lat="29.339861" lon="103.461606"><ele>605.028</ele><time>2026-07-01T20:33:57.000Z</time></trkpt>
        <trkpt lat="29.339853" lon="103.461588"><ele>602.5586</ele><time>2026-07-01T20:33:59.000Z</time></trkpt>
        <trkpt lat="29.339844" lon="103.461553"><ele>602.4939</ele><time>2026-07-01T20:34:01.000Z</time></trkpt>
        <trkpt lat="29.339835" lon="103.461523"><ele>602.48425</ele><time>2026-07-01T20:34:03.000Z</time></trkpt>
        <trkpt lat="29.339833" lon="103.461501"><ele>602.117</ele><time>2026-07-01T20:34:05.000Z</time></trkpt>
        <trkpt lat="29.339836" lon="103.46149"><ele>601.881</ele><time>2026-07-01T20:34:07.000Z</time></trkpt>
        <trkpt lat="29.339843" lon="103.461471"><ele>601.3284</ele><time>2026-07-01T20:34:09.000Z</time></trkpt>
        <trkpt lat="29.339855" lon="103.461446"><ele>600.7312</ele><time>2026-07-01T20:34:11.000Z</time></trkpt>
        <trkpt lat="29.339859" lon="103.461429"><ele>600.0393</ele><time>2026-07-01T20:34:13.000Z</time></trkpt>
        <trkpt lat="29.339864" lon="103.461422"><ele>599.4202</ele><time>2026-07-01T20:34:15.000Z</time></trkpt>
        <trkpt lat="29.339911" lon="103.461361"><ele>598.8142</ele><time>2026-07-01T20:34:45.000Z</time></trkpt>
        <trkpt lat="29.339911" lon="103.461361"><ele>598.1832</ele><time>2026-07-01T20:34:47.000Z</time></trkpt>
        <trkpt lat="29.33991" lon="103.461361"><ele>590.26373</ele><time>2026-07-01T20:34:49.000Z</time></trkpt>
        <trkpt lat="29.339948" lon="103.461375"><ele>589.9841</ele><time>2026-07-01T20:34:59.000Z</time></trkpt>
        <trkpt lat="29.339954" lon="103.46138"><ele>589.9746</ele><time>2026-07-01T20:35:01.000Z</time></trkpt>
        <trkpt lat="29.339981" lon="103.461405"><ele>587.3323</ele><time>2026-07-01T20:35:10.000Z</time></trkpt>
        <trkpt lat="29.339982" lon="103.461405"><ele>585.10986</ele><time>2026-07-01T20:35:12.000Z</time></trkpt>
        <trkpt lat="29.339984" lon="103.461405"><ele>583.9629</ele><time>2026-07-01T20:35:14.000Z</time></trkpt>
        <trkpt lat="29.340028" lon="103.461413"><ele>583.9629</ele><time>2026-07-01T20:35:18.000Z</time></trkpt>
        <trkpt lat="29.340061" lon="103.461418"><ele>583.9629</ele><time>2026-07-01T20:35:20.000Z</time></trkpt>
        <trkpt lat="29.34009" lon="103.461411"><ele>584.4216</ele><time>2026-07-01T20:35:22.000Z</time></trkpt>
        <trkpt lat="29.340119" lon="103.4614"><ele>584.80524</ele><time>2026-07-01T20:35:24.000Z</time></trkpt>
        <trkpt lat="29.340137" lon="103.461388"><ele>585.3604</ele><time>2026-07-01T20:35:26.000Z</time></trkpt>
        <trkpt lat="29.340153" lon="103.461373"><ele>586.0592</ele><time>2026-07-01T20:35:28.000Z</time></trkpt>
        <trkpt lat="29.340162" lon="103.461361"><ele>586.6959</ele><time>2026-07-01T20:35:30.000Z</time></trkpt>
        <trkpt lat="29.34017" lon="103.461357"><ele>587.4607</ele><time>2026-07-01T20:35:32.000Z</time></trkpt>
        <trkpt lat="29.3401" lon="103.461389"><ele>588.0389</ele><time>2026-07-01T20:35:42.000Z</time></trkpt>
        <trkpt lat="29.34009" lon="103.461388"><ele>588.60706</ele><time>2026-07-01T20:35:47.000Z</time></trkpt>
        <trkpt lat="29.34006" lon="103.461387"><ele>591.90985</ele><time>2026-07-01T20:35:49.000Z</time></trkpt>
        <trkpt lat="29.340049" lon="103.461363"><ele>592.0401</ele><time>2026-07-01T20:35:53.000Z</time></trkpt>
        <trkpt lat="29.340033" lon="103.461335"><ele>592.0401</ele><time>2026-07-01T20:35:55.000Z</time></trkpt>
        <trkpt lat="29.340009" lon="103.461306"><ele>592.0401</ele><time>2026-07-01T20:35:57.000Z</time></trkpt>
        <trkpt lat="29.339976" lon="103.461283"><ele>591.83875</ele><time>2026-07-01T20:35:59.000Z</time></trkpt>
        <trkpt lat="29.339944" lon="103.461269"><ele>591.516</ele><time>2026-07-01T20:36:01.000Z</time></trkpt>
        <trkpt lat="29.339932" lon="103.46126"><ele>590.83606</ele><time>2026-07-01T20:36:02.000Z</time></trkpt>
        <trkpt lat="29.340138" lon="103.461409"><ele>590.83606</ele><time>2026-07-01T20:36:11.000Z</time></trkpt>
        <trkpt lat="29.340162" lon="103.461427"><ele>590.83606</ele><time>2026-07-01T20:36:13.000Z</time></trkpt>
        <trkpt lat="29.340161" lon="103.461427"><ele>590.9402</ele><time>2026-07-01T20:36:15.000Z</time></trkpt>
        <trkpt lat="29.340187" lon="103.461428"><ele>591.7942</ele><time>2026-07-01T20:36:19.000Z</time></trkpt>
        <trkpt lat="29.340215" lon="103.461429"><ele>592.07104</ele><time>2026-07-01T20:36:21.000Z</time></trkpt>
        <trkpt lat="29.340232" lon="103.46143"><ele>592.2502</ele><time>2026-07-01T20:36:23.000Z</time></trkpt>
        <trkpt lat="29.340237" lon="103.461431"><ele>592.3841</ele><time>2026-07-01T20:36:25.000Z</time></trkpt>
        <trkpt lat="29.340155" lon="103.46141"><ele>592.3841</ele><time>2026-07-01T20:36:32.000Z</time></trkpt>
        <trkpt lat="29.340155" lon="103.46141"><ele>592.3841</ele><time>2026-07-01T20:36:34.000Z</time></trkpt>
        <trkpt lat="29.340156" lon="103.46141"><ele>590.73083</ele><time>2026-07-01T20:36:36.000Z</time></trkpt>
        <trkpt lat="29.340043" lon="103.461393"><ele>590.73083</ele><time>2026-07-01T20:36:54.000Z</time></trkpt>
        <trkpt lat="29.340043" lon="103.461393"><ele>590.73083</ele><time>2026-07-01T20:36:56.000Z</time></trkpt>
        <trkpt lat="29.340042" lon="103.461396"><ele>592.3191</ele><time>2026-07-01T20:36:58.000Z</time></trkpt>
        <trkpt lat="29.340055" lon="103.461331"><ele>592.3251</ele><time>2026-07-01T20:37:14.000Z</time></trkpt>
        <trkpt lat="29.340204" lon="103.461472"><ele>592.3251</ele><time>2026-07-01T20:37:58.000Z</time></trkpt>
        <trkpt lat="29.340204" lon="103.461472"><ele>592.3251</ele><time>2026-07-01T20:38:00.000Z</time></trkpt>
        <trkpt lat="29.340202" lon="103.461473"><ele>591.34375</ele><time>2026-07-01T20:38:02.000Z</time></trkpt>
        <trkpt lat="29.340108" lon="103.461489"><ele>591.3408</ele><time>2026-07-01T20:38:34.000Z</time></trkpt>
        <trkpt lat="29.340086" lon="103.461493"><ele>591.2764</ele><time>2026-07-01T20:38:40.000Z</time></trkpt>
        <trkpt lat="29.340086" lon="103.461493"><ele>590.0584</ele><time>2026-07-01T20:38:42.000Z</time></trkpt>
        <trkpt lat="29.340012" lon="103.461471"><ele>590.05676</ele><time>2026-07-01T20:39:01.000Z</time></trkpt>
        <trkpt lat="29.33999" lon="103.461512"><ele>590.0403</ele><time>2026-07-01T20:39:00.000Z</time></trkpt>
        <trkpt lat="29.340015" lon="103.461496"><ele>589.98846</ele><time>2026-07-01T20:39:05.000Z</time></trkpt>
        <trkpt lat="29.340262" lon="103.461341"><ele>589.3025</ele><time>2026-07-01T20:39:13.000Z</time></trkpt>
        <trkpt lat="29.340262" lon="103.461341"><ele>589.3025</ele><time>2026-07-01T20:39:15.000Z</time></trkpt>
        <trkpt lat="29.340261" lon="103.461338"><ele>589.3025</ele><time>2026-07-01T20:39:17.000Z</time></trkpt>
        <trkpt lat="29.340249" lon="103.461293"><ele>589.3056</ele><time>2026-07-01T20:39:21.000Z</time></trkpt>
        <trkpt lat="29.34024" lon="103.461263"><ele>589.47345</ele><time>2026-07-01T20:39:23.000Z</time></trkpt>
        <trkpt lat="29.340231" lon="103.461239"><ele>591.2863</ele><time>2026-07-01T20:39:25.000Z</time></trkpt>
        <trkpt lat="29.340216" lon="103.461214"><ele>592.5926</ele><time>2026-07-01T20:39:27.000Z</time></trkpt>
        <trkpt lat="29.340202" lon="103.461189"><ele>593.5466</ele><time>2026-07-01T20:39:29.000Z</time></trkpt>
        <trkpt lat="29.340197" lon="103.46118"><ele>594.35455</ele><time>2026-07-01T20:39:31.000Z</time></trkpt>
        <trkpt lat="29.340197" lon="103.46118"><ele>594.9988</ele><time>2026-07-01T20:39:33.000Z</time></trkpt>
        <trkpt lat="29.340281" lon="103.461132"><ele>595.36035</ele><time>2026-07-01T20:39:54.000Z</time></trkpt>
        <trkpt lat="29.340281" lon="103.461132"><ele>595.61755</ele><time>2026-07-01T20:39:56.000Z</time></trkpt>
        <trkpt lat="29.34028" lon="103.461131"><ele>596.7413</ele><time>2026-07-01T20:39:58.000Z</time></trkpt>
        <trkpt lat="29.340217" lon="103.461094"><ele>596.74524</ele><time>2026-07-01T20:40:06.000Z</time></trkpt>
        <trkpt lat="29.340199" lon="103.461074"><ele>596.8298</ele><time>2026-07-01T20:40:08.000Z</time></trkpt>
        <trkpt lat="29.340181" lon="103.461055"><ele>597.691</ele><time>2026-07-01T20:40:10.000Z</time></trkpt>
        <trkpt lat="29.340206" lon="103.461013"><ele>597.82367</ele><time>2026-07-01T20:40:14.000Z</time></trkpt>
        <trkpt lat="29.340208" lon="103.460995"><ele>598.062</ele><time>2026-07-01T20:40:16.000Z</time></trkpt>
        <trkpt lat="29.340209" lon="103.460971"><ele>598.38</ele><time>2026-07-01T20:40:18.000Z</time></trkpt>
        <trkpt lat="29.340138" lon="103.461008"><ele>598.38</ele><time>2026-07-01T20:40:39.000Z</time></trkpt>
        <trkpt lat="29.340138" lon="103.461008"><ele>598.38</ele><time>2026-07-01T20:40:41.000Z</time></trkpt>
        <trkpt lat="29.340138" lon="103.461005"><ele>595.3236</ele><time>2026-07-01T20:40:43.000Z</time></trkpt>
        <trkpt lat="29.340147" lon="103.460954"><ele>595.3236</ele><time>2026-07-01T20:40:47.000Z</time></trkpt>
        <trkpt lat="29.340152" lon="103.460917"><ele>595.3236</ele><time>2026-07-01T20:40:49.000Z</time></trkpt>
        <trkpt lat="29.340157" lon="103.460891"><ele>595.8441</ele><time>2026-07-01T20:40:51.000Z</time></trkpt>
        <trkpt lat="29.340163" lon="103.460883"><ele>596.41437</ele><time>2026-07-01T20:40:53.000Z</time></trkpt>
        <trkpt lat="29.340164" lon="103.460878"><ele>596.8984</ele><time>2026-07-01T20:40:55.000Z</time></trkpt>
        <trkpt lat="29.340168" lon="103.460844"><ele>597.08826</ele><time>2026-07-01T20:41:02.000Z</time></trkpt>
        <trkpt lat="29.340168" lon="103.460844"><ele>597.1377</ele><time>2026-07-01T20:41:04.000Z</time></trkpt>
        <trkpt lat="29.340168" lon="103.46084"><ele>597.6061</ele><time>2026-07-01T20:41:06.000Z</time></trkpt>
        <trkpt lat="29.340168" lon="103.460797"><ele>597.61</ele><time>2026-07-01T20:41:10.000Z</time></trkpt>
        <trkpt lat="29.340169" lon="103.460783"><ele>597.721</ele><time>2026-07-01T20:41:12.000Z</time></trkpt>
        <trkpt lat="29.340172" lon="103.460782"><ele>598.7595</ele><time>2026-07-01T20:41:14.000Z</time></trkpt>
        <trkpt lat="29.340236" lon="103.460757"><ele>599.41925</ele><time>2026-07-01T20:41:29.000Z</time></trkpt>
        <trkpt lat="29.340238" lon="103.460754"><ele>599.92914</ele><time>2026-07-01T20:41:33.000Z</time></trkpt>
        <trkpt lat="29.340249" lon="103.460731"><ele>601.5539</ele><time>2026-07-01T20:41:35.000Z</time></trkpt>
        <trkpt lat="29.340265" lon="103.4607"><ele>601.65265</ele><time>2026-07-01T20:41:37.000Z</time></trkpt>
        <trkpt lat="29.340278" lon="103.460679"><ele>602.0635</ele><time>2026-07-01T20:41:39.000Z</time></trkpt>
        <trkpt lat="29.34029" lon="103.460658"><ele>602.7248</ele><time>2026-07-01T20:41:41.000Z</time></trkpt>
        <trkpt lat="29.340302" lon="103.460633"><ele>603.08673</ele><time>2026-07-01T20:41:43.000Z</time></trkpt>
        <trkpt lat="29.340313" lon="103.460609"><ele>603.3401</ele><time>2026-07-01T20:41:45.000Z</time></trkpt>
        <trkpt lat="29.340321" lon="103.460589"><ele>603.80597</ele><time>2026-07-01T20:41:47.000Z</time></trkpt>
        <trkpt lat="29.340323" lon="103.460567"><ele>604.08954</ele><time>2026-07-01T20:41:49.000Z</time></trkpt>
        <trkpt lat="29.34032" lon="103.460544"><ele>604.6137</ele><time>2026-07-01T20:41:51.000Z</time></trkpt>
        <trkpt lat="29.340312" lon="103.460514"><ele>605.0361</ele><time>2026-07-01T20:41:53.000Z</time></trkpt>
        <trkpt lat="29.340305" lon="103.460479"><ele>605.1955</ele><time>2026-07-01T20:41:55.000Z</time></trkpt>
        <trkpt lat="29.3403" lon="103.460447"><ele>605.36945</ele><time>2026-07-01T20:41:57.000Z</time></trkpt>
        <trkpt lat="29.340296" lon="103.460414"><ele>605.5231</ele><time>2026-07-01T20:41:59.000Z</time></trkpt>
        <trkpt lat="29.340288" lon="103.460381"><ele>605.93835</ele><time>2026-07-01T20:42:01.000Z</time></trkpt>
        <trkpt lat="29.340278" lon="103.460357"><ele>606.4401</ele><time>2026-07-01T20:42:03.000Z</time></trkpt>
        <trkpt lat="29.340266" lon="103.46033"><ele>607.246</ele><time>2026-07-01T20:42:05.000Z</time></trkpt>
        <trkpt lat="29.340254" lon="103.460303"><ele>607.73975</ele><time>2026-07-01T20:42:07.000Z</time></trkpt>
        <trkpt lat="29.340245" lon="103.460274"><ele>608.36035</ele><time>2026-07-01T20:42:09.000Z</time></trkpt>
        <trkpt lat="29.340239" lon="103.460248"><ele>608.9938</ele><time>2026-07-01T20:42:11.000Z</time></trkpt>
        <trkpt lat="29.340234" lon="103.46022"><ele>609.4842</ele><time>2026-07-01T20:42:13.000Z</time></trkpt>
        <trkpt lat="29.340232" lon="103.460198"><ele>610.107</ele><time>2026-07-01T20:42:15.000Z</time></trkpt>
        <trkpt lat="29.340234" lon="103.460181"><ele>610.71295</ele><time>2026-07-01T20:42:17.000Z</time></trkpt>
        <trkpt lat="29.340237" lon="103.460164"><ele>610.71295</ele><time>2026-07-01T20:42:19.000Z</time></trkpt>
        <trkpt lat="29.340241" lon="103.460145"><ele>610.71295</ele><time>2026-07-01T20:42:21.000Z</time></trkpt>
        <trkpt lat="29.340243" lon="103.460125"><ele>610.6891</ele><time>2026-07-01T20:42:23.000Z</time></trkpt>
        <trkpt lat="29.340241" lon="103.460104"><ele>609.95557</ele><time>2026-07-01T20:42:25.000Z</time></trkpt>
        <trkpt lat="29.340237" lon="103.460085"><ele>609.51276</ele><time>2026-07-01T20:42:27.000Z</time></trkpt>
        <trkpt lat="29.340235" lon="103.460066"><ele>609.40015</ele><time>2026-07-01T20:42:29.000Z</time></trkpt>
        <trkpt lat="29.340236" lon="103.460066"><ele>609.14764</ele><time>2026-07-01T20:42:31.000Z</time></trkpt>
        <trkpt lat="29.340194" lon="103.460081"><ele>609.08905</ele><time>2026-07-01T20:42:44.000Z</time></trkpt>
        <trkpt lat="29.340165" lon="103.460098"><ele>608.83295</ele><time>2026-07-01T20:42:46.000Z</time></trkpt>
        <trkpt lat="29.340144" lon="103.46012"><ele>606.6776</ele><time>2026-07-01T20:42:48.000Z</time></trkpt>
        <trkpt lat="29.340132" lon="103.460139"><ele>606.44543</ele><time>2026-07-01T20:42:50.000Z</time></trkpt>
        <trkpt lat="29.340134" lon="103.460152"><ele>606.42413</ele><time>2026-07-01T20:42:52.000Z</time></trkpt>
        <trkpt lat="29.340139" lon="103.460173"><ele>605.8844</ele><time>2026-07-01T20:42:54.000Z</time></trkpt>
        <trkpt lat="29.340336" lon="103.460194"><ele>605.84326</ele><time>2026-07-01T20:43:00.000Z</time></trkpt>
        <trkpt lat="29.340336" lon="103.460194"><ele>605.67755</ele><time>2026-07-01T20:43:02.000Z</time></trkpt>
        <trkpt lat="29.340338" lon="103.460194"><ele>603.2495</ele><time>2026-07-01T20:43:04.000Z</time></trkpt>
        <trkpt lat="29.340401" lon="103.460207"><ele>603.2495</ele><time>2026-07-01T20:43:15.000Z</time></trkpt>
        <trkpt lat="29.340401" lon="103.460207"><ele>603.2495</ele><time>2026-07-01T20:43:17.000Z</time></trkpt>
        <trkpt lat="29.340406" lon="103.460203"><ele>604.36115</ele><time>2026-07-01T20:43:19.000Z</time></trkpt>
        <trkpt lat="29.340462" lon="103.460175"><ele>604.36115</ele><time>2026-07-01T20:43:23.000Z</time></trkpt>
        <trkpt lat="29.340579" lon="103.460116"><ele>604.36115</ele><time>2026-07-01T20:43:27.000Z</time></trkpt>
        <trkpt lat="29.340579" lon="103.460116"><ele>602.9402</ele><time>2026-07-01T20:43:29.000Z</time></trkpt>
        <trkpt lat="29.340584" lon="103.460119"><ele>602.17377</ele><time>2026-07-01T20:43:31.000Z</time></trkpt>
        <trkpt lat="29.340633" lon="103.460137"><ele>602.17377</ele><time>2026-07-01T20:43:35.000Z</time></trkpt>
        <trkpt lat="29.340663" lon="103.460141"><ele>602.17377</ele><time>2026-07-01T20:43:37.000Z</time></trkpt>
        <trkpt lat="29.340683" lon="103.460139"><ele>602.3487</ele><time>2026-07-01T20:43:39.000Z</time></trkpt>
        <trkpt lat="29.340711" lon="103.460137"><ele>602.5442</ele><time>2026-07-01T20:43:41.000Z</time></trkpt>
        <trkpt lat="29.34058" lon="103.459946"><ele>602.7468</ele><time>2026-07-01T20:43:49.000Z</time></trkpt>
        <trkpt lat="29.340579" lon="103.459946"><ele>602.9716</ele><time>2026-07-01T20:43:51.000Z</time></trkpt>
        <trkpt lat="29.340572" lon="103.459939"><ele>603.2955</ele><time>2026-07-01T20:43:53.000Z</time></trkpt>
        <trkpt lat="29.340494" lon="103.459882"><ele>603.2982</ele><time>2026-07-01T20:43:57.000Z</time></trkpt>
        <trkpt lat="29.340454" lon="103.459854"><ele>603.3971</ele><time>2026-07-01T20:43:59.000Z</time></trkpt>
        <trkpt lat="29.340413" lon="103.459809"><ele>604.67584</ele><time>2026-07-01T20:44:01.000Z</time></trkpt>
        <trkpt lat="29.340351" lon="103.45974"><ele>604.7811</ele><time>2026-07-01T20:44:09.000Z</time></trkpt>
        <trkpt lat="29.340351" lon="103.45974"><ele>604.7874</ele><time>2026-07-01T20:44:11.000Z</time></trkpt>
        <trkpt lat="29.340343" lon="103.459728"><ele>604.84576</ele><time>2026-07-01T20:44:13.000Z</time></trkpt>
        <trkpt lat="29.340299" lon="103.459653"><ele>604.84576</ele><time>2026-07-01T20:44:17.000Z</time></trkpt>
        <trkpt lat="29.340286" lon="103.459625"><ele>604.7874</ele><time>2026-07-01T20:44:19.000Z</time></trkpt>
        <trkpt lat="29.340272" lon="103.459586"><ele>604.7874</ele><time>2026-07-01T20:44:21.000Z</time></trkpt>
        <trkpt lat="29.340273" lon="103.459556"><ele>604.59875</ele><time>2026-07-01T20:44:23.000Z</time></trkpt>
        <trkpt lat="29.340422" lon="103.459812"><ele>604.0123</ele><time>2026-07-01T20:45:00.000Z</time></trkpt>
        <trkpt lat="29.340422" lon="103.459812"><ele>604.0123</ele><time>2026-07-01T20:45:02.000Z</time></trkpt>
        <trkpt lat="29.340422" lon="103.459812"><ele>616.6423</ele><time>2026-07-01T20:45:04.000Z</time></trkpt>
        <trkpt lat="29.340481" lon="103.459877"><ele>616.6423</ele><time>2026-07-01T20:45:26.000Z</time></trkpt>
        <trkpt lat="29.340586" lon="103.459912"><ele>616.6423</ele><time>2026-07-01T20:45:52.000Z</time></trkpt>
        <trkpt lat="29.340586" lon="103.459912"><ele>616.1943</ele><time>2026-07-01T20:45:54.000Z</time></trkpt>
        <trkpt lat="29.340265" lon="103.459449"><ele>614.11176</ele><time>2026-07-01T20:46:43.000Z</time></trkpt>
        <trkpt lat="29.340327" lon="103.459538"><ele>614.11053</ele><time>2026-07-01T20:46:41.000Z</time></trkpt>
        <trkpt lat="29.340447" lon="103.45982"><ele>614.11053</ele><time>2026-07-01T20:46:45.000Z</time></trkpt>
        <trkpt lat="29.340475" lon="103.459611"><ele>614.11053</ele><time>2026-07-01T20:47:08.000Z</time></trkpt>
        <trkpt lat="29.34056" lon="103.459551"><ele>614.41425</ele><time>2026-07-01T20:47:18.000Z</time></trkpt>
        <trkpt lat="29.340567" lon="103.459516"><ele>617.78107</ele><time>2026-07-01T20:47:21.000Z</time></trkpt>
        <trkpt lat="29.340582" lon="103.459443"><ele>618.25714</ele><time>2026-07-01T20:47:25.000Z</time></trkpt>
        <trkpt lat="29.340469" lon="103.459319"><ele>618.6462</ele><time>2026-07-01T20:47:42.000Z</time></trkpt>
        <trkpt lat="29.340015" lon="103.458514"><ele>625.0385</ele><time>2026-07-01T20:48:43.000Z</time></trkpt>
        <trkpt lat="29.340015" lon="103.458514"><ele>625.80396</ele><time>2026-07-01T20:48:45.000Z</time></trkpt>
        <trkpt lat="29.340027" lon="103.458521"><ele>644.3388</ele><time>2026-07-01T20:48:47.000Z</time></trkpt>
        <trkpt lat="29.340458" lon="103.458752"><ele>644.3486</ele><time>2026-07-01T20:48:54.000Z</time></trkpt>
        <trkpt lat="29.340458" lon="103.458752"><ele>644.6023</ele><time>2026-07-01T20:48:56.000Z</time></trkpt>
        <trkpt lat="29.340459" lon="103.458753"><ele>652.5463</ele><time>2026-07-01T20:48:58.000Z</time></trkpt>
        <trkpt lat="29.340556" lon="103.45894"><ele>652.5474</ele><time>2026-07-01T20:49:10.000Z</time></trkpt>
        <trkpt lat="29.340562" lon="103.458951"><ele>652.54785</ele><time>2026-07-01T20:49:12.000Z</time></trkpt>
        <trkpt lat="29.340566" lon="103.458956"><ele>653.0195</ele><time>2026-07-01T20:49:14.000Z</time></trkpt>
        <trkpt lat="29.340471" lon="103.458822"><ele>653.0195</ele><time>2026-07-01T20:49:49.000Z</time></trkpt>
        <trkpt lat="29.340471" lon="103.458822"><ele>653.0195</ele><time>2026-07-01T20:49:51.000Z</time></trkpt>
        <trkpt lat="29.340473" lon="103.458823"><ele>649.1679</ele><time>2026-07-01T20:49:53.000Z</time></trkpt>
        <trkpt lat="29.340632" lon="103.458917"><ele>649.14557</ele><time>2026-07-01T20:50:22.000Z</time></trkpt>
        <trkpt lat="29.340632" lon="103.458917"><ele>649.13696</ele><time>2026-07-01T20:50:24.000Z</time></trkpt>
        <trkpt lat="29.340632" lon="103.458917"><ele>647.71716</ele><time>2026-07-01T20:50:26.000Z</time></trkpt>
        <trkpt lat="29.340535" lon="103.458798"><ele>647.71716</ele><time>2026-07-01T20:52:25.000Z</time></trkpt>
        <trkpt lat="29.340387" lon="103.458677"><ele>647.71716</ele><time>2026-07-01T20:52:27.000Z</time></trkpt>
        <trkpt lat="29.340324" lon="103.458593"><ele>647.71716</ele><time>2026-07-01T20:52:35.000Z</time></trkpt>
        <trkpt lat="29.340365" lon="103.458571"><ele>647.71716</ele><time>2026-07-01T20:52:41.000Z</time></trkpt>
        <trkpt lat="29.340676" lon="103.458781"><ele>647.04364</ele><time>2026-07-01T20:53:06.000Z</time></trkpt>
        <trkpt lat="29.340676" lon="103.458781"><ele>647.04364</ele><time>2026-07-01T20:53:08.000Z</time></trkpt>
        <trkpt lat="29.340675" lon="103.458781"><ele>587.7583</ele><time>2026-07-01T20:53:10.000Z</time></trkpt>
        <trkpt lat="29.340782" lon="103.458625"><ele>587.7583</ele><time>2026-07-01T20:53:19.000Z</time></trkpt>
        <trkpt lat="29.340799" lon="103.458599"><ele>587.7583</ele><time>2026-07-01T20:53:21.000Z</time></trkpt>
        <trkpt lat="29.340811" lon="103.458582"><ele>587.7583</ele><time>2026-07-01T20:53:23.000Z</time></trkpt>
        <trkpt lat="29.340655" lon="103.458522"><ele>587.7583</ele><time>2026-07-01T20:53:29.000Z</time></trkpt>
        <trkpt lat="29.340626" lon="103.458516"><ele>587.7583</ele><time>2026-07-01T20:53:31.000Z</time></trkpt>
        <trkpt lat="29.340609" lon="103.458501"><ele>587.7583</ele><time>2026-07-01T20:53:33.000Z</time></trkpt>
        <trkpt lat="29.340782" lon="103.458654"><ele>587.7583</ele><time>2026-07-01T20:53:41.000Z</time></trkpt>
        <trkpt lat="29.340832" lon="103.45862"><ele>587.7583</ele><time>2026-07-01T20:53:43.000Z</time></trkpt>
        <trkpt lat="29.340872" lon="103.458591"><ele>587.7583</ele><time>2026-07-01T20:53:45.000Z</time></trkpt>
        <trkpt lat="29.341076" lon="103.458625"><ele>587.7583</ele><time>2026-07-01T20:53:49.000Z</time></trkpt>
        <trkpt lat="29.341076" lon="103.458625"><ele>587.7583</ele><time>2026-07-01T20:53:51.000Z</time></trkpt>
        <trkpt lat="29.341078" lon="103.458625"><ele>587.7583</ele><time>2026-07-01T20:53:53.000Z</time></trkpt>
        <trkpt lat="29.341217" lon="103.458661"><ele>587.7583</ele><time>2026-07-01T20:54:05.000Z</time></trkpt>
        <trkpt lat="29.341234" lon="103.458665"><ele>587.7583</ele><time>2026-07-01T20:54:07.000Z</time></trkpt>
        <trkpt lat="29.341199" lon="103.458559"><ele>630.2626</ele><time>2026-07-01T20:54:13.000Z</time></trkpt>
        <trkpt lat="29.34128" lon="103.458495"><ele>630.2626</ele><time>2026-07-01T20:54:39.000Z</time></trkpt>
        <trkpt lat="29.34128" lon="103.458494"><ele>630.2626</ele><time>2026-07-01T20:54:41.000Z</time></trkpt>
        <trkpt lat="29.341282" lon="103.458495"><ele>623.5615</ele><time>2026-07-01T20:54:43.000Z</time></trkpt>
        <trkpt lat="29.341368" lon="103.458516"><ele>623.5599</ele><time>2026-07-01T20:54:52.000Z</time></trkpt>
        <trkpt lat="29.341368" lon="103.458516"><ele>623.4835</ele><time>2026-07-01T20:54:54.000Z</time></trkpt>
        <trkpt lat="29.341345" lon="103.458353"><ele>622.1383</ele><time>2026-07-01T20:55:12.000Z</time></trkpt>
        <trkpt lat="29.341363" lon="103.45824"><ele>622.136</ele><time>2026-07-01T20:55:18.000Z</time></trkpt>
        <trkpt lat="29.341363" lon="103.45824"><ele>620.6091</ele><time>2026-07-01T20:55:20.000Z</time></trkpt>
        <trkpt lat="29.341422" lon="103.458113"><ele>619.703</ele><time>2026-07-01T20:55:32.000Z</time></trkpt>
        <trkpt lat="29.341515" lon="103.458049"><ele>619.70215</ele><time>2026-07-01T20:55:36.000Z</time></trkpt>
        <trkpt lat="29.341507" lon="103.458003"><ele>619.2609</ele><time>2026-07-01T20:55:38.000Z</time></trkpt>
        <trkpt lat="29.341309" lon="103.457996"><ele>618.923</ele><time>2026-07-01T20:55:56.000Z</time></trkpt>
        <trkpt lat="29.341318" lon="103.457997"><ele>618.8079</ele><time>2026-07-01T20:55:58.000Z</time></trkpt>
        <trkpt lat="29.341332" lon="103.457999"><ele>614.1507</ele><time>2026-07-01T20:56:00.000Z</time></trkpt>
        <trkpt lat="29.341304" lon="103.457799"><ele>613.80396</ele><time>2026-07-01T20:56:21.000Z</time></trkpt>
        <trkpt lat="29.341312" lon="103.457771"><ele>613.4657</ele><time>2026-07-01T20:56:23.000Z</time></trkpt>
        <trkpt lat="29.341319" lon="103.457745"><ele>610.34436</ele><time>2026-07-01T20:56:25.000Z</time></trkpt>
        <trkpt lat="29.34126" lon="103.457584"><ele>610.34436</ele><time>2026-07-01T20:56:39.000Z</time></trkpt>
        <trkpt lat="29.341311" lon="103.457563"><ele>609.6395</ele><time>2026-07-01T20:56:43.000Z</time></trkpt>
        <trkpt lat="29.341357" lon="103.457496"><ele>609.3412</ele><time>2026-07-01T20:56:45.000Z</time></trkpt>
        <trkpt lat="29.341356" lon="103.457494"><ele>608.80536</ele><time>2026-07-01T20:56:49.000Z</time></trkpt>
        <trkpt lat="29.341404" lon="103.457561"><ele>604.2741</ele><time>2026-07-01T20:56:59.000Z</time></trkpt>
      </trkseg>
      <trkseg>
        <trkpt lat="29.341484" lon="103.457228"><ele>589.55493</ele><time>2026-07-01T20:57:41.000Z</time></trkpt>
        <trkpt lat="29.341453" lon="103.457096"><ele>583.18665</ele><time>2026-07-01T20:57:51.000Z</time></trkpt>
        <trkpt lat="29.341434" lon="103.457007"><ele>583.18665</ele><time>2026-07-01T20:57:57.000Z</time></trkpt>
        <trkpt lat="29.341434" lon="103.457007"><ele>577.5713</ele><time>2026-07-01T20:57:59.000Z</time></trkpt>
        <trkpt lat="29.341437" lon="103.457"><ele>571.97723</ele><time>2026-07-01T20:58:01.000Z</time></trkpt>
        <trkpt lat="29.341463" lon="103.45695"><ele>571.97723</ele><time>2026-07-01T20:58:05.000Z</time></trkpt>
        <trkpt lat="29.341476" lon="103.456923"><ele>571.97723</ele><time>2026-07-01T20:58:07.000Z</time></trkpt>
        <trkpt lat="29.341494" lon="103.456901"><ele>573.7477</ele><time>2026-07-01T20:58:09.000Z</time></trkpt>
        <trkpt lat="29.341579" lon="103.4568"><ele>575.9973</ele><time>2026-07-01T20:58:13.000Z</time></trkpt>
        <trkpt lat="29.341579" lon="103.4568"><ele>576.93524</ele><time>2026-07-01T20:58:15.000Z</time></trkpt>
        <trkpt lat="29.34158" lon="103.456801"><ele>588.0445</ele><time>2026-07-01T20:58:17.000Z</time></trkpt>
        <trkpt lat="29.341611" lon="103.45682"><ele>588.0445</ele><time>2026-07-01T20:58:25.000Z</time></trkpt>
        <trkpt lat="29.341613" lon="103.456855"><ele>588.0445</ele><time>2026-07-01T20:58:33.000Z</time></trkpt>
        <trkpt lat="29.341613" lon="103.456856"><ele>585.5663</ele><time>2026-07-01T20:58:35.000Z</time></trkpt>
        <trkpt lat="29.341608" lon="103.45686"><ele>583.7137</ele><time>2026-07-01T20:58:37.000Z</time></trkpt>
        <trkpt lat="29.341568" lon="103.456883"><ele>583.7137</ele><time>2026-07-01T20:58:53.000Z</time></trkpt>
        <trkpt lat="29.341545" lon="103.456902"><ele>583.7137</ele><time>2026-07-01T20:59:07.000Z</time></trkpt>
        <trkpt lat="29.341545" lon="103.456903"><ele>584.98206</ele><time>2026-07-01T20:59:10.000Z</time></trkpt>
        <trkpt lat="29.341546" lon="103.456933"><ele>584.98206</ele><time>2026-07-01T20:59:12.000Z</time></trkpt>
        <trkpt lat="29.341549" lon="103.456972"><ele>584.98206</ele><time>2026-07-01T20:59:14.000Z</time></trkpt>
        <trkpt lat="29.341554" lon="103.457001"><ele>584.5569</ele><time>2026-07-01T20:59:16.000Z</time></trkpt>
        <trkpt lat="29.341561" lon="103.457017"><ele>584.26685</ele><time>2026-07-01T20:59:18.000Z</time></trkpt>
        <trkpt lat="29.341567" lon="103.457021"><ele>583.82245</ele><time>2026-07-01T20:59:20.000Z</time></trkpt>
        <trkpt lat="29.341531" lon="103.456983"><ele>583.82245</ele><time>2026-07-01T20:59:53.000Z</time></trkpt>
        <trkpt lat="29.341515" lon="103.456967"><ele>583.82245</ele><time>2026-07-01T20:59:55.000Z</time></trkpt>
        <trkpt lat="29.341525" lon="103.456942"><ele>585.8625</ele><time>2026-07-01T20:59:57.000Z</time></trkpt>
        <trkpt lat="29.341588" lon="103.456786"><ele>585.90533</ele><time>2026-07-01T21:00:10.000Z</time></trkpt>
        <trkpt lat="29.341588" lon="103.456786"><ele>586.1272</ele><time>2026-07-01T21:00:12.000Z</time></trkpt>
        <trkpt lat="29.341589" lon="103.456785"><ele>586.6695</ele><time>2026-07-01T21:00:14.000Z</time></trkpt>
        <trkpt lat="29.341571" lon="103.456822"><ele>586.6695</ele><time>2026-07-01T21:00:24.000Z</time></trkpt>
        <trkpt lat="29.341568" lon="103.456826"><ele>586.6695</ele><time>2026-07-01T21:00:26.000Z</time></trkpt>
        <trkpt lat="29.341568" lon="103.456826"><ele>584.5389</ele><time>2026-07-01T21:00:30.000Z</time></trkpt>
        <trkpt lat="29.341619" lon="103.456763"><ele>584.53375</ele><time>2026-07-01T21:00:37.000Z</time></trkpt>
        <trkpt lat="29.341619" lon="103.456762"><ele>584.19525</ele><time>2026-07-01T21:00:39.000Z</time></trkpt>
        <trkpt lat="29.341621" lon="103.456758"><ele>583.965</ele><time>2026-07-01T21:00:41.000Z</time></trkpt>
        <trkpt lat="29.341643" lon="103.456714"><ele>583.965</ele><time>2026-07-01T21:00:45.000Z</time></trkpt>
        <trkpt lat="29.341648" lon="103.456693"><ele>583.965</ele><time>2026-07-01T21:00:47.000Z</time></trkpt>
        <trkpt lat="29.341654" lon="103.456678"><ele>583.9937</ele><time>2026-07-01T21:00:49.000Z</time></trkpt>
        <trkpt lat="29.341663" lon="103.456665"><ele>584.0843</ele><time>2026-07-01T21:00:51.000Z</time></trkpt>
        <trkpt lat="29.341662" lon="103.456664"><ele>584.0843</ele><time>2026-07-01T21:00:53.000Z</time></trkpt>
        <trkpt lat="29.341642" lon="103.456637"><ele>583.9937</ele><time>2026-07-01T21:00:57.000Z</time></trkpt>
        <trkpt lat="29.341631" lon="103.456623"><ele>583.79926</ele><time>2026-07-01T21:00:59.000Z</time></trkpt>
        <trkpt lat="29.341616" lon="103.456604"><ele>583.64594</ele><time>2026-07-01T21:01:01.000Z</time></trkpt>
        <trkpt lat="29.341602" lon="103.456582"><ele>583.5523</ele><time>2026-07-01T21:01:03.000Z</time></trkpt>
        <trkpt lat="29.341597" lon="103.456563"><ele>583.53613</ele><time>2026-07-01T21:01:05.000Z</time></trkpt>
        <trkpt lat="29.341592" lon="103.456547"><ele>583.43427</ele><time>2026-07-01T21:01:07.000Z</time></trkpt>
        <trkpt lat="29.341587" lon="103.456526"><ele>583.43427</ele><time>2026-07-01T21:01:09.000Z</time></trkpt>
        <trkpt lat="29.341581" lon="103.456499"><ele>583.43427</ele><time>2026-07-01T21:01:11.000Z</time></trkpt>
        <trkpt lat="29.341577" lon="103.456472"><ele>583.9327</ele><time>2026-07-01T21:01:13.000Z</time></trkpt>
        <trkpt lat="29.341575" lon="103.456452"><ele>584.82874</ele><time>2026-07-01T21:01:15.000Z</time></trkpt>
        <trkpt lat="29.341572" lon="103.456431"><ele>585.14545</ele><time>2026-07-01T21:01:18.000Z</time></trkpt>
        <trkpt lat="29.341564" lon="103.45641"><ele>586.0716</ele><time>2026-07-01T21:01:20.000Z</time></trkpt>
        <trkpt lat="29.341555" lon="103.456397"><ele>586.87885</ele><time>2026-07-01T21:01:22.000Z</time></trkpt>
        <trkpt lat="29.341543" lon="103.456377"><ele>587.7931</ele><time>2026-07-01T21:01:24.000Z</time></trkpt>
        <trkpt lat="29.341544" lon="103.456366"><ele>588.69684</ele><time>2026-07-01T21:01:26.000Z</time></trkpt>
        <trkpt lat="29.341541" lon="103.456361"><ele>590.0964</ele><time>2026-07-01T21:01:28.000Z</time></trkpt>
        <trkpt lat="29.341529" lon="103.456353"><ele>591.07294</ele><time>2026-07-01T21:01:34.000Z</time></trkpt>
        <trkpt lat="29.341489" lon="103.456327"><ele>591.43884</ele><time>2026-07-01T21:01:37.000Z</time></trkpt>
        <trkpt lat="29.341489" lon="103.456327"><ele>591.43884</ele><time>2026-07-01T21:01:39.000Z</time></trkpt>
        <trkpt lat="29.341489" lon="103.456325"><ele>591.43884</ele><time>2026-07-01T21:01:41.000Z</time></trkpt>
        <trkpt lat="29.341493" lon="103.45629"><ele>591.41644</ele><time>2026-07-01T21:01:45.000Z</time></trkpt>
        <trkpt lat="29.341493" lon="103.456281"><ele>590.7917</ele><time>2026-07-01T21:01:47.000Z</time></trkpt>
        <trkpt lat="29.341494" lon="103.45627"><ele>590.52844</ele><time>2026-07-01T21:01:49.000Z</time></trkpt>
        <trkpt lat="29.3415" lon="103.456203"><ele>590.52844</ele><time>2026-07-01T21:01:56.000Z</time></trkpt>
        <trkpt lat="29.341501" lon="103.456203"><ele>590.52844</ele><time>2026-07-01T21:01:58.000Z</time></trkpt>
        <trkpt lat="29.341517" lon="103.456198"><ele>594.8438</ele><time>2026-07-01T21:02:00.000Z</time></trkpt>
        <trkpt lat="29.341586" lon="103.45617"><ele>594.8466</ele><time>2026-07-01T21:02:02.000Z</time></trkpt>
        <trkpt lat="29.341613" lon="103.456156"><ele>594.9165</ele><time>2026-07-01T21:02:04.000Z</time></trkpt>
        <trkpt lat="29.341621" lon="103.456159"><ele>595.16327</ele><time>2026-07-01T21:02:06.000Z</time></trkpt>
        <trkpt lat="29.341644" lon="103.456178"><ele>595.1945</ele><time>2026-07-01T21:02:08.000Z</time></trkpt>
        <trkpt lat="29.341658" lon="103.456195"><ele>595.2665</ele><time>2026-07-01T21:02:10.000Z</time></trkpt>
        <trkpt lat="29.341669" lon="103.456214"><ele>595.8674</ele><time>2026-07-01T21:02:12.000Z</time></trkpt>
        <trkpt lat="29.341674" lon="103.456227"><ele>596.2649</ele><time>2026-07-01T21:02:14.000Z</time></trkpt>
        <trkpt lat="29.341679" lon="103.456243"><ele>596.2649</ele><time>2026-07-01T21:02:16.000Z</time></trkpt>
        <trkpt lat="29.34168" lon="103.456254"><ele>596.2649</ele><time>2026-07-01T21:02:18.000Z</time></trkpt>
        <trkpt lat="29.341675" lon="103.456276"><ele>595.9746</ele><time>2026-07-01T21:02:22.000Z</time></trkpt>
        <trkpt lat="29.34167" lon="103.45628"><ele>595.5218</ele><time>2026-07-01T21:02:24.000Z</time></trkpt>
        <trkpt lat="29.341668" lon="103.456286"><ele>595.02203</ele><time>2026-07-01T21:02:34.000Z</time></trkpt>
        <trkpt lat="29.341723" lon="103.456139"><ele>595.02203</ele><time>2026-07-01T21:02:50.000Z</time></trkpt>
        <trkpt lat="29.341723" lon="103.456139"><ele>595.02203</ele><time>2026-07-01T21:02:52.000Z</time></trkpt>
        <trkpt lat="29.341729" lon="103.456135"><ele>596.1487</ele><time>2026-07-01T21:02:54.000Z</time></trkpt>
        <trkpt lat="29.341749" lon="103.456121"><ele>596.1487</ele><time>2026-07-01T21:02:56.000Z</time></trkpt>
        <trkpt lat="29.341769" lon="103.456096"><ele>596.1487</ele><time>2026-07-01T21:02:58.000Z</time></trkpt>
        <trkpt lat="29.341784" lon="103.456063"><ele>595.484</ele><time>2026-07-01T21:03:00.000Z</time></trkpt>
        <trkpt lat="29.341794" lon="103.456028"><ele>594.41516</ele><time>2026-07-01T21:03:02.000Z</time></trkpt>
        <trkpt lat="29.3418" lon="103.455995"><ele>594.0805</ele><time>2026-07-01T21:03:04.000Z</time></trkpt>
        <trkpt lat="29.341803" lon="103.455958"><ele>594.0805</ele><time>2026-07-01T21:03:07.000Z</time></trkpt>
        <trkpt lat="29.341804" lon="103.455958"><ele>594.0805</ele><time>2026-07-01T21:03:10.000Z</time></trkpt>
        <trkpt lat="29.341804" lon="103.455958"><ele>594.09247</ele><time>2026-07-01T21:03:12.000Z</time></trkpt>
        <trkpt lat="29.341826" lon="103.455926"><ele>594.1082</ele><time>2026-07-01T21:03:31.000Z</time></trkpt>
        <trkpt lat="29.341868" lon="103.455922"><ele>594.1347</ele><time>2026-07-01T21:03:42.000Z</time></trkpt>
        <trkpt lat="29.341868" lon="103.455922"><ele>598.8329</ele><time>2026-07-01T21:03:44.000Z</time></trkpt>
        <trkpt lat="29.341869" lon="103.455921"><ele>602.3113</ele><time>2026-07-01T21:03:46.000Z</time></trkpt>
        <trkpt lat="29.341902" lon="103.455873"><ele>602.3113</ele><time>2026-07-01T21:03:51.000Z</time></trkpt>
        <trkpt lat="29.341902" lon="103.455873"><ele>602.3113</ele><time>2026-07-01T21:03:53.000Z</time></trkpt>
        <trkpt lat="29.341911" lon="103.455871"><ele>601.5862</ele><time>2026-07-01T21:03:55.000Z</time></trkpt>
        <trkpt lat="29.3421" lon="103.455843"><ele>601.58203</ele><time>2026-07-01T21:04:01.000Z</time></trkpt>
        <trkpt lat="29.3421" lon="103.455843"><ele>601.3057</ele><time>2026-07-01T21:04:03.000Z</time></trkpt>
        <trkpt lat="29.342107" lon="103.45584"><ele>595.91974</ele><time>2026-07-01T21:04:05.000Z</time></trkpt>
        <trkpt lat="29.342152" lon="103.455824"><ele>595.915</ele><time>2026-07-01T21:04:09.000Z</time></trkpt>
        <trkpt lat="29.342169" lon="103.45582"><ele>595.78564</ele><time>2026-07-01T21:04:11.000Z</time></trkpt>
        <trkpt lat="29.342196" lon="103.45582"><ele>594.4655</ele><time>2026-07-01T21:04:13.000Z</time></trkpt>
        <trkpt lat="29.342221" lon="103.455822"><ele>593.79376</ele><time>2026-07-01T21:04:15.000Z</time></trkpt>
        <trkpt lat="29.342241" lon="103.455825"><ele>592.7936</ele><time>2026-07-01T21:04:17.000Z</time></trkpt>
        <trkpt lat="29.342256" lon="103.45582"><ele>591.38696</ele><time>2026-07-01T21:04:19.000Z</time></trkpt>
        <trkpt lat="29.342263" lon="103.455807"><ele>589.5883</ele><time>2026-07-01T21:04:21.000Z</time></trkpt>
        <trkpt lat="29.342268" lon="103.455784"><ele>587.8387</ele><time>2026-07-01T21:04:23.000Z</time></trkpt>
        <trkpt lat="29.342262" lon="103.45576"><ele>586.34045</ele><time>2026-07-01T21:04:25.000Z</time></trkpt>
        <trkpt lat="29.342249" lon="103.455744"><ele>585.1895</ele><time>2026-07-01T21:04:27.000Z</time></trkpt>
        <trkpt lat="29.342225" lon="103.455729"><ele>584.5385</ele><time>2026-07-01T21:04:29.000Z</time></trkpt>
        <trkpt lat="29.342211" lon="103.455729"><ele>583.5944</ele><time>2026-07-01T21:04:31.000Z</time></trkpt>
        <trkpt lat="29.342209" lon="103.455734"><ele>582.6657</ele><time>2026-07-01T21:04:33.000Z</time></trkpt>
        <trkpt lat="29.342207" lon="103.455754"><ele>582.1319</ele><time>2026-07-01T21:04:35.000Z</time></trkpt>
        <trkpt lat="29.342208" lon="103.455784"><ele>581.7284</ele><time>2026-07-01T21:04:37.000Z</time></trkpt>
        <trkpt lat="29.342211" lon="103.455806"><ele>581.19025</ele><time>2026-07-01T21:04:39.000Z</time></trkpt>
        <trkpt lat="29.342217" lon="103.455813"><ele>580.4202</ele><time>2026-07-01T21:04:41.000Z</time></trkpt>
        <trkpt lat="29.342235" lon="103.455827"><ele>579.9656</ele><time>2026-07-01T21:04:44.000Z</time></trkpt>
        <trkpt lat="29.342241" lon="103.455828"><ele>579.76324</ele><time>2026-07-01T21:04:46.000Z</time></trkpt>
        <trkpt lat="29.342244" lon="103.45583"><ele>579.53033</ele><time>2026-07-01T21:04:48.000Z</time></trkpt>
        <trkpt lat="29.342296" lon="103.455862"><ele>579.13513</ele><time>2026-07-01T21:04:59.000Z</time></trkpt>
        <trkpt lat="29.342296" lon="103.455862"><ele>578.8311</ele><time>2026-07-01T21:05:01.000Z</time></trkpt>
        <trkpt lat="29.342299" lon="103.455861"><ele>578.5254</ele><time>2026-07-01T21:05:03.000Z</time></trkpt>
        <trkpt lat="29.342338" lon="103.455849"><ele>578.5254</ele><time>2026-07-01T21:05:07.000Z</time></trkpt>
        <trkpt lat="29.342365" lon="103.455844"><ele>578.5254</ele><time>2026-07-01T21:05:09.000Z</time></trkpt>
        <trkpt lat="29.342398" lon="103.455839"><ele>579.3696</ele><time>2026-07-01T21:05:11.000Z</time></trkpt>
        <trkpt lat="29.34243" lon="103.455837"><ele>579.76044</ele><time>2026-07-01T21:05:13.000Z</time></trkpt>
        <trkpt lat="29.342457" lon="103.455836"><ele>579.9932</ele><time>2026-07-01T21:05:15.000Z</time></trkpt>
        <trkpt lat="29.342479" lon="103.455833"><ele>580.0913</ele><time>2026-07-01T21:05:17.000Z</time></trkpt>
        <trkpt lat="29.3425" lon="103.455829"><ele>580.13446</ele><time>2026-07-01T21:05:19.000Z</time></trkpt>
        <trkpt lat="29.34252" lon="103.455823"><ele>580.13763</ele><time>2026-07-01T21:05:21.000Z</time></trkpt>
        <trkpt lat="29.342536" lon="103.455821"><ele>580.1586</ele><time>2026-07-01T21:05:23.000Z</time></trkpt>
        <trkpt lat="29.342553" lon="103.455821"><ele>580.1586</ele><time>2026-07-01T21:05:25.000Z</time></trkpt>
        <trkpt lat="29.342568" lon="103.455823"><ele>580.1586</ele><time>2026-07-01T21:05:27.000Z</time></trkpt>
        <trkpt lat="29.342587" lon="103.455829"><ele>579.73694</ele><time>2026-07-01T21:05:29.000Z</time></trkpt>
        <trkpt lat="29.342605" lon="103.455834"><ele>579.1162</ele><time>2026-07-01T21:05:31.000Z</time></trkpt>
        <trkpt lat="29.342618" lon="103.455836"><ele>578.51794</ele><time>2026-07-01T21:05:33.000Z</time></trkpt>
        <trkpt lat="29.342634" lon="103.455833"><ele>577.7888</ele><time>2026-07-01T21:05:35.000Z</time></trkpt>
        <trkpt lat="29.342646" lon="103.455824"><ele>577.62317</ele><time>2026-07-01T21:05:37.000Z</time></trkpt>
        <trkpt lat="29.342665" lon="103.455809"><ele>577.62317</ele><time>2026-07-01T21:05:39.000Z</time></trkpt>
        <trkpt lat="29.34269" lon="103.455797"><ele>577.62317</ele><time>2026-07-01T21:05:41.000Z</time></trkpt>
        <trkpt lat="29.342711" lon="103.455791"><ele>578.5729</ele><time>2026-07-01T21:05:43.000Z</time></trkpt>
        <trkpt lat="29.342727" lon="103.455785"><ele>579.8243</ele><time>2026-07-01T21:05:45.000Z</time></trkpt>
        <trkpt lat="29.342745" lon="103.455779"><ele>580.8345</ele><time>2026-07-01T21:05:47.000Z</time></trkpt>
        <trkpt lat="29.342765" lon="103.455772"><ele>580.9124</ele><time>2026-07-01T21:05:49.000Z</time></trkpt>
        <trkpt lat="29.342789" lon="103.455761"><ele>580.946</ele><time>2026-07-01T21:05:51.000Z</time></trkpt>
        <trkpt lat="29.342816" lon="103.455744"><ele>581.1203</ele><time>2026-07-01T21:05:53.000Z</time></trkpt>
        <trkpt lat="29.342845" lon="103.455724"><ele>581.32275</ele><time>2026-07-01T21:05:55.000Z</time></trkpt>
        <trkpt lat="29.342876" lon="103.455707"><ele>582.4754</ele><time>2026-07-01T21:05:57.000Z</time></trkpt>
        <trkpt lat="29.342895" lon="103.455702"><ele>584.23785</ele><time>2026-07-01T21:05:59.000Z</time></trkpt>
        <trkpt lat="29.342907" lon="103.455706"><ele>586.045</ele><time>2026-07-01T21:06:01.000Z</time></trkpt>
        <trkpt lat="29.342912" lon="103.455713"><ele>587.3871</ele><time>2026-07-01T21:06:03.000Z</time></trkpt>
        <trkpt lat="29.342941" lon="103.45575"><ele>588.4976</ele><time>2026-07-01T21:06:08.000Z</time></trkpt>
        <trkpt lat="29.342934" lon="103.455787"><ele>589.9021</ele><time>2026-07-01T21:06:10.000Z</time></trkpt>
        <trkpt lat="29.342908" lon="103.455907"><ele>590.8253</ele><time>2026-07-01T21:06:14.000Z</time></trkpt>
        <trkpt lat="29.342908" lon="103.455907"><ele>590.8253</ele><time>2026-07-01T21:06:16.000Z</time></trkpt>
        <trkpt lat="29.342907" lon="103.455905"><ele>590.8253</ele><time>2026-07-01T21:06:18.000Z</time></trkpt>
        <trkpt lat="29.34284" lon="103.455695"><ele>590.81647</ele><time>2026-07-01T21:06:27.000Z</time></trkpt>
        <trkpt lat="29.34284" lon="103.455695"><ele>590.5333</ele><time>2026-07-01T21:06:29.000Z</time></trkpt>
        <trkpt lat="29.34284" lon="103.455695"><ele>584.5225</ele><time>2026-07-01T21:06:31.000Z</time></trkpt>
        <trkpt lat="29.342839" lon="103.455735"><ele>584.5225</ele><time>2026-07-01T21:06:35.000Z</time></trkpt>
        <trkpt lat="29.342837" lon="103.455752"><ele>584.5225</ele><time>2026-07-01T21:06:37.000Z</time></trkpt>
        <trkpt lat="29.342834" lon="103.455769"><ele>582.68536</ele><time>2026-07-01T21:06:39.000Z</time></trkpt>
        <trkpt lat="29.342833" lon="103.455769"><ele>581.2085</ele><time>2026-07-01T21:06:41.000Z</time></trkpt>
        <trkpt lat="29.342792" lon="103.45576"><ele>579.5295</ele><time>2026-07-01T21:06:45.000Z</time></trkpt>
        <trkpt lat="29.342778" lon="103.455757"><ele>578.47833</ele><time>2026-07-01T21:06:47.000Z</time></trkpt>
        <trkpt lat="29.342777" lon="103.455759"><ele>574.18896</ele><time>2026-07-01T21:06:49.000Z</time></trkpt>
        <trkpt lat="29.342758" lon="103.455801"><ele>573.05334</ele><time>2026-07-01T21:07:34.000Z</time></trkpt>
        <trkpt lat="29.342805" lon="103.455801"><ele>572.2175</ele><time>2026-07-01T21:07:47.000Z</time></trkpt>
        <trkpt lat="29.342829" lon="103.4558"><ele>565.174</ele><time>2026-07-01T21:07:49.000Z</time></trkpt>
        <trkpt lat="29.34283" lon="103.455799"><ele>564.2706</ele><time>2026-07-01T21:07:51.000Z</time></trkpt>
        <trkpt lat="29.34284" lon="103.45578"><ele>563.75476</ele><time>2026-07-01T21:07:55.000Z</time></trkpt>
        <trkpt lat="29.342859" lon="103.455737"><ele>563.7523</ele><time>2026-07-01T21:07:59.000Z</time></trkpt>
        <trkpt lat="29.342873" lon="103.455706"><ele>563.6528</ele><time>2026-07-01T21:08:01.000Z</time></trkpt>
        <trkpt lat="29.342919" lon="103.455609"><ele>563.6528</ele><time>2026-07-01T21:08:05.000Z</time></trkpt>
        <trkpt lat="29.342919" lon="103.455609"><ele>563.6528</ele><time>2026-07-01T21:08:07.000Z</time></trkpt>
        <trkpt lat="29.34292" lon="103.455607"><ele>571.98145</ele><time>2026-07-01T21:08:09.000Z</time></trkpt>
        <trkpt lat="29.34296" lon="103.45554"><ele>571.9931</ele><time>2026-07-01T21:08:20.000Z</time></trkpt>
        <trkpt lat="29.342954" lon="103.455522"><ele>572.31024</ele><time>2026-07-01T21:08:22.000Z</time></trkpt>
        <trkpt lat="29.342956" lon="103.455518"><ele>585.8883</ele><time>2026-07-01T21:08:24.000Z</time></trkpt>
        <trkpt lat="29.342984" lon="103.45547"><ele>587.36835</ele><time>2026-07-01T21:08:41.000Z</time></trkpt>
        <trkpt lat="29.342984" lon="103.45547"><ele>588.45935</ele><time>2026-07-01T21:08:43.000Z</time></trkpt>
        <trkpt lat="29.342945" lon="103.455435"><ele>590.97266</ele><time>2026-07-01T21:08:45.000Z</time></trkpt>
        <trkpt lat="29.343096" lon="103.455448"><ele>590.97266</ele><time>2026-07-01T21:08:59.000Z</time></trkpt>
        <trkpt lat="29.343096" lon="103.455448"><ele>590.97266</ele><time>2026-07-01T21:09:01.000Z</time></trkpt>
        <trkpt lat="29.343098" lon="103.455447"><ele>586.0589</ele><time>2026-07-01T21:09:03.000Z</time></trkpt>
        <trkpt lat="29.343126" lon="103.455426"><ele>586.0589</ele><time>2026-07-01T21:09:07.000Z</time></trkpt>
        <trkpt lat="29.34315" lon="103.455408"><ele>586.0589</ele><time>2026-07-01T21:09:09.000Z</time></trkpt>
        <trkpt lat="29.343173" lon="103.455389"><ele>587.3313</ele><time>2026-07-01T21:09:11.000Z</time></trkpt>
        <trkpt lat="29.343193" lon="103.455376"><ele>588.812</ele><time>2026-07-01T21:09:13.000Z</time></trkpt>
        <trkpt lat="29.34321" lon="103.455367"><ele>590.1662</ele><time>2026-07-01T21:09:15.000Z</time></trkpt>
        <trkpt lat="29.343225" lon="103.455357"><ele>591.07446</ele><time>2026-07-01T21:09:17.000Z</time></trkpt>
        <trkpt lat="29.343237" lon="103.455347"><ele>591.82324</ele><time>2026-07-01T21:09:19.000Z</time></trkpt>
        <trkpt lat="29.343248" lon="103.455336"><ele>592.3402</ele><time>2026-07-01T21:09:21.000Z</time></trkpt>
        <trkpt lat="29.343254" lon="103.455328"><ele>592.42194</ele><time>2026-07-01T21:09:23.000Z</time></trkpt>
        <trkpt lat="29.343262" lon="103.455316"><ele>592.4222</ele><time>2026-07-01T21:09:25.000Z</time></trkpt>
        <trkpt lat="29.343272" lon="103.455304"><ele>592.51935</ele><time>2026-07-01T21:09:27.000Z</time></trkpt>
        <trkpt lat="29.343283" lon="103.455293"><ele>593.23956</ele><time>2026-07-01T21:09:29.000Z</time></trkpt>
        <trkpt lat="29.343287" lon="103.455293"><ele>594.02765</ele><time>2026-07-01T21:09:31.000Z</time></trkpt>
        <trkpt lat="29.343303" lon="103.455286"><ele>594.96246</ele><time>2026-07-01T21:09:37.000Z</time></trkpt>
        <trkpt lat="29.34331" lon="103.45528"><ele>595.363</ele><time>2026-07-01T21:09:41.000Z</time></trkpt>
        <trkpt lat="29.343313" lon="103.455273"><ele>596.47186</ele><time>2026-07-01T21:09:43.000Z</time></trkpt>
        <trkpt lat="29.343329" lon="103.455239"><ele>596.47186</ele><time>2026-07-01T21:09:48.000Z</time></trkpt>
        <trkpt lat="29.343329" lon="103.455239"><ele>596.47186</ele><time>2026-07-01T21:09:50.000Z</time></trkpt>
        <trkpt lat="29.34333" lon="103.455237"><ele>595.6262</ele><time>2026-07-01T21:09:52.000Z</time></trkpt>
        <trkpt lat="29.343343" lon="103.455198"><ele>595.6256</ele><time>2026-07-01T21:09:58.000Z</time></trkpt>
        <trkpt lat="29.343344" lon="103.455197"><ele>595.5548</ele><time>2026-07-01T21:10:01.000Z</time></trkpt>
        <trkpt lat="29.343351" lon="103.45519"><ele>593.52185</ele><time>2026-07-01T21:10:03.000Z</time></trkpt>
        <trkpt lat="29.34337" lon="103.455177"><ele>593.52185</ele><time>2026-07-01T21:10:05.000Z</time></trkpt>
        <trkpt lat="29.343399" lon="103.455162"><ele>593.52185</ele><time>2026-07-01T21:10:07.000Z</time></trkpt>
        <trkpt lat="29.343426" lon="103.455151"><ele>593.72516</ele><time>2026-07-01T21:10:09.000Z</time></trkpt>
        <trkpt lat="29.343452" lon="103.455144"><ele>593.7315</ele><time>2026-07-01T21:10:11.000Z</time></trkpt>
        <trkpt lat="29.343475" lon="103.455139"><ele>593.8671</ele><time>2026-07-01T21:10:13.000Z</time></trkpt>
        <trkpt lat="29.343496" lon="103.455134"><ele>594.2015</ele><time>2026-07-01T21:10:15.000Z</time></trkpt>
        <trkpt lat="29.343514" lon="103.455133"><ele>594.7278</ele><time>2026-07-01T21:10:17.000Z</time></trkpt>
        <trkpt lat="29.343529" lon="103.455135"><ele>595.42957</ele><time>2026-07-01T21:10:19.000Z</time></trkpt>
        <trkpt lat="29.343543" lon="103.455135"><ele>596.5688</ele><time>2026-07-01T21:10:20.000Z</time></trkpt>
        <trkpt lat="29.343549" lon="103.455132"><ele>597.44293</ele><time>2026-07-01T21:10:22.000Z</time></trkpt>
        <trkpt lat="29.343553" lon="103.455123"><ele>598.269</ele><time>2026-07-01T21:10:24.000Z</time></trkpt>
        <trkpt lat="29.343567" lon="103.45509"><ele>599.17456</ele><time>2026-07-01T21:10:39.000Z</time></trkpt>
        <trkpt lat="29.343567" lon="103.45509"><ele>599.9677</ele><time>2026-07-01T21:10:41.000Z</time></trkpt>
        <trkpt lat="29.343567" lon="103.45509"><ele>603.14526</ele><time>2026-07-01T21:10:43.000Z</time></trkpt>
        <trkpt lat="29.343564" lon="103.45503"><ele>603.1485</ele><time>2026-07-01T21:10:46.000Z</time></trkpt>
        <trkpt lat="29.343564" lon="103.45503"><ele>603.2382</ele><time>2026-07-01T21:10:48.000Z</time></trkpt>
        <trkpt lat="29.343566" lon="103.455026"><ele>605.07367</ele><time>2026-07-01T21:10:50.000Z</time></trkpt>
        <trkpt lat="29.343587" lon="103.454995"><ele>605.07367</ele><time>2026-07-01T21:10:54.000Z</time></trkpt>
        <trkpt lat="29.343601" lon="103.454981"><ele>605.07367</ele><time>2026-07-01T21:10:56.000Z</time></trkpt>
        <trkpt lat="29.343613" lon="103.454979"><ele>605.07367</ele><time>2026-07-01T21:10:58.000Z</time></trkpt>
        <trkpt lat="29.343614" lon="103.45498"><ele>605.07367</ele><time>2026-07-01T21:11:00.000Z</time></trkpt>
        <trkpt lat="29.343631" lon="103.455026"><ele>605.0637</ele><time>2026-07-01T21:11:04.000Z</time></trkpt>
        <trkpt lat="29.343641" lon="103.455049"><ele>605.0637</ele><time>2026-07-01T21:11:06.000Z</time></trkpt>
        <trkpt lat="29.343652" lon="103.455074"><ele>604.845</ele><time>2026-07-01T21:11:08.000Z</time></trkpt>
        <trkpt lat="29.343659" lon="103.455089"><ele>604.845</ele><time>2026-07-01T21:11:10.000Z</time></trkpt>
        <trkpt lat="29.343667" lon="103.455102"><ele>604.845</ele><time>2026-07-01T21:11:12.000Z</time></trkpt>
        <trkpt lat="29.343675" lon="103.455116"><ele>605.08826</ele><time>2026-07-01T21:11:14.000Z</time></trkpt>
        <trkpt lat="29.343681" lon="103.455129"><ele>605.7605</ele><time>2026-07-01T21:11:16.000Z</time></trkpt>
        <trkpt lat="29.343687" lon="103.455144"><ele>606.5847</ele><time>2026-07-01T21:11:18.000Z</time></trkpt>
        <trkpt lat="29.343694" lon="103.455155"><ele>606.7348</ele><time>2026-07-01T21:11:20.000Z</time></trkpt>
        <trkpt lat="29.343704" lon="103.455165"><ele>606.7348</ele><time>2026-07-01T21:11:22.000Z</time></trkpt>
        <trkpt lat="29.343713" lon="103.455174"><ele>606.7348</ele><time>2026-07-01T21:11:24.000Z</time></trkpt>
        <trkpt lat="29.343722" lon="103.455183"><ele>606.7348</ele><time>2026-07-01T21:11:26.000Z</time></trkpt>
        <trkpt lat="29.343731" lon="103.455189"><ele>606.7348</ele><time>2026-07-01T21:11:28.000Z</time></trkpt>
        <trkpt lat="29.343742" lon="103.455193"><ele>606.7975</ele><time>2026-07-01T21:11:32.000Z</time></trkpt>
        <trkpt lat="29.34375" lon="103.45519"><ele>607.45984</ele><time>2026-07-01T21:11:36.000Z</time></trkpt>
        <trkpt lat="29.343751" lon="103.455185"><ele>607.45984</ele><time>2026-07-01T21:11:42.000Z</time></trkpt>
        <trkpt lat="29.343767" lon="103.455015"><ele>607.63043</ele><time>2026-07-01T21:12:08.000Z</time></trkpt>
        <trkpt lat="29.343767" lon="103.455015"><ele>607.8505</ele><time>2026-07-01T21:12:10.000Z</time></trkpt>
        <trkpt lat="29.343767" lon="103.455014"><ele>612.46136</ele><time>2026-07-01T21:12:12.000Z</time></trkpt>
        <trkpt lat="29.343786" lon="103.454986"><ele>612.46136</ele><time>2026-07-01T21:12:24.000Z</time></trkpt>
        <trkpt lat="29.343791" lon="103.454983"><ele>612.46136</ele><time>2026-07-01T21:12:26.000Z</time></trkpt>
        <trkpt lat="29.34379" lon="103.45498"><ele>611.3446</ele><time>2026-07-01T21:12:28.000Z</time></trkpt>
        <trkpt lat="29.343785" lon="103.454948"><ele>610.7069</ele><time>2026-07-01T21:12:39.000Z</time></trkpt>
        <trkpt lat="29.343778" lon="103.454904"><ele>610.2555</ele><time>2026-07-01T21:12:42.000Z</time></trkpt>
        <trkpt lat="29.343778" lon="103.454904"><ele>609.1593</ele><time>2026-07-01T21:12:44.000Z</time></trkpt>
        <trkpt lat="29.343778" lon="103.454901"><ele>609.1285</ele><time>2026-07-01T21:12:46.000Z</time></trkpt>
        <trkpt lat="29.343783" lon="103.454863"><ele>609.1282</ele><time>2026-07-01T21:12:50.000Z</time></trkpt>
        <trkpt lat="29.34379" lon="103.45483"><ele>609.09717</ele><time>2026-07-01T21:12:52.000Z</time></trkpt>
        <trkpt lat="29.343799" lon="103.454806"><ele>608.33704</ele><time>2026-07-01T21:12:54.000Z</time></trkpt>
        <trkpt lat="29.343811" lon="103.454787"><ele>607.9286</ele><time>2026-07-01T21:12:56.000Z</time></trkpt>
        <trkpt lat="29.343826" lon="103.454769"><ele>607.32574</ele><time>2026-07-01T21:12:58.000Z</time></trkpt>
        <trkpt lat="29.34384" lon="103.454749"><ele>606.9625</ele><time>2026-07-01T21:13:00.000Z</time></trkpt>
        <trkpt lat="29.343854" lon="103.454724"><ele>606.9625</ele><time>2026-07-01T21:13:02.000Z</time></trkpt>
        <trkpt lat="29.343866" lon="103.454701"><ele>606.9625</ele><time>2026-07-01T21:13:04.000Z</time></trkpt>
        <trkpt lat="29.343878" lon="103.454681"><ele>607.44794</ele><time>2026-07-01T21:13:06.000Z</time></trkpt>
        <trkpt lat="29.343891" lon="103.454665"><ele>607.90814</ele><time>2026-07-01T21:13:08.000Z</time></trkpt>
        <trkpt lat="29.343902" lon="103.45465"><ele>608.50903</ele><time>2026-07-01T21:13:10.000Z</time></trkpt>
        <trkpt lat="29.343911" lon="103.454635"><ele>608.6102</ele><time>2026-07-01T21:13:12.000Z</time></trkpt>
        <trkpt lat="29.343922" lon="103.454618"><ele>608.6102</ele><time>2026-07-01T21:13:14.000Z</time></trkpt>
        <trkpt lat="29.343935" lon="103.454605"><ele>608.6102</ele><time>2026-07-01T21:13:16.000Z</time></trkpt>
        <trkpt lat="29.343949" lon="103.454596"><ele>608.0661</ele><time>2026-07-01T21:13:18.000Z</time></trkpt>
        <trkpt lat="29.343967" lon="103.45459"><ele>607.18445</ele><time>2026-07-01T21:13:20.000Z</time></trkpt>
        <trkpt lat="29.343988" lon="103.454586"><ele>606.4245</ele><time>2026-07-01T21:13:22.000Z</time></trkpt>
        <trkpt lat="29.344009" lon="103.45458"><ele>606.1896</ele><time>2026-07-01T21:13:24.000Z</time></trkpt>
        <trkpt lat="29.34403" lon="103.454576"><ele>606.15906</ele><time>2026-07-01T21:13:26.000Z</time></trkpt>
        <trkpt lat="29.344048" lon="103.45457"><ele>605.9292</ele><time>2026-07-01T21:13:28.000Z</time></trkpt>
        <trkpt lat="29.344063" lon="103.454563"><ele>605.7907</ele><time>2026-07-01T21:13:30.000Z</time></trkpt>
        <trkpt lat="29.344074" lon="103.454558"><ele>605.47516</ele><time>2026-07-01T21:13:32.000Z</time></trkpt>
        <trkpt lat="29.344084" lon="103.454554"><ele>605.21515</ele><time>2026-07-01T21:13:34.000Z</time></trkpt>
        <trkpt lat="29.344105" lon="103.45455"><ele>605.00366</ele><time>2026-07-01T21:13:36.000Z</time></trkpt>
        <trkpt lat="29.344134" lon="103.454549"><ele>604.9571</ele><time>2026-07-01T21:13:38.000Z</time></trkpt>
        <trkpt lat="29.344167" lon="103.454545"><ele>604.9571</ele><time>2026-07-01T21:13:40.000Z</time></trkpt>
        <trkpt lat="29.344195" lon="103.454536"><ele>604.9571</ele><time>2026-07-01T21:13:42.000Z</time></trkpt>
        <trkpt lat="29.344214" lon="103.454527"><ele>605.1857</ele><time>2026-07-01T21:13:44.000Z</time></trkpt>
        <trkpt lat="29.344229" lon="103.454519"><ele>605.38513</ele><time>2026-07-01T21:13:46.000Z</time></trkpt>
        <trkpt lat="29.344249" lon="103.45451"><ele>605.8119</ele><time>2026-07-01T21:13:48.000Z</time></trkpt>
        <trkpt lat="29.344265" lon="103.454505"><ele>606.24335</ele><time>2026-07-01T21:13:50.000Z</time></trkpt>
        <trkpt lat="29.344283" lon="103.454502"><ele>606.7725</ele><time>2026-07-01T21:13:52.000Z</time></trkpt>
        <trkpt lat="29.344299" lon="103.4545"><ele>607.29083</ele><time>2026-07-01T21:13:54.000Z</time></trkpt>
        <trkpt lat="29.344315" lon="103.454495"><ele>608.1644</ele><time>2026-07-01T21:13:56.000Z</time></trkpt>
        <trkpt lat="29.344333" lon="103.454487"><ele>609.10175</ele><time>2026-07-01T21:13:58.000Z</time></trkpt>
        <trkpt lat="29.344356" lon="103.454474"><ele>609.8892</ele><time>2026-07-01T21:14:00.000Z</time></trkpt>
        <trkpt lat="29.34438" lon="103.454456"><ele>610.50867</ele><time>2026-07-01T21:14:02.000Z</time></trkpt>
        <trkpt lat="29.34439" lon="103.454446"><ele>611.0699</ele><time>2026-07-01T21:14:04.000Z</time></trkpt>
        <trkpt lat="29.344391" lon="103.454442"><ele>612.06964</ele><time>2026-07-01T21:14:06.000Z</time></trkpt>
        <trkpt lat="29.344401" lon="103.454389"><ele>613.18915</ele><time>2026-07-01T21:14:13.000Z</time></trkpt>
        <trkpt lat="29.344401" lon="103.454389"><ele>614.03595</ele><time>2026-07-01T21:14:15.000Z</time></trkpt>
        <trkpt lat="29.344404" lon="103.454386"><ele>615.6302</ele><time>2026-07-01T21:14:17.000Z</time></trkpt>
        <trkpt lat="29.344446" lon="103.45436"><ele>615.6302</ele><time>2026-07-01T21:14:21.000Z</time></trkpt>
        <trkpt lat="29.344475" lon="103.454354"><ele>615.6302</ele><time>2026-07-01T21:14:23.000Z</time></trkpt>
        <trkpt lat="29.34457" lon="103.454335"><ele>615.1258</ele><time>2026-07-01T21:14:29.000Z</time></trkpt>
        <trkpt lat="29.34457" lon="103.454335"><ele>615.0248</ele><time>2026-07-01T21:14:31.000Z</time></trkpt>
        <trkpt lat="29.344574" lon="103.454334"><ele>613.9968</ele><time>2026-07-01T21:14:33.000Z</time></trkpt>
        <trkpt lat="29.344619" lon="103.45432"><ele>613.9968</ele><time>2026-07-01T21:14:37.000Z</time></trkpt>
        <trkpt lat="29.344649" lon="103.454311"><ele>613.9968</ele><time>2026-07-01T21:14:39.000Z</time></trkpt>
        <trkpt lat="29.344679" lon="103.454303"><ele>616.12256</ele><time>2026-07-01T21:14:41.000Z</time></trkpt>
        <trkpt lat="29.344693" lon="103.454295"><ele>617.65515</ele><time>2026-07-01T21:14:43.000Z</time></trkpt>
        <trkpt lat="29.344715" lon="103.45428"><ele>619.12067</ele><time>2026-07-01T21:14:45.000Z</time></trkpt>
        <trkpt lat="29.344737" lon="103.454266"><ele>619.903</ele><time>2026-07-01T21:14:47.000Z</time></trkpt>
        <trkpt lat="29.344753" lon="103.454255"><ele>620.2003</ele><time>2026-07-01T21:14:49.000Z</time></trkpt>
        <trkpt lat="29.344759" lon="103.454258"><ele>621.1151</ele><time>2026-07-01T21:14:51.000Z</time></trkpt>
        <trkpt lat="29.344702" lon="103.454231"><ele>622.4755</ele><time>2026-07-01T21:15:04.000Z</time></trkpt>
        <trkpt lat="29.344702" lon="103.454231"><ele>624.1908</ele><time>2026-07-01T21:15:06.000Z</time></trkpt>
        <trkpt lat="29.344705" lon="103.454224"><ele>625.35693</ele><time>2026-07-01T21:15:08.000Z</time></trkpt>
        <trkpt lat="29.344725" lon="103.45419"><ele>625.3588</ele><time>2026-07-01T21:15:12.000Z</time></trkpt>
        <trkpt lat="29.344732" lon="103.454179"><ele>625.4576</ele><time>2026-07-01T21:15:14.000Z</time></trkpt>
        <trkpt lat="29.344749" lon="103.454155"><ele>625.4576</ele><time>2026-07-01T21:15:16.000Z</time></trkpt>
        <trkpt lat="29.344764" lon="103.454131"><ele>625.785</ele><time>2026-07-01T21:15:18.000Z</time></trkpt>
        <trkpt lat="29.344773" lon="103.45411"><ele>625.7941</ele><time>2026-07-01T21:15:20.000Z</time></trkpt>
        <trkpt lat="29.344777" lon="103.454094"><ele>625.7941</ele><time>2026-07-01T21:15:22.000Z</time></trkpt>
        <trkpt lat="29.344783" lon="103.454068"><ele>625.86676</ele><time>2026-07-01T21:15:24.000Z</time></trkpt>
        <trkpt lat="29.344787" lon="103.454043"><ele>626.1799</ele><time>2026-07-01T21:15:26.000Z</time></trkpt>
        <trkpt lat="29.344787" lon="103.45402"><ele>626.6074</ele><time>2026-07-01T21:15:28.000Z</time></trkpt>
        <trkpt lat="29.344783" lon="103.454004"><ele>626.6074</ele><time>2026-07-01T21:15:30.000Z</time></trkpt>
        <trkpt lat="29.344776" lon="103.45399"><ele>626.6074</ele><time>2026-07-01T21:15:32.000Z</time></trkpt>
        <trkpt lat="29.344765" lon="103.453976"><ele>626.316</ele><time>2026-07-01T21:15:34.000Z</time></trkpt>
        <trkpt lat="29.344749" lon="103.453958"><ele>625.5167</ele><time>2026-07-01T21:15:36.000Z</time></trkpt>
        <trkpt lat="29.344738" lon="103.453937"><ele>624.46625</ele><time>2026-07-01T21:15:38.000Z</time></trkpt>
        <trkpt lat="29.344734" lon="103.453919"><ele>623.54376</ele><time>2026-07-01T21:15:40.000Z</time></trkpt>
        <trkpt lat="29.344733" lon="103.453901"><ele>623.0834</ele><time>2026-07-01T21:15:42.000Z</time></trkpt>
        <trkpt lat="29.344735" lon="103.453885"><ele>622.4564</ele><time>2026-07-01T21:15:44.000Z</time></trkpt>
        <trkpt lat="29.344739" lon="103.453866"><ele>621.7471</ele><time>2026-07-01T21:15:46.000Z</time></trkpt>
        <trkpt lat="29.344744" lon="103.453842"><ele>620.7723</ele><time>2026-07-01T21:15:48.000Z</time></trkpt>
        <trkpt lat="29.344746" lon="103.453817"><ele>619.9154</ele><time>2026-07-01T21:15:50.000Z</time></trkpt>
        <trkpt lat="29.344748" lon="103.453792"><ele>619.5572</ele><time>2026-07-01T21:15:52.000Z</time></trkpt>
        <trkpt lat="29.344753" lon="103.453767"><ele>619.0474</ele><time>2026-07-01T21:15:54.000Z</time></trkpt>
        <trkpt lat="29.344764" lon="103.453749"><ele>618.63995</ele><time>2026-07-01T21:15:56.000Z</time></trkpt>
        <trkpt lat="29.344761" lon="103.453744"><ele>617.7488</ele><time>2026-07-01T21:15:58.000Z</time></trkpt>
        <trkpt lat="29.344779" lon="103.453785"><ele>616.9337</ele><time>2026-07-01T21:16:03.000Z</time></trkpt>
        <trkpt lat="29.344783" lon="103.453798"><ele>616.09265</ele><time>2026-07-01T21:16:05.000Z</time></trkpt>
        <trkpt lat="29.344789" lon="103.453812"><ele>614.6755</ele><time>2026-07-01T21:16:07.000Z</time></trkpt>
        <trkpt lat="29.344795" lon="103.453824"><ele>614.3742</ele><time>2026-07-01T21:16:09.000Z</time></trkpt>
        <trkpt lat="29.344802" lon="103.453824"><ele>613.64777</ele><time>2026-07-01T21:16:11.000Z</time></trkpt>
        <trkpt lat="29.34482" lon="103.453826"><ele>613.64777</ele><time>2026-07-01T21:16:32.000Z</time></trkpt>
        <trkpt lat="29.344823" lon="103.453833"><ele>613.64777</ele><time>2026-07-01T21:16:47.000Z</time></trkpt>
        <trkpt lat="29.344841" lon="103.453842"><ele>615.38135</ele><time>2026-07-01T21:17:03.000Z</time></trkpt>
        <trkpt lat="29.344792" lon="103.453816"><ele>616.1316</ele><time>2026-07-01T21:17:22.000Z</time></trkpt>
        <trkpt lat="29.344792" lon="103.453816"><ele>616.1316</ele><time>2026-07-01T21:17:24.000Z</time></trkpt>
        <trkpt lat="29.344794" lon="103.453809"><ele>616.1316</ele><time>2026-07-01T21:17:26.000Z</time></trkpt>
        <trkpt lat="29.344805" lon="103.453783"><ele>616.1297</ele><time>2026-07-01T21:17:28.000Z</time></trkpt>
        <trkpt lat="29.344827" lon="103.453736"><ele>616.094</ele><time>2026-07-01T21:17:30.000Z</time></trkpt>
        <trkpt lat="29.34485" lon="103.453691"><ele>615.9247</ele><time>2026-07-01T21:17:32.000Z</time></trkpt>
        <trkpt lat="29.344867" lon="103.453651"><ele>615.9247</ele><time>2026-07-01T21:17:34.000Z</time></trkpt>
        <trkpt lat="29.344877" lon="103.453618"><ele>615.9247</ele><time>2026-07-01T21:17:36.000Z</time></trkpt>
        <trkpt lat="29.344881" lon="103.453594"><ele>616.08234</ele><time>2026-07-01T21:17:38.000Z</time></trkpt>
        <trkpt lat="29.344877" lon="103.453583"><ele>616.81134</ele><time>2026-07-01T21:17:40.000Z</time></trkpt>
        <trkpt lat="29.344871" lon="103.45358"><ele>617.3054</ele><time>2026-07-01T21:17:42.000Z</time></trkpt>
        <trkpt lat="29.344855" lon="103.453578"><ele>617.53485</ele><time>2026-07-01T21:17:44.000Z</time></trkpt>
        <trkpt lat="29.34484" lon="103.453577"><ele>617.5571</ele><time>2026-07-01T21:17:46.000Z</time></trkpt>
        <trkpt lat="29.344828" lon="103.453575"><ele>617.59357</ele><time>2026-07-01T21:17:48.000Z</time></trkpt>
        <trkpt lat="29.344816" lon="103.453571"><ele>617.60236</ele><time>2026-07-01T21:17:50.000Z</time></trkpt>
        <trkpt lat="29.344805" lon="103.453566"><ele>617.67896</ele><time>2026-07-01T21:17:52.000Z</time></trkpt>
        <trkpt lat="29.344793" lon="103.453556"><ele>617.9275</ele><time>2026-07-01T21:17:54.000Z</time></trkpt>
        <trkpt lat="29.344784" lon="103.453545"><ele>617.9511</ele><time>2026-07-01T21:17:56.000Z</time></trkpt>
        <trkpt lat="29.344778" lon="103.453533"><ele>617.9511</ele><time>2026-07-01T21:17:58.000Z</time></trkpt>
        <trkpt lat="29.344775" lon="103.453521"><ele>617.9511</ele><time>2026-07-01T21:18:00.000Z</time></trkpt>
        <trkpt lat="29.344775" lon="103.453511"><ele>617.65845</ele><time>2026-07-01T21:18:02.000Z</time></trkpt>
        <trkpt lat="29.344772" lon="103.453485"><ele>617.65845</ele><time>2026-07-01T21:18:06.000Z</time></trkpt>
        <trkpt lat="29.344772" lon="103.453475"><ele>617.65845</ele><time>2026-07-01T21:18:08.000Z</time></trkpt>
        <trkpt lat="29.344771" lon="103.453463"><ele>617.98364</ele><time>2026-07-01T21:18:10.000Z</time></trkpt>
        <trkpt lat="29.344767" lon="103.453435"><ele>617.98364</ele><time>2026-07-01T21:18:14.000Z</time></trkpt>
        <trkpt lat="29.344765" lon="103.453418"><ele>617.98364</ele><time>2026-07-01T21:18:16.000Z</time></trkpt>
        <trkpt lat="29.344764" lon="103.453391"><ele>617.7705</ele><time>2026-07-01T21:18:18.000Z</time></trkpt>
        <trkpt lat="29.344763" lon="103.453365"><ele>617.7623</ele><time>2026-07-01T21:18:20.000Z</time></trkpt>
        <trkpt lat="29.344761" lon="103.453339"><ele>617.61</ele><time>2026-07-01T21:18:22.000Z</time></trkpt>
        <trkpt lat="29.344759" lon="103.453314"><ele>617.61</ele><time>2026-07-01T21:18:24.000Z</time></trkpt>
        <trkpt lat="29.344759" lon="103.453294"><ele>617.7623</ele><time>2026-07-01T21:18:26.000Z</time></trkpt>
        <trkpt lat="29.344759" lon="103.453273"><ele>618.121</ele><time>2026-07-01T21:18:28.000Z</time></trkpt>
        <trkpt lat="29.344761" lon="103.453257"><ele>619.02386</ele><time>2026-07-01T21:18:30.000Z</time></trkpt>
        <trkpt lat="29.344766" lon="103.45324"><ele>619.8691</ele><time>2026-07-01T21:18:32.000Z</time></trkpt>
        <trkpt lat="29.344773" lon="103.45322"><ele>620.61914</ele><time>2026-07-01T21:18:34.000Z</time></trkpt>
        <trkpt lat="29.344783" lon="103.453197"><ele>621.3228</ele><time>2026-07-01T21:18:36.000Z</time></trkpt>
        <trkpt lat="29.344795" lon="103.453167"><ele>621.4691</ele><time>2026-07-01T21:18:38.000Z</time></trkpt>
        <trkpt lat="29.344806" lon="103.453141"><ele>621.4691</ele><time>2026-07-01T21:18:40.000Z</time></trkpt>
        <trkpt lat="29.344815" lon="103.453126"><ele>621.4691</ele><time>2026-07-01T21:18:42.000Z</time></trkpt>
        <trkpt lat="29.344819" lon="103.453125"><ele>621.2435</ele><time>2026-07-01T21:18:44.000Z</time></trkpt>
        <trkpt lat="29.344837" lon="103.453122"><ele>621.2435</ele><time>2026-07-01T21:18:48.000Z</time></trkpt>
        <trkpt lat="29.344844" lon="103.45312"><ele>621.2435</ele><time>2026-07-01T21:18:50.000Z</time></trkpt>
        <trkpt lat="29.344856" lon="103.453116"><ele>622.37866</ele><time>2026-07-01T21:18:52.000Z</time></trkpt>
        <trkpt lat="29.344868" lon="103.45311"><ele>623.421</ele><time>2026-07-01T21:18:54.000Z</time></trkpt>
        <trkpt lat="29.344878" lon="103.453102"><ele>624.35974</ele><time>2026-07-01T21:18:56.000Z</time></trkpt>
        <trkpt lat="29.344886" lon="103.453091"><ele>625.52295</ele><time>2026-07-01T21:18:58.000Z</time></trkpt>
        <trkpt lat="29.344895" lon="103.453076"><ele>626.93066</ele><time>2026-07-01T21:19:00.000Z</time></trkpt>
        <trkpt lat="29.344904" lon="103.453061"><ele>628.2551</ele><time>2026-07-01T21:19:02.000Z</time></trkpt>
        <trkpt lat="29.344911" lon="103.453051"><ele>629.0328</ele><time>2026-07-01T21:19:04.000Z</time></trkpt>
        <trkpt lat="29.344921" lon="103.453036"><ele>629.0328</ele><time>2026-07-01T21:19:06.000Z</time></trkpt>
        <trkpt lat="29.34493" lon="103.453026"><ele>629.0328</ele><time>2026-07-01T21:19:08.000Z</time></trkpt>
        <trkpt lat="29.344942" lon="103.453014"><ele>628.6276</ele><time>2026-07-01T21:19:10.000Z</time></trkpt>
        <trkpt lat="29.344957" lon="103.453004"><ele>628.62366</ele><time>2026-07-01T21:19:12.000Z</time></trkpt>
        <trkpt lat="29.34497" lon="103.452996"><ele>628.5888</ele><time>2026-07-01T21:19:14.000Z</time></trkpt>
        <trkpt lat="29.344981" lon="103.452989"><ele>628.5888</ele><time>2026-07-01T21:19:16.000Z</time></trkpt>
        <trkpt lat="29.344991" lon="103.452982"><ele>628.5888</ele><time>2026-07-01T21:19:18.000Z</time></trkpt>
        <trkpt lat="29.345003" lon="103.452976"><ele>629.6011</ele><time>2026-07-01T21:19:20.000Z</time></trkpt>
        <trkpt lat="29.345018" lon="103.452971"><ele>630.71576</ele><time>2026-07-01T21:19:22.000Z</time></trkpt>
        <trkpt lat="29.345033" lon="103.452964"><ele>631.3101</ele><time>2026-07-01T21:19:24.000Z</time></trkpt>
        <trkpt lat="29.345049" lon="103.452954"><ele>632.1828</ele><time>2026-07-01T21:19:26.000Z</time></trkpt>
        <trkpt lat="29.345062" lon="103.452943"><ele>632.8307</ele><time>2026-07-01T21:19:28.000Z</time></trkpt>
        <trkpt lat="29.345072" lon="103.452928"><ele>633.15234</ele><time>2026-07-01T21:19:30.000Z</time></trkpt>
        <trkpt lat="29.34508" lon="103.452908"><ele>633.4406</ele><time>2026-07-01T21:19:32.000Z</time></trkpt>
        <trkpt lat="29.345088" lon="103.452885"><ele>633.7704</ele><time>2026-07-01T21:19:34.000Z</time></trkpt>
        <trkpt lat="29.345096" lon="103.452858"><ele>634.20966</ele><time>2026-07-01T21:19:36.000Z</time></trkpt>
        <trkpt lat="29.345107" lon="103.452832"><ele>634.3186</ele><time>2026-07-01T21:19:38.000Z</time></trkpt>
        <trkpt lat="29.345116" lon="103.45281"><ele>634.41675</ele><time>2026-07-01T21:19:40.000Z</time></trkpt>
        <trkpt lat="29.345122" lon="103.452792"><ele>634.6033</ele><time>2026-07-01T21:19:42.000Z</time></trkpt>
        <trkpt lat="29.345125" lon="103.452773"><ele>634.8099</ele><time>2026-07-01T21:19:44.000Z</time></trkpt>
        <trkpt lat="29.345128" lon="103.452754"><ele>634.9648</ele><time>2026-07-01T21:19:46.000Z</time></trkpt>
        <trkpt lat="29.345133" lon="103.452734"><ele>635.0804</ele><time>2026-07-01T21:19:48.000Z</time></trkpt>
        <trkpt lat="29.34514" lon="103.452719"><ele>635.5679</ele><time>2026-07-01T21:19:50.000Z</time></trkpt>
        <trkpt lat="29.345153" lon="103.452705"><ele>636.0465</ele><time>2026-07-01T21:19:52.000Z</time></trkpt>
        <trkpt lat="29.345161" lon="103.452704"><ele>636.32697</ele><time>2026-07-01T21:19:54.000Z</time></trkpt>
        <trkpt lat="29.345169" lon="103.452709"><ele>637.03613</ele><time>2026-07-01T21:19:56.000Z</time></trkpt>
        <trkpt lat="29.345179" lon="103.452723"><ele>637.11694</ele><time>2026-07-01T21:19:58.000Z</time></trkpt>
        <trkpt lat="29.34519" lon="103.452743"><ele>637.282</ele><time>2026-07-01T21:20:00.000Z</time></trkpt>
        <trkpt lat="29.345202" lon="103.452767"><ele>637.2837</ele><time>2026-07-01T21:20:02.000Z</time></trkpt>
        <trkpt lat="29.345214" lon="103.45279"><ele>637.2978</ele><time>2026-07-01T21:20:04.000Z</time></trkpt>
        <trkpt lat="29.345229" lon="103.45281"><ele>637.4057</ele><time>2026-07-01T21:20:06.000Z</time></trkpt>
        <trkpt lat="29.345242" lon="103.452824"><ele>637.6741</ele><time>2026-07-01T21:20:08.000Z</time></trkpt>
        <trkpt lat="29.345246" lon="103.452823"><ele>638.256</ele><time>2026-07-01T21:20:10.000Z</time></trkpt>
        <trkpt lat="29.345162" lon="103.45284"><ele>638.7759</ele><time>2026-07-01T21:21:44.000Z</time></trkpt>
        <trkpt lat="29.345162" lon="103.45284"><ele>639.3218</ele><time>2026-07-01T21:21:46.000Z</time></trkpt>
        <trkpt lat="29.34516" lon="103.45284"><ele>640.9138</ele><time>2026-07-01T21:21:48.000Z</time></trkpt>
        <trkpt lat="29.345132" lon="103.452848"><ele>640.9138</ele><time>2026-07-01T21:21:56.000Z</time></trkpt>
        <trkpt lat="29.345128" lon="103.452849"><ele>640.9138</ele><time>2026-07-01T21:21:58.000Z</time></trkpt>
        <trkpt lat="29.345127" lon="103.45285"><ele>640.10425</ele><time>2026-07-01T21:22:00.000Z</time></trkpt>
        <trkpt lat="29.345168" lon="103.452834"><ele>639.8331</ele><time>2026-07-01T21:22:06.000Z</time></trkpt>
        <trkpt lat="29.345193" lon="103.452824"><ele>639.66736</ele><time>2026-07-01T21:22:08.000Z</time></trkpt>
        <trkpt lat="29.345216" lon="103.452812"><ele>637.8719</ele><time>2026-07-01T21:22:10.000Z</time></trkpt>
        <trkpt lat="29.345234" lon="103.452801"><ele>637.6704</ele><time>2026-07-01T21:22:12.000Z</time></trkpt>
        <trkpt lat="29.345243" lon="103.452794"><ele>637.62555</ele><time>2026-07-01T21:22:14.000Z</time></trkpt>
        <trkpt lat="29.345246" lon="103.45279"><ele>637.62555</ele><time>2026-07-01T21:22:16.000Z</time></trkpt>
        <trkpt lat="29.345261" lon="103.452764"><ele>637.6704</ele><time>2026-07-01T21:22:28.000Z</time></trkpt>
        <trkpt lat="29.345305" lon="103.45269"><ele>637.98755</ele><time>2026-07-01T21:22:34.000Z</time></trkpt>
        <trkpt lat="29.345305" lon="103.45269"><ele>639.6364</ele><time>2026-07-01T21:22:36.000Z</time></trkpt>
        <trkpt lat="29.345307" lon="103.452687"><ele>641.8663</ele><time>2026-07-01T21:22:38.000Z</time></trkpt>
        <trkpt lat="29.345325" lon="103.452653"><ele>641.86664</ele><time>2026-07-01T21:22:42.000Z</time></trkpt>
        <trkpt lat="29.345336" lon="103.452633"><ele>641.9454</ele><time>2026-07-01T21:22:44.000Z</time></trkpt>
        <trkpt lat="29.345345" lon="103.452618"><ele>643.4227</ele><time>2026-07-01T21:22:46.000Z</time></trkpt>
        <trkpt lat="29.345344" lon="103.452613"><ele>644.49304</ele><time>2026-07-01T21:22:48.000Z</time></trkpt>
        <trkpt lat="29.345338" lon="103.452613"><ele>645.22076</ele><time>2026-07-01T21:22:58.000Z</time></trkpt>
        <trkpt lat="29.345375" lon="103.452618"><ele>645.7852</ele><time>2026-07-01T21:23:19.000Z</time></trkpt>
        <trkpt lat="29.345375" lon="103.452618"><ele>646.22577</ele><time>2026-07-01T21:23:21.000Z</time></trkpt>
        <trkpt lat="29.345376" lon="103.452619"><ele>646.4743</ele><time>2026-07-01T21:23:23.000Z</time></trkpt>
        <trkpt lat="29.345351" lon="103.452589"><ele>646.4743</ele><time>2026-07-01T21:23:41.000Z</time></trkpt>
        <trkpt lat="29.345351" lon="103.452589"><ele>646.22577</ele><time>2026-07-01T21:23:43.000Z</time></trkpt>
        <trkpt lat="29.345351" lon="103.45259"><ele>645.0494</ele><time>2026-07-01T21:23:45.000Z</time></trkpt>
        <trkpt lat="29.345364" lon="103.452624"><ele>645.0494</ele><time>2026-07-01T21:23:53.000Z</time></trkpt>
        <trkpt lat="29.345369" lon="103.452627"><ele>645.0494</ele><time>2026-07-01T21:23:55.000Z</time></trkpt>
        <trkpt lat="29.345369" lon="103.452627"><ele>646.53357</ele><time>2026-07-01T21:23:57.000Z</time></trkpt>
        <trkpt lat="29.345405" lon="103.452593"><ele>646.53357</ele><time>2026-07-01T21:24:35.000Z</time></trkpt>
        <trkpt lat="29.345416" lon="103.452583"><ele>646.53357</ele><time>2026-07-01T21:24:37.000Z</time></trkpt>
        <trkpt lat="29.345417" lon="103.452582"><ele>646.1788</ele><time>2026-07-01T21:24:39.000Z</time></trkpt>
        <trkpt lat="29.345432" lon="103.452551"><ele>646.1788</ele><time>2026-07-01T21:24:45.000Z</time></trkpt>
        <trkpt lat="29.345441" lon="103.452534"><ele>646.1788</ele><time>2026-07-01T21:24:47.000Z</time></trkpt>
        <trkpt lat="29.345451" lon="103.452518"><ele>647.6309</ele><time>2026-07-01T21:24:49.000Z</time></trkpt>
        <trkpt lat="29.345464" lon="103.452502"><ele>648.57404</ele><time>2026-07-01T21:24:51.000Z</time></trkpt>
        <trkpt lat="29.345476" lon="103.452493"><ele>649.31696</ele><time>2026-07-01T21:24:53.000Z</time></trkpt>
        <trkpt lat="29.345487" lon="103.452491"><ele>650.1632</ele><time>2026-07-01T21:24:55.000Z</time></trkpt>
        <trkpt lat="29.345499" lon="103.452492"><ele>650.6428</ele><time>2026-07-01T21:24:57.000Z</time></trkpt>
        <trkpt lat="29.345511" lon="103.452496"><ele>650.94214</ele><time>2026-07-01T21:24:59.000Z</time></trkpt>
        <trkpt lat="29.345523" lon="103.452498"><ele>651.34534</ele><time>2026-07-01T21:25:01.000Z</time></trkpt>
        <trkpt lat="29.345536" lon="103.452496"><ele>651.856</ele><time>2026-07-01T21:25:03.000Z</time></trkpt>
        <trkpt lat="29.345553" lon="103.452492"><ele>652.38153</ele><time>2026-07-01T21:25:05.000Z</time></trkpt>
        <trkpt lat="29.345572" lon="103.452489"><ele>653.115</ele><time>2026-07-01T21:25:07.000Z</time></trkpt>
        <trkpt lat="29.34559" lon="103.45249"><ele>653.7424</ele><time>2026-07-01T21:25:09.000Z</time></trkpt>
        <trkpt lat="29.345607" lon="103.452491"><ele>654.34674</ele><time>2026-07-01T21:25:11.000Z</time></trkpt>
        <trkpt lat="29.345623" lon="103.452494"><ele>655.2543</ele><time>2026-07-01T21:25:13.000Z</time></trkpt>
        <trkpt lat="29.345636" lon="103.4525"><ele>656.0149</ele><time>2026-07-01T21:25:15.000Z</time></trkpt>
        <trkpt lat="29.345648" lon="103.452505"><ele>657.31726</ele><time>2026-07-01T21:25:17.000Z</time></trkpt>
        <trkpt lat="29.345657" lon="103.452509"><ele>658.8154</ele><time>2026-07-01T21:25:19.000Z</time></trkpt>
        <trkpt lat="29.345668" lon="103.452511"><ele>659.2574</ele><time>2026-07-01T21:25:21.000Z</time></trkpt>
        <trkpt lat="29.345676" lon="103.452509"><ele>659.8116</ele><time>2026-07-01T21:25:23.000Z</time></trkpt>
        <trkpt lat="29.345681" lon="103.4525"><ele>660.23083</ele><time>2026-07-01T21:25:25.000Z</time></trkpt>
        <trkpt lat="29.345691" lon="103.452479"><ele>660.7381</ele><time>2026-07-01T21:25:29.000Z</time></trkpt>
        <trkpt lat="29.345697" lon="103.452467"><ele>661.30457</ele><time>2026-07-01T21:25:31.000Z</time></trkpt>
        <trkpt lat="29.345705" lon="103.452465"><ele>662.63245</ele><time>2026-07-01T21:25:33.000Z</time></trkpt>
        <trkpt lat="29.345709" lon="103.45247"><ele>662.9177</ele><time>2026-07-01T21:25:37.000Z</time></trkpt>
        <trkpt lat="29.345723" lon="103.452494"><ele>663.3046</ele><time>2026-07-01T21:25:41.000Z</time></trkpt>
        <trkpt lat="29.345726" lon="103.452503"><ele>664.08606</ele><time>2026-07-01T21:25:43.000Z</time></trkpt>
        <trkpt lat="29.345727" lon="103.452511"><ele>664.08606</ele><time>2026-07-01T21:25:45.000Z</time></trkpt>
        <trkpt lat="29.345721" lon="103.452516"><ele>664.08606</ele><time>2026-07-01T21:25:51.000Z</time></trkpt>
        <trkpt lat="29.34583" lon="103.452413"><ele>664.08606</ele><time>2026-07-01T21:26:11.000Z</time></trkpt>
        <trkpt lat="29.34583" lon="103.452413"><ele>664.08606</ele><time>2026-07-01T21:26:13.000Z</time></trkpt>
        <trkpt lat="29.34583" lon="103.452413"><ele>668.16766</ele><time>2026-07-01T21:26:15.000Z</time></trkpt>
        <trkpt lat="29.345853" lon="103.452391"><ele>668.1705</ele><time>2026-07-01T21:26:33.000Z</time></trkpt>
        <trkpt lat="29.345869" lon="103.452389"><ele>668.25287</ele><time>2026-07-01T21:26:35.000Z</time></trkpt>
        <trkpt lat="29.345898" lon="103.452381"><ele>672.0005</ele><time>2026-07-01T21:26:43.000Z</time></trkpt>
        <trkpt lat="29.34592" lon="103.452374"><ele>672.8439</ele><time>2026-07-01T21:26:47.000Z</time></trkpt>
        <trkpt lat="29.34592" lon="103.452375"><ele>674.1405</ele><time>2026-07-01T21:26:49.000Z</time></trkpt>
        <trkpt lat="29.345931" lon="103.452385"><ele>675.119</ele><time>2026-07-01T21:26:53.000Z</time></trkpt>
        <trkpt lat="29.345946" lon="103.4524"><ele>675.24066</ele><time>2026-07-01T21:26:55.000Z</time></trkpt>
        <trkpt lat="29.345963" lon="103.452419"><ele>675.3391</ele><time>2026-07-01T21:26:57.000Z</time></trkpt>
        <trkpt lat="29.345977" lon="103.452437"><ele>675.3391</ele><time>2026-07-01T21:26:59.000Z</time></trkpt>
        <trkpt lat="29.34599" lon="103.452457"><ele>675.72406</ele><time>2026-07-01T21:27:01.000Z</time></trkpt>
        <trkpt lat="29.346" lon="103.452476"><ele>675.993</ele><time>2026-07-01T21:27:03.000Z</time></trkpt>
        <trkpt lat="29.346011" lon="103.452496"><ele>676.3008</ele><time>2026-07-01T21:27:05.000Z</time></trkpt>
        <trkpt lat="29.346023" lon="103.452513"><ele>676.85144</ele><time>2026-07-01T21:27:07.000Z</time></trkpt>
        <trkpt lat="29.346036" lon="103.45252"><ele>677.5676</ele><time>2026-07-01T21:27:09.000Z</time></trkpt>
        <trkpt lat="29.346047" lon="103.452517"><ele>677.98926</ele><time>2026-07-01T21:27:11.000Z</time></trkpt>
        <trkpt lat="29.346053" lon="103.452509"><ele>678.48615</ele><time>2026-07-01T21:27:13.000Z</time></trkpt>
        <trkpt lat="29.34606" lon="103.45249"><ele>679.24097</ele><time>2026-07-01T21:27:15.000Z</time></trkpt>
        <trkpt lat="29.346062" lon="103.452468"><ele>679.79346</ele><time>2026-07-01T21:27:17.000Z</time></trkpt>
        <trkpt lat="29.346062" lon="103.452444"><ele>680.31165</ele><time>2026-07-01T21:27:19.000Z</time></trkpt>
        <trkpt lat="29.346058" lon="103.452419"><ele>680.6271</ele><time>2026-07-01T21:27:21.000Z</time></trkpt>
        <trkpt lat="29.346053" lon="103.452396"><ele>680.9145</ele><time>2026-07-01T21:27:23.000Z</time></trkpt>
        <trkpt lat="29.346048" lon="103.452373"><ele>681.23474</ele><time>2026-07-01T21:27:25.000Z</time></trkpt>
        <trkpt lat="29.346045" lon="103.452354"><ele>681.6078</ele><time>2026-07-01T21:27:27.000Z</time></trkpt>
        <trkpt lat="29.34604" lon="103.452332"><ele>682.19977</ele><time>2026-07-01T21:27:29.000Z</time></trkpt>
        <trkpt lat="29.346035" lon="103.452308"><ele>682.4648</ele><time>2026-07-01T21:27:31.000Z</time></trkpt>
        <trkpt lat="29.346032" lon="103.452287"><ele>682.8414</ele><time>2026-07-01T21:27:33.000Z</time></trkpt>
        <trkpt lat="29.346028" lon="103.452265"><ele>683.28864</ele><time>2026-07-01T21:27:35.000Z</time></trkpt>
        <trkpt lat="29.346024" lon="103.452244"><ele>683.59766</ele><time>2026-07-01T21:27:37.000Z</time></trkpt>
        <trkpt lat="29.346022" lon="103.452224"><ele>684.0396</ele><time>2026-07-01T21:27:39.000Z</time></trkpt>
        <trkpt lat="29.346021" lon="103.452207"><ele>684.316</ele><time>2026-07-01T21:27:41.000Z</time></trkpt>
        <trkpt lat="29.346022" lon="103.45219"><ele>684.5697</ele><time>2026-07-01T21:27:43.000Z</time></trkpt>
        <trkpt lat="29.346026" lon="103.452174"><ele>684.80475</ele><time>2026-07-01T21:27:45.000Z</time></trkpt>
        <trkpt lat="29.346034" lon="103.452165"><ele>684.93286</ele><time>2026-07-01T21:27:47.000Z</time></trkpt>
        <trkpt lat="29.346045" lon="103.452156"><ele>685.0335</ele><time>2026-07-01T21:27:49.000Z</time></trkpt>
        <trkpt lat="29.346059" lon="103.452145"><ele>685.1889</ele><time>2026-07-01T21:27:51.000Z</time></trkpt>
        <trkpt lat="29.346074" lon="103.452132"><ele>685.37933</ele><time>2026-07-01T21:27:53.000Z</time></trkpt>
        <trkpt lat="29.346084" lon="103.452124"><ele>685.947</ele><time>2026-07-01T21:27:55.000Z</time></trkpt>
        <trkpt lat="29.34609" lon="103.452125"><ele>686.65405</ele><time>2026-07-01T21:27:57.000Z</time></trkpt>
        <trkpt lat="29.346108" lon="103.45213"><ele>687.0227</ele><time>2026-07-01T21:28:01.000Z</time></trkpt>
        <trkpt lat="29.346119" lon="103.452135"><ele>687.21344</ele><time>2026-07-01T21:28:03.000Z</time></trkpt>
        <trkpt lat="29.346135" lon="103.452145"><ele>687.2985</ele><time>2026-07-01T21:28:05.000Z</time></trkpt>
        <trkpt lat="29.346152" lon="103.452156"><ele>687.71375</ele><time>2026-07-01T21:28:07.000Z</time></trkpt>
        <trkpt lat="29.346163" lon="103.452169"><ele>687.7573</ele><time>2026-07-01T21:28:09.000Z</time></trkpt>
        <trkpt lat="29.346172" lon="103.452183"><ele>688.3298</ele><time>2026-07-01T21:28:11.000Z</time></trkpt>
        <trkpt lat="29.346174" lon="103.452192"><ele>689.263</ele><time>2026-07-01T21:28:13.000Z</time></trkpt>
        <trkpt lat="29.346172" lon="103.4522"><ele>689.4293</ele><time>2026-07-01T21:28:25.000Z</time></trkpt>
        <trkpt lat="29.346189" lon="103.452136"><ele>689.6042</ele><time>2026-07-01T21:28:31.000Z</time></trkpt>
        <trkpt lat="29.346231" lon="103.452102"><ele>689.9393</ele><time>2026-07-01T21:28:45.000Z</time></trkpt>
        <trkpt lat="29.346231" lon="103.452102"><ele>690.5575</ele><time>2026-07-01T21:28:47.000Z</time></trkpt>
        <trkpt lat="29.346231" lon="103.452102"><ele>692.4648</ele><time>2026-07-01T21:28:49.000Z</time></trkpt>
        <trkpt lat="29.346247" lon="103.452154"><ele>692.4674</ele><time>2026-07-01T21:28:56.000Z</time></trkpt>
        <trkpt lat="29.346247" lon="103.452154"><ele>692.52875</ele><time>2026-07-01T21:28:58.000Z</time></trkpt>
        <trkpt lat="29.346249" lon="103.452153"><ele>694.77875</ele><time>2026-07-01T21:29:00.000Z</time></trkpt>
        <trkpt lat="29.346272" lon="103.452132"><ele>694.7849</ele><time>2026-07-01T21:29:04.000Z</time></trkpt>
        <trkpt lat="29.346287" lon="103.452115"><ele>694.97955</ele><time>2026-07-01T21:29:06.000Z</time></trkpt>
        <trkpt lat="29.346304" lon="103.452101"><ele>696.4748</ele><time>2026-07-01T21:29:08.000Z</time></trkpt>
        <trkpt lat="29.346317" lon="103.452095"><ele>696.982</ele><time>2026-07-01T21:29:10.000Z</time></trkpt>
        <trkpt lat="29.346332" lon="103.452091"><ele>697.2426</ele><time>2026-07-01T21:29:12.000Z</time></trkpt>
        <trkpt lat="29.346348" lon="103.452091"><ele>697.5419</ele><time>2026-07-01T21:29:14.000Z</time></trkpt>
        <trkpt lat="29.346362" lon="103.452095"><ele>697.84174</ele><time>2026-07-01T21:29:16.000Z</time></trkpt>
        <trkpt lat="29.34637" lon="103.4521"><ele>698.2337</ele><time>2026-07-01T21:29:18.000Z</time></trkpt>
        <trkpt lat="29.346371" lon="103.452104"><ele>698.61914</ele><time>2026-07-01T21:29:20.000Z</time></trkpt>
        <trkpt lat="29.34638" lon="103.452156"><ele>698.8359</ele><time>2026-07-01T21:29:29.000Z</time></trkpt>
        <trkpt lat="29.34638" lon="103.452156"><ele>698.8443</ele><time>2026-07-01T21:29:31.000Z</time></trkpt>
        <trkpt lat="29.34638" lon="103.45216"><ele>702.8113</ele><time>2026-07-01T21:29:33.000Z</time></trkpt>
        <trkpt lat="29.346391" lon="103.452203"><ele>702.8178</ele><time>2026-07-01T21:29:37.000Z</time></trkpt>
        <trkpt lat="29.346401" lon="103.452226"><ele>702.9005</ele><time>2026-07-01T21:29:39.000Z</time></trkpt>
        <trkpt lat="29.34641" lon="103.452236"><ele>703.6828</ele><time>2026-07-01T21:29:41.000Z</time></trkpt>
        <trkpt lat="29.34642" lon="103.452239"><ele>704.4941</ele><time>2026-07-01T21:29:43.000Z</time></trkpt>
        <trkpt lat="29.346431" lon="103.452235"><ele>705.22174</ele><time>2026-07-01T21:29:45.000Z</time></trkpt>
        <trkpt lat="29.346443" lon="103.452229"><ele>705.91406</ele><time>2026-07-01T21:29:47.000Z</time></trkpt>
        <trkpt lat="29.346459" lon="103.452223"><ele>706.5632</ele><time>2026-07-01T21:29:49.000Z</time></trkpt>
        <trkpt lat="29.346477" lon="103.452219"><ele>706.7699</ele><time>2026-07-01T21:29:51.000Z</time></trkpt>
        <trkpt lat="29.346498" lon="103.452215"><ele>706.99927</ele><time>2026-07-01T21:29:53.000Z</time></trkpt>
        <trkpt lat="29.346518" lon="103.452209"><ele>707.03253</ele><time>2026-07-01T21:29:55.000Z</time></trkpt>
        <trkpt lat="29.346528" lon="103.452202"><ele>707.03253</ele><time>2026-07-01T21:29:57.000Z</time></trkpt>
        <trkpt lat="29.346528" lon="103.452195"><ele>707.03253</ele><time>2026-07-01T21:29:59.000Z</time></trkpt>
        <trkpt lat="29.346523" lon="103.452178"><ele>706.7802</ele><time>2026-07-01T21:30:09.000Z</time></trkpt>
        <trkpt lat="29.346518" lon="103.452175"><ele>706.4491</ele><time>2026-07-01T21:30:15.000Z</time></trkpt>
        <trkpt lat="29.346567" lon="103.452197"><ele>706.4491</ele><time>2026-07-01T21:31:05.000Z</time></trkpt>
        <trkpt lat="29.346567" lon="103.452197"><ele>706.4491</ele><time>2026-07-01T21:31:07.000Z</time></trkpt>
        <trkpt lat="29.346567" lon="103.452198"><ele>710.0798</ele><time>2026-07-01T21:31:09.000Z</time></trkpt>
        <trkpt lat="29.346608" lon="103.452219"><ele>710.08246</ele><time>2026-07-01T21:31:13.000Z</time></trkpt>
        <trkpt lat="29.346608" lon="103.452219"><ele>710.2289</ele><time>2026-07-01T21:31:15.000Z</time></trkpt>
        <trkpt lat="29.346608" lon="103.452221"><ele>712.64343</ele><time>2026-07-01T21:31:17.000Z</time></trkpt>
        <trkpt lat="29.346601" lon="103.452269"><ele>712.6512</ele><time>2026-07-01T21:31:23.000Z</time></trkpt>
        <trkpt lat="29.3466" lon="103.452284"><ele>712.8473</ele><time>2026-07-01T21:31:25.000Z</time></trkpt>
        <trkpt lat="29.346597" lon="103.452296"><ele>714.4731</ele><time>2026-07-01T21:31:27.000Z</time></trkpt>
        <trkpt lat="29.346589" lon="103.452331"><ele>714.94635</ele><time>2026-07-01T21:32:02.000Z</time></trkpt>
        <trkpt lat="29.346589" lon="103.452331"><ele>715.3206</ele><time>2026-07-01T21:32:04.000Z</time></trkpt>
        <trkpt lat="29.346588" lon="103.45233"><ele>715.32104</ele><time>2026-07-01T21:32:06.000Z</time></trkpt>
        <trkpt lat="29.346598" lon="103.452371"><ele>715.34485</ele><time>2026-07-01T21:32:18.000Z</time></trkpt>
        <trkpt lat="29.346598" lon="103.452371"><ele>715.34485</ele><time>2026-07-01T21:32:20.000Z</time></trkpt>
        <trkpt lat="29.346633" lon="103.452413"><ele>717.65625</ele><time>2026-07-01T21:32:23.000Z</time></trkpt>
        <trkpt lat="29.346634" lon="103.452413"><ele>717.6589</ele><time>2026-07-01T21:32:25.000Z</time></trkpt>
        <trkpt lat="29.346636" lon="103.452414"><ele>717.90063</ele><time>2026-07-01T21:32:27.000Z</time></trkpt>
        <trkpt lat="29.346675" lon="103.452422"><ele>717.9035</ele><time>2026-07-01T21:32:33.000Z</time></trkpt>
        <trkpt lat="29.346689" lon="103.452428"><ele>717.98755</ele><time>2026-07-01T21:32:35.000Z</time></trkpt>
        <trkpt lat="29.346708" lon="103.45244"><ele>718.6947</ele><time>2026-07-01T21:32:37.000Z</time></trkpt>
        <trkpt lat="29.346728" lon="103.452453"><ele>719.26794</ele><time>2026-07-01T21:32:39.000Z</time></trkpt>
        <trkpt lat="29.346747" lon="103.452465"><ele>719.58405</ele><time>2026-07-01T21:32:41.000Z</time></trkpt>
        <trkpt lat="29.346768" lon="103.452475"><ele>719.58405</ele><time>2026-07-01T21:32:43.000Z</time></trkpt>
        <trkpt lat="29.346789" lon="103.452484"><ele>719.6131</ele><time>2026-07-01T21:32:45.000Z</time></trkpt>
        <trkpt lat="29.346811" lon="103.452491"><ele>719.6194</ele><time>2026-07-01T21:32:47.000Z</time></trkpt>
        <trkpt lat="29.346835" lon="103.452497"><ele>719.6194</ele><time>2026-07-01T21:32:49.000Z</time></trkpt>
        <trkpt lat="29.346857" lon="103.452503"><ele>720.05493</ele><time>2026-07-01T21:32:51.000Z</time></trkpt>
        <trkpt lat="29.346877" lon="103.452506"><ele>720.5866</ele><time>2026-07-01T21:32:53.000Z</time></trkpt>
        <trkpt lat="29.346894" lon="103.452511"><ele>721.14185</ele><time>2026-07-01T21:32:55.000Z</time></trkpt>
        <trkpt lat="29.346903" lon="103.452515"><ele>721.83295</ele><time>2026-07-01T21:32:57.000Z</time></trkpt>
        <trkpt lat="29.346904" lon="103.452517"><ele>722.42224</ele><time>2026-07-01T21:32:59.000Z</time></trkpt>
        <trkpt lat="29.346915" lon="103.452538"><ele>723.11285</ele><time>2026-07-01T21:33:03.000Z</time></trkpt>
        <trkpt lat="29.346921" lon="103.452543"><ele>723.59393</ele><time>2026-07-01T21:33:05.000Z</time></trkpt>
        <trkpt lat="29.346931" lon="103.452548"><ele>724.61145</ele><time>2026-07-01T21:33:07.000Z</time></trkpt>
        <trkpt lat="29.346945" lon="103.452555"><ele>724.90497</ele><time>2026-07-01T21:33:09.000Z</time></trkpt>
        <trkpt lat="29.346963" lon="103.452564"><ele>725.3503</ele><time>2026-07-01T21:33:11.000Z</time></trkpt>
        <trkpt lat="29.346981" lon="103.452573"><ele>725.89856</ele><time>2026-07-01T21:33:13.000Z</time></trkpt>
        <trkpt lat="29.346997" lon="103.452583"><ele>726.602</ele><time>2026-07-01T21:33:15.000Z</time></trkpt>
        <trkpt lat="29.347011" lon="103.452597"><ele>727.0989</ele><time>2026-07-01T21:33:17.000Z</time></trkpt>
        <trkpt lat="29.347015" lon="103.452611"><ele>727.69556</ele><time>2026-07-01T21:33:19.000Z</time></trkpt>
        <trkpt lat="29.347014" lon="103.452623"><ele>728.1071</ele><time>2026-07-01T21:33:21.000Z</time></trkpt>
        <trkpt lat="29.347009" lon="103.452638"><ele>728.4561</ele><time>2026-07-01T21:33:23.000Z</time></trkpt>
        <trkpt lat="29.347007" lon="103.452656"><ele>729.1327</ele><time>2026-07-01T21:33:25.000Z</time></trkpt>
        <trkpt lat="29.347008" lon="103.452671"><ele>729.67224</ele><time>2026-07-01T21:33:27.000Z</time></trkpt>
        <trkpt lat="29.347015" lon="103.452684"><ele>730.2575</ele><time>2026-07-01T21:33:29.000Z</time></trkpt>
        <trkpt lat="29.347024" lon="103.452699"><ele>730.75757</ele><time>2026-07-01T21:33:31.000Z</time></trkpt>
        <trkpt lat="29.347032" lon="103.452712"><ele>731.5356</ele><time>2026-07-01T21:33:33.000Z</time></trkpt>
        <trkpt lat="29.347043" lon="103.452723"><ele>732.32697</ele><time>2026-07-01T21:33:35.000Z</time></trkpt>
        <trkpt lat="29.347059" lon="103.452731"><ele>732.9709</ele><time>2026-07-01T21:33:37.000Z</time></trkpt>
        <trkpt lat="29.347078" lon="103.452734"><ele>734.1176</ele><time>2026-07-01T21:33:39.000Z</time></trkpt>
        <trkpt lat="29.347097" lon="103.452738"><ele>735.13165</ele><time>2026-07-01T21:33:41.000Z</time></trkpt>
        <trkpt lat="29.347115" lon="103.452743"><ele>736.02313</ele><time>2026-07-01T21:33:43.000Z</time></trkpt>
        <trkpt lat="29.34713" lon="103.452749"><ele>736.97656</ele><time>2026-07-01T21:33:45.000Z</time></trkpt>
        <trkpt lat="29.347144" lon="103.452753"><ele>737.9152</ele><time>2026-07-01T21:33:47.000Z</time></trkpt>
        <trkpt lat="29.347157" lon="103.452754"><ele>738.74194</ele><time>2026-07-01T21:33:49.000Z</time></trkpt>
        <trkpt lat="29.347171" lon="103.452753"><ele>739.5191</ele><time>2026-07-01T21:33:51.000Z</time></trkpt>
        <trkpt lat="29.34719" lon="103.452751"><ele>740.48956</ele><time>2026-07-01T21:33:53.000Z</time></trkpt>
        <trkpt lat="29.347211" lon="103.452752"><ele>741.5042</ele><time>2026-07-01T21:33:55.000Z</time></trkpt>
        <trkpt lat="29.347229" lon="103.452757"><ele>742.09406</ele><time>2026-07-01T21:33:57.000Z</time></trkpt>
        <trkpt lat="29.34724" lon="103.452766"><ele>742.42865</ele><time>2026-07-01T21:33:59.000Z</time></trkpt>
        <trkpt lat="29.347246" lon="103.452776"><ele>742.783</ele><time>2026-07-01T21:34:01.000Z</time></trkpt>
        <trkpt lat="29.347252" lon="103.45279"><ele>743.1968</ele><time>2026-07-01T21:34:03.000Z</time></trkpt>
        <trkpt lat="29.347258" lon="103.452805"><ele>743.8476</ele><time>2026-07-01T21:34:05.000Z</time></trkpt>
        <trkpt lat="29.347265" lon="103.452809"><ele>744.76416</ele><time>2026-07-01T21:34:07.000Z</time></trkpt>
        <trkpt lat="29.347271" lon="103.452806"><ele>744.7947</ele><time>2026-07-01T21:34:13.000Z</time></trkpt>
        <trkpt lat="29.347349" lon="103.452769"><ele>745.258</ele><time>2026-07-01T21:34:23.000Z</time></trkpt>
        <trkpt lat="29.34735" lon="103.452769"><ele>745.42676</ele><time>2026-07-01T21:34:25.000Z</time></trkpt>
        <trkpt lat="29.347351" lon="103.452769"><ele>747.44556</ele><time>2026-07-01T21:34:27.000Z</time></trkpt>
        <trkpt lat="29.347385" lon="103.452768"><ele>747.45325</ele><time>2026-07-01T21:34:33.000Z</time></trkpt>
        <trkpt lat="29.347395" lon="103.452768"><ele>747.65466</ele><time>2026-07-01T21:34:35.000Z</time></trkpt>
        <trkpt lat="29.3474" lon="103.452766"><ele>751.75867</ele><time>2026-07-01T21:34:37.000Z</time></trkpt>
        <trkpt lat="29.347415" lon="103.452759"><ele>753.00037</ele><time>2026-07-01T21:34:45.000Z</time></trkpt>
        <trkpt lat="29.347428" lon="103.452754"><ele>753.6531</ele><time>2026-07-01T21:34:49.000Z</time></trkpt>
        <trkpt lat="29.347432" lon="103.452751"><ele>754.10004</ele><time>2026-07-01T21:34:51.000Z</time></trkpt>
        <trkpt lat="29.347444" lon="103.452754"><ele>755.7279</ele><time>2026-07-01T21:34:57.000Z</time></trkpt>
        <trkpt lat="29.347459" lon="103.452759"><ele>757.10333</ele><time>2026-07-01T21:35:03.000Z</time></trkpt>
        <trkpt lat="29.347461" lon="103.452761"><ele>760.8432</ele><time>2026-07-01T21:35:05.000Z</time></trkpt>
        <trkpt lat="29.347473" lon="103.452762"><ele>763.767</ele><time>2026-07-01T21:35:09.000Z</time></trkpt>
        <trkpt lat="29.347484" lon="103.452755"><ele>763.87494</ele><time>2026-07-01T21:35:15.000Z</time></trkpt>
        <trkpt lat="29.347491" lon="103.452744"><ele>764.042</ele><time>2026-07-01T21:35:19.000Z</time></trkpt>
        <trkpt lat="29.347508" lon="103.452718"><ele>765.20056</ele><time>2026-07-01T21:35:28.000Z</time></trkpt>
        <trkpt lat="29.347508" lon="103.452718"><ele>765.2076</ele><time>2026-07-01T21:35:30.000Z</time></trkpt>
        <trkpt lat="29.34751" lon="103.452717"><ele>765.2527</ele><time>2026-07-01T21:35:32.000Z</time></trkpt>
        <trkpt lat="29.347545" lon="103.452696"><ele>765.2527</ele><time>2026-07-01T21:35:38.000Z</time></trkpt>
        <trkpt lat="29.34755" lon="103.452691"><ele>765.34985</ele><time>2026-07-01T21:35:40.000Z</time></trkpt>
        <trkpt lat="29.347551" lon="103.452688"><ele>768.34265</ele><time>2026-07-01T21:35:42.000Z</time></trkpt>
        <trkpt lat="29.347566" lon="103.452675"><ele>768.8442</ele><time>2026-07-01T21:35:46.000Z</time></trkpt>
        <trkpt lat="29.347573" lon="103.45267"><ele>769.0454</ele><time>2026-07-01T21:35:54.000Z</time></trkpt>
        <trkpt lat="29.347602" lon="103.45265"><ele>769.49866</ele><time>2026-07-01T21:36:00.000Z</time></trkpt>
        <trkpt lat="29.347602" lon="103.45265"><ele>769.50574</ele><time>2026-07-01T21:36:02.000Z</time></trkpt>
        <trkpt lat="29.347603" lon="103.452649"><ele>769.50574</ele><time>2026-07-01T21:36:04.000Z</time></trkpt>
        <trkpt lat="29.347651" lon="103.452616"><ele>769.61285</ele><time>2026-07-01T21:36:14.000Z</time></trkpt>
        <trkpt lat="29.347653" lon="103.452615"><ele>769.61285</ele><time>2026-07-01T21:36:16.000Z</time></trkpt>
        <trkpt lat="29.347724" lon="103.452614"><ele>770.0907</ele><time>2026-07-01T21:36:22.000Z</time></trkpt>
        <trkpt lat="29.347724" lon="103.452614"><ele>770.2285</ele><time>2026-07-01T21:36:24.000Z</time></trkpt>
        <trkpt lat="29.347722" lon="103.452614"><ele>770.2285</ele><time>2026-07-01T21:36:26.000Z</time></trkpt>
        <trkpt lat="29.347687" lon="103.452608"><ele>770.3582</ele><time>2026-07-01T21:36:44.000Z</time></trkpt>
        <trkpt lat="29.347671" lon="103.452605"><ele>770.3628</ele><time>2026-07-01T21:36:48.000Z</time></trkpt>
        <trkpt lat="29.347671" lon="103.452605"><ele>775.0535</ele><time>2026-07-01T21:36:50.000Z</time></trkpt>
        <trkpt lat="29.347713" lon="103.452593"><ele>775.0535</ele><time>2026-07-01T21:37:28.000Z</time></trkpt>
        <trkpt lat="29.347727" lon="103.4526"><ele>775.0535</ele><time>2026-07-01T21:37:30.000Z</time></trkpt>
        <trkpt lat="29.34774" lon="103.452602"><ele>772.95215</ele><time>2026-07-01T21:37:34.000Z</time></trkpt>
        <trkpt lat="29.347749" lon="103.452614"><ele>771.8998</ele><time>2026-07-01T21:37:37.000Z</time></trkpt>
        <trkpt lat="29.347766" lon="103.452617"><ele>771.8998</ele><time>2026-07-01T21:37:47.000Z</time></trkpt>
        <trkpt lat="29.351014" lon="103.453272"><ele>771.3693</ele><time>2026-07-01T21:38:08.000Z</time></trkpt>
        <trkpt lat="29.351037" lon="103.453349"><ele>771.99164</ele><time>2026-07-01T21:38:27.000Z</time></trkpt>
        <trkpt lat="29.351037" lon="103.45335"><ele>771.99164</ele><time>2026-07-01T21:38:29.000Z</time></trkpt>
        <trkpt lat="29.350701" lon="103.453317"><ele>774.3583</ele><time>2026-07-01T21:38:40.000Z</time></trkpt>
        <trkpt lat="29.349979" lon="103.453131"><ele>775.10333</ele><time>2026-07-01T21:38:51.000Z</time></trkpt>
        <trkpt lat="29.349979" lon="103.453131"><ele>775.2757</ele><time>2026-07-01T21:38:53.000Z</time></trkpt>
        <trkpt lat="29.349969" lon="103.453127"><ele>776.412</ele><time>2026-07-01T21:38:55.000Z</time></trkpt>
        <trkpt lat="29.349667" lon="103.453006"><ele>776.412</ele><time>2026-07-01T21:39:01.000Z</time></trkpt>
        <trkpt lat="29.349294" lon="103.452922"><ele>776.4424</ele><time>2026-07-01T21:39:07.000Z</time></trkpt>
        <trkpt lat="29.349294" lon="103.452922"><ele>776.8683</ele><time>2026-07-01T21:39:09.000Z</time></trkpt>
        <trkpt lat="29.349293" lon="103.452921"><ele>777.54095</ele><time>2026-07-01T21:39:11.000Z</time></trkpt>
        <trkpt lat="29.347415" lon="103.452384"><ele>776.20374</ele><time>2026-07-01T21:40:53.000Z</time></trkpt>
        <trkpt lat="29.348268" lon="103.452586"><ele>776.20374</ele><time>2026-07-01T21:40:58.000Z</time></trkpt>
        <trkpt lat="29.347996" lon="103.452537"><ele>776.20374</ele><time>2026-07-01T21:41:17.000Z</time></trkpt>
        <trkpt lat="29.347537" lon="103.452373"><ele>764.1995</ele><time>2026-07-01T21:44:56.000Z</time></trkpt>
        <trkpt lat="29.347844" lon="103.452732"><ele>762.984</ele><time>2026-07-01T21:52:31.000Z</time></trkpt>
        <trkpt lat="29.347844" lon="103.452732"><ele>762.94257</ele><time>2026-07-01T21:52:33.000Z</time></trkpt>
        <trkpt lat="29.347763" lon="103.452677"><ele>762.94257</ele><time>2026-07-01T21:52:35.000Z</time></trkpt>
        <trkpt lat="29.3477" lon="103.452632"><ele>762.94257</ele><time>2026-07-01T21:52:40.000Z</time></trkpt>
        <trkpt lat="29.347701" lon="103.452633"><ele>777.30566</ele><time>2026-07-01T21:52:42.000Z</time></trkpt>
        <trkpt lat="29.347703" lon="103.452636"><ele>781.0056</ele><time>2026-07-01T21:52:44.000Z</time></trkpt>
        <trkpt lat="29.347673" lon="103.452594"><ele>781.0056</ele><time>2026-07-01T21:52:56.000Z</time></trkpt>
        <trkpt lat="29.347617" lon="103.452584"><ele>781.0056</ele><time>2026-07-01T21:52:58.000Z</time></trkpt>
        <trkpt lat="29.347613" lon="103.452582"><ele>773.99097</ele><time>2026-07-01T21:53:00.000Z</time></trkpt>
        <trkpt lat="29.347613" lon="103.452582"><ele>773.87744</ele><time>2026-07-01T21:53:02.000Z</time></trkpt>
        <trkpt lat="29.347599" lon="103.452555"><ele>773.8566</ele><time>2026-07-01T21:53:10.000Z</time></trkpt>
        <trkpt lat="29.347595" lon="103.452548"><ele>773.85565</ele><time>2026-07-01T21:53:12.000Z</time></trkpt>
        <trkpt lat="29.347595" lon="103.452548"><ele>772.88293</ele><time>2026-07-01T21:53:14.000Z</time></trkpt>
        <trkpt lat="29.347675" lon="103.452579"><ele>772.8581</ele><time>2026-07-01T21:53:41.000Z</time></trkpt>
        <trkpt lat="29.347675" lon="103.452579"><ele>772.83704</ele><time>2026-07-01T21:53:43.000Z</time></trkpt>
        <trkpt lat="29.347682" lon="103.452583"><ele>771.15955</ele><time>2026-07-01T21:53:40.000Z</time></trkpt>
        <trkpt lat="29.347748" lon="103.452621"><ele>771.0614</ele><time>2026-07-01T21:53:50.000Z</time></trkpt>
        <trkpt lat="29.347938" lon="103.452715"><ele>771.1256</ele><time>2026-07-01T22:14:11.000Z</time></trkpt>
        <trkpt lat="29.347832" lon="103.45265"><ele>769.559</ele><time>2026-07-01T22:15:29.000Z</time></trkpt>
        <trkpt lat="29.347636" lon="103.452584"><ele>769.559</ele><time>2026-07-01T22:15:35.000Z</time></trkpt>
        <trkpt lat="29.347636" lon="103.452584"><ele>769.559</ele><time>2026-07-01T22:15:36.000Z</time></trkpt>
        <trkpt lat="29.347588" lon="103.452651"><ele>772.2653</ele><time>2026-07-01T22:15:55.000Z</time></trkpt>
        <trkpt lat="29.347588" lon="103.452651"><ele>772.2653</ele><time>2026-07-01T22:15:57.000Z</time></trkpt>
        <trkpt lat="29.347588" lon="103.452651"><ele>772.2653</ele><time>2026-07-01T22:15:59.000Z</time></trkpt>
        <trkpt lat="29.347615" lon="103.452675"><ele>772.2648</ele><time>2026-07-01T22:16:09.000Z</time></trkpt>
        <trkpt lat="29.347627" lon="103.452686"><ele>772.2291</ele><time>2026-07-01T22:16:11.000Z</time></trkpt>
        <trkpt lat="29.347627" lon="103.452687"><ele>771.8821</ele><time>2026-07-01T22:16:13.000Z</time></trkpt>
        <trkpt lat="29.347631" lon="103.452706"><ele>771.8806</ele><time>2026-07-01T22:16:21.000Z</time></trkpt>
        <trkpt lat="29.347591" lon="103.452694"><ele>771.18695</ele><time>2026-07-01T22:16:31.000Z</time></trkpt>
        <trkpt lat="29.347563" lon="103.452685"><ele>771.1185</ele><time>2026-07-01T22:16:33.000Z</time></trkpt>
        <trkpt lat="29.347516" lon="103.452749"><ele>770.02606</ele><time>2026-07-01T22:16:50.000Z</time></trkpt>
        <trkpt lat="29.347478" lon="103.452746"><ele>769.5002</ele><time>2026-07-01T22:16:54.000Z</time></trkpt>
        <trkpt lat="29.347478" lon="103.452746"><ele>767.60785</ele><time>2026-07-01T22:16:56.000Z</time></trkpt>
        <trkpt lat="29.347477" lon="103.452746"><ele>767.20026</ele><time>2026-07-01T22:16:58.000Z</time></trkpt>
        <trkpt lat="29.347443" lon="103.452737"><ele>767.195</ele><time>2026-07-01T22:17:04.000Z</time></trkpt>
        <trkpt lat="29.347434" lon="103.452733"><ele>767.0913</ele><time>2026-07-01T22:17:06.000Z</time></trkpt>
        <trkpt lat="29.347425" lon="103.452731"><ele>765.1747</ele><time>2026-07-01T22:17:08.000Z</time></trkpt>
        <trkpt lat="29.347411" lon="103.452726"><ele>764.05707</ele><time>2026-07-01T22:17:10.000Z</time></trkpt>
        <trkpt lat="29.347402" lon="103.452723"><ele>762.8164</ele><time>2026-07-01T22:17:12.000Z</time></trkpt>
        <trkpt lat="29.347395" lon="103.452723"><ele>762.0142</ele><time>2026-07-01T22:17:14.000Z</time></trkpt>
        <trkpt lat="29.347364" lon="103.452722"><ele>761.4146</ele><time>2026-07-01T22:17:22.000Z</time></trkpt>
        <trkpt lat="29.347364" lon="103.452722"><ele>761.1701</ele><time>2026-07-01T22:17:24.000Z</time></trkpt>
        <trkpt lat="29.347363" lon="103.452722"><ele>758.47565</ele><time>2026-07-01T22:17:26.000Z</time></trkpt>
        <trkpt lat="29.347256" lon="103.452762"><ele>758.47034</ele><time>2026-07-01T22:17:45.000Z</time></trkpt>
        <trkpt lat="29.347256" lon="103.452762"><ele>758.3309</ele><time>2026-07-01T22:17:47.000Z</time></trkpt>
        <trkpt lat="29.347255" lon="103.452763"><ele>750.9116</ele><time>2026-07-01T22:17:49.000Z</time></trkpt>
        <trkpt lat="29.347226" lon="103.452773"><ele>750.9098</ele><time>2026-07-01T22:17:57.000Z</time></trkpt>
        <trkpt lat="29.347226" lon="103.452773"><ele>750.85626</ele><time>2026-07-01T22:17:59.000Z</time></trkpt>
        <trkpt lat="29.347227" lon="103.452736"><ele>748.8374</ele><time>2026-07-01T22:18:01.000Z</time></trkpt>
        <trkpt lat="29.347229" lon="103.452734"><ele>747.72534</ele><time>2026-07-01T22:18:03.000Z</time></trkpt>
        <trkpt lat="29.347229" lon="103.452734"><ele>747.1891</ele><time>2026-07-01T22:18:05.000Z</time></trkpt>
        <trkpt lat="29.347187" lon="103.452731"><ele>747.182</ele><time>2026-07-01T22:18:49.000Z</time></trkpt>
        <trkpt lat="29.347187" lon="103.452731"><ele>747.0569</ele><time>2026-07-01T22:18:51.000Z</time></trkpt>
        <trkpt lat="29.347185" lon="103.452731"><ele>744.40454</ele><time>2026-07-01T22:18:53.000Z</time></trkpt>
        <trkpt lat="29.347142" lon="103.452734"><ele>744.39984</ele><time>2026-07-01T22:18:59.000Z</time></trkpt>
        <trkpt lat="29.347128" lon="103.452732"><ele>744.2699</ele><time>2026-07-01T22:19:01.000Z</time></trkpt>
        <trkpt lat="29.347111" lon="103.452731"><ele>741.6476</ele><time>2026-07-01T22:19:03.000Z</time></trkpt>
        <trkpt lat="29.347094" lon="103.452731"><ele>740.8026</ele><time>2026-07-01T22:19:05.000Z</time></trkpt>
        <trkpt lat="29.347075" lon="103.45273"><ele>739.9538</ele><time>2026-07-01T22:19:07.000Z</time></trkpt>
        <trkpt lat="29.347055" lon="103.452729"><ele>739.10504</ele><time>2026-07-01T22:19:09.000Z</time></trkpt>
        <trkpt lat="29.347039" lon="103.452726"><ele>738.2436</ele><time>2026-07-01T22:19:11.000Z</time></trkpt>
        <trkpt lat="29.34703" lon="103.45272"><ele>737.653</ele><time>2026-07-01T22:19:13.000Z</time></trkpt>
        <trkpt lat="29.347025" lon="103.452714"><ele>736.97</ele><time>2026-07-01T22:19:15.000Z</time></trkpt>
        <trkpt lat="29.347018" lon="103.452703"><ele>735.98236</ele><time>2026-07-01T22:19:17.000Z</time></trkpt>
        <trkpt lat="29.347008" lon="103.452688"><ele>734.86633</ele><time>2026-07-01T22:19:19.000Z</time></trkpt>
        <trkpt lat="29.347004" lon="103.452669"><ele>733.89343</ele><time>2026-07-01T22:19:21.000Z</time></trkpt>
        <trkpt lat="29.347007" lon="103.452651"><ele>732.9528</ele><time>2026-07-01T22:19:23.000Z</time></trkpt>
        <trkpt lat="29.347015" lon="103.452624"><ele>732.0506</ele><time>2026-07-01T22:19:25.000Z</time></trkpt>
        <trkpt lat="29.347017" lon="103.4526"><ele>731.2335</ele><time>2026-07-01T22:19:27.000Z</time></trkpt>
        <trkpt lat="29.347014" lon="103.452589"><ele>730.68634</ele><time>2026-07-01T22:19:29.000Z</time></trkpt>
        <trkpt lat="29.347005" lon="103.452576"><ele>730.4417</ele><time>2026-07-01T22:19:31.000Z</time></trkpt>
        <trkpt lat="29.346993" lon="103.452564"><ele>729.76166</ele><time>2026-07-01T22:19:33.000Z</time></trkpt>
        <trkpt lat="29.346978" lon="103.452551"><ele>729.36725</ele><time>2026-07-01T22:19:35.000Z</time></trkpt>
        <trkpt lat="29.34696" lon="103.452541"><ele>729.2001</ele><time>2026-07-01T22:19:37.000Z</time></trkpt>
        <trkpt lat="29.346947" lon="103.452538"><ele>729.1342</ele><time>2026-07-01T22:19:39.000Z</time></trkpt>
        <trkpt lat="29.346933" lon="103.452533"><ele>729.1315</ele><time>2026-07-01T22:19:41.000Z</time></trkpt>
        <trkpt lat="29.346922" lon="103.452525"><ele>728.59863</ele><time>2026-07-01T22:19:43.000Z</time></trkpt>
        <trkpt lat="29.34691" lon="103.452512"><ele>728.13214</ele><time>2026-07-01T22:19:45.000Z</time></trkpt>
        <trkpt lat="29.346896" lon="103.452502"><ele>727.57196</ele><time>2026-07-01T22:19:47.000Z</time></trkpt>
        <trkpt lat="29.346884" lon="103.4525"><ele>726.4062</ele><time>2026-07-01T22:19:49.000Z</time></trkpt>
        <trkpt lat="29.34687" lon="103.452496"><ele>724.6975</ele><time>2026-07-01T22:19:51.000Z</time></trkpt>
        <trkpt lat="29.346854" lon="103.452488"><ele>722.6923</ele><time>2026-07-01T22:19:53.000Z</time></trkpt>
        <trkpt lat="29.346833" lon="103.452476"><ele>721.1258</ele><time>2026-07-01T22:19:55.000Z</time></trkpt>
        <trkpt lat="29.34681" lon="103.452465"><ele>720.4425</ele><time>2026-07-01T22:19:57.000Z</time></trkpt>
        <trkpt lat="29.346782" lon="103.452452"><ele>720.4425</ele><time>2026-07-01T22:19:59.000Z</time></trkpt>
        <trkpt lat="29.346754" lon="103.45244"><ele>720.4425</ele><time>2026-07-01T22:20:01.000Z</time></trkpt>
        <trkpt lat="29.346739" lon="103.452434"><ele>720.9288</ele><time>2026-07-01T22:20:03.000Z</time></trkpt>
        <trkpt lat="29.346734" lon="103.45243"><ele>721.4542</ele><time>2026-07-01T22:20:05.000Z</time></trkpt>
        <trkpt lat="29.346716" lon="103.452418"><ele>721.63837</ele><time>2026-07-01T22:20:09.000Z</time></trkpt>
        <trkpt lat="29.346704" lon="103.45241"><ele>721.63837</ele><time>2026-07-01T22:20:11.000Z</time></trkpt>
        <trkpt lat="29.346701" lon="103.452412"><ele>721.63837</ele><time>2026-07-01T22:20:13.000Z</time></trkpt>
        <trkpt lat="29.346681" lon="103.452421"><ele>721.5984</ele><time>2026-07-01T22:21:20.000Z</time></trkpt>
        <trkpt lat="29.346661" lon="103.45242"><ele>721.19086</ele><time>2026-07-01T22:21:22.000Z</time></trkpt>
        <trkpt lat="29.346635" lon="103.452418"><ele>720.837</ele><time>2026-07-01T22:21:24.000Z</time></trkpt>
        <trkpt lat="29.346633" lon="103.452417"><ele>719.9495</ele><time>2026-07-01T22:21:26.000Z</time></trkpt>
        <trkpt lat="29.346631" lon="103.452413"><ele>719.2993</ele><time>2026-07-01T22:21:28.000Z</time></trkpt>
        <trkpt lat="29.346613" lon="103.452377"><ele>719.2943</ele><time>2026-07-01T22:21:32.000Z</time></trkpt>
        <trkpt lat="29.346609" lon="103.452354"><ele>719.18195</ele><time>2026-07-01T22:21:34.000Z</time></trkpt>
        <trkpt lat="29.346607" lon="103.452326"><ele>717.3736</ele><time>2026-07-01T22:21:36.000Z</time></trkpt>
        <trkpt lat="29.346606" lon="103.4523"><ele>716.1009</ele><time>2026-07-01T22:21:38.000Z</time></trkpt>
        <trkpt lat="29.346606" lon="103.452278"><ele>714.85156</ele><time>2026-07-01T22:21:40.000Z</time></trkpt>
        <trkpt lat="29.34661" lon="103.452255"><ele>714.33844</ele><time>2026-07-01T22:21:42.000Z</time></trkpt>
        <trkpt lat="29.346614" lon="103.452236"><ele>713.6769</ele><time>2026-07-01T22:21:44.000Z</time></trkpt>
        <trkpt lat="29.346614" lon="103.452219"><ele>713.5314</ele><time>2026-07-01T22:21:46.000Z</time></trkpt>
        <trkpt lat="29.34661" lon="103.452214"><ele>712.9881</ele><time>2026-07-01T22:21:48.000Z</time></trkpt>
        <trkpt lat="29.346598" lon="103.452201"><ele>712.6881</ele><time>2026-07-01T22:21:52.000Z</time></trkpt>
        <trkpt lat="29.34659" lon="103.452196"><ele>712.55756</ele><time>2026-07-01T22:21:54.000Z</time></trkpt>
        <trkpt lat="29.346577" lon="103.452194"><ele>712.15045</ele><time>2026-07-01T22:21:56.000Z</time></trkpt>
        <trkpt lat="29.346563" lon="103.452192"><ele>712.02014</ele><time>2026-07-01T22:21:57.000Z</time></trkpt>
        <trkpt lat="29.346553" lon="103.452191"><ele>711.9262</ele><time>2026-07-01T22:21:59.000Z</time></trkpt>
        <trkpt lat="29.346537" lon="103.452189"><ele>711.60425</ele><time>2026-07-01T22:22:02.000Z</time></trkpt>
        <trkpt lat="29.346519" lon="103.452189"><ele>711.29913</ele><time>2026-07-01T22:22:04.000Z</time></trkpt>
        <trkpt lat="29.346499" lon="103.452192"><ele>710.9156</ele><time>2026-07-01T22:22:06.000Z</time></trkpt>
        <trkpt lat="29.346482" lon="103.452194"><ele>710.5562</ele><time>2026-07-01T22:22:08.000Z</time></trkpt>
        <trkpt lat="29.346468" lon="103.452195"><ele>710.19305</ele><time>2026-07-01T22:22:10.000Z</time></trkpt>
        <trkpt lat="29.346457" lon="103.452195"><ele>709.99976</ele><time>2026-07-01T22:22:12.000Z</time></trkpt>
        <trkpt lat="29.346451" lon="103.4522"><ele>709.849</ele><time>2026-07-01T22:22:14.000Z</time></trkpt>
        <trkpt lat="29.346439" lon="103.452211"><ele>709.8008</ele><time>2026-07-01T22:22:18.000Z</time></trkpt>
        <trkpt lat="29.346428" lon="103.452218"><ele>709.68665</ele><time>2026-07-01T22:22:22.000Z</time></trkpt>
        <trkpt lat="29.346415" lon="103.452222"><ele>708.87787</ele><time>2026-07-01T22:22:24.000Z</time></trkpt>
        <trkpt lat="29.346414" lon="103.452221"><ele>708.2912</ele><time>2026-07-01T22:22:26.000Z</time></trkpt>
        <trkpt lat="29.346401" lon="103.452174"><ele>708.21063</ele><time>2026-07-01T22:22:33.000Z</time></trkpt>
        <trkpt lat="29.346387" lon="103.452121"><ele>707.2793</ele><time>2026-07-01T22:22:42.000Z</time></trkpt>
        <trkpt lat="29.346377" lon="103.452091"><ele>703.63324</ele><time>2026-07-01T22:22:44.000Z</time></trkpt>
        <trkpt lat="29.346367" lon="103.452074"><ele>702.8941</ele><time>2026-07-01T22:22:46.000Z</time></trkpt>
        <trkpt lat="29.346354" lon="103.452065"><ele>702.3546</ele><time>2026-07-01T22:22:48.000Z</time></trkpt>
        <trkpt lat="29.346342" lon="103.452061"><ele>701.8488</ele><time>2026-07-01T22:22:50.000Z</time></trkpt>
        <trkpt lat="29.346328" lon="103.452059"><ele>701.07104</ele><time>2026-07-01T22:22:52.000Z</time></trkpt>
        <trkpt lat="29.346317" lon="103.452062"><ele>700.03925</ele><time>2026-07-01T22:22:54.000Z</time></trkpt>
        <trkpt lat="29.346308" lon="103.45207"><ele>699.2792</ele><time>2026-07-01T22:22:56.000Z</time></trkpt>
        <trkpt lat="29.346302" lon="103.452082"><ele>698.7131</ele><time>2026-07-01T22:22:58.000Z</time></trkpt>
        <trkpt lat="29.346296" lon="103.452098"><ele>698.274</ele><time>2026-07-01T22:23:00.000Z</time></trkpt>
        <trkpt lat="29.346292" lon="103.452112"><ele>697.9426</ele><time>2026-07-01T22:23:02.000Z</time></trkpt>
        <trkpt lat="29.346288" lon="103.452126"><ele>697.42084</ele><time>2026-07-01T22:23:04.000Z</time></trkpt>
        <trkpt lat="29.346281" lon="103.452132"><ele>697.16864</ele><time>2026-07-01T22:23:06.000Z</time></trkpt>
        <trkpt lat="29.346269" lon="103.452135"><ele>696.7553</ele><time>2026-07-01T22:23:10.000Z</time></trkpt>
        <trkpt lat="29.346259" lon="103.452134"><ele>696.4532</ele><time>2026-07-01T22:23:12.000Z</time></trkpt>
        <trkpt lat="29.34625" lon="103.452127"><ele>695.8816</ele><time>2026-07-01T22:23:14.000Z</time></trkpt>
        <trkpt lat="29.346244" lon="103.452116"><ele>695.64197</ele><time>2026-07-01T22:23:16.000Z</time></trkpt>
        <trkpt lat="29.346239" lon="103.452099"><ele>695.33997</ele><time>2026-07-01T22:23:18.000Z</time></trkpt>
        <trkpt lat="29.346234" lon="103.452084"><ele>694.9772</ele><time>2026-07-01T22:23:20.000Z</time></trkpt>
        <trkpt lat="29.346225" lon="103.452073"><ele>694.69763</ele><time>2026-07-01T22:23:22.000Z</time></trkpt>
        <trkpt lat="29.346222" lon="103.452075"><ele>694.2925</ele><time>2026-07-01T22:23:24.000Z</time></trkpt>
        <trkpt lat="29.346205" lon="103.452092"><ele>694.11615</ele><time>2026-07-01T22:23:28.000Z</time></trkpt>
        <trkpt lat="29.346197" lon="103.452104"><ele>693.8403</ele><time>2026-07-01T22:23:30.000Z</time></trkpt>
        <trkpt lat="29.34619" lon="103.452122"><ele>692.70703</ele><time>2026-07-01T22:23:32.000Z</time></trkpt>
        <trkpt lat="29.346186" lon="103.452142"><ele>691.92633</ele><time>2026-07-01T22:23:34.000Z</time></trkpt>
        <trkpt lat="29.346182" lon="103.452159"><ele>691.92633</ele><time>2026-07-01T22:23:36.000Z</time></trkpt>
        <trkpt lat="29.346177" lon="103.452173"><ele>691.92633</ele><time>2026-07-01T22:23:38.000Z</time></trkpt>
        <trkpt lat="29.346171" lon="103.452183"><ele>692.02563</ele><time>2026-07-01T22:23:40.000Z</time></trkpt>
        <trkpt lat="29.346171" lon="103.452184"><ele>692.1828</ele><time>2026-07-01T22:23:42.000Z</time></trkpt>
        <trkpt lat="29.346147" lon="103.452165"><ele>692.1828</ele><time>2026-07-01T22:23:50.000Z</time></trkpt>
        <trkpt lat="29.346094" lon="103.452125"><ele>692.1828</ele><time>2026-07-01T22:24:00.000Z</time></trkpt>
        <trkpt lat="29.346094" lon="103.452125"><ele>691.89</ele><time>2026-07-01T22:24:02.000Z</time></trkpt>
        <trkpt lat="29.346092" lon="103.452126"><ele>689.298</ele><time>2026-07-01T22:24:04.000Z</time></trkpt>
        <trkpt lat="29.346068" lon="103.452144"><ele>689.298</ele><time>2026-07-01T22:24:08.000Z</time></trkpt>
        <trkpt lat="29.346054" lon="103.452153"><ele>689.298</ele><time>2026-07-01T22:24:10.000Z</time></trkpt>
        <trkpt lat="29.346037" lon="103.452165"><ele>689.298</ele><time>2026-07-01T22:24:12.000Z</time></trkpt>
        <trkpt lat="29.346023" lon="103.452181"><ele>689.298</ele><time>2026-07-01T22:24:14.000Z</time></trkpt>
        <trkpt lat="29.346015" lon="103.452199"><ele>689.2729</ele><time>2026-07-01T22:24:16.000Z</time></trkpt>
        <trkpt lat="29.346012" lon="103.45222"><ele>689.20355</ele><time>2026-07-01T22:24:18.000Z</time></trkpt>
        <trkpt lat="29.346011" lon="103.452244"><ele>688.94104</ele><time>2026-07-01T22:24:20.000Z</time></trkpt>
        <trkpt lat="29.346014" lon="103.452266"><ele>688.23193</ele><time>2026-07-01T22:24:22.000Z</time></trkpt>
        <trkpt lat="29.346017" lon="103.452292"><ele>687.5632</ele><time>2026-07-01T22:24:24.000Z</time></trkpt>
        <trkpt lat="29.346018" lon="103.452314"><ele>687.1988</ele><time>2026-07-01T22:24:26.000Z</time></trkpt>
        <trkpt lat="29.346021" lon="103.452336"><ele>686.5149</ele><time>2026-07-01T22:24:28.000Z</time></trkpt>
        <trkpt lat="29.346023" lon="103.452359"><ele>686.05646</ele><time>2026-07-01T22:24:30.000Z</time></trkpt>
        <trkpt lat="29.346025" lon="103.452383"><ele>685.6741</ele><time>2026-07-01T22:24:32.000Z</time></trkpt>
        <trkpt lat="29.346028" lon="103.452407"><ele>685.43036</ele><time>2026-07-01T22:24:34.000Z</time></trkpt>
        <trkpt lat="29.34603" lon="103.452429"><ele>685.199</ele><time>2026-07-01T22:24:36.000Z</time></trkpt>
        <trkpt lat="29.346029" lon="103.452452"><ele>684.904</ele><time>2026-07-01T22:24:38.000Z</time></trkpt>
        <trkpt lat="29.346026" lon="103.452477"><ele>684.50055</ele><time>2026-07-01T22:24:40.000Z</time></trkpt>
        <trkpt lat="29.346018" lon="103.452497"><ele>684.1431</ele><time>2026-07-01T22:24:42.000Z</time></trkpt>
        <trkpt lat="29.346007" lon="103.452508"><ele>683.64404</ele><time>2026-07-01T22:24:44.000Z</time></trkpt>
        <trkpt lat="29.346007" lon="103.452508"><ele>683.33093</ele><time>2026-07-01T22:24:46.000Z</time></trkpt>
        <trkpt lat="29.345988" lon="103.452479"><ele>682.84753</ele><time>2026-07-01T22:24:50.000Z</time></trkpt>
        <trkpt lat="29.345979" lon="103.452468"><ele>682.3704</ele><time>2026-07-01T22:24:52.000Z</time></trkpt>
        <trkpt lat="29.345976" lon="103.452461"><ele>681.7825</ele><time>2026-07-01T22:24:54.000Z</time></trkpt>
        <trkpt lat="29.345967" lon="103.452441"><ele>681.4684</ele><time>2026-07-01T22:24:58.000Z</time></trkpt>
        <trkpt lat="29.34596" lon="103.452425"><ele>681.16724</ele><time>2026-07-01T22:25:00.000Z</time></trkpt>
        <trkpt lat="29.345951" lon="103.452406"><ele>679.9462</ele><time>2026-07-01T22:25:02.000Z</time></trkpt>
        <trkpt lat="29.345942" lon="103.452388"><ele>679.39777</ele><time>2026-07-01T22:25:04.000Z</time></trkpt>
        <trkpt lat="29.345934" lon="103.452374"><ele>679.0749</ele><time>2026-07-01T22:25:06.000Z</time></trkpt>
        <trkpt lat="29.345927" lon="103.452364"><ele>678.7591</ele><time>2026-07-01T22:25:08.000Z</time></trkpt>
        <trkpt lat="29.345927" lon="103.452364"><ele>678.52625</ele><time>2026-07-01T22:25:10.000Z</time></trkpt>
        <trkpt lat="29.345903" lon="103.45238"><ele>678.52625</ele><time>2026-07-01T22:25:24.000Z</time></trkpt>
        <trkpt lat="29.345896" lon="103.452381"><ele>678.49554</ele><time>2026-07-01T22:25:26.000Z</time></trkpt>
        <trkpt lat="29.34589" lon="103.452381"><ele>678.3819</ele><time>2026-07-01T22:25:28.000Z</time></trkpt>
        <trkpt lat="29.345874" lon="103.452374"><ele>678.35834</ele><time>2026-07-01T22:25:32.000Z</time></trkpt>
        <trkpt lat="29.345864" lon="103.452372"><ele>678.19086</ele><time>2026-07-01T22:25:36.000Z</time></trkpt>
        <trkpt lat="29.345849" lon="103.452368"><ele>677.9862</ele><time>2026-07-01T22:25:39.000Z</time></trkpt>
        <trkpt lat="29.345831" lon="103.452443"><ele>677.4219</ele><time>2026-07-01T22:25:55.000Z</time></trkpt>
        <trkpt lat="29.345831" lon="103.452443"><ele>676.70715</ele><time>2026-07-01T22:25:57.000Z</time></trkpt>
        <trkpt lat="29.345831" lon="103.452443"><ele>673.6096</ele><time>2026-07-01T22:25:59.000Z</time></trkpt>
        <trkpt lat="29.345774" lon="103.4524"><ele>673.6081</ele><time>2026-07-01T22:26:07.000Z</time></trkpt>
        <trkpt lat="29.345774" lon="103.4524"><ele>673.6069</ele><time>2026-07-01T22:26:09.000Z</time></trkpt>
        <trkpt lat="29.345773" lon="103.452401"><ele>671.0696</ele><time>2026-07-01T22:26:11.000Z</time></trkpt>
        <trkpt lat="29.345748" lon="103.452432"><ele>671.0647</ele><time>2026-07-01T22:26:17.000Z</time></trkpt>
        <trkpt lat="29.345739" lon="103.452446"><ele>670.9549</ele><time>2026-07-01T22:26:19.000Z</time></trkpt>
        <trkpt lat="29.345729" lon="103.45246"><ele>668.70416</ele><time>2026-07-01T22:26:21.000Z</time></trkpt>
        <trkpt lat="29.345723" lon="103.452467"><ele>668.39124</ele><time>2026-07-01T22:26:23.000Z</time></trkpt>
        <trkpt lat="29.345716" lon="103.452476"><ele>668.12274</ele><time>2026-07-01T22:26:27.000Z</time></trkpt>
        <trkpt lat="29.345705" lon="103.452489"><ele>668.00525</ele><time>2026-07-01T22:26:34.000Z</time></trkpt>
        <trkpt lat="29.345706" lon="103.452491"><ele>667.246</ele><time>2026-07-01T22:26:36.000Z</time></trkpt>
        <trkpt lat="29.345684" lon="103.452458"><ele>666.9568</ele><time>2026-07-01T22:26:46.000Z</time></trkpt>
        <trkpt lat="29.345684" lon="103.452458"><ele>666.2852</ele><time>2026-07-01T22:26:48.000Z</time></trkpt>
        <trkpt lat="29.345665" lon="103.452479"><ele>664.5153</ele><time>2026-07-01T22:26:50.000Z</time></trkpt>
        <trkpt lat="29.345658" lon="103.452486"><ele>664.48285</ele><time>2026-07-01T22:26:55.000Z</time></trkpt>
        <trkpt lat="29.345648" lon="103.452496"><ele>664.41113</ele><time>2026-07-01T22:26:57.000Z</time></trkpt>
        <trkpt lat="29.345635" lon="103.452501"><ele>664.30225</ele><time>2026-07-01T22:26:59.000Z</time></trkpt>
        <trkpt lat="29.345589" lon="103.45251"><ele>663.96716</ele><time>2026-07-01T22:27:09.000Z</time></trkpt>
        <trkpt lat="29.345575" lon="103.452507"><ele>663.3516</ele><time>2026-07-01T22:27:11.000Z</time></trkpt>
        <trkpt lat="29.34556" lon="103.452501"><ele>659.06134</ele><time>2026-07-01T22:27:13.000Z</time></trkpt>
        <trkpt lat="29.345551" lon="103.452494"><ele>658.687</ele><time>2026-07-01T22:27:15.000Z</time></trkpt>
        <trkpt lat="29.345543" lon="103.452485"><ele>658.1835</ele><time>2026-07-01T22:27:17.000Z</time></trkpt>
        <trkpt lat="29.345531" lon="103.452474"><ele>657.98047</ele><time>2026-07-01T22:27:19.000Z</time></trkpt>
        <trkpt lat="29.345518" lon="103.452468"><ele>657.72894</ele><time>2026-07-01T22:27:21.000Z</time></trkpt>
        <trkpt lat="29.345506" lon="103.452469"><ele>657.34894</ele><time>2026-07-01T22:27:23.000Z</time></trkpt>
        <trkpt lat="29.345494" lon="103.452472"><ele>657.1012</ele><time>2026-07-01T22:27:25.000Z</time></trkpt>
        <trkpt lat="29.345479" lon="103.452474"><ele>656.59357</ele><time>2026-07-01T22:27:27.000Z</time></trkpt>
        <trkpt lat="29.345468" lon="103.452471"><ele>655.81006</ele><time>2026-07-01T22:27:29.000Z</time></trkpt>
        <trkpt lat="29.345458" lon="103.452465"><ele>655.1587</ele><time>2026-07-01T22:27:31.000Z</time></trkpt>
        <trkpt lat="29.345449" lon="103.452458"><ele>654.7206</ele><time>2026-07-01T22:27:33.000Z</time></trkpt>
        <trkpt lat="29.345437" lon="103.452449"><ele>654.17957</ele><time>2026-07-01T22:27:35.000Z</time></trkpt>
        <trkpt lat="29.345436" lon="103.452451"><ele>653.52014</ele><time>2026-07-01T22:27:37.000Z</time></trkpt>
        <trkpt lat="29.345413" lon="103.452469"><ele>652.87646</ele><time>2026-07-01T22:27:49.000Z</time></trkpt>
        <trkpt lat="29.345396" lon="103.452483"><ele>652.7819</ele><time>2026-07-01T22:27:54.000Z</time></trkpt>
        <trkpt lat="29.345396" lon="103.452483"><ele>650.11127</ele><time>2026-07-01T22:27:56.000Z</time></trkpt>
        <trkpt lat="29.345372" lon="103.452548"><ele>649.27295</ele><time>2026-07-01T22:28:03.000Z</time></trkpt>
        <trkpt lat="29.345372" lon="103.452548"><ele>649.27106</ele><time>2026-07-01T22:28:05.000Z</time></trkpt>
        <trkpt lat="29.345371" lon="103.452548"><ele>647.4301</ele><time>2026-07-01T22:28:07.000Z</time></trkpt>
        <trkpt lat="29.345316" lon="103.452549"><ele>647.42957</ele><time>2026-07-01T22:28:15.000Z</time></trkpt>
        <trkpt lat="29.345316" lon="103.452549"><ele>647.3912</ele><time>2026-07-01T22:28:17.000Z</time></trkpt>
        <trkpt lat="29.345316" lon="103.452553"><ele>645.5169</ele><time>2026-07-01T22:28:19.000Z</time></trkpt>
        <trkpt lat="29.345305" lon="103.452601"><ele>645.51373</ele><time>2026-07-01T22:28:23.000Z</time></trkpt>
        <trkpt lat="29.345294" lon="103.452635"><ele>645.35565</ele><time>2026-07-01T22:28:25.000Z</time></trkpt>
        <trkpt lat="29.34528" lon="103.45267"><ele>644.2155</ele><time>2026-07-01T22:28:27.000Z</time></trkpt>
        <trkpt lat="29.345268" lon="103.452698"><ele>643.52014</ele><time>2026-07-01T22:28:29.000Z</time></trkpt>
        <trkpt lat="29.345255" lon="103.452722"><ele>642.72723</ele><time>2026-07-01T22:28:31.000Z</time></trkpt>
        <trkpt lat="29.345239" lon="103.452745"><ele>641.88763</ele><time>2026-07-01T22:28:33.000Z</time></trkpt>
        <trkpt lat="29.345222" lon="103.452766"><ele>641.1611</ele><time>2026-07-01T22:28:35.000Z</time></trkpt>
        <trkpt lat="29.345204" lon="103.452781"><ele>640.3574</ele><time>2026-07-01T22:28:37.000Z</time></trkpt>
        <trkpt lat="29.345185" lon="103.452785"><ele>639.98944</ele><time>2026-07-01T22:28:39.000Z</time></trkpt>
        <trkpt lat="29.345169" lon="103.452779"><ele>639.7719</ele><time>2026-07-01T22:28:41.000Z</time></trkpt>
        <trkpt lat="29.345157" lon="103.452767"><ele>639.2857</ele><time>2026-07-01T22:28:43.000Z</time></trkpt>
        <trkpt lat="29.345146" lon="103.452744"><ele>639.16675</ele><time>2026-07-01T22:28:45.000Z</time></trkpt>
        <trkpt lat="29.345135" lon="103.452719"><ele>638.3722</ele><time>2026-07-01T22:28:47.000Z</time></trkpt>
        <trkpt lat="29.345125" lon="103.452697"><ele>637.52094</ele><time>2026-07-01T22:28:49.000Z</time></trkpt>
        <trkpt lat="29.345116" lon="103.452693"><ele>636.7407</ele><time>2026-07-01T22:28:51.000Z</time></trkpt>
        <trkpt lat="29.345116" lon="103.452692"><ele>636.1652</ele><time>2026-07-01T22:28:53.000Z</time></trkpt>
        <trkpt lat="29.34511" lon="103.452727"><ele>636.08344</ele><time>2026-07-01T22:29:13.000Z</time></trkpt>
        <trkpt lat="29.34511" lon="103.452728"><ele>635.4767</ele><time>2026-07-01T22:29:15.000Z</time></trkpt>
        <trkpt lat="29.345109" lon="103.452735"><ele>635.3878</ele><time>2026-07-01T22:29:18.000Z</time></trkpt>
        <trkpt lat="29.345107" lon="103.452767"><ele>635.2198</ele><time>2026-07-01T22:29:21.000Z</time></trkpt>
        <trkpt lat="29.345107" lon="103.452769"><ele>635.134</ele><time>2026-07-01T22:29:23.000Z</time></trkpt>
        <trkpt lat="29.344866" lon="103.453056"><ele>635.1084</ele><time>2026-07-01T22:30:05.000Z</time></trkpt>
        <trkpt lat="29.344866" lon="103.453056"><ele>634.95575</ele><time>2026-07-01T22:30:07.000Z</time></trkpt>
        <trkpt lat="29.344865" lon="103.453057"><ele>624.26697</ele><time>2026-07-01T22:30:09.000Z</time></trkpt>
        <trkpt lat="29.344822" lon="103.453075"><ele>624.26404</ele><time>2026-07-01T22:30:15.000Z</time></trkpt>
        <trkpt lat="29.344804" lon="103.453083"><ele>624.12744</ele><time>2026-07-01T22:30:17.000Z</time></trkpt>
        <trkpt lat="29.344787" lon="103.453096"><ele>621.7099</ele><time>2026-07-01T22:30:19.000Z</time></trkpt>
        <trkpt lat="29.344774" lon="103.453113"><ele>620.95135</ele><time>2026-07-01T22:30:21.000Z</time></trkpt>
        <trkpt lat="29.344763" lon="103.453133"><ele>620.32245</ele><time>2026-07-01T22:30:23.000Z</time></trkpt>
        <trkpt lat="29.344754" lon="103.453156"><ele>619.6838</ele><time>2026-07-01T22:30:25.000Z</time></trkpt>
        <trkpt lat="29.344747" lon="103.453179"><ele>619.16345</ele><time>2026-07-01T22:30:27.000Z</time></trkpt>
        <trkpt lat="29.344742" lon="103.453201"><ele>618.7998</ele><time>2026-07-01T22:30:29.000Z</time></trkpt>
        <trkpt lat="29.344738" lon="103.453225"><ele>618.1622</ele><time>2026-07-01T22:30:31.000Z</time></trkpt>
        <trkpt lat="29.344737" lon="103.453246"><ele>617.7829</ele><time>2026-07-01T22:30:33.000Z</time></trkpt>
        <trkpt lat="29.344737" lon="103.453264"><ele>617.6386</ele><time>2026-07-01T22:30:35.000Z</time></trkpt>
        <trkpt lat="29.344738" lon="103.45328"><ele>617.27</ele><time>2026-07-01T22:30:37.000Z</time></trkpt>
        <trkpt lat="29.344737" lon="103.4533"><ele>616.9611</ele><time>2026-07-01T22:30:39.000Z</time></trkpt>
        <trkpt lat="29.344736" lon="103.453324"><ele>616.5446</ele><time>2026-07-01T22:30:41.000Z</time></trkpt>
        <trkpt lat="29.344736" lon="103.45335"><ele>616.3208</ele><time>2026-07-01T22:30:43.000Z</time></trkpt>
        <trkpt lat="29.344739" lon="103.453376"><ele>616.24426</ele><time>2026-07-01T22:30:45.000Z</time></trkpt>
        <trkpt lat="29.344743" lon="103.453404"><ele>615.8418</ele><time>2026-07-01T22:30:47.000Z</time></trkpt>
        <trkpt lat="29.344752" lon="103.453431"><ele>615.10333</ele><time>2026-07-01T22:30:49.000Z</time></trkpt>
        <trkpt lat="29.344762" lon="103.453456"><ele>614.13257</ele><time>2026-07-01T22:30:51.000Z</time></trkpt>
        <trkpt lat="29.34477" lon="103.453473"><ele>613.4213</ele><time>2026-07-01T22:30:53.000Z</time></trkpt>
        <trkpt lat="29.344776" lon="103.45349"><ele>612.40137</ele><time>2026-07-01T22:30:55.000Z</time></trkpt>
        <trkpt lat="29.34478" lon="103.453504"><ele>610.75494</ele><time>2026-07-01T22:30:57.000Z</time></trkpt>
        <trkpt lat="29.344783" lon="103.453519"><ele>609.2851</ele><time>2026-07-01T22:30:59.000Z</time></trkpt>
        <trkpt lat="29.344789" lon="103.453536"><ele>608.3965</ele><time>2026-07-01T22:31:01.000Z</time></trkpt>
        <trkpt lat="29.344797" lon="103.453551"><ele>608.3965</ele><time>2026-07-01T22:31:03.000Z</time></trkpt>
        <trkpt lat="29.344805" lon="103.453565"><ele>608.3965</ele><time>2026-07-01T22:31:05.000Z</time></trkpt>
        <trkpt lat="29.344811" lon="103.453576"><ele>608.7149</ele><time>2026-07-01T22:31:07.000Z</time></trkpt>
        <trkpt lat="29.344819" lon="103.453587"><ele>608.7941</ele><time>2026-07-01T22:31:09.000Z</time></trkpt>
        <trkpt lat="29.34483" lon="103.453597"><ele>608.8273</ele><time>2026-07-01T22:31:11.000Z</time></trkpt>
        <trkpt lat="29.344843" lon="103.45361"><ele>608.8273</ele><time>2026-07-01T22:31:13.000Z</time></trkpt>
        <trkpt lat="29.344856" lon="103.453627"><ele>608.8273</ele><time>2026-07-01T22:31:15.000Z</time></trkpt>
        <trkpt lat="29.344863" lon="103.453648"><ele>608.80286</ele><time>2026-07-01T22:31:17.000Z</time></trkpt>
        <trkpt lat="29.344862" lon="103.453668"><ele>608.80286</ele><time>2026-07-01T22:31:19.000Z</time></trkpt>
        <trkpt lat="29.344855" lon="103.453683"><ele>608.80286</ele><time>2026-07-01T22:31:21.000Z</time></trkpt>
        <trkpt lat="29.344843" lon="103.453696"><ele>608.85345</ele><time>2026-07-01T22:31:23.000Z</time></trkpt>
        <trkpt lat="29.344829" lon="103.453709"><ele>609.0778</ele><time>2026-07-01T22:31:25.000Z</time></trkpt>
        <trkpt lat="29.34481" lon="103.453726"><ele>609.2657</ele><time>2026-07-01T22:31:27.000Z</time></trkpt>
        <trkpt lat="29.344788" lon="103.453745"><ele>609.288</ele><time>2026-07-01T22:31:29.000Z</time></trkpt>
        <trkpt lat="29.344388" lon="103.45437"><ele>611.1819</ele><time>2026-07-01T22:33:09.000Z</time></trkpt>
        <trkpt lat="29.344388" lon="103.45437"><ele>611.1819</ele><time>2026-07-01T22:33:11.000Z</time></trkpt>
        <trkpt lat="29.344386" lon="103.454371"><ele>610.30646</ele><time>2026-07-01T22:33:13.000Z</time></trkpt>
        <trkpt lat="29.344359" lon="103.454387"><ele>610.30646</ele><time>2026-07-01T22:33:17.000Z</time></trkpt>
        <trkpt lat="29.344334" lon="103.454398"><ele>610.30646</ele><time>2026-07-01T22:33:19.000Z</time></trkpt>
        <trkpt lat="29.344308" lon="103.45441"><ele>610.5085</ele><time>2026-07-01T22:33:21.000Z</time></trkpt>
        <trkpt lat="29.344282" lon="103.454424"><ele>610.6382</ele><time>2026-07-01T22:33:23.000Z</time></trkpt>
        <trkpt lat="29.344256" lon="103.454439"><ele>610.72327</ele><time>2026-07-01T22:33:25.000Z</time></trkpt>
        <trkpt lat="29.344235" lon="103.454457"><ele>610.9898</ele><time>2026-07-01T22:33:27.000Z</time></trkpt>
        <trkpt lat="29.344207" lon="103.454477"><ele>611.172</ele><time>2026-07-01T22:33:29.000Z</time></trkpt>
        <trkpt lat="29.344183" lon="103.454495"><ele>611.43646</ele><time>2026-07-01T22:33:31.000Z</time></trkpt>
        <trkpt lat="29.344158" lon="103.454504"><ele>611.5439</ele><time>2026-07-01T22:33:33.000Z</time></trkpt>
        <trkpt lat="29.344101" lon="103.454518"><ele>611.77496</ele><time>2026-07-01T22:33:39.000Z</time></trkpt>
        <trkpt lat="29.344089" lon="103.454521"><ele>611.77496</ele><time>2026-07-01T22:33:41.000Z</time></trkpt>
        <trkpt lat="29.344041" lon="103.454528"><ele>611.77496</ele><time>2026-07-01T22:33:48.000Z</time></trkpt>
        <trkpt lat="29.344033" lon="103.454531"><ele>611.464</ele><time>2026-07-01T22:33:50.000Z</time></trkpt>
        <trkpt lat="29.344024" lon="103.454538"><ele>610.3273</ele><time>2026-07-01T22:33:52.000Z</time></trkpt>
        <trkpt lat="29.344009" lon="103.454549"><ele>609.9852</ele><time>2026-07-01T22:33:54.000Z</time></trkpt>
        <trkpt lat="29.343998" lon="103.454557"><ele>609.657</ele><time>2026-07-01T22:33:56.000Z</time></trkpt>
        <trkpt lat="29.343981" lon="103.454565"><ele>609.657</ele><time>2026-07-01T22:33:58.000Z</time></trkpt>
        <trkpt lat="29.34396" lon="103.454572"><ele>609.6245</ele><time>2026-07-01T22:34:00.000Z</time></trkpt>
        <trkpt lat="29.343939" lon="103.454578"><ele>609.60583</ele><time>2026-07-01T22:34:02.000Z</time></trkpt>
        <trkpt lat="29.343921" lon="103.454585"><ele>609.46564</ele><time>2026-07-01T22:34:04.000Z</time></trkpt>
        <trkpt lat="29.343906" lon="103.454591"><ele>608.9425</ele><time>2026-07-01T22:34:06.000Z</time></trkpt>
        <trkpt lat="29.343894" lon="103.4546"><ele>608.4578</ele><time>2026-07-01T22:34:08.000Z</time></trkpt>
        <trkpt lat="29.343883" lon="103.454613"><ele>607.94147</ele><time>2026-07-01T22:34:10.000Z</time></trkpt>
        <trkpt lat="29.343873" lon="103.454629"><ele>607.48914</ele><time>2026-07-01T22:34:12.000Z</time></trkpt>
        <trkpt lat="29.343865" lon="103.454648"><ele>607.26447</ele><time>2026-07-01T22:34:14.000Z</time></trkpt>
        <trkpt lat="29.343858" lon="103.454669"><ele>607.1322</ele><time>2026-07-01T22:34:16.000Z</time></trkpt>
        <trkpt lat="29.343849" lon="103.454689"><ele>607.11163</ele><time>2026-07-01T22:34:18.000Z</time></trkpt>
        <trkpt lat="29.343844" lon="103.454702"><ele>607.05786</ele><time>2026-07-01T22:34:20.000Z</time></trkpt>
        <trkpt lat="29.343837" lon="103.454717"><ele>606.9607</ele><time>2026-07-01T22:34:22.000Z</time></trkpt>
        <trkpt lat="29.343829" lon="103.454733"><ele>606.9328</ele><time>2026-07-01T22:34:24.000Z</time></trkpt>
        <trkpt lat="29.343823" lon="103.454747"><ele>606.2084</ele><time>2026-07-01T22:34:26.000Z</time></trkpt>
        <trkpt lat="29.343817" lon="103.454758"><ele>605.7382</ele><time>2026-07-01T22:34:28.000Z</time></trkpt>
        <trkpt lat="29.343809" lon="103.454769"><ele>605.1099</ele><time>2026-07-01T22:34:30.000Z</time></trkpt>
        <trkpt lat="29.343802" lon="103.454776"><ele>604.5506</ele><time>2026-07-01T22:34:33.000Z</time></trkpt>
        <trkpt lat="29.343792" lon="103.454783"><ele>604.2732</ele><time>2026-07-01T22:34:35.000Z</time></trkpt>
        <trkpt lat="29.34378" lon="103.454793"><ele>603.85803</ele><time>2026-07-01T22:34:37.000Z</time></trkpt>
        <trkpt lat="29.343768" lon="103.454805"><ele>603.7511</ele><time>2026-07-01T22:34:39.000Z</time></trkpt>
        <trkpt lat="29.343756" lon="103.454821"><ele>603.6896</ele><time>2026-07-01T22:34:41.000Z</time></trkpt>
        <trkpt lat="29.343747" lon="103.454842"><ele>603.43933</ele><time>2026-07-01T22:34:43.000Z</time></trkpt>
        <trkpt lat="29.343742" lon="103.454868"><ele>603.16614</ele><time>2026-07-01T22:34:45.000Z</time></trkpt>
        <trkpt lat="29.343739" lon="103.454899"><ele>603.16614</ele><time>2026-07-01T22:34:47.000Z</time></trkpt>
        <trkpt lat="29.34374" lon="103.454928"><ele>603.16614</ele><time>2026-07-01T22:34:49.000Z</time></trkpt>
        <trkpt lat="29.343743" lon="103.454951"><ele>603.27295</ele><time>2026-07-01T22:34:51.000Z</time></trkpt>
        <trkpt lat="29.343746" lon="103.454972"><ele>603.6825</ele><time>2026-07-01T22:34:53.000Z</time></trkpt>
        <trkpt lat="29.34375" lon="103.454994"><ele>603.9724</ele><time>2026-07-01T22:34:55.000Z</time></trkpt>
        <trkpt lat="29.343754" lon="103.455009"><ele>604.27905</ele><time>2026-07-01T22:34:57.000Z</time></trkpt>
        <trkpt lat="29.343756" lon="103.45502"><ele>604.30615</ele><time>2026-07-01T22:34:59.000Z</time></trkpt>
        <trkpt lat="29.343759" lon="103.455032"><ele>604.30615</ele><time>2026-07-01T22:35:01.000Z</time></trkpt>
        <trkpt lat="29.34376" lon="103.455045"><ele>604.30615</ele><time>2026-07-01T22:35:03.000Z</time></trkpt>
        <trkpt lat="29.343757" lon="103.455052"><ele>603.7159</ele><time>2026-07-01T22:35:05.000Z</time></trkpt>
        <trkpt lat="29.343751" lon="103.455073"><ele>603.0309</ele><time>2026-07-01T22:35:11.000Z</time></trkpt>
        <trkpt lat="29.343748" lon="103.455081"><ele>603.0309</ele><time>2026-07-01T22:35:13.000Z</time></trkpt>
        <trkpt lat="29.343728" lon="103.455134"><ele>603.0309</ele><time>2026-07-01T22:35:21.000Z</time></trkpt>
        <trkpt lat="29.343728" lon="103.455134"><ele>603.07404</ele><time>2026-07-01T22:35:23.000Z</time></trkpt>
        <trkpt lat="29.343727" lon="103.455134"><ele>604.4412</ele><time>2026-07-01T22:35:25.000Z</time></trkpt>
        <trkpt lat="29.343674" lon="103.455123"><ele>604.443</ele><time>2026-07-01T22:35:45.000Z</time></trkpt>
        <trkpt lat="29.343667" lon="103.455122"><ele>604.5602</ele><time>2026-07-01T22:35:57.000Z</time></trkpt>
        <trkpt lat="29.343667" lon="103.455122"><ele>604.765</ele><time>2026-07-01T22:35:59.000Z</time></trkpt>
        <trkpt lat="29.343629" lon="103.454974"><ele>604.765</ele><time>2026-07-01T22:36:18.000Z</time></trkpt>
        <trkpt lat="29.343629" lon="103.454974"><ele>604.765</ele><time>2026-07-01T22:36:20.000Z</time></trkpt>
        <trkpt lat="29.343624" lon="103.454979"><ele>600.10583</ele><time>2026-07-01T22:36:22.000Z</time></trkpt>
        <trkpt lat="29.343603" lon="103.454999"><ele>600.0984</ele><time>2026-07-01T22:36:24.000Z</time></trkpt>
        <trkpt lat="29.343571" lon="103.455028"><ele>599.9587</ele><time>2026-07-01T22:36:26.000Z</time></trkpt>
        <trkpt lat="29.34354" lon="103.455056"><ele>599.3756</ele><time>2026-07-01T22:36:28.000Z</time></trkpt>
        <trkpt lat="29.343522" lon="103.455077"><ele>598.54596</ele><time>2026-07-01T22:36:30.000Z</time></trkpt>
        <trkpt lat="29.343511" lon="103.455092"><ele>598.0237</ele><time>2026-07-01T22:36:32.000Z</time></trkpt>
        <trkpt lat="29.343506" lon="103.455103"><ele>597.8509</ele><time>2026-07-01T22:36:34.000Z</time></trkpt>
        <trkpt lat="29.343501" lon="103.455112"><ele>597.83026</ele><time>2026-07-01T22:36:36.000Z</time></trkpt>
        <trkpt lat="29.343495" lon="103.455128"><ele>597.83026</ele><time>2026-07-01T22:36:41.000Z</time></trkpt>
        <trkpt lat="29.343473" lon="103.455179"><ele>597.8509</ele><time>2026-07-01T22:36:49.000Z</time></trkpt>
        <trkpt lat="29.343473" lon="103.455179"><ele>598.65784</ele><time>2026-07-01T22:36:51.000Z</time></trkpt>
        <trkpt lat="29.343471" lon="103.45518"><ele>599.40155</ele><time>2026-07-01T22:36:53.000Z</time></trkpt>
        <trkpt lat="29.343438" lon="103.455183"><ele>599.40155</ele><time>2026-07-01T22:36:57.000Z</time></trkpt>
        <trkpt lat="29.343416" lon="103.455186"><ele>599.40155</ele><time>2026-07-01T22:36:59.000Z</time></trkpt>
        <trkpt lat="29.343393" lon="103.455188"><ele>598.46857</ele><time>2026-07-01T22:37:01.000Z</time></trkpt>
        <trkpt lat="29.343369" lon="103.45519"><ele>597.4877</ele><time>2026-07-01T22:37:03.000Z</time></trkpt>
        <trkpt lat="29.343346" lon="103.455192"><ele>596.67566</ele><time>2026-07-01T22:37:05.000Z</time></trkpt>
        <trkpt lat="29.343321" lon="103.455197"><ele>595.8215</ele><time>2026-07-01T22:37:07.000Z</time></trkpt>
        <trkpt lat="29.343298" lon="103.455205"><ele>595.2734</ele><time>2026-07-01T22:37:09.000Z</time></trkpt>
        <trkpt lat="29.34328" lon="103.455219"><ele>595.04767</ele><time>2026-07-01T22:37:11.000Z</time></trkpt>
        <trkpt lat="29.343272" lon="103.455234"><ele>594.77155</ele><time>2026-07-01T22:37:13.000Z</time></trkpt>
        <trkpt lat="29.343264" lon="103.455257"><ele>594.65</ele><time>2026-07-01T22:37:15.000Z</time></trkpt>
        <trkpt lat="29.343254" lon="103.455284"><ele>594.2276</ele><time>2026-07-01T22:37:17.000Z</time></trkpt>
        <trkpt lat="29.343244" lon="103.45531"><ele>593.5961</ele><time>2026-07-01T22:37:19.000Z</time></trkpt>
        <trkpt lat="29.343232" lon="103.455333"><ele>592.72266</ele><time>2026-07-01T22:37:21.000Z</time></trkpt>
        <trkpt lat="29.343219" lon="103.45535"><ele>592.20514</ele><time>2026-07-01T22:37:23.000Z</time></trkpt>
        <trkpt lat="29.343205" lon="103.455365"><ele>591.88794</ele><time>2026-07-01T22:37:25.000Z</time></trkpt>
        <trkpt lat="29.343189" lon="103.455376"><ele>591.4684</ele><time>2026-07-01T22:37:27.000Z</time></trkpt>
        <trkpt lat="29.343171" lon="103.455391"><ele>591.02954</ele><time>2026-07-01T22:37:29.000Z</time></trkpt>
        <trkpt lat="29.343155" lon="103.455405"><ele>590.49146</ele><time>2026-07-01T22:37:31.000Z</time></trkpt>
        <trkpt lat="29.343139" lon="103.45542"><ele>590.1587</ele><time>2026-07-01T22:37:33.000Z</time></trkpt>
        <trkpt lat="29.343121" lon="103.455433"><ele>589.44464</ele><time>2026-07-01T22:37:35.000Z</time></trkpt>
        <trkpt lat="29.343105" lon="103.455445"><ele>588.76465</ele><time>2026-07-01T22:37:37.000Z</time></trkpt>
        <trkpt lat="29.343089" lon="103.455456"><ele>588.1536</ele><time>2026-07-01T22:37:39.000Z</time></trkpt>
        <trkpt lat="29.343078" lon="103.455462"><ele>587.35944</ele><time>2026-07-01T22:37:41.000Z</time></trkpt>
        <trkpt lat="29.34307" lon="103.455465"><ele>586.7005</ele><time>2026-07-01T22:37:42.000Z</time></trkpt>
        <trkpt lat="29.343059" lon="103.455466"><ele>586.19934</ele><time>2026-07-01T22:37:44.000Z</time></trkpt>
        <trkpt lat="29.343043" lon="103.455468"><ele>585.71857</ele><time>2026-07-01T22:37:48.000Z</time></trkpt>
        <trkpt lat="29.34304" lon="103.45547"><ele>585.2721</ele><time>2026-07-01T22:37:50.000Z</time></trkpt>
        <trkpt lat="29.342995" lon="103.455508"><ele>584.87555</ele><time>2026-07-01T22:37:56.000Z</time></trkpt>
        <trkpt lat="29.342995" lon="103.455508"><ele>584.67395</ele><time>2026-07-01T22:37:58.000Z</time></trkpt>
        <trkpt lat="29.342995" lon="103.455511"><ele>584.34576</ele><time>2026-07-01T22:38:00.000Z</time></trkpt>
        <trkpt lat="29.342995" lon="103.455558"><ele>584.2776</ele><time>2026-07-01T22:38:06.000Z</time></trkpt>
        <trkpt lat="29.342994" lon="103.455578"><ele>584.2748</ele><time>2026-07-01T22:38:08.000Z</time></trkpt>
        <trkpt lat="29.342991" lon="103.455599"><ele>582.63495</ele><time>2026-07-01T22:38:10.000Z</time></trkpt>
        <trkpt lat="29.342986" lon="103.455616"><ele>581.529</ele><time>2026-07-01T22:38:12.000Z</time></trkpt>
        <trkpt lat="29.342979" lon="103.455629"><ele>580.38385</ele><time>2026-07-01T22:38:14.000Z</time></trkpt>
        <trkpt lat="29.342969" lon="103.455635"><ele>579.30774</ele><time>2026-07-01T22:38:16.000Z</time></trkpt>
        <trkpt lat="29.342954" lon="103.455638"><ele>579.30774</ele><time>2026-07-01T22:38:18.000Z</time></trkpt>
        <trkpt lat="29.342935" lon="103.455638"><ele>579.30774</ele><time>2026-07-01T22:38:20.000Z</time></trkpt>
        <trkpt lat="29.342912" lon="103.455645"><ele>579.6869</ele><time>2026-07-01T22:38:22.000Z</time></trkpt>
        <trkpt lat="29.3429" lon="103.455652"><ele>581.0938</ele><time>2026-07-01T22:38:24.000Z</time></trkpt>
        <trkpt lat="29.342885" lon="103.455661"><ele>582.2291</ele><time>2026-07-01T22:38:26.000Z</time></trkpt>
        <trkpt lat="29.342869" lon="103.455676"><ele>582.6186</ele><time>2026-07-01T22:38:28.000Z</time></trkpt>
        <trkpt lat="29.342857" lon="103.455696"><ele>583.29443</ele><time>2026-07-01T22:38:30.000Z</time></trkpt>
        <trkpt lat="29.342847" lon="103.455713"><ele>584.2324</ele><time>2026-07-01T22:38:32.000Z</time></trkpt>
        <trkpt lat="29.342838" lon="103.455726"><ele>585.13983</ele><time>2026-07-01T22:38:34.000Z</time></trkpt>
        <trkpt lat="29.34283" lon="103.455733"><ele>585.9531</ele><time>2026-07-01T22:38:36.000Z</time></trkpt>
        <trkpt lat="29.342815" lon="103.455743"><ele>586.35266</ele><time>2026-07-01T22:38:38.000Z</time></trkpt>
        <trkpt lat="29.342797" lon="103.455754"><ele>586.35266</ele><time>2026-07-01T22:38:40.000Z</time></trkpt>
        <trkpt lat="29.342775" lon="103.455763"><ele>586.4168</ele><time>2026-07-01T22:38:42.000Z</time></trkpt>
        <trkpt lat="29.342752" lon="103.455771"><ele>586.3859</ele><time>2026-07-01T22:38:45.000Z</time></trkpt>
        <trkpt lat="29.342727" lon="103.45578"><ele>586.3859</ele><time>2026-07-01T22:38:47.000Z</time></trkpt>
        <trkpt lat="29.342702" lon="103.455791"><ele>586.3859</ele><time>2026-07-01T22:38:49.000Z</time></trkpt>
        <trkpt lat="29.342675" lon="103.455798"><ele>586.3859</ele><time>2026-07-01T22:38:51.000Z</time></trkpt>
        <trkpt lat="29.34265" lon="103.455809"><ele>586.0792</ele><time>2026-07-01T22:38:53.000Z</time></trkpt>
        <trkpt lat="29.342634" lon="103.455819"><ele>585.3239</ele><time>2026-07-01T22:38:55.000Z</time></trkpt>
        <trkpt lat="29.342622" lon="103.455828"><ele>584.9519</ele><time>2026-07-01T22:38:57.000Z</time></trkpt>
        <trkpt lat="29.342609" lon="103.455831"><ele>584.3219</ele><time>2026-07-01T22:38:59.000Z</time></trkpt>
        <trkpt lat="29.34259" lon="103.455831"><ele>583.87494</ele><time>2026-07-01T22:39:01.000Z</time></trkpt>
        <trkpt lat="29.342569" lon="103.455832"><ele>583.2669</ele><time>2026-07-01T22:39:03.000Z</time></trkpt>
        <trkpt lat="29.342553" lon="103.455837"><ele>582.441</ele><time>2026-07-01T22:39:05.000Z</time></trkpt>
        <trkpt lat="29.34254" lon="103.455851"><ele>581.9504</ele><time>2026-07-01T22:39:07.000Z</time></trkpt>
        <trkpt lat="29.342529" lon="103.455867"><ele>581.94385</ele><time>2026-07-01T22:39:09.000Z</time></trkpt>
        <trkpt lat="29.342514" lon="103.455883"><ele>581.9374</ele><time>2026-07-01T22:39:11.000Z</time></trkpt>
        <trkpt lat="29.342496" lon="103.455897"><ele>581.87537</ele><time>2026-07-01T22:39:13.000Z</time></trkpt>
        <trkpt lat="29.342478" lon="103.455906"><ele>581.53174</ele><time>2026-07-01T22:39:15.000Z</time></trkpt>
        <trkpt lat="29.342459" lon="103.455914"><ele>580.9463</ele><time>2026-07-01T22:39:17.000Z</time></trkpt>
        <trkpt lat="29.342442" lon="103.45592"><ele>580.5484</ele><time>2026-07-01T22:39:19.000Z</time></trkpt>
        <trkpt lat="29.342425" lon="103.455924"><ele>580.34186</ele><time>2026-07-01T22:39:21.000Z</time></trkpt>
        <trkpt lat="29.342412" lon="103.455925"><ele>580.1386</ele><time>2026-07-01T22:39:23.000Z</time></trkpt>
        <trkpt lat="29.342398" lon="103.455924"><ele>580.117</ele><time>2026-07-01T22:39:25.000Z</time></trkpt>
        <trkpt lat="29.342383" lon="103.455924"><ele>579.4429</ele><time>2026-07-01T22:39:27.000Z</time></trkpt>
        <trkpt lat="29.342363" lon="103.455921"><ele>579.27783</ele><time>2026-07-01T22:39:29.000Z</time></trkpt>
        <trkpt lat="29.342342" lon="103.455917"><ele>578.74927</ele><time>2026-07-01T22:39:31.000Z</time></trkpt>
        <trkpt lat="29.342319" lon="103.455909"><ele>578.69275</ele><time>2026-07-01T22:39:33.000Z</time></trkpt>
        <trkpt lat="29.342305" lon="103.455903"><ele>578.69275</ele><time>2026-07-01T22:39:35.000Z</time></trkpt>
        <trkpt lat="29.342295" lon="103.455899"><ele>578.69275</ele><time>2026-07-01T22:39:37.000Z</time></trkpt>
        <trkpt lat="29.342287" lon="103.455896"><ele>578.8002</ele><time>2026-07-01T22:39:39.000Z</time></trkpt>
        <trkpt lat="29.342276" lon="103.455893"><ele>578.9781</ele><time>2026-07-01T22:39:41.000Z</time></trkpt>
        <trkpt lat="29.342259" lon="103.45589"><ele>579.02167</ele><time>2026-07-01T22:39:43.000Z</time></trkpt>
        <trkpt lat="29.342241" lon="103.455886"><ele>579.2462</ele><time>2026-07-01T22:39:45.000Z</time></trkpt>
        <trkpt lat="29.342224" lon="103.455879"><ele>579.2462</ele><time>2026-07-01T22:39:47.000Z</time></trkpt>
        <trkpt lat="29.342209" lon="103.455872"><ele>579.2462</ele><time>2026-07-01T22:39:49.000Z</time></trkpt>
        <trkpt lat="29.342191" lon="103.455865"><ele>579.2108</ele><time>2026-07-01T22:39:51.000Z</time></trkpt>
        <trkpt lat="29.342172" lon="103.455857"><ele>579.1684</ele><time>2026-07-01T22:39:52.000Z</time></trkpt>
        <trkpt lat="29.342156" lon="103.45585"><ele>578.95355</ele><time>2026-07-01T22:39:54.000Z</time></trkpt>
        <trkpt lat="29.342147" lon="103.455847"><ele>578.695</ele><time>2026-07-01T22:39:56.000Z</time></trkpt>
        <trkpt lat="29.342141" lon="103.455843"><ele>578.695</ele><time>2026-07-01T22:39:58.000Z</time></trkpt>
        <trkpt lat="29.342128" lon="103.455833"><ele>578.695</ele><time>2026-07-01T22:40:04.000Z</time></trkpt>
        <trkpt lat="29.342122" lon="103.455828"><ele>578.695</ele><time>2026-07-01T22:40:06.000Z</time></trkpt>
        <trkpt lat="29.342113" lon="103.455818"><ele>578.695</ele><time>2026-07-01T22:40:08.000Z</time></trkpt>
        <trkpt lat="29.342104" lon="103.455805"><ele>578.5241</ele><time>2026-07-01T22:40:14.000Z</time></trkpt>
        <trkpt lat="29.342091" lon="103.45579"><ele>576.64185</ele><time>2026-07-01T22:40:16.000Z</time></trkpt>
        <trkpt lat="29.342089" lon="103.455791"><ele>576.62915</ele><time>2026-07-01T22:40:18.000Z</time></trkpt>
        <trkpt lat="29.342061" lon="103.455809"><ele>576.6103</ele><time>2026-07-01T22:40:30.000Z</time></trkpt>
        <trkpt lat="29.342009" lon="103.455842"><ele>576.5018</ele><time>2026-07-01T22:40:34.000Z</time></trkpt>
        <trkpt lat="29.342008" lon="103.455842"><ele>574.89197</ele><time>2026-07-01T22:40:36.000Z</time></trkpt>
        <trkpt lat="29.342004" lon="103.455844"><ele>572.362</ele><time>2026-07-01T22:40:38.000Z</time></trkpt>
        <trkpt lat="29.341952" lon="103.455871"><ele>572.34796</ele><time>2026-07-01T22:40:42.000Z</time></trkpt>
        <trkpt lat="29.341861" lon="103.455918"><ele>572.34796</ele><time>2026-07-01T22:40:46.000Z</time></trkpt>
        <trkpt lat="29.341861" lon="103.455918"><ele>572.34796</ele><time>2026-07-01T22:40:48.000Z</time></trkpt>
        <trkpt lat="29.34186" lon="103.455923"><ele>579.2017</ele><time>2026-07-01T22:40:51.000Z</time></trkpt>
        <trkpt lat="29.341844" lon="103.455965"><ele>579.2133</ele><time>2026-07-01T22:40:55.000Z</time></trkpt>
        <trkpt lat="29.341835" lon="103.455973"><ele>579.63293</ele><time>2026-07-01T22:40:57.000Z</time></trkpt>
        <trkpt lat="29.341819" lon="103.45598"><ele>584.1337</ele><time>2026-07-01T22:40:59.000Z</time></trkpt>
        <trkpt lat="29.341802" lon="103.455982"><ele>586.666</ele><time>2026-07-01T22:41:01.000Z</time></trkpt>
        <trkpt lat="29.341779" lon="103.45598"><ele>588.65234</ele><time>2026-07-01T22:41:03.000Z</time></trkpt>
        <trkpt lat="29.341753" lon="103.455977"><ele>590.6414</ele><time>2026-07-01T22:41:05.000Z</time></trkpt>
        <trkpt lat="29.341732" lon="103.455982"><ele>592.39185</ele><time>2026-07-01T22:41:07.000Z</time></trkpt>
        <trkpt lat="29.34171" lon="103.455993"><ele>592.8809</ele><time>2026-07-01T22:41:09.000Z</time></trkpt>
        <trkpt lat="29.341698" lon="103.456003"><ele>593.1041</ele><time>2026-07-01T22:41:11.000Z</time></trkpt>
        <trkpt lat="29.341693" lon="103.456012"><ele>593.2397</ele><time>2026-07-01T22:41:13.000Z</time></trkpt>
        <trkpt lat="29.341688" lon="103.456025"><ele>593.3098</ele><time>2026-07-01T22:41:15.000Z</time></trkpt>
        <trkpt lat="29.341683" lon="103.456041"><ele>593.3098</ele><time>2026-07-01T22:41:17.000Z</time></trkpt>
        <trkpt lat="29.34168" lon="103.456055"><ele>593.96814</ele><time>2026-07-01T22:41:19.000Z</time></trkpt>
        <trkpt lat="29.341677" lon="103.456065"><ele>594.6467</ele><time>2026-07-01T22:41:21.000Z</time></trkpt>
        <trkpt lat="29.341669" lon="103.456077"><ele>595.41547</ele><time>2026-07-01T22:41:23.000Z</time></trkpt>
        <trkpt lat="29.341654" lon="103.456089"><ele>595.9706</ele><time>2026-07-01T22:41:25.000Z</time></trkpt>
        <trkpt lat="29.341627" lon="103.456109"><ele>596.52295</ele><time>2026-07-01T22:41:27.000Z</time></trkpt>
        <trkpt lat="29.341589" lon="103.456125"><ele>597.2042</ele><time>2026-07-01T22:41:29.000Z</time></trkpt>
        <trkpt lat="29.341551" lon="103.456134"><ele>597.8113</ele><time>2026-07-01T22:41:31.000Z</time></trkpt>
        <trkpt lat="29.341527" lon="103.456141"><ele>598.4944</ele><time>2026-07-01T22:41:33.000Z</time></trkpt>
        <trkpt lat="29.341515" lon="103.456144"><ele>598.4944</ele><time>2026-07-01T22:41:35.000Z</time></trkpt>
        <trkpt lat="29.3415" lon="103.456147"><ele>598.4944</ele><time>2026-07-01T22:41:37.000Z</time></trkpt>
        <trkpt lat="29.341545" lon="103.456217"><ele>598.2097</ele><time>2026-07-01T22:41:43.000Z</time></trkpt>
        <trkpt lat="29.341545" lon="103.456217"><ele>597.9505</ele><time>2026-07-01T22:41:45.000Z</time></trkpt>
        <trkpt lat="29.341544" lon="103.456221"><ele>597.9505</ele><time>2026-07-01T22:41:47.000Z</time></trkpt>
        <trkpt lat="29.341537" lon="103.456276"><ele>597.9505</ele><time>2026-07-01T22:41:50.000Z</time></trkpt>
        <trkpt lat="29.341532" lon="103.456311"><ele>598.1756</ele><time>2026-07-01T22:41:52.000Z</time></trkpt>
        <trkpt lat="29.34153" lon="103.456346"><ele>600.29944</ele><time>2026-07-01T22:41:54.000Z</time></trkpt>
        <trkpt lat="29.341531" lon="103.456376"><ele>601.41113</ele><time>2026-07-01T22:41:56.000Z</time></trkpt>
        <trkpt lat="29.341532" lon="103.456403"><ele>602.02875</ele><time>2026-07-01T22:41:58.000Z</time></trkpt>
        <trkpt lat="29.341532" lon="103.456426"><ele>602.5445</ele><time>2026-07-01T22:42:00.000Z</time></trkpt>
        <trkpt lat="29.341531" lon="103.456447"><ele>602.5445</ele><time>2026-07-01T22:42:02.000Z</time></trkpt>
        <trkpt lat="29.341525" lon="103.456471"><ele>602.5445</ele><time>2026-07-01T22:42:04.000Z</time></trkpt>
        <trkpt lat="29.341518" lon="103.456495"><ele>602.4079</ele><time>2026-07-01T22:42:06.000Z</time></trkpt>
        <trkpt lat="29.341514" lon="103.456518"><ele>602.1651</ele><time>2026-07-01T22:42:08.000Z</time></trkpt>
        <trkpt lat="29.341512" lon="103.456536"><ele>601.4092</ele><time>2026-07-01T22:42:10.000Z</time></trkpt>
        <trkpt lat="29.341511" lon="103.456549"><ele>601.17786</ele><time>2026-07-01T22:42:12.000Z</time></trkpt>
        <trkpt lat="29.341513" lon="103.456562"><ele>600.76575</ele><time>2026-07-01T22:42:14.000Z</time></trkpt>
        <trkpt lat="29.341514" lon="103.456573"><ele>600.2416</ele><time>2026-07-01T22:42:16.000Z</time></trkpt>
        <trkpt lat="29.341518" lon="103.456586"><ele>600.1444</ele><time>2026-07-01T22:42:18.000Z</time></trkpt>
        <trkpt lat="29.341514" lon="103.456592"><ele>599.594</ele><time>2026-07-01T22:42:20.000Z</time></trkpt>
        <trkpt lat="29.341511" lon="103.456608"><ele>599.1682</ele><time>2026-07-01T22:42:31.000Z</time></trkpt>
        <trkpt lat="29.341509" lon="103.456619"><ele>598.5232</ele><time>2026-07-01T22:42:39.000Z</time></trkpt>
        <trkpt lat="29.34151" lon="103.45662"><ele>587.36334</ele><time>2026-07-01T22:42:43.000Z</time></trkpt>
        <trkpt lat="29.341541" lon="103.456639"><ele>587.36334</ele><time>2026-07-01T22:43:27.000Z</time></trkpt>
        <trkpt lat="29.341546" lon="103.45664"><ele>587.36334</ele><time>2026-07-01T22:43:29.000Z</time></trkpt>
        <trkpt lat="29.341548" lon="103.456645"><ele>587.36334</ele><time>2026-07-01T22:43:31.000Z</time></trkpt>
        <trkpt lat="29.341532" lon="103.456597"><ele>587.36334</ele><time>2026-07-01T22:43:45.000Z</time></trkpt>
        <trkpt lat="29.341568" lon="103.456574"><ele>587.35</ele><time>2026-07-01T22:43:57.000Z</time></trkpt>
        <trkpt lat="29.341568" lon="103.456574"><ele>584.54047</ele><time>2026-07-01T22:43:58.000Z</time></trkpt>
        <trkpt lat="29.341559" lon="103.456617"><ele>584.54047</ele><time>2026-07-01T22:44:00.000Z</time></trkpt>
        <trkpt lat="29.341554" lon="103.456643"><ele>584.54047</ele><time>2026-07-01T22:44:03.000Z</time></trkpt>
        <trkpt lat="29.341553" lon="103.456644"><ele>584.7094</ele><time>2026-07-01T22:44:05.000Z</time></trkpt>
        <trkpt lat="29.341547" lon="103.456657"><ele>584.7094</ele><time>2026-07-01T22:44:09.000Z</time></trkpt>
        <trkpt lat="29.341537" lon="103.456673"><ele>584.7094</ele><time>2026-07-01T22:44:11.000Z</time></trkpt>
        <trkpt lat="29.341527" lon="103.45668"><ele>584.3091</ele><time>2026-07-01T22:44:13.000Z</time></trkpt>
        <trkpt lat="29.341523" lon="103.456683"><ele>583.77875</ele><time>2026-07-01T22:44:15.000Z</time></trkpt>
        <trkpt lat="29.341508" lon="103.456697"><ele>583.19464</ele><time>2026-07-01T22:44:21.000Z</time></trkpt>
        <trkpt lat="29.341557" lon="103.456652"><ele>582.9144</ele><time>2026-07-01T22:44:35.000Z</time></trkpt>
        <trkpt lat="29.341563" lon="103.456647"><ele>582.2282</ele><time>2026-07-01T22:44:37.000Z</time></trkpt>
        <trkpt lat="29.34159" lon="103.456626"><ele>582.2282</ele><time>2026-07-01T22:44:43.000Z</time></trkpt>
        <trkpt lat="29.34163" lon="103.456644"><ele>582.2282</ele><time>2026-07-01T22:44:59.000Z</time></trkpt>
        <trkpt lat="29.34161" lon="103.456635"><ele>583.9614</ele><time>2026-07-01T22:45:31.000Z</time></trkpt>
        <trkpt lat="29.3416" lon="103.456682"><ele>584.68286</ele><time>2026-07-01T22:45:47.000Z</time></trkpt>
        <trkpt lat="29.341618" lon="103.456595"><ele>584.68286</ele><time>2026-07-01T22:46:18.000Z</time></trkpt>
        <trkpt lat="29.341626" lon="103.45656"><ele>584.68286</ele><time>2026-07-01T22:46:34.000Z</time></trkpt>
        <trkpt lat="29.341581" lon="103.456581"><ele>583.30566</ele><time>2026-07-01T22:46:50.000Z</time></trkpt>
        <trkpt lat="29.341553" lon="103.456659"><ele>581.84674</ele><time>2026-07-01T22:47:01.000Z</time></trkpt>
        <trkpt lat="29.341553" lon="103.456659"><ele>577.50214</ele><time>2026-07-01T22:47:03.000Z</time></trkpt>
        <trkpt lat="29.341551" lon="103.456663"><ele>575.1815</ele><time>2026-07-01T22:47:05.000Z</time></trkpt>
        <trkpt lat="29.34153" lon="103.456704"><ele>575.1815</ele><time>2026-07-01T22:47:10.000Z</time></trkpt>
        <trkpt lat="29.341515" lon="103.456728"><ele>575.1815</ele><time>2026-07-01T22:47:12.000Z</time></trkpt>
        <trkpt lat="29.341498" lon="103.456746"><ele>576.299</ele><time>2026-07-01T22:47:14.000Z</time></trkpt>
        <trkpt lat="29.34148" lon="103.456762"><ele>577.44104</ele><time>2026-07-01T22:47:16.000Z</time></trkpt>
        <trkpt lat="29.341468" lon="103.456771"><ele>578.7002</ele><time>2026-07-01T22:47:18.000Z</time></trkpt>
        <trkpt lat="29.341467" lon="103.456776"><ele>579.7742</ele><time>2026-07-01T22:47:20.000Z</time></trkpt>
        <trkpt lat="29.341472" lon="103.456798"><ele>580.66534</ele><time>2026-07-01T22:47:43.000Z</time></trkpt>
        <trkpt lat="29.341476" lon="103.456809"><ele>581.3738</ele><time>2026-07-01T22:47:49.000Z</time></trkpt>
        <trkpt lat="29.341511" lon="103.456906"><ele>583.9115</ele><time>2026-07-01T22:47:56.000Z</time></trkpt>
        <trkpt lat="29.341511" lon="103.456906"><ele>583.91705</ele><time>2026-07-01T22:47:58.000Z</time></trkpt>
        <trkpt lat="29.34151" lon="103.456907"><ele>584.2369</ele><time>2026-07-01T22:48:00.000Z</time></trkpt>
        <trkpt lat="29.341439" lon="103.456924"><ele>584.2369</ele><time>2026-07-01T22:48:05.000Z</time></trkpt>
        <trkpt lat="29.341411" lon="103.456929"><ele>584.2369</ele><time>2026-07-01T22:48:07.000Z</time></trkpt>
        <trkpt lat="29.341391" lon="103.456932"><ele>584.123</ele><time>2026-07-01T22:48:09.000Z</time></trkpt>
        <trkpt lat="29.341387" lon="103.456939"><ele>584.123</ele><time>2026-07-01T22:48:11.000Z</time></trkpt>
        <trkpt lat="29.341355" lon="103.45699"><ele>584.123</ele><time>2026-07-01T22:48:35.000Z</time></trkpt>
        <trkpt lat="29.34144" lon="103.457122"><ele>584.3368</ele><time>2026-07-01T22:48:50.000Z</time></trkpt>
        <trkpt lat="29.34144" lon="103.457122"><ele>586.9692</ele><time>2026-07-01T22:48:52.000Z</time></trkpt>
        <trkpt lat="29.341438" lon="103.457124"><ele>589.6749</ele><time>2026-07-01T22:48:54.000Z</time></trkpt>
        <trkpt lat="29.341392" lon="103.457206"><ele>589.6749</ele><time>2026-07-01T22:49:04.000Z</time></trkpt>
        <trkpt lat="29.341393" lon="103.457206"><ele>589.6749</ele><time>2026-07-01T22:49:06.000Z</time></trkpt>
        <trkpt lat="29.34139" lon="103.457205"><ele>589.2909</ele><time>2026-07-01T22:49:08.000Z</time></trkpt>
        <trkpt lat="29.341333" lon="103.457201"><ele>589.1103</ele><time>2026-07-01T22:49:15.000Z</time></trkpt>
        <trkpt lat="29.341328" lon="103.457207"><ele>588.8282</ele><time>2026-07-01T22:49:17.000Z</time></trkpt>
        <trkpt lat="29.341318" lon="103.457217"><ele>587.0103</ele><time>2026-07-01T22:49:19.000Z</time></trkpt>
        <trkpt lat="29.341277" lon="103.457262"><ele>587.0103</ele><time>2026-07-01T22:49:22.000Z</time></trkpt>
        <trkpt lat="29.341264" lon="103.45728"><ele>587.0103</ele><time>2026-07-01T22:49:24.000Z</time></trkpt>
        <trkpt lat="29.341251" lon="103.457304"><ele>587.40356</ele><time>2026-07-01T22:49:26.000Z</time></trkpt>
        <trkpt lat="29.341243" lon="103.457331"><ele>587.40356</ele><time>2026-07-01T22:49:28.000Z</time></trkpt>
        <trkpt lat="29.341239" lon="103.457358"><ele>587.40356</ele><time>2026-07-01T22:49:30.000Z</time></trkpt>
        <trkpt lat="29.341239" lon="103.457383"><ele>587.2807</ele><time>2026-07-01T22:49:32.000Z</time></trkpt>
        <trkpt lat="29.341243" lon="103.457404"><ele>587.0534</ele><time>2026-07-01T22:49:34.000Z</time></trkpt>
        <trkpt lat="29.341246" lon="103.457425"><ele>587.0534</ele><time>2026-07-01T22:49:36.000Z</time></trkpt>
        <trkpt lat="29.341246" lon="103.457448"><ele>587.0534</ele><time>2026-07-01T22:49:38.000Z</time></trkpt>
        <trkpt lat="29.341249" lon="103.45747"><ele>588.0664</ele><time>2026-07-01T22:49:40.000Z</time></trkpt>
        <trkpt lat="29.341252" lon="103.457488"><ele>589.36066</ele><time>2026-07-01T22:49:42.000Z</time></trkpt>
        <trkpt lat="29.341259" lon="103.457499"><ele>590.8792</ele><time>2026-07-01T22:49:44.000Z</time></trkpt>
        <trkpt lat="29.341267" lon="103.457503"><ele>592.24805</ele><time>2026-07-01T22:49:46.000Z</time></trkpt>
        <trkpt lat="29.341279" lon="103.457514"><ele>593.4429</ele><time>2026-07-01T22:49:50.000Z</time></trkpt>
        <trkpt lat="29.341289" lon="103.457524"><ele>594.3707</ele><time>2026-07-01T22:49:54.000Z</time></trkpt>
        <trkpt lat="29.34129" lon="103.457532"><ele>594.7192</ele><time>2026-07-01T22:49:56.000Z</time></trkpt>
        <trkpt lat="29.341297" lon="103.45757"><ele>594.7192</ele><time>2026-07-01T22:50:00.000Z</time></trkpt>
        <trkpt lat="29.341297" lon="103.45757"><ele>594.7192</ele><time>2026-07-01T22:50:02.000Z</time></trkpt>
        <trkpt lat="29.341297" lon="103.457576"><ele>594.7192</ele><time>2026-07-01T22:50:04.000Z</time></trkpt>
        <trkpt lat="29.341306" lon="103.457636"><ele>594.7192</ele><time>2026-07-01T22:50:08.000Z</time></trkpt>
        <trkpt lat="29.341304" lon="103.457666"><ele>594.7788</ele><time>2026-07-01T22:50:10.000Z</time></trkpt>
        <trkpt lat="29.341296" lon="103.45768"><ele>595.16095</ele><time>2026-07-01T22:50:12.000Z</time></trkpt>
        <trkpt lat="29.34129" lon="103.457693"><ele>595.70703</ele><time>2026-07-01T22:50:14.000Z</time></trkpt>
        <trkpt lat="29.341273" lon="103.457727"><ele>596.0509</ele><time>2026-07-01T22:50:18.000Z</time></trkpt>
        <trkpt lat="29.341333" lon="103.457765"><ele>596.0845</ele><time>2026-07-01T22:50:22.000Z</time></trkpt>
        <trkpt lat="29.341362" lon="103.457773"><ele>596.52545</ele><time>2026-07-01T22:50:24.000Z</time></trkpt>
        <trkpt lat="29.341462" lon="103.457799"><ele>596.68713</ele><time>2026-07-01T22:50:28.000Z</time></trkpt>
        <trkpt lat="29.341462" lon="103.457799"><ele>596.6882</ele><time>2026-07-01T22:50:30.000Z</time></trkpt>
        <trkpt lat="29.341501" lon="103.457819"><ele>596.74725</ele><time>2026-07-01T22:50:34.000Z</time></trkpt>
        <trkpt lat="29.341478" lon="103.457978"><ele>596.6882</ele><time>2026-07-01T22:50:40.000Z</time></trkpt>
        <trkpt lat="29.341464" lon="103.458025"><ele>596.6882</ele><time>2026-07-01T22:50:42.000Z</time></trkpt>
        <trkpt lat="29.341453" lon="103.45806"><ele>596.6882</ele><time>2026-07-01T22:50:44.000Z</time></trkpt>
        <trkpt lat="29.341541" lon="103.457785"><ele>596.74725</ele><time>2026-07-01T22:50:54.000Z</time></trkpt>
        <trkpt lat="29.341511" lon="103.457727"><ele>596.74725</ele><time>2026-07-01T22:50:56.000Z</time></trkpt>
        <trkpt lat="29.341489" lon="103.457691"><ele>596.7968</ele><time>2026-07-01T22:50:58.000Z</time></trkpt>
        <trkpt lat="29.341491" lon="103.457685"><ele>604.97705</ele><time>2026-07-01T22:51:00.000Z</time></trkpt>
        <trkpt lat="29.341387" lon="103.457949"><ele>604.97705</ele><time>2026-07-01T22:51:08.000Z</time></trkpt>
        <trkpt lat="29.341363" lon="103.458012"><ele>604.97705</ele><time>2026-07-01T22:51:10.000Z</time></trkpt>
        <trkpt lat="29.341249" lon="103.458049"><ele>596.7968</ele><time>2026-07-01T22:51:14.000Z</time></trkpt>
        <trkpt lat="29.341187" lon="103.458068"><ele>590.3534</ele><time>2026-07-01T22:51:16.000Z</time></trkpt>
        <trkpt lat="29.341129" lon="103.458086"><ele>590.3534</ele><time>2026-07-01T22:51:18.000Z</time></trkpt>
        <trkpt lat="29.340873" lon="103.458016"><ele>596.7968</ele><time>2026-07-01T22:51:27.000Z</time></trkpt>
        <trkpt lat="29.340851" lon="103.458014"><ele>600.47394</ele><time>2026-07-01T22:51:29.000Z</time></trkpt>
        <trkpt lat="29.340836" lon="103.458009"><ele>605.5998</ele><time>2026-07-01T22:51:31.000Z</time></trkpt>
        <trkpt lat="29.340485" lon="103.457911"><ele>605.5998</ele><time>2026-07-01T22:51:42.000Z</time></trkpt>
        <trkpt lat="29.340485" lon="103.457911"><ele>605.5998</ele><time>2026-07-01T22:51:44.000Z</time></trkpt>
        <trkpt lat="29.340485" lon="103.457911"><ele>605.3347</ele><time>2026-07-01T22:51:46.000Z</time></trkpt>
        <trkpt lat="29.340465" lon="103.458071"><ele>605.3347</ele><time>2026-07-01T22:52:10.000Z</time></trkpt>
        <trkpt lat="29.34054" lon="103.45811"><ele>605.3347</ele><time>2026-07-01T22:52:16.000Z</time></trkpt>
        <trkpt lat="29.34054" lon="103.45811"><ele>606.401</ele><time>2026-07-01T22:52:18.000Z</time></trkpt>
        <trkpt lat="29.340808" lon="103.458565"><ele>606.401</ele><time>2026-07-01T22:52:32.000Z</time></trkpt>
        <trkpt lat="29.340497" lon="103.458528"><ele>606.6866</ele><time>2026-07-01T22:53:01.000Z</time></trkpt>
        <trkpt lat="29.340497" lon="103.458528"><ele>606.6888</ele><time>2026-07-01T22:53:03.000Z</time></trkpt>
        <trkpt lat="29.340495" lon="103.458528"><ele>626.9945</ele><time>2026-07-01T22:53:05.000Z</time></trkpt>
        <trkpt lat="29.340288" lon="103.458454"><ele>626.9965</ele><time>2026-07-01T22:53:23.000Z</time></trkpt>
        <trkpt lat="29.340292" lon="103.458523"><ele>627.0804</ele><time>2026-07-01T22:53:27.000Z</time></trkpt>
        <trkpt lat="29.340292" lon="103.458523"><ele>652.0926</ele><time>2026-07-01T22:53:29.000Z</time></trkpt>
        <trkpt lat="29.340381" lon="103.458716"><ele>661.3777</ele><time>2026-07-01T22:53:38.000Z</time></trkpt>
        <trkpt lat="29.340519" lon="103.459016"><ele>661.3777</ele><time>2026-07-01T22:53:40.000Z</time></trkpt>
        <trkpt lat="29.340767" lon="103.459379"><ele>661.3777</ele><time>2026-07-01T22:53:55.000Z</time></trkpt>
        <trkpt lat="29.340286" lon="103.459007"><ele>636.71</ele><time>2026-07-01T22:54:58.000Z</time></trkpt>
        <trkpt lat="29.340285" lon="103.459007"><ele>636.71</ele><time>2026-07-01T22:55:00.000Z</time></trkpt>
        <trkpt lat="29.340274" lon="103.458997"><ele>621.34344</ele><time>2026-07-01T22:55:02.000Z</time></trkpt>
        <trkpt lat="29.340057" lon="103.458801"><ele>621.3357</ele><time>2026-07-01T22:55:10.000Z</time></trkpt>
        <trkpt lat="29.340045" lon="103.458786"><ele>621.33514</ele><time>2026-07-01T22:55:12.000Z</time></trkpt>
        <trkpt lat="29.340033" lon="103.45877"><ele>620.91016</ele><time>2026-07-01T22:55:14.000Z</time></trkpt>
        <trkpt lat="29.340217" lon="103.459006"><ele>620.91016</ele><time>2026-07-01T22:55:30.000Z</time></trkpt>
        <trkpt lat="29.340325" lon="103.459092"><ele>620.91016</ele><time>2026-07-01T22:55:35.000Z</time></trkpt>
        <trkpt lat="29.340325" lon="103.459092"><ele>622.9084</ele><time>2026-07-01T22:55:37.000Z</time></trkpt>
        <trkpt lat="29.340381" lon="103.459274"><ele>623.7665</ele><time>2026-07-01T22:56:02.000Z</time></trkpt>
        <trkpt lat="29.34028" lon="103.459673"><ele>623.7665</ele><time>2026-07-01T22:56:14.000Z</time></trkpt>
        <trkpt lat="29.340328" lon="103.460221"><ele>624.1387</ele><time>2026-07-01T22:57:18.000Z</time></trkpt>
        <trkpt lat="29.340328" lon="103.460222"><ele>624.1387</ele><time>2026-07-01T22:57:20.000Z</time></trkpt>
        <trkpt lat="29.340324" lon="103.460209"><ele>616.4575</ele><time>2026-07-01T22:57:22.000Z</time></trkpt>
        <trkpt lat="29.340174" lon="103.45977"><ele>616.4563</ele><time>2026-07-01T22:57:29.000Z</time></trkpt>
        <trkpt lat="29.340174" lon="103.45977"><ele>616.42145</ele><time>2026-07-01T22:57:31.000Z</time></trkpt>
        <trkpt lat="29.340174" lon="103.45977"><ele>615.95844</ele><time>2026-07-01T22:57:33.000Z</time></trkpt>
        <trkpt lat="29.340343" lon="103.459849"><ele>615.95844</ele><time>2026-07-01T22:58:01.000Z</time></trkpt>
        <trkpt lat="29.340343" lon="103.459849"><ele>615.95844</ele><time>2026-07-01T22:58:03.000Z</time></trkpt>
        <trkpt lat="29.340348" lon="103.45985"><ele>615.2287</ele><time>2026-07-01T22:58:05.000Z</time></trkpt>
        <trkpt lat="29.340428" lon="103.459873"><ele>615.2287</ele><time>2026-07-01T22:58:13.000Z</time></trkpt>
        <trkpt lat="29.340431" lon="103.459881"><ele>615.2287</ele><time>2026-07-01T22:58:15.000Z</time></trkpt>
        <trkpt lat="29.340465" lon="103.460002"><ele>615.5829</ele><time>2026-07-01T22:58:23.000Z</time></trkpt>
        <trkpt lat="29.340552" lon="103.459897"><ele>615.5829</ele><time>2026-07-01T22:58:45.000Z</time></trkpt>
        <trkpt lat="29.34061" lon="103.459971"><ele>615.5829</ele><time>2026-07-01T22:58:56.000Z</time></trkpt>
        <trkpt lat="29.34019" lon="103.459828"><ele>613.9517</ele><time>2026-07-01T22:59:08.000Z</time></trkpt>
        <trkpt lat="29.340111" lon="103.459718"><ele>613.03796</ele><time>2026-07-01T22:59:16.000Z</time></trkpt>
        <trkpt lat="29.340067" lon="103.459602"><ele>613.03796</ele><time>2026-07-01T22:59:20.000Z</time></trkpt>
        <trkpt lat="29.340067" lon="103.459602"><ele>613.03796</ele><time>2026-07-01T22:59:22.000Z</time></trkpt>
        <trkpt lat="29.339912" lon="103.459649"><ele>615.42084</ele><time>2026-07-01T22:59:32.000Z</time></trkpt>
        <trkpt lat="29.339864" lon="103.459669"><ele>615.42163</ele><time>2026-07-01T22:59:34.000Z</time></trkpt>
        <trkpt lat="29.339821" lon="103.459688"><ele>617.36035</ele><time>2026-07-01T22:59:36.000Z</time></trkpt>
        <trkpt lat="29.339744" lon="103.459776"><ele>617.36035</ele><time>2026-07-01T22:59:42.000Z</time></trkpt>
        <trkpt lat="29.339744" lon="103.459776"><ele>617.36035</ele><time>2026-07-01T22:59:45.000Z</time></trkpt>
        <trkpt lat="29.339772" lon="103.459848"><ele>617.46954</ele><time>2026-07-01T22:59:51.000Z</time></trkpt>
        <trkpt lat="29.339858" lon="103.460084"><ele>617.46954</ele><time>2026-07-01T22:59:53.000Z</time></trkpt>
        <trkpt lat="29.339866" lon="103.460114"><ele>617.46954</ele><time>2026-07-01T22:59:58.000Z</time></trkpt>
        <trkpt lat="29.339875" lon="103.460151"><ele>624.4732</ele><time>2026-07-01T23:00:00.000Z</time></trkpt>
        <trkpt lat="29.339887" lon="103.460202"><ele>625.9253</ele><time>2026-07-01T23:00:02.000Z</time></trkpt>
        <trkpt lat="29.339937" lon="103.460243"><ele>625.9253</ele><time>2026-07-01T23:00:04.000Z</time></trkpt>
        <trkpt lat="29.339987" lon="103.460279"><ele>629.9446</ele><time>2026-07-01T23:00:06.000Z</time></trkpt>
        <trkpt lat="29.340017" lon="103.460299"><ele>633.9662</ele><time>2026-07-01T23:00:08.000Z</time></trkpt>
        <trkpt lat="29.340022" lon="103.460307"><ele>637.87445</ele><time>2026-07-01T23:00:10.000Z</time></trkpt>
        <trkpt lat="29.340021" lon="103.46031"><ele>637.87445</ele><time>2026-07-01T23:00:12.000Z</time></trkpt>
        <trkpt lat="29.34" lon="103.460342"><ele>637.87445</ele><time>2026-07-01T23:00:18.000Z</time></trkpt>
        <trkpt lat="29.339996" lon="103.460342"><ele>637.86566</ele><time>2026-07-01T23:00:20.000Z</time></trkpt>
        <trkpt lat="29.339978" lon="103.460336"><ele>635.5563</ele><time>2026-07-01T23:00:22.000Z</time></trkpt>
        <trkpt lat="29.339962" lon="103.460329"><ele>635.5563</ele><time>2026-07-01T23:00:24.000Z</time></trkpt>
        <trkpt lat="29.339949" lon="103.460321"><ele>635.5563</ele><time>2026-07-01T23:00:26.000Z</time></trkpt>
        <trkpt lat="29.339941" lon="103.460316"><ele>635.63007</ele><time>2026-07-01T23:00:28.000Z</time></trkpt>
        <trkpt lat="29.339941" lon="103.460312"><ele>635.63007</ele><time>2026-07-01T23:00:30.000Z</time></trkpt>
        <trkpt lat="29.339938" lon="103.460382"><ele>635.63007</ele><time>2026-07-01T23:00:38.000Z</time></trkpt>
        <trkpt lat="29.339938" lon="103.460382"><ele>635.54846</ele><time>2026-07-01T23:00:40.000Z</time></trkpt>
        <trkpt lat="29.339939" lon="103.460386"><ele>634.77905</ele><time>2026-07-01T23:00:42.000Z</time></trkpt>
        <trkpt lat="29.33995" lon="103.460433"><ele>634.77905</ele><time>2026-07-01T23:00:46.000Z</time></trkpt>
        <trkpt lat="29.339957" lon="103.460465"><ele>634.7235</ele><time>2026-07-01T23:00:48.000Z</time></trkpt>
        <trkpt lat="29.339962" lon="103.460499"><ele>634.7235</ele><time>2026-07-01T23:00:50.000Z</time></trkpt>
        <trkpt lat="29.339965" lon="103.460529"><ele>634.21796</ele><time>2026-07-01T23:00:52.000Z</time></trkpt>
        <trkpt lat="29.339967" lon="103.460557"><ele>633.46326</ele><time>2026-07-01T23:00:54.000Z</time></trkpt>
        <trkpt lat="29.339971" lon="103.46058"><ele>632.5431</ele><time>2026-07-01T23:00:56.000Z</time></trkpt>
        <trkpt lat="29.339981" lon="103.4606"><ele>631.7521</ele><time>2026-07-01T23:00:58.000Z</time></trkpt>
        <trkpt lat="29.340001" lon="103.460628"><ele>630.65216</ele><time>2026-07-01T23:01:00.000Z</time></trkpt>
        <trkpt lat="29.340025" lon="103.460655"><ele>629.6276</ele><time>2026-07-01T23:01:02.000Z</time></trkpt>
        <trkpt lat="29.340042" lon="103.460672"><ele>628.12115</ele><time>2026-07-01T23:01:04.000Z</time></trkpt>
        <trkpt lat="29.340055" lon="103.460684"><ele>626.366</ele><time>2026-07-01T23:01:06.000Z</time></trkpt>
        <trkpt lat="29.340074" lon="103.460705"><ele>624.3158</ele><time>2026-07-01T23:01:08.000Z</time></trkpt>
        <trkpt lat="29.34009" lon="103.460724"><ele>622.1984</ele><time>2026-07-01T23:01:10.000Z</time></trkpt>
        <trkpt lat="29.340099" lon="103.460737"><ele>619.78925</ele><time>2026-07-01T23:01:12.000Z</time></trkpt>
        <trkpt lat="29.340107" lon="103.460753"><ele>618.0462</ele><time>2026-07-01T23:01:13.000Z</time></trkpt>
        <trkpt lat="29.340117" lon="103.460773"><ele>615.75726</ele><time>2026-07-01T23:01:15.000Z</time></trkpt>
        <trkpt lat="29.340125" lon="103.460794"><ele>613.4965</ele><time>2026-07-01T23:01:17.000Z</time></trkpt>
        <trkpt lat="29.340132" lon="103.460813"><ele>611.31384</ele><time>2026-07-01T23:01:19.000Z</time></trkpt>
        <trkpt lat="29.340137" lon="103.460828"><ele>608.6334</ele><time>2026-07-01T23:01:21.000Z</time></trkpt>
        <trkpt lat="29.340141" lon="103.460843"><ele>605.9099</ele><time>2026-07-01T23:01:23.000Z</time></trkpt>
        <trkpt lat="29.340145" lon="103.460861"><ele>603.396</ele><time>2026-07-01T23:01:25.000Z</time></trkpt>
        <trkpt lat="29.340145" lon="103.460874"><ele>601.2805</ele><time>2026-07-01T23:01:27.000Z</time></trkpt>
        <trkpt lat="29.340149" lon="103.460882"><ele>599.71185</ele><time>2026-07-01T23:01:29.000Z</time></trkpt>
        <trkpt lat="29.340162" lon="103.460899"><ele>598.82904</ele><time>2026-07-01T23:01:33.000Z</time></trkpt>
        <trkpt lat="29.340167" lon="103.46091"><ele>598.31995</ele><time>2026-07-01T23:01:35.000Z</time></trkpt>
        <trkpt lat="29.340168" lon="103.460917"><ele>597.11053</ele><time>2026-07-01T23:01:37.000Z</time></trkpt>
        <trkpt lat="29.340168" lon="103.460931"><ele>595.9371</ele><time>2026-07-01T23:01:39.000Z</time></trkpt>
        <trkpt lat="29.340165" lon="103.460948"><ele>594.5179</ele><time>2026-07-01T23:01:41.000Z</time></trkpt>
        <trkpt lat="29.340158" lon="103.46097"><ele>592.9593</ele><time>2026-07-01T23:01:43.000Z</time></trkpt>
        <trkpt lat="29.340149" lon="103.460986"><ele>591.7339</ele><time>2026-07-01T23:01:45.000Z</time></trkpt>
        <trkpt lat="29.340143" lon="103.460997"><ele>590.71924</ele><time>2026-07-01T23:01:47.000Z</time></trkpt>
        <trkpt lat="29.340137" lon="103.461004"><ele>590.12366</ele><time>2026-07-01T23:01:49.000Z</time></trkpt>
        <trkpt lat="29.340131" lon="103.461017"><ele>590.12366</ele><time>2026-07-01T23:01:52.000Z</time></trkpt>
        <trkpt lat="29.340125" lon="103.461031"><ele>590.12366</ele><time>2026-07-01T23:01:54.000Z</time></trkpt>
        <trkpt lat="29.340122" lon="103.461045"><ele>590.1238</ele><time>2026-07-01T23:01:56.000Z</time></trkpt>
        <trkpt lat="29.340118" lon="103.461064"><ele>590.1238</ele><time>2026-07-01T23:01:58.000Z</time></trkpt>
        <trkpt lat="29.340113" lon="103.461086"><ele>590.1238</ele><time>2026-07-01T23:02:00.000Z</time></trkpt>
        <trkpt lat="29.340109" lon="103.46111"><ele>590.0253</ele><time>2026-07-01T23:02:02.000Z</time></trkpt>
        <trkpt lat="29.340108" lon="103.461127"><ele>589.2042</ele><time>2026-07-01T23:02:04.000Z</time></trkpt>
        <trkpt lat="29.3401" lon="103.461145"><ele>588.2532</ele><time>2026-07-01T23:02:06.000Z</time></trkpt>
        <trkpt lat="29.340089" lon="103.461161"><ele>587.13116</ele><time>2026-07-01T23:02:08.000Z</time></trkpt>
        <trkpt lat="29.340078" lon="103.461175"><ele>586.4526</ele><time>2026-07-01T23:02:10.000Z</time></trkpt>
        <trkpt lat="29.340072" lon="103.461185"><ele>585.9351</ele><time>2026-07-01T23:02:12.000Z</time></trkpt>
        <trkpt lat="29.340067" lon="103.461186"><ele>585.6029</ele><time>2026-07-01T23:02:14.000Z</time></trkpt>
        <trkpt lat="29.340124" lon="103.46118"><ele>585.6029</ele><time>2026-07-01T23:02:22.000Z</time></trkpt>
        <trkpt lat="29.340139" lon="103.461185"><ele>585.6029</ele><time>2026-07-01T23:02:24.000Z</time></trkpt>
        <trkpt lat="29.340152" lon="103.461187"><ele>586.14136</ele><time>2026-07-01T23:02:26.000Z</time></trkpt>
        <trkpt lat="29.340179" lon="103.461192"><ele>586.6072</ele><time>2026-07-01T23:02:32.000Z</time></trkpt>
        <trkpt lat="29.340109" lon="103.461103"><ele>587.1265</ele><time>2026-07-01T23:02:42.000Z</time></trkpt>
        <trkpt lat="29.340143" lon="103.461082"><ele>588.5438</ele><time>2026-07-01T23:02:54.000Z</time></trkpt>
        <trkpt lat="29.34015" lon="103.461028"><ele>588.96387</ele><time>2026-07-01T23:02:57.000Z</time></trkpt>
        <trkpt lat="29.34015" lon="103.461028"><ele>589.9883</ele><time>2026-07-01T23:02:59.000Z</time></trkpt>
        <trkpt lat="29.340151" lon="103.461027"><ele>591.44507</ele><time>2026-07-01T23:03:01.000Z</time></trkpt>
        <trkpt lat="29.34019" lon="103.460993"><ele>591.4476</ele><time>2026-07-01T23:03:32.000Z</time></trkpt>
        <trkpt lat="29.340195" lon="103.460989"><ele>591.5536</ele><time>2026-07-01T23:03:34.000Z</time></trkpt>
        <trkpt lat="29.340198" lon="103.46099"><ele>595.39233</ele><time>2026-07-01T23:03:36.000Z</time></trkpt>
        <trkpt lat="29.340252" lon="103.461009"><ele>595.61346</ele><time>2026-07-01T23:05:27.000Z</time></trkpt>
        <trkpt lat="29.340046" lon="103.461104"><ele>595.72107</ele><time>2026-07-01T23:05:53.000Z</time></trkpt>
        <trkpt lat="29.340046" lon="103.461104"><ele>596.841</ele><time>2026-07-01T23:05:55.000Z</time></trkpt>
        <trkpt lat="29.340047" lon="103.461103"><ele>596.841</ele><time>2026-07-01T23:05:57.000Z</time></trkpt>
        <trkpt lat="29.340066" lon="103.461021"><ele>596.841</ele><time>2026-07-01T23:06:16.000Z</time></trkpt>
        <trkpt lat="29.340066" lon="103.461021"><ele>596.75616</ele><time>2026-07-01T23:06:18.000Z</time></trkpt>
        <trkpt lat="29.340067" lon="103.461022"><ele>593.5995</ele><time>2026-07-01T23:06:20.000Z</time></trkpt>
        <trkpt lat="29.340158" lon="103.461065"><ele>593.59906</ele><time>2026-07-01T23:06:28.000Z</time></trkpt>
        <trkpt lat="29.340158" lon="103.461065"><ele>593.59534</ele><time>2026-07-01T23:06:30.000Z</time></trkpt>
        <trkpt lat="29.340159" lon="103.461064"><ele>592.90485</ele><time>2026-07-01T23:06:32.000Z</time></trkpt>
        <trkpt lat="29.340191" lon="103.461018"><ele>592.90485</ele><time>2026-07-01T23:06:38.000Z</time></trkpt>
        <trkpt lat="29.340202" lon="103.461003"><ele>592.90485</ele><time>2026-07-01T23:06:40.000Z</time></trkpt>
        <trkpt lat="29.340204" lon="103.461004"><ele>594.1586</ele><time>2026-07-01T23:06:42.000Z</time></trkpt>
        <trkpt lat="29.340142" lon="103.460969"><ele>594.85425</ele><time>2026-07-01T23:06:55.000Z</time></trkpt>
        <trkpt lat="29.340174" lon="103.460926"><ele>595.4462</ele><time>2026-07-01T23:06:57.000Z</time></trkpt>
        <trkpt lat="29.340176" lon="103.460923"><ele>597.6707</ele><time>2026-07-01T23:06:59.000Z</time></trkpt>
        <trkpt lat="29.340177" lon="103.460921"><ele>597.67316</ele><time>2026-07-01T23:07:01.000Z</time></trkpt>
        <trkpt lat="29.340212" lon="103.460883"><ele>597.7544</ele><time>2026-07-01T23:07:07.000Z</time></trkpt>
        <trkpt lat="29.340247" lon="103.460846"><ele>597.7544</ele><time>2026-07-01T23:07:21.000Z</time></trkpt>
        <trkpt lat="29.340247" lon="103.460846"><ele>598.98914</ele><time>2026-07-01T23:07:23.000Z</time></trkpt>
        <trkpt lat="29.340248" lon="103.460848"><ele>600.53735</ele><time>2026-07-01T23:07:25.000Z</time></trkpt>
        <trkpt lat="29.340282" lon="103.460884"><ele>600.5399</ele><time>2026-07-01T23:07:33.000Z</time></trkpt>
        <trkpt lat="29.340296" lon="103.460896"><ele>600.59216</ele><time>2026-07-01T23:07:37.000Z</time></trkpt>
        <trkpt lat="29.340294" lon="103.460895"><ele>602.0728</ele><time>2026-07-01T23:07:39.000Z</time></trkpt>
        <trkpt lat="29.340222" lon="103.460898"><ele>602.76135</ele><time>2026-07-01T23:07:47.000Z</time></trkpt>
        <trkpt lat="29.340222" lon="103.460897"><ele>603.11316</ele><time>2026-07-01T23:07:49.000Z</time></trkpt>
        <trkpt lat="29.340216" lon="103.460899"><ele>603.1798</ele><time>2026-07-01T23:07:51.000Z</time></trkpt>
        <trkpt lat="29.340157" lon="103.460908"><ele>603.1798</ele><time>2026-07-01T23:07:56.000Z</time></trkpt>
        <trkpt lat="29.340133" lon="103.460908"><ele>603.1798</ele><time>2026-07-01T23:07:58.000Z</time></trkpt>
        <trkpt lat="29.340107" lon="103.460911"><ele>602.27014</ele><time>2026-07-01T23:08:00.000Z</time></trkpt>
        <trkpt lat="29.340103" lon="103.460915"><ele>601.9062</ele><time>2026-07-01T23:08:02.000Z</time></trkpt>
        <trkpt lat="29.34008" lon="103.460934"><ele>601.8448</ele><time>2026-07-01T23:08:11.000Z</time></trkpt>
        <trkpt lat="29.340119" lon="103.460972"><ele>601.7246</ele><time>2026-07-01T23:08:25.000Z</time></trkpt>
        <trkpt lat="29.340119" lon="103.460972"><ele>601.5275</ele><time>2026-07-01T23:08:27.000Z</time></trkpt>
        <trkpt lat="29.340123" lon="103.460971"><ele>599.0764</ele><time>2026-07-01T23:08:29.000Z</time></trkpt>
        <trkpt lat="29.34022" lon="103.460959"><ele>599.0764</ele><time>2026-07-01T23:08:32.000Z</time></trkpt>
        <trkpt lat="29.34022" lon="103.460959"><ele>599.0764</ele><time>2026-07-01T23:08:34.000Z</time></trkpt>
        <trkpt lat="29.340221" lon="103.460959"><ele>599.2217</ele><time>2026-07-01T23:08:36.000Z</time></trkpt>
        <trkpt lat="29.340261" lon="103.460945"><ele>599.2217</ele><time>2026-07-01T23:08:42.000Z</time></trkpt>
        <trkpt lat="29.340287" lon="103.460935"><ele>599.22174</ele><time>2026-07-01T23:08:44.000Z</time></trkpt>
        <trkpt lat="29.340291" lon="103.460934"><ele>599.2241</ele><time>2026-07-01T23:08:46.000Z</time></trkpt>
        <trkpt lat="29.340232" lon="103.460963"><ele>599.3596</ele><time>2026-07-01T23:09:02.000Z</time></trkpt>
        <trkpt lat="29.340217" lon="103.460973"><ele>599.3596</ele><time>2026-07-01T23:09:04.000Z</time></trkpt>
        <trkpt lat="29.340082" lon="103.461074"><ele>599.3596</ele><time>2026-07-01T23:09:15.000Z</time></trkpt>
        <trkpt lat="29.340047" lon="103.4611"><ele>598.9911</ele><time>2026-07-01T23:09:19.000Z</time></trkpt>
        <trkpt lat="29.340047" lon="103.4611"><ele>596.39124</ele><time>2026-07-01T23:09:21.000Z</time></trkpt>
        <trkpt lat="29.340047" lon="103.461101"><ele>593.779</ele><time>2026-07-01T23:09:23.000Z</time></trkpt>
        <trkpt lat="29.340024" lon="103.46119"><ele>593.7754</ele><time>2026-07-01T23:09:31.000Z</time></trkpt>
        <trkpt lat="29.34001" lon="103.46125"><ele>593.6635</ele><time>2026-07-01T23:09:33.000Z</time></trkpt>
        <trkpt lat="29.340011" lon="103.461253"><ele>590.9261</ele><time>2026-07-01T23:09:35.000Z</time></trkpt>
        <trkpt lat="29.34005" lon="103.461307"><ele>590.29596</ele><time>2026-07-01T23:09:39.000Z</time></trkpt>
        <trkpt lat="29.34012" lon="103.461604"><ele>590.29596</ele><time>2026-07-01T23:09:47.000Z</time></trkpt>
        <trkpt lat="29.34012" lon="103.461604"><ele>590.29596</ele><time>2026-07-01T23:09:49.000Z</time></trkpt>
        <trkpt lat="29.340121" lon="103.461604"><ele>591.40155</ele><time>2026-07-01T23:09:51.000Z</time></trkpt>
        <trkpt lat="29.339994" lon="103.461584"><ele>591.4067</ele><time>2026-07-01T23:10:09.000Z</time></trkpt>
        <trkpt lat="29.339993" lon="103.461584"><ele>591.62256</ele><time>2026-07-01T23:10:11.000Z</time></trkpt>
        <trkpt lat="29.339991" lon="103.461582"><ele>599.0968</ele><time>2026-07-01T23:10:13.000Z</time></trkpt>
        <trkpt lat="29.339916" lon="103.461516"><ele>599.0968</ele><time>2026-07-01T23:10:19.000Z</time></trkpt>
        <trkpt lat="29.339913" lon="103.461518"><ele>599.0968</ele><time>2026-07-01T23:10:21.000Z</time></trkpt>
        <trkpt lat="29.3399" lon="103.461538"><ele>597.7011</ele><time>2026-07-01T23:10:23.000Z</time></trkpt>
        <trkpt lat="29.339869" lon="103.461592"><ele>596.5691</ele><time>2026-07-01T23:10:27.000Z</time></trkpt>
        <trkpt lat="29.339856" lon="103.461618"><ele>596.2428</ele><time>2026-07-01T23:10:29.000Z</time></trkpt>
        <trkpt lat="29.339845" lon="103.461643"><ele>596.2428</ele><time>2026-07-01T23:10:31.000Z</time></trkpt>
        <trkpt lat="29.339843" lon="103.461661"><ele>596.2428</ele><time>2026-07-01T23:10:33.000Z</time></trkpt>
        <trkpt lat="29.339847" lon="103.461681"><ele>596.7296</ele><time>2026-07-01T23:10:37.000Z</time></trkpt>
        <trkpt lat="29.33985" lon="103.461704"><ele>597.2259</ele><time>2026-07-01T23:10:39.000Z</time></trkpt>
        <trkpt lat="29.339857" lon="103.461721"><ele>597.97644</ele><time>2026-07-01T23:10:41.000Z</time></trkpt>
        <trkpt lat="29.339867" lon="103.461743"><ele>597.97644</ele><time>2026-07-01T23:10:43.000Z</time></trkpt>
        <trkpt lat="29.339872" lon="103.46176"><ele>597.97644</ele><time>2026-07-01T23:10:45.000Z</time></trkpt>
        <trkpt lat="29.339877" lon="103.461777"><ele>597.9146</ele><time>2026-07-01T23:10:47.000Z</time></trkpt>
        <trkpt lat="29.339871" lon="103.461798"><ele>597.9146</ele><time>2026-07-01T23:10:52.000Z</time></trkpt>
        <trkpt lat="29.339843" lon="103.461897"><ele>597.9146</ele><time>2026-07-01T23:10:58.000Z</time></trkpt>
        <trkpt lat="29.339843" lon="103.461897"><ele>598.29</ele><time>2026-07-01T23:11:00.000Z</time></trkpt>
        <trkpt lat="29.339842" lon="103.461893"><ele>599.7434</ele><time>2026-07-01T23:11:02.000Z</time></trkpt>
        <trkpt lat="29.339891" lon="103.461997"><ele>599.74524</ele><time>2026-07-01T23:11:10.000Z</time></trkpt>
        <trkpt lat="29.339931" lon="103.462083"><ele>599.8426</ele><time>2026-07-01T23:11:14.000Z</time></trkpt>
        <trkpt lat="29.339931" lon="103.462083"><ele>600.46533</ele><time>2026-07-01T23:11:16.000Z</time></trkpt>
        <trkpt lat="29.339812" lon="103.461937"><ele>600.468</ele><time>2026-07-01T23:11:36.000Z</time></trkpt>
        <trkpt lat="29.339812" lon="103.461937"><ele>601.5566</ele><time>2026-07-01T23:11:38.000Z</time></trkpt>
        <trkpt lat="29.339812" lon="103.461949"><ele>605.87335</ele><time>2026-07-01T23:11:40.000Z</time></trkpt>
        <trkpt lat="29.339814" lon="103.46206"><ele>605.8761</ele><time>2026-07-01T23:11:44.000Z</time></trkpt>
        <trkpt lat="29.339804" lon="103.462113"><ele>605.88306</ele><time>2026-07-01T23:11:46.000Z</time></trkpt>
        <trkpt lat="29.339805" lon="103.462145"><ele>606.5148</ele><time>2026-07-01T23:11:48.000Z</time></trkpt>
        <trkpt lat="29.339815" lon="103.462212"><ele>607.227</ele><time>2026-07-01T23:11:52.000Z</time></trkpt>
        <trkpt lat="29.339818" lon="103.462242"><ele>607.9836</ele><time>2026-07-01T23:11:54.000Z</time></trkpt>
        <trkpt lat="29.339811" lon="103.46225"><ele>609.2991</ele><time>2026-07-01T23:11:56.000Z</time></trkpt>
        <trkpt lat="29.339741" lon="103.462327"><ele>609.6055</ele><time>2026-07-01T23:12:04.000Z</time></trkpt>
        <trkpt lat="29.339591" lon="103.462353"><ele>610.4935</ele><time>2026-07-01T23:12:06.000Z</time></trkpt>
        <trkpt lat="29.338957" lon="103.462236"><ele>610.4935</ele><time>2026-07-01T23:12:24.000Z</time></trkpt>
        <trkpt lat="29.338905" lon="103.462236"><ele>610.4935</ele><time>2026-07-01T23:12:26.000Z</time></trkpt>
        <trkpt lat="29.33887" lon="103.462236"><ele>610.47833</ele><time>2026-07-01T23:12:28.000Z</time></trkpt>
        <trkpt lat="29.338874" lon="103.462263"><ele>610.1655</ele><time>2026-07-01T23:12:30.000Z</time></trkpt>
        <trkpt lat="29.339057" lon="103.462366"><ele>609.9328</ele><time>2026-07-01T23:12:34.000Z</time></trkpt>
        <trkpt lat="29.339057" lon="103.462366"><ele>609.3886</ele><time>2026-07-01T23:12:36.000Z</time></trkpt>
        <trkpt lat="29.339056" lon="103.462366"><ele>606.27014</ele><time>2026-07-01T23:12:38.000Z</time></trkpt>
        <trkpt lat="29.339008" lon="103.462354"><ele>606.2375</ele><time>2026-07-01T23:12:42.000Z</time></trkpt>
        <trkpt lat="29.338877" lon="103.462323"><ele>606.2375</ele><time>2026-07-01T23:12:46.000Z</time></trkpt>
        <trkpt lat="29.338877" lon="103.462323"><ele>606.27014</ele><time>2026-07-01T23:12:48.000Z</time></trkpt>
        <trkpt lat="29.338874" lon="103.462326"><ele>607.2174</ele><time>2026-07-01T23:12:50.000Z</time></trkpt>
        <trkpt lat="29.338797" lon="103.462381"><ele>607.2191</ele><time>2026-07-01T23:12:56.000Z</time></trkpt>
        <trkpt lat="29.338778" lon="103.462397"><ele>607.2397</ele><time>2026-07-01T23:12:58.000Z</time></trkpt>
        <trkpt lat="29.338773" lon="103.462394"><ele>607.2649</ele><time>2026-07-01T23:13:00.000Z</time></trkpt>
        <trkpt lat="29.338692" lon="103.462353"><ele>607.2649</ele><time>2026-07-01T23:13:28.000Z</time></trkpt>
        <trkpt lat="29.338809" lon="103.462574"><ele>607.2649</ele><time>2026-07-01T23:13:41.000Z</time></trkpt>
        <trkpt lat="29.338809" lon="103.462574"><ele>606.8026</ele><time>2026-07-01T23:13:43.000Z</time></trkpt>
        <trkpt lat="29.338809" lon="103.462575"><ele>605.67267</ele><time>2026-07-01T23:13:45.000Z</time></trkpt>
        <trkpt lat="29.339503" lon="103.463263"><ele>605.66833</ele><time>2026-07-01T23:14:16.000Z</time></trkpt>
        <trkpt lat="29.339503" lon="103.463264"><ele>605.52606</ele><time>2026-07-01T23:14:18.000Z</time></trkpt>
        <trkpt lat="29.339502" lon="103.463263"><ele>594.5247</ele><time>2026-07-01T23:14:20.000Z</time></trkpt>
        <trkpt lat="29.339251" lon="103.463118"><ele>594.52466</ele><time>2026-07-01T23:14:31.000Z</time></trkpt>
        <trkpt lat="29.338971" lon="103.463162"><ele>594.5139</ele><time>2026-07-01T23:14:39.000Z</time></trkpt>
        <trkpt lat="29.338971" lon="103.463162"><ele>593.5373</ele><time>2026-07-01T23:14:41.000Z</time></trkpt>
        <trkpt lat="29.338972" lon="103.463162"><ele>593.5373</ele><time>2026-07-01T23:14:43.000Z</time></trkpt>
        <trkpt lat="29.338806" lon="103.463047"><ele>593.53656</ele><time>2026-07-01T23:14:56.000Z</time></trkpt>
        <trkpt lat="29.338782" lon="103.463031"><ele>593.53656</ele><time>2026-07-01T23:14:58.000Z</time></trkpt>
        <trkpt lat="29.338768" lon="103.463021"><ele>593.3249</ele><time>2026-07-01T23:15:00.000Z</time></trkpt>
        <trkpt lat="29.338736" lon="103.463153"><ele>592.6546</ele><time>2026-07-01T23:15:19.000Z</time></trkpt>
        <trkpt lat="29.338736" lon="103.46315"><ele>591.81915</ele><time>2026-07-01T23:15:21.000Z</time></trkpt>
        <trkpt lat="29.338735" lon="103.46315"><ele>587.9535</ele><time>2026-07-01T23:15:23.000Z</time></trkpt>
        <trkpt lat="29.338656" lon="103.463158"><ele>587.9181</ele><time>2026-07-01T23:15:29.000Z</time></trkpt>
        <trkpt lat="29.33863" lon="103.463165"><ele>587.7592</ele><time>2026-07-01T23:15:31.000Z</time></trkpt>
        <trkpt lat="29.338611" lon="103.463167"><ele>586.0911</ele><time>2026-07-01T23:15:33.000Z</time></trkpt>
        <trkpt lat="29.338735" lon="103.46315"><ele>585.22943</ele><time>2026-07-01T23:15:59.000Z</time></trkpt>
        <trkpt lat="29.338726" lon="103.463143"><ele>584.54065</ele><time>2026-07-01T23:16:05.000Z</time></trkpt>
        <trkpt lat="29.338692" lon="103.463116"><ele>581.10504</ele><time>2026-07-01T23:16:20.000Z</time></trkpt>
        <trkpt lat="29.338639" lon="103.463203"><ele>580.97327</ele><time>2026-07-01T23:16:35.000Z</time></trkpt>
        <trkpt lat="29.338639" lon="103.463203"><ele>580.7807</ele><time>2026-07-01T23:16:37.000Z</time></trkpt>
        <trkpt lat="29.338633" lon="103.463204"><ele>579.9696</ele><time>2026-07-01T23:16:39.000Z</time></trkpt>
        <trkpt lat="29.338589" lon="103.463215"><ele>579.9692</ele><time>2026-07-01T23:16:43.000Z</time></trkpt>
        <trkpt lat="29.338566" lon="103.463226"><ele>579.9203</ele><time>2026-07-01T23:16:45.000Z</time></trkpt>
        <trkpt lat="29.338544" lon="103.463241"><ele>578.74146</ele><time>2026-07-01T23:16:47.000Z</time></trkpt>
        <trkpt lat="29.338522" lon="103.463259"><ele>577.82355</ele><time>2026-07-01T23:16:49.000Z</time></trkpt>
        <trkpt lat="29.338502" lon="103.463278"><ele>576.89905</ele><time>2026-07-01T23:16:51.000Z</time></trkpt>
        <trkpt lat="29.338489" lon="103.463294"><ele>576.2172</ele><time>2026-07-01T23:16:53.000Z</time></trkpt>
        <trkpt lat="29.33849" lon="103.463295"><ele>575.4308</ele><time>2026-07-01T23:16:55.000Z</time></trkpt>
        <trkpt lat="29.338522" lon="103.463348"><ele>574.83746</ele><time>2026-07-01T23:17:14.000Z</time></trkpt>
        <trkpt lat="29.338522" lon="103.463348"><ele>573.9238</ele><time>2026-07-01T23:17:16.000Z</time></trkpt>
        <trkpt lat="29.338525" lon="103.463353"><ele>569.8614</ele><time>2026-07-01T23:17:18.000Z</time></trkpt>
        <trkpt lat="29.338555" lon="103.46341"><ele>569.85925</ele><time>2026-07-01T23:17:22.000Z</time></trkpt>
        <trkpt lat="29.338597" lon="103.463489"><ele>569.85925</ele><time>2026-07-01T23:17:29.000Z</time></trkpt>
        <trkpt lat="29.338597" lon="103.463489"><ele>569.85925</ele><time>2026-07-01T23:17:31.000Z</time></trkpt>
        <trkpt lat="29.338598" lon="103.463489"><ele>570.9718</ele><time>2026-07-01T23:17:33.000Z</time></trkpt>
        <trkpt lat="29.338552" lon="103.463481"><ele>571.018</ele><time>2026-07-01T23:17:41.000Z</time></trkpt>
        <trkpt lat="29.338539" lon="103.463483"><ele>571.018</ele><time>2026-07-01T23:17:43.000Z</time></trkpt>
        <trkpt lat="29.338528" lon="103.463487"><ele>570.9718</ele><time>2026-07-01T23:17:45.000Z</time></trkpt>
        <trkpt lat="29.33852" lon="103.463494"><ele>570.71954</ele><time>2026-07-01T23:17:47.000Z</time></trkpt>
        <trkpt lat="29.338507" lon="103.463505"><ele>570.3004</ele><time>2026-07-01T23:17:49.000Z</time></trkpt>
        <trkpt lat="29.338493" lon="103.463516"><ele>569.7977</ele><time>2026-07-01T23:17:51.000Z</time></trkpt>
        <trkpt lat="29.338482" lon="103.463521"><ele>569.38837</ele><time>2026-07-01T23:17:53.000Z</time></trkpt>
        <trkpt lat="29.338475" lon="103.463521"><ele>568.8054</ele><time>2026-07-01T23:17:55.000Z</time></trkpt>
        <trkpt lat="29.338474" lon="103.463518"><ele>568.1437</ele><time>2026-07-01T23:17:59.000Z</time></trkpt>
        <trkpt lat="29.338469" lon="103.46349"><ele>567.3816</ele><time>2026-07-01T23:18:40.000Z</time></trkpt>
        <trkpt lat="29.33844" lon="103.463483"><ele>566.1206</ele><time>2026-07-01T23:20:35.000Z</time></trkpt>
        <trkpt lat="29.33844" lon="103.463483"><ele>561.46704</ele><time>2026-07-01T23:20:37.000Z</time></trkpt>
        <trkpt lat="29.338454" lon="103.463454"><ele>559.39417</ele><time>2026-07-01T23:20:57.000Z</time></trkpt>
        <trkpt lat="29.338481" lon="103.4635"><ele>557.1928</ele><time>2026-07-01T23:21:27.000Z</time></trkpt>
        <trkpt lat="29.338409" lon="103.463467"><ele>557.1928</ele><time>2026-07-01T23:21:42.000Z</time></trkpt>
        <trkpt lat="29.338406" lon="103.463459"><ele>559.2891</ele><time>2026-07-01T23:21:47.000Z</time></trkpt>
        <trkpt lat="29.338385" lon="103.463416"><ele>559.2891</ele><time>2026-07-01T23:21:51.000Z</time></trkpt>
        <trkpt lat="29.338385" lon="103.463416"><ele>558.12726</ele><time>2026-07-01T23:21:53.000Z</time></trkpt>
        <trkpt lat="29.338386" lon="103.463417"><ele>558.12726</ele><time>2026-07-01T23:21:55.000Z</time></trkpt>
        <trkpt lat="29.338463" lon="103.463486"><ele>558.1263</ele><time>2026-07-01T23:26:32.000Z</time></trkpt>
        <trkpt lat="29.338517" lon="103.463535"><ele>558.1263</ele><time>2026-07-01T23:26:34.000Z</time></trkpt>
        <trkpt lat="29.338521" lon="103.463538"><ele>558.1263</ele><time>2026-07-01T23:26:36.000Z</time></trkpt>
        <trkpt lat="29.338508" lon="103.463526"><ele>558.7861</ele><time>2026-07-01T23:26:39.000Z</time></trkpt>
        <trkpt lat="29.338552" lon="103.463513"><ele>558.7869</ele><time>2026-07-01T23:27:45.000Z</time></trkpt>
        <trkpt lat="29.338588" lon="103.463557"><ele>558.9249</ele><time>2026-07-01T23:28:00.000Z</time></trkpt>
        <trkpt lat="29.338544" lon="103.463544"><ele>566.44916</ele><time>2026-07-01T23:28:04.000Z</time></trkpt>
        <trkpt lat="29.338448" lon="103.463518"><ele>567.6025</ele><time>2026-07-01T23:28:12.000Z</time></trkpt>
        <trkpt lat="29.338448" lon="103.463518"><ele>567.6036</ele><time>2026-07-01T23:28:14.000Z</time></trkpt>
        <trkpt lat="29.338448" lon="103.46352"><ele>567.6036</ele><time>2026-07-01T23:28:16.000Z</time></trkpt>
        <trkpt lat="29.338438" lon="103.463582"><ele>567.6036</ele><time>2026-07-01T23:28:22.000Z</time></trkpt>
        <trkpt lat="29.338302" lon="103.463696"><ele>567.60645</ele><time>2026-07-01T23:28:32.000Z</time></trkpt>
        <trkpt lat="29.338302" lon="103.463696"><ele>567.684</ele><time>2026-07-01T23:28:34.000Z</time></trkpt>
        <trkpt lat="29.3383" lon="103.463698"><ele>568.31256</ele><time>2026-07-01T23:28:36.000Z</time></trkpt>
        <trkpt lat="29.338271" lon="103.46372"><ele>568.31256</ele><time>2026-07-01T23:28:40.000Z</time></trkpt>
        <trkpt lat="29.338246" lon="103.463736"><ele>568.31256</ele><time>2026-07-01T23:28:42.000Z</time></trkpt>
        <trkpt lat="29.338218" lon="103.463744"><ele>567.6854</ele><time>2026-07-01T23:28:44.000Z</time></trkpt>
        <trkpt lat="29.338201" lon="103.463745"><ele>567.22864</ele><time>2026-07-01T23:28:46.000Z</time></trkpt>
        <trkpt lat="29.338181" lon="103.463746"><ele>566.6228</ele><time>2026-07-01T23:28:48.000Z</time></trkpt>
        <trkpt lat="29.338162" lon="103.463751"><ele>565.56934</ele><time>2026-07-01T23:28:50.000Z</time></trkpt>
        <trkpt lat="29.338149" lon="103.46376"><ele>564.74725</ele><time>2026-07-01T23:28:52.000Z</time></trkpt>
        <trkpt lat="29.338136" lon="103.463771"><ele>564.1268</ele><time>2026-07-01T23:28:54.000Z</time></trkpt>
        <trkpt lat="29.338124" lon="103.463784"><ele>563.4088</ele><time>2026-07-01T23:28:56.000Z</time></trkpt>
        <trkpt lat="29.338114" lon="103.463793"><ele>562.3799</ele><time>2026-07-01T23:28:58.000Z</time></trkpt>
        <trkpt lat="29.338101" lon="103.463803"><ele>561.392</ele><time>2026-07-01T23:29:00.000Z</time></trkpt>
        <trkpt lat="29.338083" lon="103.463817"><ele>560.50146</ele><time>2026-07-01T23:29:02.000Z</time></trkpt>
        <trkpt lat="29.338067" lon="103.463831"><ele>559.50793</ele><time>2026-07-01T23:29:04.000Z</time></trkpt>
        <trkpt lat="29.338055" lon="103.463839"><ele>558.7356</ele><time>2026-07-01T23:29:06.000Z</time></trkpt>
        <trkpt lat="29.338041" lon="103.463848"><ele>558.2921</ele><time>2026-07-01T23:29:08.000Z</time></trkpt>
        <trkpt lat="29.33802" lon="103.463862"><ele>557.4719</ele><time>2026-07-01T23:29:10.000Z</time></trkpt>
        <trkpt lat="29.337996" lon="103.463876"><ele>556.8342</ele><time>2026-07-01T23:29:12.000Z</time></trkpt>
        <trkpt lat="29.33797" lon="103.463891"><ele>556.27155</ele><time>2026-07-01T23:29:14.000Z</time></trkpt>
        <trkpt lat="29.337942" lon="103.463907"><ele>556.16486</ele><time>2026-07-01T23:29:16.000Z</time></trkpt>
        <trkpt lat="29.337918" lon="103.463927"><ele>556.02985</ele><time>2026-07-01T23:29:18.000Z</time></trkpt>
        <trkpt lat="29.337896" lon="103.46395"><ele>556.02765</ele><time>2026-07-01T23:29:20.000Z</time></trkpt>
        <trkpt lat="29.337876" lon="103.463974"><ele>555.8269</ele><time>2026-07-01T23:29:22.000Z</time></trkpt>
        <trkpt lat="29.337856" lon="103.463998"><ele>555.8269</ele><time>2026-07-01T23:29:24.000Z</time></trkpt>
        <trkpt lat="29.337837" lon="103.464022"><ele>555.8269</ele><time>2026-07-01T23:29:26.000Z</time></trkpt>
        <trkpt lat="29.337817" lon="103.464047"><ele>556.2916</ele><time>2026-07-01T23:29:28.000Z</time></trkpt>
        <trkpt lat="29.337799" lon="103.464072"><ele>556.8283</ele><time>2026-07-01T23:29:30.000Z</time></trkpt>
        <trkpt lat="29.337783" lon="103.464096"><ele>557.2993</ele><time>2026-07-01T23:29:32.000Z</time></trkpt>
        <trkpt lat="29.337767" lon="103.464119"><ele>557.2993</ele><time>2026-07-01T23:29:34.000Z</time></trkpt>
        <trkpt lat="29.337754" lon="103.464135"><ele>557.2993</ele><time>2026-07-01T23:29:36.000Z</time></trkpt>
        <trkpt lat="29.337743" lon="103.464147"><ele>557.0855</ele><time>2026-07-01T23:29:38.000Z</time></trkpt>
        <trkpt lat="29.337731" lon="103.464155"><ele>556.6443</ele><time>2026-07-01T23:29:40.000Z</time></trkpt>
        <trkpt lat="29.337719" lon="103.464162"><ele>556.05133</ele><time>2026-07-01T23:29:42.000Z</time></trkpt>
        <trkpt lat="29.337704" lon="103.46417"><ele>555.1868</ele><time>2026-07-01T23:29:44.000Z</time></trkpt>
        <trkpt lat="29.337688" lon="103.464178"><ele>554.31934</ele><time>2026-07-01T23:29:46.000Z</time></trkpt>
        <trkpt lat="29.337671" lon="103.464185"><ele>553.7847</ele><time>2026-07-01T23:29:48.000Z</time></trkpt>
        <trkpt lat="29.337657" lon="103.464193"><ele>553.09863</ele><time>2026-07-01T23:29:50.000Z</time></trkpt>
        <trkpt lat="29.337642" lon="103.4642"><ele>552.8173</ele><time>2026-07-01T23:29:52.000Z</time></trkpt>
        <trkpt lat="29.337632" lon="103.464204"><ele>552.61914</ele><time>2026-07-01T23:29:54.000Z</time></trkpt>
        <trkpt lat="29.337621" lon="103.464208"><ele>552.3254</ele><time>2026-07-01T23:29:56.000Z</time></trkpt>
        <trkpt lat="29.337608" lon="103.464216"><ele>551.98303</ele><time>2026-07-01T23:29:58.000Z</time></trkpt>
        <trkpt lat="29.337594" lon="103.464229"><ele>551.6588</ele><time>2026-07-01T23:30:00.000Z</time></trkpt>
        <trkpt lat="29.337585" lon="103.464246"><ele>551.6588</ele><time>2026-07-01T23:30:02.000Z</time></trkpt>
        <trkpt lat="29.337578" lon="103.464269"><ele>551.6588</ele><time>2026-07-01T23:30:04.000Z</time></trkpt>
        <trkpt lat="29.337572" lon="103.464296"><ele>551.9425</ele><time>2026-07-01T23:30:06.000Z</time></trkpt>
        <trkpt lat="29.337569" lon="103.464325"><ele>552.4052</ele><time>2026-07-01T23:30:08.000Z</time></trkpt>
        <trkpt lat="29.337567" lon="103.464355"><ele>553.1144</ele><time>2026-07-01T23:30:10.000Z</time></trkpt>
        <trkpt lat="29.337567" lon="103.464383"><ele>553.9212</ele><time>2026-07-01T23:30:12.000Z</time></trkpt>
        <trkpt lat="29.337568" lon="103.464403"><ele>554.5819</ele><time>2026-07-01T23:30:14.000Z</time></trkpt>
        <trkpt lat="29.337569" lon="103.464424"><ele>555.1565</ele><time>2026-07-01T23:30:16.000Z</time></trkpt>
        <trkpt lat="29.337569" lon="103.464448"><ele>555.1677</ele><time>2026-07-01T23:30:18.000Z</time></trkpt>
        <trkpt lat="29.337572" lon="103.464472"><ele>555.1869</ele><time>2026-07-01T23:30:20.000Z</time></trkpt>
        <trkpt lat="29.337573" lon="103.464491"><ele>555.3153</ele><time>2026-07-01T23:30:22.000Z</time></trkpt>
        <trkpt lat="29.337572" lon="103.464512"><ele>555.56854</ele><time>2026-07-01T23:30:24.000Z</time></trkpt>
        <trkpt lat="29.337568" lon="103.464533"><ele>555.71606</ele><time>2026-07-01T23:30:26.000Z</time></trkpt>
        <trkpt lat="29.337562" lon="103.464548"><ele>555.71606</ele><time>2026-07-01T23:30:28.000Z</time></trkpt>
        <trkpt lat="29.337554" lon="103.464561"><ele>555.71606</ele><time>2026-07-01T23:30:30.000Z</time></trkpt>
        <trkpt lat="29.337544" lon="103.464573"><ele>555.1101</ele><time>2026-07-01T23:30:32.000Z</time></trkpt>
        <trkpt lat="29.337531" lon="103.464583"><ele>554.78876</ele><time>2026-07-01T23:30:34.000Z</time></trkpt>
        <trkpt lat="29.337514" lon="103.464593"><ele>554.3446</ele><time>2026-07-01T23:30:36.000Z</time></trkpt>
        <trkpt lat="29.337498" lon="103.4646"><ele>553.8724</ele><time>2026-07-01T23:30:38.000Z</time></trkpt>
        <trkpt lat="29.337485" lon="103.464607"><ele>552.9294</ele><time>2026-07-01T23:30:40.000Z</time></trkpt>
        <trkpt lat="29.33747" lon="103.464615"><ele>552.27704</ele><time>2026-07-01T23:30:42.000Z</time></trkpt>
        <trkpt lat="29.337455" lon="103.464625"><ele>551.7863</ele><time>2026-07-01T23:30:44.000Z</time></trkpt>
        <trkpt lat="29.337441" lon="103.464636"><ele>551.57355</ele><time>2026-07-01T23:30:46.000Z</time></trkpt>
        <trkpt lat="29.337427" lon="103.464647"><ele>551.5268</ele><time>2026-07-01T23:30:48.000Z</time></trkpt>
        <trkpt lat="29.337413" lon="103.46466"><ele>551.26855</ele><time>2026-07-01T23:30:50.000Z</time></trkpt>
        <trkpt lat="29.337399" lon="103.464671"><ele>550.4546</ele><time>2026-07-01T23:30:52.000Z</time></trkpt>
        <trkpt lat="29.33738" lon="103.464684"><ele>549.61957</ele><time>2026-07-01T23:30:54.000Z</time></trkpt>
        <trkpt lat="29.337359" lon="103.464698"><ele>548.90497</ele><time>2026-07-01T23:30:56.000Z</time></trkpt>
        <trkpt lat="29.337337" lon="103.464713"><ele>548.73517</ele><time>2026-07-01T23:30:58.000Z</time></trkpt>
        <trkpt lat="29.337315" lon="103.464729"><ele>548.73517</ele><time>2026-07-01T23:31:00.000Z</time></trkpt>
        <trkpt lat="29.3373" lon="103.464741"><ele>548.73517</ele><time>2026-07-01T23:31:02.000Z</time></trkpt>
        <trkpt lat="29.337299" lon="103.464747"><ele>548.8607</ele><time>2026-07-01T23:31:04.000Z</time></trkpt>
        <trkpt lat="29.3373" lon="103.464757"><ele>548.8607</ele><time>2026-07-01T23:31:06.000Z</time></trkpt>
        <trkpt lat="29.337295" lon="103.464778"><ele>548.8607</ele><time>2026-07-01T23:31:10.000Z</time></trkpt>
        <trkpt lat="29.337286" lon="103.464791"><ele>548.8412</ele><time>2026-07-01T23:31:12.000Z</time></trkpt>
        <trkpt lat="29.337268" lon="103.464812"><ele>548.0586</ele><time>2026-07-01T23:31:14.000Z</time></trkpt>
        <trkpt lat="29.337247" lon="103.464834"><ele>547.97626</ele><time>2026-07-01T23:31:16.000Z</time></trkpt>
        <trkpt lat="29.337226" lon="103.464854"><ele>547.97626</ele><time>2026-07-01T23:31:18.000Z</time></trkpt>
        <trkpt lat="29.337207" lon="103.464871"><ele>547.9806</ele><time>2026-07-01T23:31:20.000Z</time></trkpt>
        <trkpt lat="29.337189" lon="103.464888"><ele>547.9806</ele><time>2026-07-01T23:31:22.000Z</time></trkpt>
        <trkpt lat="29.337169" lon="103.464909"><ele>548.3634</ele><time>2026-07-01T23:31:24.000Z</time></trkpt>
        <trkpt lat="29.337152" lon="103.464929"><ele>548.6939</ele><time>2026-07-01T23:31:26.000Z</time></trkpt>
        <trkpt lat="29.337133" lon="103.464953"><ele>549.0747</ele><time>2026-07-01T23:31:28.000Z</time></trkpt>
        <trkpt lat="29.337117" lon="103.464979"><ele>549.0773</ele><time>2026-07-01T23:31:30.000Z</time></trkpt>
        <trkpt lat="29.337102" lon="103.465007"><ele>549.68835</ele><time>2026-07-01T23:31:32.000Z</time></trkpt>
        <trkpt lat="29.33709" lon="103.465033"><ele>549.99426</ele><time>2026-07-01T23:31:34.000Z</time></trkpt>
        <trkpt lat="29.337081" lon="103.46506"><ele>550.4194</ele><time>2026-07-01T23:31:36.000Z</time></trkpt>
        <trkpt lat="29.337072" lon="103.465085"><ele>550.4194</ele><time>2026-07-01T23:31:38.000Z</time></trkpt>
        <trkpt lat="29.337063" lon="103.465111"><ele>550.4194</ele><time>2026-07-01T23:31:40.000Z</time></trkpt>
        <trkpt lat="29.337057" lon="103.465137"><ele>550.14813</ele><time>2026-07-01T23:31:42.000Z</time></trkpt>
        <trkpt lat="29.337057" lon="103.46516"><ele>549.7001</ele><time>2026-07-01T23:31:44.000Z</time></trkpt>
        <trkpt lat="29.337063" lon="103.465182"><ele>549.18536</ele><time>2026-07-01T23:31:46.000Z</time></trkpt>
        <trkpt lat="29.337074" lon="103.465205"><ele>548.7782</ele><time>2026-07-01T23:31:48.000Z</time></trkpt>
        <trkpt lat="29.33709" lon="103.465227"><ele>548.6161</ele><time>2026-07-01T23:31:50.000Z</time></trkpt>
        <trkpt lat="29.337105" lon="103.465246"><ele>548.39154</ele><time>2026-07-01T23:31:52.000Z</time></trkpt>
        <trkpt lat="29.337116" lon="103.46526"><ele>547.93634</ele><time>2026-07-01T23:31:54.000Z</time></trkpt>
        <trkpt lat="29.337123" lon="103.46527"><ele>547.448</ele><time>2026-07-01T23:31:56.000Z</time></trkpt>
        <trkpt lat="29.337125" lon="103.465273"><ele>547.0362</ele><time>2026-07-01T23:31:58.000Z</time></trkpt>
        <trkpt lat="29.337138" lon="103.465286"><ele>546.7129</ele><time>2026-07-01T23:32:04.000Z</time></trkpt>
        <trkpt lat="29.337148" lon="103.465289"><ele>546.7129</ele><time>2026-07-01T23:32:08.000Z</time></trkpt>
        <trkpt lat="29.337148" lon="103.465289"><ele>546.7092</ele><time>2026-07-01T23:32:10.000Z</time></trkpt>
        <trkpt lat="29.337173" lon="103.465222"><ele>546.65765</ele><time>2026-07-01T23:32:27.000Z</time></trkpt>
        <trkpt lat="29.337173" lon="103.465225"><ele>546.5434</ele><time>2026-07-01T23:32:42.000Z</time></trkpt>
        <trkpt lat="29.337167" lon="103.465326"><ele>544.723</ele><time>2026-07-01T23:33:02.000Z</time></trkpt>
        <trkpt lat="29.337168" lon="103.465329"><ele>543.25336</ele><time>2026-07-01T23:33:04.000Z</time></trkpt>
        <trkpt lat="29.337165" lon="103.465335"><ele>541.39197</ele><time>2026-07-01T23:33:08.000Z</time></trkpt>
        <trkpt lat="29.337197" lon="103.465291"><ele>541.39197</ele><time>2026-07-01T23:33:41.000Z</time></trkpt>
        <trkpt lat="29.337191" lon="103.465298"><ele>541.39197</ele><time>2026-07-01T23:33:56.000Z</time></trkpt>
        <trkpt lat="29.337192" lon="103.4653"><ele>543.7283</ele><time>2026-07-01T23:34:11.000Z</time></trkpt>
        <trkpt lat="29.337177" lon="103.465255"><ele>543.7283</ele><time>2026-07-01T23:36:55.000Z</time></trkpt>
        <trkpt lat="29.337174" lon="103.465249"><ele>543.7283</ele><time>2026-07-01T23:36:57.000Z</time></trkpt>
        <trkpt lat="29.337175" lon="103.465247"><ele>534.1522</ele><time>2026-07-01T23:36:59.000Z</time></trkpt>
        <trkpt lat="29.337146" lon="103.465364"><ele>534.1522</ele><time>2026-07-01T23:40:48.000Z</time></trkpt>
        <trkpt lat="29.337126" lon="103.465359"><ele>534.1522</ele><time>2026-07-01T23:40:50.000Z</time></trkpt>
        <trkpt lat="29.337104" lon="103.465354"><ele>538.39386</ele><time>2026-07-01T23:40:52.000Z</time></trkpt>
        <trkpt lat="29.337073" lon="103.465347"><ele>539.2848</ele><time>2026-07-01T23:40:55.000Z</time></trkpt>
        <trkpt lat="29.337073" lon="103.465347"><ele>539.5688</ele><time>2026-07-01T23:40:57.000Z</time></trkpt>
        <trkpt lat="29.33707" lon="103.46535"><ele>540.235</ele><time>2026-07-01T23:40:59.000Z</time></trkpt>
        <trkpt lat="29.337042" lon="103.465391"><ele>540.2358</ele><time>2026-07-01T23:41:03.000Z</time></trkpt>
        <trkpt lat="29.337027" lon="103.465417"><ele>540.2664</ele><time>2026-07-01T23:41:05.000Z</time></trkpt>
        <trkpt lat="29.337016" lon="103.465447"><ele>540.2664</ele><time>2026-07-01T23:41:07.000Z</time></trkpt>
        <trkpt lat="29.337008" lon="103.465476"><ele>540.2664</ele><time>2026-07-01T23:41:09.000Z</time></trkpt>
        <trkpt lat="29.337002" lon="103.465507"><ele>539.66534</ele><time>2026-07-01T23:41:11.000Z</time></trkpt>
        <trkpt lat="29.336998" lon="103.465537"><ele>538.767</ele><time>2026-07-01T23:41:13.000Z</time></trkpt>
        <trkpt lat="29.336998" lon="103.465567"><ele>538.217</ele><time>2026-07-01T23:41:15.000Z</time></trkpt>
        <trkpt lat="29.337002" lon="103.465594"><ele>537.8133</ele><time>2026-07-01T23:41:17.000Z</time></trkpt>
        <trkpt lat="29.337008" lon="103.46562"><ele>537.33325</ele><time>2026-07-01T23:41:19.000Z</time></trkpt>
        <trkpt lat="29.337017" lon="103.465645"><ele>537.05725</ele><time>2026-07-01T23:41:21.000Z</time></trkpt>
        <trkpt lat="29.337028" lon="103.465672"><ele>536.5109</ele><time>2026-07-01T23:41:23.000Z</time></trkpt>
        <trkpt lat="29.337039" lon="103.465697"><ele>535.59973</ele><time>2026-07-01T23:41:25.000Z</time></trkpt>
        <trkpt lat="29.337051" lon="103.46572"><ele>534.93225</ele><time>2026-07-01T23:41:27.000Z</time></trkpt>
        <trkpt lat="29.337065" lon="103.465744"><ele>534.3847</ele><time>2026-07-01T23:41:29.000Z</time></trkpt>
        <trkpt lat="29.337078" lon="103.465767"><ele>533.1944</ele><time>2026-07-01T23:41:31.000Z</time></trkpt>
        <trkpt lat="29.337092" lon="103.465788"><ele>531.912</ele><time>2026-07-01T23:41:33.000Z</time></trkpt>
        <trkpt lat="29.337106" lon="103.46581"><ele>530.73676</ele><time>2026-07-01T23:41:35.000Z</time></trkpt>
        <trkpt lat="29.33712" lon="103.465833"><ele>529.7891</ele><time>2026-07-01T23:41:37.000Z</time></trkpt>
        <trkpt lat="29.337133" lon="103.465855"><ele>529.17334</ele><time>2026-07-01T23:41:39.000Z</time></trkpt>
        <trkpt lat="29.337145" lon="103.465877"><ele>528.5004</ele><time>2026-07-01T23:41:41.000Z</time></trkpt>
        <trkpt lat="29.337156" lon="103.465897"><ele>528.01794</ele><time>2026-07-01T23:41:43.000Z</time></trkpt>
        <trkpt lat="29.33717" lon="103.465918"><ele>527.589</ele><time>2026-07-01T23:41:45.000Z</time></trkpt>
        <trkpt lat="29.337184" lon="103.465941"><ele>527.589</ele><time>2026-07-01T23:41:47.000Z</time></trkpt>
        <trkpt lat="29.3372" lon="103.465963"><ele>527.589</ele><time>2026-07-01T23:41:49.000Z</time></trkpt>
        <trkpt lat="29.337216" lon="103.465984"><ele>527.7485</ele><time>2026-07-01T23:41:51.000Z</time></trkpt>
        <trkpt lat="29.337228" lon="103.465997"><ele>527.86957</ele><time>2026-07-01T23:41:53.000Z</time></trkpt>
        <trkpt lat="29.337238" lon="103.466006"><ele>528.4963</ele><time>2026-07-01T23:41:55.000Z</time></trkpt>
        <trkpt lat="29.337239" lon="103.466011"><ele>528.7621</ele><time>2026-07-01T23:41:57.000Z</time></trkpt>
        <trkpt lat="29.337269" lon="103.46607"><ele>529.27167</ele><time>2026-07-01T23:42:23.000Z</time></trkpt>
        <trkpt lat="29.337344" lon="103.46622"><ele>529.27167</ele><time>2026-07-01T23:42:33.000Z</time></trkpt>
        <trkpt lat="29.337344" lon="103.466221"><ele>529.27167</ele><time>2026-07-01T23:42:35.000Z</time></trkpt>
        <trkpt lat="29.337347" lon="103.466225"><ele>527.89014</ele><time>2026-07-01T23:42:37.000Z</time></trkpt>
        <trkpt lat="29.337385" lon="103.466283"><ele>527.8692</ele><time>2026-07-01T23:42:41.000Z</time></trkpt>
        <trkpt lat="29.337408" lon="103.46632"><ele>527.8692</ele><time>2026-07-01T23:42:43.000Z</time></trkpt>
        <trkpt lat="29.33743" lon="103.466355"><ele>527.89014</ele><time>2026-07-01T23:42:45.000Z</time></trkpt>
        <trkpt lat="29.33745" lon="103.466388"><ele>527.89014</ele><time>2026-07-01T23:42:47.000Z</time></trkpt>
        <trkpt lat="29.337467" lon="103.466419"><ele>527.8692</ele><time>2026-07-01T23:42:49.000Z</time></trkpt>
        <trkpt lat="29.337483" lon="103.466449"><ele>527.6552</ele><time>2026-07-01T23:42:51.000Z</time></trkpt>
        <trkpt lat="29.337495" lon="103.466477"><ele>527.0863</ele><time>2026-07-01T23:42:53.000Z</time></trkpt>
        <trkpt lat="29.337505" lon="103.466506"><ele>526.931</ele><time>2026-07-01T23:42:55.000Z</time></trkpt>
        <trkpt lat="29.337515" lon="103.466535"><ele>526.20123</ele><time>2026-07-01T23:42:57.000Z</time></trkpt>
        <trkpt lat="29.337525" lon="103.466563"><ele>526.0471</ele><time>2026-07-01T23:42:59.000Z</time></trkpt>
        <trkpt lat="29.337534" lon="103.466591"><ele>525.9273</ele><time>2026-07-01T23:43:01.000Z</time></trkpt>
        <trkpt lat="29.337542" lon="103.466618"><ele>525.4427</ele><time>2026-07-01T23:43:03.000Z</time></trkpt>
        <trkpt lat="29.337551" lon="103.466646"><ele>525.4427</ele><time>2026-07-01T23:43:05.000Z</time></trkpt>
        <trkpt lat="29.337559" lon="103.466677"><ele>525.4427</ele><time>2026-07-01T23:43:07.000Z</time></trkpt>
        <trkpt lat="29.337568" lon="103.466708"><ele>525.4576</ele><time>2026-07-01T23:43:09.000Z</time></trkpt>
        <trkpt lat="29.337578" lon="103.466739"><ele>525.6179</ele><time>2026-07-01T23:43:11.000Z</time></trkpt>
        <trkpt lat="29.337588" lon="103.466772"><ele>525.8344</ele><time>2026-07-01T23:43:13.000Z</time></trkpt>
        <trkpt lat="29.337597" lon="103.466802"><ele>526.1184</ele><time>2026-07-01T23:43:15.000Z</time></trkpt>
        <trkpt lat="29.337605" lon="103.466832"><ele>526.51337</ele><time>2026-07-01T23:43:17.000Z</time></trkpt>
        <trkpt lat="29.337612" lon="103.466857"><ele>527.1088</ele><time>2026-07-01T23:43:19.000Z</time></trkpt>
        <trkpt lat="29.337617" lon="103.466877"><ele>527.5199</ele><time>2026-07-01T23:43:21.000Z</time></trkpt>
        <trkpt lat="29.337623" lon="103.466897"><ele>527.76465</ele><time>2026-07-01T23:43:23.000Z</time></trkpt>
        <trkpt lat="29.337629" lon="103.466918"><ele>528.064</ele><time>2026-07-01T23:43:25.000Z</time></trkpt>
        <trkpt lat="29.337637" lon="103.466943"><ele>528.1567</ele><time>2026-07-01T23:43:27.000Z</time></trkpt>
        <trkpt lat="29.337645" lon="103.466968"><ele>528.17596</ele><time>2026-07-01T23:43:29.000Z</time></trkpt>
        <trkpt lat="29.337652" lon="103.466993"><ele>528.17596</ele><time>2026-07-01T23:43:31.000Z</time></trkpt>
        <trkpt lat="29.337658" lon="103.467011"><ele>528.17596</ele><time>2026-07-01T23:43:33.000Z</time></trkpt>
        <trkpt lat="29.337663" lon="103.46703"><ele>528.0094</ele><time>2026-07-01T23:43:35.000Z</time></trkpt>
        <trkpt lat="29.337667" lon="103.46705"><ele>527.81396</ele><time>2026-07-01T23:43:37.000Z</time></trkpt>
        <trkpt lat="29.337672" lon="103.467073"><ele>527.6316</ele><time>2026-07-01T23:43:39.000Z</time></trkpt>
        <trkpt lat="29.337678" lon="103.467095"><ele>527.33795</ele><time>2026-07-01T23:43:41.000Z</time></trkpt>
        <trkpt lat="29.337683" lon="103.467117"><ele>527.2827</ele><time>2026-07-01T23:43:43.000Z</time></trkpt>
        <trkpt lat="29.337688" lon="103.467137"><ele>527.15106</ele><time>2026-07-01T23:43:45.000Z</time></trkpt>
        <trkpt lat="29.337692" lon="103.46716"><ele>526.7129</ele><time>2026-07-01T23:43:47.000Z</time></trkpt>
        <trkpt lat="29.337696" lon="103.467184"><ele>526.2974</ele><time>2026-07-01T23:43:49.000Z</time></trkpt>
        <trkpt lat="29.3377" lon="103.46721"><ele>526.186</ele><time>2026-07-01T23:43:50.000Z</time></trkpt>
        <trkpt lat="29.337702" lon="103.467235"><ele>526.17993</ele><time>2026-07-01T23:43:52.000Z</time></trkpt>
        <trkpt lat="29.337703" lon="103.467251"><ele>526.1688</ele><time>2026-07-01T23:43:54.000Z</time></trkpt>
        <trkpt lat="29.337706" lon="103.467271"><ele>526.1688</ele><time>2026-07-01T23:43:56.000Z</time></trkpt>
        <trkpt lat="29.33771" lon="103.467288"><ele>526.1639</ele><time>2026-07-01T23:43:58.000Z</time></trkpt>
        <trkpt lat="29.337716" lon="103.467308"><ele>526.1639</ele><time>2026-07-01T23:44:00.000Z</time></trkpt>
        <trkpt lat="29.337723" lon="103.467329"><ele>526.1639</ele><time>2026-07-01T23:44:02.000Z</time></trkpt>
        <trkpt lat="29.33773" lon="103.467353"><ele>526.19775</ele><time>2026-07-01T23:44:04.000Z</time></trkpt>
        <trkpt lat="29.337738" lon="103.467379"><ele>526.3054</ele><time>2026-07-01T23:44:06.000Z</time></trkpt>
        <trkpt lat="29.337744" lon="103.467405"><ele>526.3054</ele><time>2026-07-01T23:44:08.000Z</time></trkpt>
        <trkpt lat="29.337748" lon="103.467431"><ele>526.3054</ele><time>2026-07-01T23:44:10.000Z</time></trkpt>
        <trkpt lat="29.33775" lon="103.467457"><ele>526.13947</ele><time>2026-07-01T23:44:12.000Z</time></trkpt>
        <trkpt lat="29.337752" lon="103.467477"><ele>526.0456</ele><time>2026-07-01T23:44:14.000Z</time></trkpt>
        <trkpt lat="29.337755" lon="103.467496"><ele>526.0456</ele><time>2026-07-01T23:44:16.000Z</time></trkpt>
        <trkpt lat="29.337759" lon="103.467517"><ele>526.0456</ele><time>2026-07-01T23:44:18.000Z</time></trkpt>
        <trkpt lat="29.337766" lon="103.46754"><ele>526.26276</ele><time>2026-07-01T23:44:20.000Z</time></trkpt>
        <trkpt lat="29.337773" lon="103.467565"><ele>526.32294</ele><time>2026-07-01T23:44:22.000Z</time></trkpt>
        <trkpt lat="29.337781" lon="103.467591"><ele>526.5337</ele><time>2026-07-01T23:44:24.000Z</time></trkpt>
        <trkpt lat="29.337788" lon="103.467616"><ele>526.5337</ele><time>2026-07-01T23:44:27.000Z</time></trkpt>
        <trkpt lat="29.337793" lon="103.467642"><ele>526.5337</ele><time>2026-07-01T23:44:29.000Z</time></trkpt>
        <trkpt lat="29.3378" lon="103.467669"><ele>526.5196</ele><time>2026-07-01T23:44:31.000Z</time></trkpt>
        <trkpt lat="29.337807" lon="103.467695"><ele>526.269</ele><time>2026-07-01T23:44:33.000Z</time></trkpt>
        <trkpt lat="29.337816" lon="103.467722"><ele>526.2224</ele><time>2026-07-01T23:44:35.000Z</time></trkpt>
        <trkpt lat="29.337826" lon="103.467747"><ele>525.9992</ele><time>2026-07-01T23:44:37.000Z</time></trkpt>
        <trkpt lat="29.337838" lon="103.467776"><ele>525.6123</ele><time>2026-07-01T23:44:39.000Z</time></trkpt>
        <trkpt lat="29.33785" lon="103.467805"><ele>525.2178</ele><time>2026-07-01T23:44:41.000Z</time></trkpt>
        <trkpt lat="29.337859" lon="103.467832"><ele>524.90924</ele><time>2026-07-01T23:44:43.000Z</time></trkpt>
        <trkpt lat="29.337866" lon="103.46786"><ele>524.75696</ele><time>2026-07-01T23:44:45.000Z</time></trkpt>
        <trkpt lat="29.337873" lon="103.467886"><ele>524.75696</ele><time>2026-07-01T23:44:47.000Z</time></trkpt>
        <trkpt lat="29.337882" lon="103.467915"><ele>524.75696</ele><time>2026-07-01T23:44:49.000Z</time></trkpt>
        <trkpt lat="29.337891" lon="103.467947"><ele>524.75696</ele><time>2026-07-01T23:44:51.000Z</time></trkpt>
        <trkpt lat="29.337899" lon="103.46798"><ele>524.71796</ele><time>2026-07-01T23:44:53.000Z</time></trkpt>
        <trkpt lat="29.337907" lon="103.468013"><ele>524.6394</ele><time>2026-07-01T23:44:55.000Z</time></trkpt>
        <trkpt lat="29.337915" lon="103.468045"><ele>524.5265</ele><time>2026-07-01T23:44:57.000Z</time></trkpt>
        <trkpt lat="29.337922" lon="103.468077"><ele>524.5265</ele><time>2026-07-01T23:44:59.000Z</time></trkpt>
        <trkpt lat="29.337929" lon="103.468107"><ele>524.6394</ele><time>2026-07-01T23:45:01.000Z</time></trkpt>
        <trkpt lat="29.337934" lon="103.468137"><ele>524.9105</ele><time>2026-07-01T23:45:03.000Z</time></trkpt>
        <trkpt lat="29.337939" lon="103.468167"><ele>525.31354</ele><time>2026-07-01T23:45:05.000Z</time></trkpt>
        <trkpt lat="29.337943" lon="103.468195"><ele>525.45044</ele><time>2026-07-01T23:45:07.000Z</time></trkpt>
        <trkpt lat="29.337948" lon="103.468225"><ele>525.8568</ele><time>2026-07-01T23:45:09.000Z</time></trkpt>
        <trkpt lat="29.337953" lon="103.468251"><ele>526.0963</ele><time>2026-07-01T23:45:11.000Z</time></trkpt>
        <trkpt lat="29.337957" lon="103.468274"><ele>526.3961</ele><time>2026-07-01T23:45:13.000Z</time></trkpt>
        <trkpt lat="29.337962" lon="103.468301"><ele>526.4177</ele><time>2026-07-01T23:45:15.000Z</time></trkpt>
        <trkpt lat="29.337968" lon="103.468327"><ele>526.4177</ele><time>2026-07-01T23:45:17.000Z</time></trkpt>
        <trkpt lat="29.337974" lon="103.468352"><ele>526.4702</ele><time>2026-07-01T23:45:19.000Z</time></trkpt>
        <trkpt lat="29.33798" lon="103.468377"><ele>526.4702</ele><time>2026-07-01T23:45:21.000Z</time></trkpt>
        <trkpt lat="29.337986" lon="103.468403"><ele>526.5694</ele><time>2026-07-01T23:45:23.000Z</time></trkpt>
        <trkpt lat="29.33799" lon="103.468428"><ele>526.75287</ele><time>2026-07-01T23:45:25.000Z</time></trkpt>
        <trkpt lat="29.337994" lon="103.46845"><ele>526.75287</ele><time>2026-07-01T23:45:27.000Z</time></trkpt>
        <trkpt lat="29.337999" lon="103.468474"><ele>526.75287</ele><time>2026-07-01T23:45:29.000Z</time></trkpt>
        <trkpt lat="29.338005" lon="103.468495"><ele>526.7488</ele><time>2026-07-01T23:45:31.000Z</time></trkpt>
        <trkpt lat="29.338013" lon="103.468521"><ele>526.5946</ele><time>2026-07-01T23:45:33.000Z</time></trkpt>
        <trkpt lat="29.33802" lon="103.468545"><ele>526.3215</ele><time>2026-07-01T23:45:35.000Z</time></trkpt>
        <trkpt lat="29.338029" lon="103.468571"><ele>525.9503</ele><time>2026-07-01T23:45:37.000Z</time></trkpt>
        <trkpt lat="29.338038" lon="103.468597"><ele>525.895</ele><time>2026-07-01T23:45:39.000Z</time></trkpt>
        <trkpt lat="29.338047" lon="103.468623"><ele>525.77155</ele><time>2026-07-01T23:45:41.000Z</time></trkpt>
        <trkpt lat="29.338057" lon="103.46865"><ele>525.5617</ele><time>2026-07-01T23:45:43.000Z</time></trkpt>
        <trkpt lat="29.338068" lon="103.468678"><ele>525.5617</ele><time>2026-07-01T23:45:45.000Z</time></trkpt>
        <trkpt lat="29.338077" lon="103.468702"><ele>525.5617</ele><time>2026-07-01T23:45:47.000Z</time></trkpt>
        <trkpt lat="29.338086" lon="103.468727"><ele>525.6862</ele><time>2026-07-01T23:45:49.000Z</time></trkpt>
        <trkpt lat="29.338096" lon="103.468752"><ele>525.6882</ele><time>2026-07-01T23:45:51.000Z</time></trkpt>
        <trkpt lat="29.338106" lon="103.468778"><ele>525.74805</ele><time>2026-07-01T23:45:53.000Z</time></trkpt>
        <trkpt lat="29.338116" lon="103.468805"><ele>525.74805</ele><time>2026-07-01T23:45:55.000Z</time></trkpt>
        <trkpt lat="29.338126" lon="103.468832"><ele>525.7996</ele><time>2026-07-01T23:45:57.000Z</time></trkpt>
        <trkpt lat="29.338135" lon="103.468857"><ele>525.7996</ele><time>2026-07-01T23:45:59.000Z</time></trkpt>
        <trkpt lat="29.338143" lon="103.468883"><ele>525.7996</ele><time>2026-07-01T23:46:01.000Z</time></trkpt>
        <trkpt lat="29.338152" lon="103.468911"><ele>526.07806</ele><time>2026-07-01T23:46:03.000Z</time></trkpt>
        <trkpt lat="29.338161" lon="103.468936"><ele>526.3573</ele><time>2026-07-01T23:46:05.000Z</time></trkpt>
        <trkpt lat="29.338172" lon="103.468963"><ele>526.86273</ele><time>2026-07-01T23:46:07.000Z</time></trkpt>
        <trkpt lat="29.338182" lon="103.468989"><ele>527.36304</ele><time>2026-07-01T23:46:09.000Z</time></trkpt>
        <trkpt lat="29.338192" lon="103.469015"><ele>527.9714</ele><time>2026-07-01T23:46:11.000Z</time></trkpt>
        <trkpt lat="29.338199" lon="103.469041"><ele>528.4785</ele><time>2026-07-01T23:46:13.000Z</time></trkpt>
        <trkpt lat="29.338204" lon="103.469068"><ele>528.69666</ele><time>2026-07-01T23:46:15.000Z</time></trkpt>
        <trkpt lat="29.33821" lon="103.469094"><ele>529.16003</ele><time>2026-07-01T23:46:17.000Z</time></trkpt>
        <trkpt lat="29.338215" lon="103.469125"><ele>529.58185</ele><time>2026-07-01T23:46:19.000Z</time></trkpt>
        <trkpt lat="29.33822" lon="103.469158"><ele>529.58185</ele><time>2026-07-01T23:46:21.000Z</time></trkpt>
        <trkpt lat="29.338227" lon="103.469191"><ele>529.6049</ele><time>2026-07-01T23:46:23.000Z</time></trkpt>
        <trkpt lat="29.338234" lon="103.469226"><ele>529.7995</ele><time>2026-07-01T23:46:25.000Z</time></trkpt>
        <trkpt lat="29.338243" lon="103.469258"><ele>529.7995</ele><time>2026-07-01T23:46:27.000Z</time></trkpt>
        <trkpt lat="29.33825" lon="103.469283"><ele>529.9687</ele><time>2026-07-01T23:46:29.000Z</time></trkpt>
        <trkpt lat="29.338259" lon="103.469307"><ele>530.2067</ele><time>2026-07-01T23:46:31.000Z</time></trkpt>
        <trkpt lat="29.338267" lon="103.469333"><ele>530.4537</ele><time>2026-07-01T23:46:33.000Z</time></trkpt>
        <trkpt lat="29.338274" lon="103.469363"><ele>530.4958</ele><time>2026-07-01T23:46:35.000Z</time></trkpt>
        <trkpt lat="29.33828" lon="103.469393"><ele>530.56055</ele><time>2026-07-01T23:46:37.000Z</time></trkpt>
        <trkpt lat="29.338287" lon="103.469417"><ele>530.5933</ele><time>2026-07-01T23:46:39.000Z</time></trkpt>
        <trkpt lat="29.338295" lon="103.46944"><ele>530.63226</ele><time>2026-07-01T23:46:41.000Z</time></trkpt>
        <trkpt lat="29.338302" lon="103.469462"><ele>530.93835</ele><time>2026-07-01T23:46:43.000Z</time></trkpt>
        <trkpt lat="29.338308" lon="103.469479"><ele>530.93835</ele><time>2026-07-01T23:46:45.000Z</time></trkpt>
        <trkpt lat="29.338316" lon="103.4695"><ele>530.93835</ele><time>2026-07-01T23:46:47.000Z</time></trkpt>
        <trkpt lat="29.338325" lon="103.469521"><ele>530.89276</ele><time>2026-07-01T23:46:49.000Z</time></trkpt>
        <trkpt lat="29.338335" lon="103.469541"><ele>530.4739</ele><time>2026-07-01T23:46:51.000Z</time></trkpt>
        <trkpt lat="29.338344" lon="103.46956"><ele>530.1858</ele><time>2026-07-01T23:46:53.000Z</time></trkpt>
        <trkpt lat="29.338354" lon="103.469582"><ele>530.14014</ele><time>2026-07-01T23:46:55.000Z</time></trkpt>
        <trkpt lat="29.338365" lon="103.469608"><ele>530.03955</ele><time>2026-07-01T23:46:57.000Z</time></trkpt>
        <trkpt lat="29.338374" lon="103.469633"><ele>530.03955</ele><time>2026-07-01T23:46:59.000Z</time></trkpt>
        <trkpt lat="29.338385" lon="103.46966"><ele>530.03955</ele><time>2026-07-01T23:47:01.000Z</time></trkpt>
        <trkpt lat="29.338397" lon="103.469686"><ele>530.03955</ele><time>2026-07-01T23:47:03.000Z</time></trkpt>
        <trkpt lat="29.338409" lon="103.46971"><ele>529.9279</ele><time>2026-07-01T23:47:05.000Z</time></trkpt>
        <trkpt lat="29.338423" lon="103.469735"><ele>529.9279</ele><time>2026-07-01T23:47:07.000Z</time></trkpt>
        <trkpt lat="29.338439" lon="103.469761"><ele>529.7104</ele><time>2026-07-01T23:47:09.000Z</time></trkpt>
        <trkpt lat="29.338456" lon="103.469782"><ele>529.2981</ele><time>2026-07-01T23:47:11.000Z</time></trkpt>
        <trkpt lat="29.338476" lon="103.4698"><ele>529.2981</ele><time>2026-07-01T23:47:13.000Z</time></trkpt>
        <trkpt lat="29.338489" lon="103.469813"><ele>529.1503</ele><time>2026-07-01T23:47:15.000Z</time></trkpt>
        <trkpt lat="29.338504" lon="103.469825"><ele>529.1503</ele><time>2026-07-01T23:47:17.000Z</time></trkpt>
        <trkpt lat="29.338523" lon="103.469838"><ele>529.2991</ele><time>2026-07-01T23:47:19.000Z</time></trkpt>
        <trkpt lat="29.338544" lon="103.46985"><ele>529.7153</ele><time>2026-07-01T23:47:21.000Z</time></trkpt>
        <trkpt lat="29.338567" lon="103.469857"><ele>529.96356</ele><time>2026-07-01T23:47:23.000Z</time></trkpt>
        <trkpt lat="29.338588" lon="103.469858"><ele>530.0215</ele><time>2026-07-01T23:47:25.000Z</time></trkpt>
        <trkpt lat="29.338613" lon="103.469855"><ele>530.0215</ele><time>2026-07-01T23:47:27.000Z</time></trkpt>
        <trkpt lat="29.338639" lon="103.469847"><ele>530.0215</ele><time>2026-07-01T23:47:29.000Z</time></trkpt>
        <trkpt lat="29.338663" lon="103.469837"><ele>529.746</ele><time>2026-07-01T23:47:31.000Z</time></trkpt>
        <trkpt lat="29.338687" lon="103.469826"><ele>529.4906</ele><time>2026-07-01T23:47:33.000Z</time></trkpt>
        <trkpt lat="29.338712" lon="103.469814"><ele>529.4045</ele><time>2026-07-01T23:47:35.000Z</time></trkpt>
        <trkpt lat="29.338735" lon="103.469804"><ele>529.4045</ele><time>2026-07-01T23:47:37.000Z</time></trkpt>
        <trkpt lat="29.338757" lon="103.469796"><ele>529.4045</ele><time>2026-07-01T23:47:39.000Z</time></trkpt>
        <trkpt lat="29.338781" lon="103.469787"><ele>529.5893</ele><time>2026-07-01T23:47:41.000Z</time></trkpt>
        <trkpt lat="29.338804" lon="103.469779"><ele>530.0338</ele><time>2026-07-01T23:47:43.000Z</time></trkpt>
        <trkpt lat="29.33883" lon="103.46977"><ele>530.4969</ele><time>2026-07-01T23:47:45.000Z</time></trkpt>
        <trkpt lat="29.338855" lon="103.46976"><ele>530.79535</ele><time>2026-07-01T23:47:47.000Z</time></trkpt>
        <trkpt lat="29.338877" lon="103.469748"><ele>531.0618</ele><time>2026-07-01T23:47:49.000Z</time></trkpt>
        <trkpt lat="29.338899" lon="103.469735"><ele>531.22174</ele><time>2026-07-01T23:47:51.000Z</time></trkpt>
        <trkpt lat="29.338921" lon="103.469723"><ele>531.26526</ele><time>2026-07-01T23:47:53.000Z</time></trkpt>
        <trkpt lat="29.338942" lon="103.469714"><ele>531.26526</ele><time>2026-07-01T23:47:55.000Z</time></trkpt>
        <trkpt lat="29.338963" lon="103.469706"><ele>531.26526</ele><time>2026-07-01T23:47:57.000Z</time></trkpt>
        <trkpt lat="29.338982" lon="103.469697"><ele>531.27545</ele><time>2026-07-01T23:47:59.000Z</time></trkpt>
        <trkpt lat="29.339002" lon="103.469691"><ele>531.3402</ele><time>2026-07-01T23:48:01.000Z</time></trkpt>
        <trkpt lat="29.339024" lon="103.469685"><ele>531.3402</ele><time>2026-07-01T23:48:03.000Z</time></trkpt>
        <trkpt lat="29.339045" lon="103.46968"><ele>531.5247</ele><time>2026-07-01T23:48:05.000Z</time></trkpt>
        <trkpt lat="29.339069" lon="103.469676"><ele>531.5247</ele><time>2026-07-01T23:48:07.000Z</time></trkpt>
        <trkpt lat="29.339094" lon="103.469673"><ele>531.5247</ele><time>2026-07-01T23:48:09.000Z</time></trkpt>
        <trkpt lat="29.339118" lon="103.469665"><ele>531.4603</ele><time>2026-07-01T23:48:11.000Z</time></trkpt>
        <trkpt lat="29.339139" lon="103.469656"><ele>531.4603</ele><time>2026-07-01T23:48:13.000Z</time></trkpt>
        <trkpt lat="29.339162" lon="103.469648"><ele>531.43085</ele><time>2026-07-01T23:48:15.000Z</time></trkpt>
        <trkpt lat="29.339183" lon="103.469644"><ele>531.4033</ele><time>2026-07-01T23:48:17.000Z</time></trkpt>
        <trkpt lat="29.339202" lon="103.469646"><ele>531.44867</ele><time>2026-07-01T23:48:19.000Z</time></trkpt>
        <trkpt lat="29.339219" lon="103.469653"><ele>531.44867</ele><time>2026-07-01T23:48:21.000Z</time></trkpt>
        <trkpt lat="29.339236" lon="103.469666"><ele>531.44867</ele><time>2026-07-01T23:48:23.000Z</time></trkpt>
        <trkpt lat="29.339254" lon="103.469687"><ele>531.75256</ele><time>2026-07-01T23:48:25.000Z</time></trkpt>
        <trkpt lat="29.339271" lon="103.469711"><ele>531.9172</ele><time>2026-07-01T23:48:27.000Z</time></trkpt>
        <trkpt lat="29.339286" lon="103.469737"><ele>531.9172</ele><time>2026-07-01T23:48:29.000Z</time></trkpt>
        <trkpt lat="29.339299" lon="103.469762"><ele>531.9172</ele><time>2026-07-01T23:48:31.000Z</time></trkpt>
        <trkpt lat="29.33931" lon="103.469786"><ele>531.7477</ele><time>2026-07-01T23:48:33.000Z</time></trkpt>
        <trkpt lat="29.339319" lon="103.469809"><ele>531.5049</ele><time>2026-07-01T23:48:35.000Z</time></trkpt>
        <trkpt lat="29.339328" lon="103.469829"><ele>530.9915</ele><time>2026-07-01T23:48:37.000Z</time></trkpt>
        <trkpt lat="29.339336" lon="103.469847"><ele>530.6912</ele><time>2026-07-01T23:48:39.000Z</time></trkpt>
        <trkpt lat="29.339344" lon="103.469868"><ele>530.51996</ele><time>2026-07-01T23:48:41.000Z</time></trkpt>
        <trkpt lat="29.339351" lon="103.469888"><ele>530.51996</ele><time>2026-07-01T23:48:43.000Z</time></trkpt>
        <trkpt lat="29.339355" lon="103.46991"><ele>530.51996</ele><time>2026-07-01T23:48:45.000Z</time></trkpt>
        <trkpt lat="29.339356" lon="103.469932"><ele>530.8276</ele><time>2026-07-01T23:48:47.000Z</time></trkpt>
        <trkpt lat="29.339353" lon="103.469955"><ele>531.34015</ele><time>2026-07-01T23:48:49.000Z</time></trkpt>
        <trkpt lat="29.339344" lon="103.469975"><ele>531.8646</ele><time>2026-07-01T23:48:51.000Z</time></trkpt>
        <trkpt lat="29.339329" lon="103.469996"><ele>531.96765</ele><time>2026-07-01T23:48:53.000Z</time></trkpt>
        <trkpt lat="29.339309" lon="103.470014"><ele>532.0174</ele><time>2026-07-01T23:48:55.000Z</time></trkpt>
        <trkpt lat="29.339287" lon="103.470029"><ele>532.0531</ele><time>2026-07-01T23:48:57.000Z</time></trkpt>
        <trkpt lat="29.339267" lon="103.470038"><ele>532.3782</ele><time>2026-07-01T23:48:59.000Z</time></trkpt>
        <trkpt lat="29.339244" lon="103.470048"><ele>532.3782</ele><time>2026-07-01T23:49:01.000Z</time></trkpt>
        <trkpt lat="29.339218" lon="103.470057"><ele>532.3782</ele><time>2026-07-01T23:49:03.000Z</time></trkpt>
        <trkpt lat="29.33919" lon="103.470067"><ele>532.3782</ele><time>2026-07-01T23:49:05.000Z</time></trkpt>
        <trkpt lat="29.339163" lon="103.470077"><ele>532.3782</ele><time>2026-07-01T23:49:07.000Z</time></trkpt>
        <trkpt lat="29.339137" lon="103.470088"><ele>532.5303</ele><time>2026-07-01T23:49:09.000Z</time></trkpt>
        <trkpt lat="29.339113" lon="103.470098"><ele>533.25854</ele><time>2026-07-01T23:49:11.000Z</time></trkpt>
        <trkpt lat="29.339087" lon="103.47011"><ele>533.39966</ele><time>2026-07-01T23:49:13.000Z</time></trkpt>
        <trkpt lat="29.339063" lon="103.470122"><ele>533.582</ele><time>2026-07-01T23:49:15.000Z</time></trkpt>
        <trkpt lat="29.339041" lon="103.470131"><ele>533.61584</ele><time>2026-07-01T23:49:17.000Z</time></trkpt>
        <trkpt lat="29.339018" lon="103.470139"><ele>533.61584</ele><time>2026-07-01T23:49:19.000Z</time></trkpt>
        <trkpt lat="29.338998" lon="103.470145"><ele>533.61584</ele><time>2026-07-01T23:49:21.000Z</time></trkpt>
        <trkpt lat="29.338975" lon="103.470153"><ele>533.3056</ele><time>2026-07-01T23:49:23.000Z</time></trkpt>
        <trkpt lat="29.338952" lon="103.470162"><ele>533.0921</ele><time>2026-07-01T23:49:25.000Z</time></trkpt>
        <trkpt lat="29.338927" lon="103.470172"><ele>532.4605</ele><time>2026-07-01T23:49:27.000Z</time></trkpt>
        <trkpt lat="29.338902" lon="103.470183"><ele>531.9453</ele><time>2026-07-01T23:49:29.000Z</time></trkpt>
        <trkpt lat="29.338879" lon="103.470195"><ele>531.43756</ele><time>2026-07-01T23:49:31.000Z</time></trkpt>
        <trkpt lat="29.338856" lon="103.470209"><ele>531.0649</ele><time>2026-07-01T23:49:33.000Z</time></trkpt>
        <trkpt lat="29.338835" lon="103.470223"><ele>531.0374</ele><time>2026-07-01T23:49:35.000Z</time></trkpt>
        <trkpt lat="29.338818" lon="103.470234"><ele>531.0374</ele><time>2026-07-01T23:49:37.000Z</time></trkpt>
        <trkpt lat="29.338802" lon="103.470243"><ele>531.0374</ele><time>2026-07-01T23:49:39.000Z</time></trkpt>
        <trkpt lat="29.338785" lon="103.470252"><ele>531.392</ele><time>2026-07-01T23:49:41.000Z</time></trkpt>
        <trkpt lat="29.338769" lon="103.470259"><ele>531.392</ele><time>2026-07-01T23:49:43.000Z</time></trkpt>
        <trkpt lat="29.338752" lon="103.470265"><ele>531.392</ele><time>2026-07-01T23:49:45.000Z</time></trkpt>
        <trkpt lat="29.338733" lon="103.47027"><ele>530.8604</ele><time>2026-07-01T23:49:47.000Z</time></trkpt>
        <trkpt lat="29.338713" lon="103.470278"><ele>530.10785</ele><time>2026-07-01T23:49:49.000Z</time></trkpt>
        <trkpt lat="29.338692" lon="103.470285"><ele>529.39923</ele><time>2026-07-01T23:49:51.000Z</time></trkpt>
        <trkpt lat="29.338671" lon="103.470293"><ele>528.7815</ele><time>2026-07-01T23:49:53.000Z</time></trkpt>
        <trkpt lat="29.338652" lon="103.4703"><ele>528.1972</ele><time>2026-07-01T23:49:55.000Z</time></trkpt>
        <trkpt lat="29.338629" lon="103.470308"><ele>527.64905</ele><time>2026-07-01T23:49:57.000Z</time></trkpt>
        <trkpt lat="29.338605" lon="103.470316"><ele>527.30835</ele><time>2026-07-01T23:49:59.000Z</time></trkpt>
        <trkpt lat="29.338583" lon="103.470322"><ele>526.93494</ele><time>2026-07-01T23:50:01.000Z</time></trkpt>
        <trkpt lat="29.338561" lon="103.470328"><ele>526.9222</ele><time>2026-07-01T23:50:03.000Z</time></trkpt>
        <trkpt lat="29.33854" lon="103.470334"><ele>526.5679</ele><time>2026-07-01T23:50:05.000Z</time></trkpt>
        <trkpt lat="29.338524" lon="103.47034"><ele>526.284</ele><time>2026-07-01T23:50:07.000Z</time></trkpt>
        <trkpt lat="29.338513" lon="103.470344"><ele>526.0617</ele><time>2026-07-01T23:50:09.000Z</time></trkpt>
        <trkpt lat="29.338501" lon="103.470351"><ele>526.0617</ele><time>2026-07-01T23:50:11.000Z</time></trkpt>
        <trkpt lat="29.338489" lon="103.470356"><ele>526.0617</ele><time>2026-07-01T23:50:13.000Z</time></trkpt>
        <trkpt lat="29.338469" lon="103.470364"><ele>526.25415</ele><time>2026-07-01T23:50:15.000Z</time></trkpt>
        <trkpt lat="29.338448" lon="103.470372"><ele>526.2727</ele><time>2026-07-01T23:50:17.000Z</time></trkpt>
        <trkpt lat="29.338424" lon="103.470379"><ele>526.70526</ele><time>2026-07-01T23:50:19.000Z</time></trkpt>
        <trkpt lat="29.338401" lon="103.470382"><ele>526.70526</ele><time>2026-07-01T23:50:21.000Z</time></trkpt>
        <trkpt lat="29.338381" lon="103.470381"><ele>526.70526</ele><time>2026-07-01T23:50:23.000Z</time></trkpt>
        <trkpt lat="29.33836" lon="103.470385"><ele>526.3662</ele><time>2026-07-01T23:50:25.000Z</time></trkpt>
        <trkpt lat="29.338338" lon="103.470393"><ele>526.0244</ele><time>2026-07-01T23:50:27.000Z</time></trkpt>
        <trkpt lat="29.338309" lon="103.470402"><ele>526.0244</ele><time>2026-07-01T23:50:29.000Z</time></trkpt>
        <trkpt lat="29.338281" lon="103.470408"><ele>526.0244</ele><time>2026-07-01T23:50:31.000Z</time></trkpt>
        <trkpt lat="29.338252" lon="103.470413"><ele>525.9695</ele><time>2026-07-01T23:50:33.000Z</time></trkpt>
        <trkpt lat="29.338224" lon="103.470419"><ele>525.9695</ele><time>2026-07-01T23:50:35.000Z</time></trkpt>
        <trkpt lat="29.338198" lon="103.470424"><ele>525.9695</ele><time>2026-07-01T23:50:37.000Z</time></trkpt>
        <trkpt lat="29.338173" lon="103.470428"><ele>525.9107</ele><time>2026-07-01T23:50:39.000Z</time></trkpt>
        <trkpt lat="29.338149" lon="103.470433"><ele>525.8976</ele><time>2026-07-01T23:50:41.000Z</time></trkpt>
        <trkpt lat="29.33813" lon="103.470436"><ele>525.77734</ele><time>2026-07-01T23:50:43.000Z</time></trkpt>
        <trkpt lat="29.338112" lon="103.47044"><ele>525.533</ele><time>2026-07-01T23:50:45.000Z</time></trkpt>
        <trkpt lat="29.338093" lon="103.470445"><ele>525.28485</ele><time>2026-07-01T23:50:47.000Z</time></trkpt>
        <trkpt lat="29.338072" lon="103.470449"><ele>524.9595</ele><time>2026-07-01T23:50:49.000Z</time></trkpt>
        <trkpt lat="29.338048" lon="103.47045"><ele>524.9539</ele><time>2026-07-01T23:50:51.000Z</time></trkpt>
        <trkpt lat="29.338024" lon="103.470449"><ele>524.9539</ele><time>2026-07-01T23:50:53.000Z</time></trkpt>
        <trkpt lat="29.337999" lon="103.470449"><ele>524.9539</ele><time>2026-07-01T23:50:55.000Z</time></trkpt>
        <trkpt lat="29.337974" lon="103.470449"><ele>525.3448</ele><time>2026-07-01T23:50:57.000Z</time></trkpt>
        <trkpt lat="29.337949" lon="103.470447"><ele>525.7144</ele><time>2026-07-01T23:50:59.000Z</time></trkpt>
        <trkpt lat="29.337927" lon="103.470446"><ele>526.15265</ele><time>2026-07-01T23:51:01.000Z</time></trkpt>
        <trkpt lat="29.337906" lon="103.470446"><ele>526.2248</ele><time>2026-07-01T23:51:03.000Z</time></trkpt>
        <trkpt lat="29.337886" lon="103.470446"><ele>526.4305</ele><time>2026-07-01T23:51:05.000Z</time></trkpt>
        <trkpt lat="29.337865" lon="103.470447"><ele>526.46326</ele><time>2026-07-01T23:51:07.000Z</time></trkpt>
        <trkpt lat="29.337843" lon="103.470453"><ele>526.53656</ele><time>2026-07-01T23:51:09.000Z</time></trkpt>
        <trkpt lat="29.337823" lon="103.470463"><ele>526.6244</ele><time>2026-07-01T23:51:11.000Z</time></trkpt>
        <trkpt lat="29.337809" lon="103.470474"><ele>526.634</ele><time>2026-07-01T23:51:13.000Z</time></trkpt>
        <trkpt lat="29.337793" lon="103.470492"><ele>526.77124</ele><time>2026-07-01T23:51:15.000Z</time></trkpt>
        <trkpt lat="29.337779" lon="103.470512"><ele>526.7782</ele><time>2026-07-01T23:51:17.000Z</time></trkpt>
        <trkpt lat="29.337768" lon="103.470535"><ele>527.10956</ele><time>2026-07-01T23:51:19.000Z</time></trkpt>
        <trkpt lat="29.33776" lon="103.470558"><ele>527.40845</ele><time>2026-07-01T23:51:21.000Z</time></trkpt>
        <trkpt lat="29.337753" lon="103.470583"><ele>528.1141</ele><time>2026-07-01T23:51:23.000Z</time></trkpt>
        <trkpt lat="29.337747" lon="103.470609"><ele>528.5071</ele><time>2026-07-01T23:51:25.000Z</time></trkpt>
        <trkpt lat="29.33774" lon="103.470629"><ele>528.68176</ele><time>2026-07-01T23:51:27.000Z</time></trkpt>
        <trkpt lat="29.337734" lon="103.470649"><ele>528.9212</ele><time>2026-07-01T23:51:29.000Z</time></trkpt>
        <trkpt lat="29.33773" lon="103.47067"><ele>529.2073</ele><time>2026-07-01T23:51:31.000Z</time></trkpt>
        <trkpt lat="29.337725" lon="103.470694"><ele>529.7012</ele><time>2026-07-01T23:51:33.000Z</time></trkpt>
        <trkpt lat="29.337721" lon="103.470719"><ele>530.0402</ele><time>2026-07-01T23:51:35.000Z</time></trkpt>
        <trkpt lat="29.33772" lon="103.470744"><ele>530.52655</ele><time>2026-07-01T23:51:37.000Z</time></trkpt>
        <trkpt lat="29.337719" lon="103.470766"><ele>531.32745</ele><time>2026-07-01T23:51:39.000Z</time></trkpt>
        <trkpt lat="29.337718" lon="103.470783"><ele>531.9941</ele><time>2026-07-01T23:51:41.000Z</time></trkpt>
        <trkpt lat="29.337714" lon="103.470801"><ele>532.2541</ele><time>2026-07-01T23:51:43.000Z</time></trkpt>
        <trkpt lat="29.337709" lon="103.470822"><ele>532.7591</ele><time>2026-07-01T23:51:45.000Z</time></trkpt>
        <trkpt lat="29.337703" lon="103.470837"><ele>533.1273</ele><time>2026-07-01T23:51:47.000Z</time></trkpt>
        <trkpt lat="29.337697" lon="103.47085"><ele>534.09534</ele><time>2026-07-01T23:51:49.000Z</time></trkpt>
        <trkpt lat="29.337688" lon="103.470863"><ele>534.7275</ele><time>2026-07-01T23:51:51.000Z</time></trkpt>
        <trkpt lat="29.337679" lon="103.470874"><ele>535.0736</ele><time>2026-07-01T23:51:53.000Z</time></trkpt>
        <trkpt lat="29.337673" lon="103.470874"><ele>535.0736</ele><time>2026-07-01T23:51:55.000Z</time></trkpt>
        <trkpt lat="29.33763" lon="103.470873"><ele>535.0736</ele><time>2026-07-01T23:52:30.000Z</time></trkpt>
        <trkpt lat="29.33763" lon="103.470873"><ele>535.03503</ele><time>2026-07-01T23:52:32.000Z</time></trkpt>
        <trkpt lat="29.337628" lon="103.470873"><ele>532.8489</ele><time>2026-07-01T23:52:34.000Z</time></trkpt>
        <trkpt lat="29.337581" lon="103.470878"><ele>532.8489</ele><time>2026-07-01T23:52:37.000Z</time></trkpt>
        <trkpt lat="29.337581" lon="103.470878"><ele>532.8489</ele><time>2026-07-01T23:52:39.000Z</time></trkpt>
        <trkpt lat="29.337577" lon="103.470877"><ele>533.11957</ele><time>2026-07-01T23:52:41.000Z</time></trkpt>
        <trkpt lat="29.337529" lon="103.470876"><ele>533.11957</ele><time>2026-07-01T23:52:45.000Z</time></trkpt>
        <trkpt lat="29.337497" lon="103.470876"><ele>533.11957</ele><time>2026-07-01T23:52:47.000Z</time></trkpt>
        <trkpt lat="29.337465" lon="103.470873"><ele>532.8493</ele><time>2026-07-01T23:52:49.000Z</time></trkpt>
        <trkpt lat="29.337439" lon="103.47087"><ele>532.59247</ele><time>2026-07-01T23:52:51.000Z</time></trkpt>
        <trkpt lat="29.337413" lon="103.470866"><ele>532.59247</ele><time>2026-07-01T23:52:53.000Z</time></trkpt>
        <trkpt lat="29.337389" lon="103.470861"><ele>532.59247</ele><time>2026-07-01T23:52:55.000Z</time></trkpt>
        <trkpt lat="29.337365" lon="103.470854"><ele>532.92584</ele><time>2026-07-01T23:52:57.000Z</time></trkpt>
        <trkpt lat="29.33734" lon="103.470845"><ele>532.9337</ele><time>2026-07-01T23:52:59.000Z</time></trkpt>
        <trkpt lat="29.337321" lon="103.470838"><ele>532.9766</ele><time>2026-07-01T23:53:01.000Z</time></trkpt>
        <trkpt lat="29.337306" lon="103.47083"><ele>533.2509</ele><time>2026-07-01T23:53:03.000Z</time></trkpt>
        <trkpt lat="29.337295" lon="103.470817"><ele>533.3409</ele><time>2026-07-01T23:53:05.000Z</time></trkpt>
        <trkpt lat="29.337288" lon="103.470795"><ele>533.3954</ele><time>2026-07-01T23:53:07.000Z</time></trkpt>
        <trkpt lat="29.337282" lon="103.470775"><ele>533.6403</ele><time>2026-07-01T23:53:09.000Z</time></trkpt>
        <trkpt lat="29.337283" lon="103.470768"><ele>533.7426</ele><time>2026-07-01T23:53:11.000Z</time></trkpt>
        <trkpt lat="29.337263" lon="103.470865"><ele>533.7836</ele><time>2026-07-01T23:53:33.000Z</time></trkpt>
        <trkpt lat="29.337252" lon="103.470916"><ele>533.78577</ele><time>2026-07-01T23:53:37.000Z</time></trkpt>
        <trkpt lat="29.337252" lon="103.470916"><ele>537.3982</ele><time>2026-07-01T23:53:39.000Z</time></trkpt>
        <trkpt lat="29.337252" lon="103.470916"><ele>538.6547</ele><time>2026-07-01T23:53:41.000Z</time></trkpt>
        <trkpt lat="29.337268" lon="103.470884"><ele>538.6547</ele><time>2026-07-01T23:53:51.000Z</time></trkpt>
        <trkpt lat="29.337296" lon="103.470832"><ele>538.6547</ele><time>2026-07-01T23:54:05.000Z</time></trkpt>
        <trkpt lat="29.337296" lon="103.470832"><ele>539.768</ele><time>2026-07-01T23:54:07.000Z</time></trkpt>
        <trkpt lat="29.337295" lon="103.470836"><ele>539.76984</ele><time>2026-07-01T23:54:09.000Z</time></trkpt>
        <trkpt lat="29.337288" lon="103.470871"><ele>539.76984</ele><time>2026-07-01T23:54:17.000Z</time></trkpt>
        <trkpt lat="29.337289" lon="103.470877"><ele>539.768</ele><time>2026-07-01T23:54:19.000Z</time></trkpt>
        <trkpt lat="29.337288" lon="103.470882"><ele>538.6766</ele><time>2026-07-01T23:54:21.000Z</time></trkpt>
        <trkpt lat="29.337296" lon="103.470805"><ele>538.56915</ele><time>2026-07-01T23:54:50.000Z</time></trkpt>
        <trkpt lat="29.337307" lon="103.470784"><ele>538.5543</ele><time>2026-07-01T23:55:05.000Z</time></trkpt>
        <trkpt lat="29.337283" lon="103.470817"><ele>535.7915</ele><time>2026-07-01T23:55:20.000Z</time></trkpt>
        <trkpt lat="29.337266" lon="103.47084"><ele>535.7915</ele><time>2026-07-01T23:55:35.000Z</time></trkpt>
        <trkpt lat="29.337254" lon="103.470824"><ele>535.7915</ele><time>2026-07-01T23:55:37.000Z</time></trkpt>
        <trkpt lat="29.337251" lon="103.470823"><ele>537.6481</ele><time>2026-07-01T23:55:41.000Z</time></trkpt>
        <trkpt lat="29.33719" lon="103.470796"><ele>538.0596</ele><time>2026-07-01T23:55:45.000Z</time></trkpt>
        <trkpt lat="29.33719" lon="103.470796"><ele>538.1102</ele><time>2026-07-01T23:55:47.000Z</time></trkpt>
        <trkpt lat="29.337189" lon="103.470796"><ele>539.1986</ele><time>2026-07-01T23:55:49.000Z</time></trkpt>
        <trkpt lat="29.337218" lon="103.470782"><ele>539.2278</ele><time>2026-07-01T23:56:34.000Z</time></trkpt>
        <trkpt lat="29.33716" lon="103.470773"><ele>539.2298</ele><time>2026-07-01T23:56:59.000Z</time></trkpt>
        <trkpt lat="29.337146" lon="103.470748"><ele>540.5936</ele><time>2026-07-01T23:57:01.000Z</time></trkpt>
        <trkpt lat="29.337122" lon="103.470706"><ele>542.3892</ele><time>2026-07-01T23:57:04.000Z</time></trkpt>
        <trkpt lat="29.337122" lon="103.470706"><ele>542.51166</ele><time>2026-07-01T23:57:06.000Z</time></trkpt>
        <trkpt lat="29.33712" lon="103.470704"><ele>542.51166</ele><time>2026-07-01T23:57:08.000Z</time></trkpt>
        <trkpt lat="29.337087" lon="103.470674"><ele>542.51166</ele><time>2026-07-01T23:57:13.000Z</time></trkpt>
        <trkpt lat="29.337063" lon="103.470652"><ele>542.4927</ele><time>2026-07-01T23:57:15.000Z</time></trkpt>
        <trkpt lat="29.337039" lon="103.470628"><ele>541.6768</ele><time>2026-07-01T23:57:17.000Z</time></trkpt>
        <trkpt lat="29.337017" lon="103.470608"><ele>540.95734</ele><time>2026-07-01T23:57:19.000Z</time></trkpt>
        <trkpt lat="29.336998" lon="103.470589"><ele>540.185</ele><time>2026-07-01T23:57:21.000Z</time></trkpt>
        <trkpt lat="29.336983" lon="103.470575"><ele>539.6523</ele><time>2026-07-01T23:57:23.000Z</time></trkpt>
        <trkpt lat="29.336975" lon="103.470568"><ele>538.9676</ele><time>2026-07-01T23:57:25.000Z</time></trkpt>
        <trkpt lat="29.336963" lon="103.470558"><ele>538.4248</ele><time>2026-07-01T23:57:27.000Z</time></trkpt>
        <trkpt lat="29.336948" lon="103.470545"><ele>537.9133</ele><time>2026-07-01T23:57:29.000Z</time></trkpt>
        <trkpt lat="29.336929" lon="103.470529"><ele>537.7681</ele><time>2026-07-01T23:57:31.000Z</time></trkpt>
        <trkpt lat="29.336908" lon="103.470514"><ele>537.6807</ele><time>2026-07-01T23:57:33.000Z</time></trkpt>
        <trkpt lat="29.336888" lon="103.4705"><ele>537.62274</ele><time>2026-07-01T23:57:35.000Z</time></trkpt>
        <trkpt lat="29.336867" lon="103.470487"><ele>537.62274</ele><time>2026-07-01T23:57:37.000Z</time></trkpt>
        <trkpt lat="29.336845" lon="103.470473"><ele>537.69617</ele><time>2026-07-01T23:57:39.000Z</time></trkpt>
        <trkpt lat="29.336824" lon="103.470461"><ele>537.69617</ele><time>2026-07-01T23:57:41.000Z</time></trkpt>
        <trkpt lat="29.336805" lon="103.470451"><ele>537.8752</ele><time>2026-07-01T23:57:43.000Z</time></trkpt>
        <trkpt lat="29.336786" lon="103.470441"><ele>538.2527</ele><time>2026-07-01T23:57:45.000Z</time></trkpt>
        <trkpt lat="29.336768" lon="103.470432"><ele>538.5373</ele><time>2026-07-01T23:57:47.000Z</time></trkpt>
        <trkpt lat="29.33675" lon="103.47042"><ele>538.93896</ele><time>2026-07-01T23:57:49.000Z</time></trkpt>
        <trkpt lat="29.336735" lon="103.470408"><ele>539.3701</ele><time>2026-07-01T23:57:51.000Z</time></trkpt>
        <trkpt lat="29.336722" lon="103.470396"><ele>539.72394</ele><time>2026-07-01T23:57:53.000Z</time></trkpt>
        <trkpt lat="29.336708" lon="103.470383"><ele>540.2924</ele><time>2026-07-01T23:57:55.000Z</time></trkpt>
        <trkpt lat="29.336695" lon="103.470371"><ele>540.62756</ele><time>2026-07-01T23:57:57.000Z</time></trkpt>
        <trkpt lat="29.33668" lon="103.470356"><ele>541.1996</ele><time>2026-07-01T23:57:59.000Z</time></trkpt>
        <trkpt lat="29.336667" lon="103.470341"><ele>541.4386</ele><time>2026-07-01T23:58:01.000Z</time></trkpt>
        <trkpt lat="29.336656" lon="103.470326"><ele>542.08</ele><time>2026-07-01T23:58:03.000Z</time></trkpt>
        <trkpt lat="29.336653" lon="103.470321"><ele>542.19745</ele><time>2026-07-01T23:58:05.000Z</time></trkpt>
        <trkpt lat="29.336644" lon="103.47031"><ele>542.5165</ele><time>2026-07-01T23:58:07.000Z</time></trkpt>
        <trkpt lat="29.336634" lon="103.470296"><ele>542.59607</ele><time>2026-07-01T23:58:09.000Z</time></trkpt>
        <trkpt lat="29.336625" lon="103.470282"><ele>542.9102</ele><time>2026-07-01T23:58:11.000Z</time></trkpt>
        <trkpt lat="29.336615" lon="103.470264"><ele>543.1926</ele><time>2026-07-01T23:58:13.000Z</time></trkpt>
        <trkpt lat="29.336604" lon="103.470246"><ele>543.5764</ele><time>2026-07-01T23:58:15.000Z</time></trkpt>
        <trkpt lat="29.336594" lon="103.470224"><ele>544.06067</ele><time>2026-07-01T23:58:17.000Z</time></trkpt>
        <trkpt lat="29.336586" lon="103.4702"><ele>544.4677</ele><time>2026-07-01T23:58:19.000Z</time></trkpt>
        <trkpt lat="29.336579" lon="103.470178"><ele>544.7949</ele><time>2026-07-01T23:58:21.000Z</time></trkpt>
        <trkpt lat="29.336571" lon="103.470155"><ele>545.1314</ele><time>2026-07-01T23:58:23.000Z</time></trkpt>
        <trkpt lat="29.336563" lon="103.470133"><ele>545.49066</ele><time>2026-07-01T23:58:25.000Z</time></trkpt>
        <trkpt lat="29.336553" lon="103.47011"><ele>545.6906</ele><time>2026-07-01T23:58:27.000Z</time></trkpt>
        <trkpt lat="29.336542" lon="103.470087"><ele>545.7158</ele><time>2026-07-01T23:58:29.000Z</time></trkpt>
        <trkpt lat="29.336531" lon="103.470066"><ele>545.7409</ele><time>2026-07-01T23:58:31.000Z</time></trkpt>
        <trkpt lat="29.33652" lon="103.470041"><ele>545.85455</ele><time>2026-07-01T23:58:33.000Z</time></trkpt>
        <trkpt lat="29.336511" lon="103.470019"><ele>546.2551</ele><time>2026-07-01T23:58:35.000Z</time></trkpt>
        <trkpt lat="29.336503" lon="103.469996"><ele>546.5545</ele><time>2026-07-01T23:58:37.000Z</time></trkpt>
        <trkpt lat="29.336493" lon="103.469973"><ele>546.6415</ele><time>2026-07-01T23:58:39.000Z</time></trkpt>
        <trkpt lat="29.336483" lon="103.469951"><ele>546.6621</ele><time>2026-07-01T23:58:41.000Z</time></trkpt>
        <trkpt lat="29.336473" lon="103.469931"><ele>546.6621</ele><time>2026-07-01T23:58:43.000Z</time></trkpt>
        <trkpt lat="29.336459" lon="103.469911"><ele>546.6621</ele><time>2026-07-01T23:58:45.000Z</time></trkpt>
        <trkpt lat="29.336444" lon="103.469894"><ele>546.20526</ele><time>2026-07-01T23:58:47.000Z</time></trkpt>
        <trkpt lat="29.336427" lon="103.469878"><ele>545.8906</ele><time>2026-07-01T23:58:49.000Z</time></trkpt>
        <trkpt lat="29.33641" lon="103.469864"><ele>545.3433</ele><time>2026-07-01T23:58:51.000Z</time></trkpt>
        <trkpt lat="29.336393" lon="103.469849"><ele>544.971</ele><time>2026-07-01T23:58:53.000Z</time></trkpt>
        <trkpt lat="29.336375" lon="103.469834"><ele>544.43475</ele><time>2026-07-01T23:58:55.000Z</time></trkpt>
        <trkpt lat="29.336357" lon="103.469819"><ele>544.1712</ele><time>2026-07-01T23:58:57.000Z</time></trkpt>
        <trkpt lat="29.336338" lon="103.469803"><ele>543.97626</ele><time>2026-07-01T23:58:59.000Z</time></trkpt>
        <trkpt lat="29.33632" lon="103.469785"><ele>543.96246</ele><time>2026-07-01T23:59:01.000Z</time></trkpt>
        <trkpt lat="29.336303" lon="103.469769"><ele>543.50165</ele><time>2026-07-01T23:59:03.000Z</time></trkpt>
        <trkpt lat="29.336286" lon="103.469752"><ele>543.26794</ele><time>2026-07-01T23:59:05.000Z</time></trkpt>
        <trkpt lat="29.336267" lon="103.469735"><ele>543.02594</ele><time>2026-07-01T23:59:07.000Z</time></trkpt>
        <trkpt lat="29.33625" lon="103.469721"><ele>542.5162</ele><time>2026-07-01T23:59:09.000Z</time></trkpt>
        <trkpt lat="29.336233" lon="103.469705"><ele>541.98694</ele><time>2026-07-01T23:59:11.000Z</time></trkpt>
        <trkpt lat="29.336215" lon="103.469692"><ele>541.5324</ele><time>2026-07-01T23:59:13.000Z</time></trkpt>
        <trkpt lat="29.336196" lon="103.469678"><ele>541.1371</ele><time>2026-07-01T23:59:15.000Z</time></trkpt>
        <trkpt lat="29.336179" lon="103.469664"><ele>540.77386</ele><time>2026-07-01T23:59:17.000Z</time></trkpt>
        <trkpt lat="29.336162" lon="103.469648"><ele>540.7696</ele><time>2026-07-01T23:59:19.000Z</time></trkpt>
        <trkpt lat="29.336143" lon="103.469631"><ele>540.75104</ele><time>2026-07-01T23:59:21.000Z</time></trkpt>
        <trkpt lat="29.336124" lon="103.469613"><ele>540.7201</ele><time>2026-07-01T23:59:23.000Z</time></trkpt>
        <trkpt lat="29.336105" lon="103.469596"><ele>540.64734</ele><time>2026-07-01T23:59:25.000Z</time></trkpt>
        <trkpt lat="29.336085" lon="103.46958"><ele>540.7201</ele><time>2026-07-01T23:59:27.000Z</time></trkpt>
        <trkpt lat="29.336063" lon="103.469566"><ele>540.75104</ele><time>2026-07-01T23:59:29.000Z</time></trkpt>
        <trkpt lat="29.336043" lon="103.469553"><ele>540.7924</ele><time>2026-07-01T23:59:31.000Z</time></trkpt>
        <trkpt lat="29.336022" lon="103.469541"><ele>540.94275</ele><time>2026-07-01T23:59:33.000Z</time></trkpt>
        <trkpt lat="29.335999" lon="103.469526"><ele>541.0444</ele><time>2026-07-01T23:59:35.000Z</time></trkpt>
        <trkpt lat="29.335978" lon="103.469512"><ele>541.1562</ele><time>2026-07-01T23:59:37.000Z</time></trkpt>
        <trkpt lat="29.335955" lon="103.469498"><ele>541.2122</ele><time>2026-07-01T23:59:39.000Z</time></trkpt>
        <trkpt lat="29.335931" lon="103.469484"><ele>541.2122</ele><time>2026-07-01T23:59:41.000Z</time></trkpt>
        <trkpt lat="29.335903" lon="103.469471"><ele>541.2122</ele><time>2026-07-01T23:59:43.000Z</time></trkpt>
        <trkpt lat="29.335875" lon="103.469462"><ele>541.0319</ele><time>2026-07-01T23:59:45.000Z</time></trkpt>
        <trkpt lat="29.335847" lon="103.469454"><ele>540.98267</ele><time>2026-07-01T23:59:47.000Z</time></trkpt>
        <trkpt lat="29.335821" lon="103.469449"><ele>540.6417</ele><time>2026-07-01T23:59:49.000Z</time></trkpt>
        <trkpt lat="29.335796" lon="103.469447"><ele>540.15216</ele><time>2026-07-01T23:59:51.000Z</time></trkpt>
        <trkpt lat="29.335773" lon="103.469447"><ele>540.0011</ele><time>2026-07-01T23:59:53.000Z</time></trkpt>
        <trkpt lat="29.335752" lon="103.469448"><ele>539.7105</ele><time>2026-07-01T23:59:55.000Z</time></trkpt>
        <trkpt lat="29.335731" lon="103.469449"><ele>539.7105</ele><time>2026-07-01T23:59:57.000Z</time></trkpt>
        <trkpt lat="29.335709" lon="103.469449"><ele>539.7105</ele><time>2026-07-01T23:59:59.000Z</time></trkpt>
        <trkpt lat="29.335689" lon="103.469448"><ele>539.9916</ele><time>2026-07-02T00:00:01.000Z</time></trkpt>
        <trkpt lat="29.335667" lon="103.469444"><ele>540.02094</ele><time>2026-07-02T00:00:03.000Z</time></trkpt>
        <trkpt lat="29.335644" lon="103.469437"><ele>540.0817</ele><time>2026-07-02T00:00:05.000Z</time></trkpt>
        <trkpt lat="29.33562" lon="103.469428"><ele>540.37067</ele><time>2026-07-02T00:00:07.000Z</time></trkpt>
        <trkpt lat="29.3356" lon="103.469422"><ele>540.4747</ele><time>2026-07-02T00:00:09.000Z</time></trkpt>
        <trkpt lat="29.335583" lon="103.469418"><ele>540.67</ele><time>2026-07-02T00:00:11.000Z</time></trkpt>
        <trkpt lat="29.33557" lon="103.469415"><ele>541.23224</ele><time>2026-07-02T00:00:13.000Z</time></trkpt>
        <trkpt lat="29.335554" lon="103.469408"><ele>541.74713</ele><time>2026-07-02T00:00:15.000Z</time></trkpt>
        <trkpt lat="29.335535" lon="103.469396"><ele>542.2019</ele><time>2026-07-02T00:00:17.000Z</time></trkpt>
        <trkpt lat="29.335513" lon="103.469381"><ele>542.465</ele><time>2026-07-02T00:00:19.000Z</time></trkpt>
        <trkpt lat="29.335491" lon="103.469368"><ele>542.465</ele><time>2026-07-02T00:00:21.000Z</time></trkpt>
        <trkpt lat="29.335469" lon="103.469357"><ele>542.465</ele><time>2026-07-02T00:00:23.000Z</time></trkpt>
        <trkpt lat="29.335447" lon="103.46935"><ele>542.3932</ele><time>2026-07-02T00:00:25.000Z</time></trkpt>
        <trkpt lat="29.335427" lon="103.469347"><ele>542.13275</ele><time>2026-07-02T00:00:27.000Z</time></trkpt>
        <trkpt lat="29.335407" lon="103.46935"><ele>541.91644</ele><time>2026-07-02T00:00:29.000Z</time></trkpt>
        <trkpt lat="29.335386" lon="103.469357"><ele>541.4072</ele><time>2026-07-02T00:00:31.000Z</time></trkpt>
        <trkpt lat="29.335366" lon="103.469367"><ele>540.96655</ele><time>2026-07-02T00:00:33.000Z</time></trkpt>
        <trkpt lat="29.335347" lon="103.46938"><ele>540.6443</ele><time>2026-07-02T00:00:35.000Z</time></trkpt>
        <trkpt lat="29.335331" lon="103.469394"><ele>540.3663</ele><time>2026-07-02T00:00:37.000Z</time></trkpt>
        <trkpt lat="29.335315" lon="103.469408"><ele>540.10516</ele><time>2026-07-02T00:00:39.000Z</time></trkpt>
        <trkpt lat="29.3353" lon="103.469422"><ele>539.8244</ele><time>2026-07-02T00:00:41.000Z</time></trkpt>
        <trkpt lat="29.335285" lon="103.469435"><ele>539.6223</ele><time>2026-07-02T00:00:43.000Z</time></trkpt>
        <trkpt lat="29.335271" lon="103.469449"><ele>539.46185</ele><time>2026-07-02T00:00:45.000Z</time></trkpt>
        <trkpt lat="29.335254" lon="103.469466"><ele>539.4478</ele><time>2026-07-02T00:00:47.000Z</time></trkpt>
        <trkpt lat="29.335236" lon="103.469483"><ele>539.4478</ele><time>2026-07-02T00:00:49.000Z</time></trkpt>
        <trkpt lat="29.335217" lon="103.469501"><ele>539.46185</ele><time>2026-07-02T00:00:51.000Z</time></trkpt>
        <trkpt lat="29.335197" lon="103.46952"><ele>539.4921</ele><time>2026-07-02T00:00:53.000Z</time></trkpt>
        <trkpt lat="29.335178" lon="103.469538"><ele>539.6227</ele><time>2026-07-02T00:00:55.000Z</time></trkpt>
        <trkpt lat="29.335161" lon="103.469554"><ele>539.8431</ele><time>2026-07-02T00:00:57.000Z</time></trkpt>
        <trkpt lat="29.335146" lon="103.469568"><ele>539.8431</ele><time>2026-07-02T00:00:59.000Z</time></trkpt>
        <trkpt lat="29.335129" lon="103.469584"><ele>539.8431</ele><time>2026-07-02T00:01:01.000Z</time></trkpt>
        <trkpt lat="29.33511" lon="103.469604"><ele>539.76184</ele><time>2026-07-02T00:01:03.000Z</time></trkpt>
        <trkpt lat="29.335091" lon="103.469627"><ele>539.76184</ele><time>2026-07-02T00:01:05.000Z</time></trkpt>
        <trkpt lat="29.335072" lon="103.469653"><ele>539.76184</ele><time>2026-07-02T00:01:07.000Z</time></trkpt>
        <trkpt lat="29.335056" lon="103.469682"><ele>540.0677</ele><time>2026-07-02T00:01:09.000Z</time></trkpt>
        <trkpt lat="29.335049" lon="103.469714"><ele>540.47003</ele><time>2026-07-02T00:01:11.000Z</time></trkpt>
        <trkpt lat="29.335048" lon="103.469743"><ele>541.3571</ele><time>2026-07-02T00:01:13.000Z</time></trkpt>
        <trkpt lat="29.335051" lon="103.469768"><ele>542.2805</ele><time>2026-07-02T00:01:15.000Z</time></trkpt>
        <trkpt lat="29.335057" lon="103.469791"><ele>542.9013</ele><time>2026-07-02T00:01:17.000Z</time></trkpt>
        <trkpt lat="29.335066" lon="103.469814"><ele>543.09845</ele><time>2026-07-02T00:01:19.000Z</time></trkpt>
        <trkpt lat="29.335075" lon="103.469838"><ele>543.15027</ele><time>2026-07-02T00:01:21.000Z</time></trkpt>
        <trkpt lat="29.335083" lon="103.469863"><ele>543.15027</ele><time>2026-07-02T00:01:23.000Z</time></trkpt>
        <trkpt lat="29.33509" lon="103.46989"><ele>543.15027</ele><time>2026-07-02T00:01:25.000Z</time></trkpt>
        <trkpt lat="29.335096" lon="103.469917"><ele>543.0091</ele><time>2026-07-02T00:01:27.000Z</time></trkpt>
        <trkpt lat="29.3351" lon="103.469943"><ele>543.0091</ele><time>2026-07-02T00:01:29.000Z</time></trkpt>
        <trkpt lat="29.335103" lon="103.469964"><ele>543.0091</ele><time>2026-07-02T00:01:31.000Z</time></trkpt>
        <trkpt lat="29.335105" lon="103.469975"><ele>543.10846</ele><time>2026-07-02T00:01:33.000Z</time></trkpt>
        <trkpt lat="29.335108" lon="103.47"><ele>543.1829</ele><time>2026-07-02T00:01:35.000Z</time></trkpt>
        <trkpt lat="29.335111" lon="103.470034"><ele>543.5844</ele><time>2026-07-02T00:01:37.000Z</time></trkpt>
        <trkpt lat="29.335115" lon="103.470068"><ele>543.71954</ele><time>2026-07-02T00:01:39.000Z</time></trkpt>
        <trkpt lat="29.335119" lon="103.470105"><ele>544.0254</ele><time>2026-07-02T00:01:41.000Z</time></trkpt>
        <trkpt lat="29.335122" lon="103.470135"><ele>544.20996</ele><time>2026-07-02T00:01:43.000Z</time></trkpt>
        <trkpt lat="29.335124" lon="103.470165"><ele>544.3065</ele><time>2026-07-02T00:01:45.000Z</time></trkpt>
        <trkpt lat="29.335128" lon="103.47019"><ele>544.3244</ele><time>2026-07-02T00:01:47.000Z</time></trkpt>
        <trkpt lat="29.335132" lon="103.470212"><ele>544.441</ele><time>2026-07-02T00:01:49.000Z</time></trkpt>
        <trkpt lat="29.335138" lon="103.470236"><ele>544.6507</ele><time>2026-07-02T00:01:51.000Z</time></trkpt>
        <trkpt lat="29.335142" lon="103.470259"><ele>545.02673</ele><time>2026-07-02T00:01:53.000Z</time></trkpt>
        <trkpt lat="29.335147" lon="103.470281"><ele>545.4131</ele><time>2026-07-02T00:01:55.000Z</time></trkpt>
        <trkpt lat="29.335157" lon="103.470302"><ele>545.9547</ele><time>2026-07-02T00:01:57.000Z</time></trkpt>
        <trkpt lat="29.335169" lon="103.470322"><ele>546.0688</ele><time>2026-07-02T00:01:59.000Z</time></trkpt>
        <trkpt lat="29.335181" lon="103.470343"><ele>546.4922</ele><time>2026-07-02T00:02:01.000Z</time></trkpt>
        <trkpt lat="29.335191" lon="103.470364"><ele>546.78784</ele><time>2026-07-02T00:02:03.000Z</time></trkpt>
        <trkpt lat="29.335198" lon="103.470387"><ele>546.9813</ele><time>2026-07-02T00:02:05.000Z</time></trkpt>
        <trkpt lat="29.335207" lon="103.470414"><ele>547.01</ele><time>2026-07-02T00:02:07.000Z</time></trkpt>
        <trkpt lat="29.335215" lon="103.470445"><ele>547.3083</ele><time>2026-07-02T00:02:09.000Z</time></trkpt>
        <trkpt lat="29.335223" lon="103.470473"><ele>547.8368</ele><time>2026-07-02T00:02:11.000Z</time></trkpt>
        <trkpt lat="29.335229" lon="103.470502"><ele>548.2491</ele><time>2026-07-02T00:02:13.000Z</time></trkpt>
        <trkpt lat="29.335231" lon="103.470525"><ele>548.62714</ele><time>2026-07-02T00:02:15.000Z</time></trkpt>
        <trkpt lat="29.335233" lon="103.470548"><ele>548.93475</ele><time>2026-07-02T00:02:17.000Z</time></trkpt>
        <trkpt lat="29.335237" lon="103.470574"><ele>549.5432</ele><time>2026-07-02T00:02:19.000Z</time></trkpt>
        <trkpt lat="29.335241" lon="103.470598"><ele>550.0787</ele><time>2026-07-02T00:02:21.000Z</time></trkpt>
        <trkpt lat="29.335244" lon="103.47062"><ele>550.4357</ele><time>2026-07-02T00:02:23.000Z</time></trkpt>
        <trkpt lat="29.335247" lon="103.470645"><ele>550.4357</ele><time>2026-07-02T00:02:25.000Z</time></trkpt>
        <trkpt lat="29.335248" lon="103.47067"><ele>550.4357</ele><time>2026-07-02T00:02:27.000Z</time></trkpt>
        <trkpt lat="29.33525" lon="103.470696"><ele>550.3451</ele><time>2026-07-02T00:02:29.000Z</time></trkpt>
        <trkpt lat="29.335252" lon="103.470725"><ele>550.3451</ele><time>2026-07-02T00:02:31.000Z</time></trkpt>
        <trkpt lat="29.335254" lon="103.47075"><ele>550.3451</ele><time>2026-07-02T00:02:33.000Z</time></trkpt>
        <trkpt lat="29.335257" lon="103.470775"><ele>550.3451</ele><time>2026-07-02T00:02:35.000Z</time></trkpt>
        <trkpt lat="29.335262" lon="103.470803"><ele>550.3451</ele><time>2026-07-02T00:02:37.000Z</time></trkpt>
        <trkpt lat="29.335269" lon="103.470829"><ele>550.27466</ele><time>2026-07-02T00:02:39.000Z</time></trkpt>
        <trkpt lat="29.335276" lon="103.470854"><ele>550.2166</ele><time>2026-07-02T00:02:41.000Z</time></trkpt>
        <trkpt lat="29.335284" lon="103.470877"><ele>550.1942</ele><time>2026-07-02T00:02:43.000Z</time></trkpt>
        <trkpt lat="29.335293" lon="103.470901"><ele>550.1131</ele><time>2026-07-02T00:02:45.000Z</time></trkpt>
        <trkpt lat="29.335302" lon="103.470928"><ele>550.0511</ele><time>2026-07-02T00:02:47.000Z</time></trkpt>
        <trkpt lat="29.335309" lon="103.470952"><ele>550.0511</ele><time>2026-07-02T00:02:49.000Z</time></trkpt>
        <trkpt lat="29.335315" lon="103.470975"><ele>550.0511</ele><time>2026-07-02T00:02:51.000Z</time></trkpt>
        <trkpt lat="29.335324" lon="103.470999"><ele>550.0676</ele><time>2026-07-02T00:02:53.000Z</time></trkpt>
        <trkpt lat="29.335332" lon="103.471021"><ele>550.1715</ele><time>2026-07-02T00:02:55.000Z</time></trkpt>
        <trkpt lat="29.335338" lon="103.471037"><ele>550.2242</ele><time>2026-07-02T00:02:57.000Z</time></trkpt>
        <trkpt lat="29.335344" lon="103.471058"><ele>550.2242</ele><time>2026-07-02T00:02:59.000Z</time></trkpt>
        <trkpt lat="29.335351" lon="103.471085"><ele>550.2735</ele><time>2026-07-02T00:03:01.000Z</time></trkpt>
        <trkpt lat="29.335359" lon="103.471113"><ele>550.2735</ele><time>2026-07-02T00:03:03.000Z</time></trkpt>
        <trkpt lat="29.335367" lon="103.471148"><ele>550.49646</ele><time>2026-07-02T00:03:05.000Z</time></trkpt>
        <trkpt lat="29.335373" lon="103.471181"><ele>550.96735</ele><time>2026-07-02T00:03:07.000Z</time></trkpt>
        <trkpt lat="29.335378" lon="103.471212"><ele>551.15204</ele><time>2026-07-02T00:03:09.000Z</time></trkpt>
        <trkpt lat="29.335384" lon="103.471245"><ele>551.57263</ele><time>2026-07-02T00:03:11.000Z</time></trkpt>
        <trkpt lat="29.335391" lon="103.471278"><ele>552.0201</ele><time>2026-07-02T00:03:13.000Z</time></trkpt>
        <trkpt lat="29.335398" lon="103.471304"><ele>552.37726</ele><time>2026-07-02T00:03:15.000Z</time></trkpt>
        <trkpt lat="29.335403" lon="103.471328"><ele>552.7925</ele><time>2026-07-02T00:03:17.000Z</time></trkpt>
        <trkpt lat="29.335404" lon="103.471351"><ele>552.8606</ele><time>2026-07-02T00:03:19.000Z</time></trkpt>
        <trkpt lat="29.335402" lon="103.471376"><ele>552.91406</ele><time>2026-07-02T00:03:21.000Z</time></trkpt>
        <trkpt lat="29.335396" lon="103.471402"><ele>552.91406</ele><time>2026-07-02T00:03:23.000Z</time></trkpt>
        <trkpt lat="29.335385" lon="103.471427"><ele>552.91406</ele><time>2026-07-02T00:03:25.000Z</time></trkpt>
        <trkpt lat="29.33537" lon="103.471446"><ele>552.8684</ele><time>2026-07-02T00:03:27.000Z</time></trkpt>
        <trkpt lat="29.335353" lon="103.471462"><ele>552.5098</ele><time>2026-07-02T00:03:29.000Z</time></trkpt>
        <trkpt lat="29.335332" lon="103.471474"><ele>552.0564</ele><time>2026-07-02T00:03:31.000Z</time></trkpt>
        <trkpt lat="29.335309" lon="103.471481"><ele>552.00934</ele><time>2026-07-02T00:03:33.000Z</time></trkpt>
        <trkpt lat="29.335284" lon="103.471484"><ele>552.00934</ele><time>2026-07-02T00:03:35.000Z</time></trkpt>
        <trkpt lat="29.335259" lon="103.471484"><ele>552.00934</ele><time>2026-07-02T00:03:37.000Z</time></trkpt>
        <trkpt lat="29.335235" lon="103.471481"><ele>552.1599</ele><time>2026-07-02T00:03:39.000Z</time></trkpt>
        <trkpt lat="29.335208" lon="103.471476"><ele>552.1599</ele><time>2026-07-02T00:03:41.000Z</time></trkpt>
        <trkpt lat="29.335183" lon="103.471469"><ele>552.1599</ele><time>2026-07-02T00:03:43.000Z</time></trkpt>
        <trkpt lat="29.335159" lon="103.471461"><ele>552.15546</ele><time>2026-07-02T00:03:45.000Z</time></trkpt>
        <trkpt lat="29.335136" lon="103.471453"><ele>551.9696</ele><time>2026-07-02T00:03:47.000Z</time></trkpt>
        <trkpt lat="29.335113" lon="103.471445"><ele>551.4386</ele><time>2026-07-02T00:03:49.000Z</time></trkpt>
        <trkpt lat="29.335089" lon="103.471439"><ele>550.876</ele><time>2026-07-02T00:03:51.000Z</time></trkpt>
        <trkpt lat="29.335069" lon="103.471434"><ele>550.814</ele><time>2026-07-02T00:03:53.000Z</time></trkpt>
        <trkpt lat="29.335048" lon="103.47143"><ele>550.7856</ele><time>2026-07-02T00:03:55.000Z</time></trkpt>
        <trkpt lat="29.335024" lon="103.471424"><ele>550.63885</ele><time>2026-07-02T00:03:57.000Z</time></trkpt>
        <trkpt lat="29.334999" lon="103.471417"><ele>550.4802</ele><time>2026-07-02T00:03:59.000Z</time></trkpt>
        <trkpt lat="29.334975" lon="103.471411"><ele>550.45</ele><time>2026-07-02T00:04:01.000Z</time></trkpt>
        <trkpt lat="29.334951" lon="103.471405"><ele>550.26135</ele><time>2026-07-02T00:04:03.000Z</time></trkpt>
        <trkpt lat="29.334923" lon="103.471403"><ele>550.01733</ele><time>2026-07-02T00:04:05.000Z</time></trkpt>
        <trkpt lat="29.334906" lon="103.471401"><ele>549.3445</ele><time>2026-07-02T00:04:07.000Z</time></trkpt>
        <trkpt lat="29.334882" lon="103.471394"><ele>549.0421</ele><time>2026-07-02T00:04:09.000Z</time></trkpt>
        <trkpt lat="29.334852" lon="103.471383"><ele>548.2783</ele><time>2026-07-02T00:04:11.000Z</time></trkpt>
        <trkpt lat="29.334824" lon="103.471367"><ele>547.3389</ele><time>2026-07-02T00:04:13.000Z</time></trkpt>
        <trkpt lat="29.334796" lon="103.471347"><ele>546.9637</ele><time>2026-07-02T00:04:15.000Z</time></trkpt>
        <trkpt lat="29.334772" lon="103.471324"><ele>546.79</ele><time>2026-07-02T00:04:17.000Z</time></trkpt>
        <trkpt lat="29.334746" lon="103.471305"><ele>546.79</ele><time>2026-07-02T00:04:19.000Z</time></trkpt>
        <trkpt lat="29.334721" lon="103.471285"><ele>546.79</ele><time>2026-07-02T00:04:21.000Z</time></trkpt>
        <trkpt lat="29.334698" lon="103.471269"><ele>547.1692</ele><time>2026-07-02T00:04:23.000Z</time></trkpt>
        <trkpt lat="29.334679" lon="103.471258"><ele>547.9271</ele><time>2026-07-02T00:04:25.000Z</time></trkpt>
        <trkpt lat="29.334659" lon="103.471245"><ele>549.43805</ele><time>2026-07-02T00:04:27.000Z</time></trkpt>
        <trkpt lat="29.334644" lon="103.471233"><ele>550.6728</ele><time>2026-07-02T00:04:29.000Z</time></trkpt>
        <trkpt lat="29.334629" lon="103.471218"><ele>551.59564</ele><time>2026-07-02T00:04:31.000Z</time></trkpt>
        <trkpt lat="29.334616" lon="103.4712"><ele>552.07544</ele><time>2026-07-02T00:04:33.000Z</time></trkpt>
        <trkpt lat="29.334603" lon="103.471179"><ele>552.7075</ele><time>2026-07-02T00:04:35.000Z</time></trkpt>
        <trkpt lat="29.33459" lon="103.471156"><ele>552.9332</ele><time>2026-07-02T00:04:37.000Z</time></trkpt>
        <trkpt lat="29.334574" lon="103.471131"><ele>553.2668</ele><time>2026-07-02T00:04:39.000Z</time></trkpt>
        <trkpt lat="29.334561" lon="103.47111"><ele>553.50543</ele><time>2026-07-02T00:04:41.000Z</time></trkpt>
        <trkpt lat="29.334548" lon="103.471088"><ele>553.5442</ele><time>2026-07-02T00:04:43.000Z</time></trkpt>
        <trkpt lat="29.334533" lon="103.471066"><ele>553.57605</ele><time>2026-07-02T00:04:45.000Z</time></trkpt>
        <trkpt lat="29.33452" lon="103.471044"><ele>553.57605</ele><time>2026-07-02T00:04:47.000Z</time></trkpt>
        <trkpt lat="29.334507" lon="103.471021"><ele>553.57605</ele><time>2026-07-02T00:04:49.000Z</time></trkpt>
        <trkpt lat="29.334495" lon="103.470998"><ele>553.45135</ele><time>2026-07-02T00:04:51.000Z</time></trkpt>
        <trkpt lat="29.334482" lon="103.470974"><ele>553.1329</ele><time>2026-07-02T00:04:53.000Z</time></trkpt>
        <trkpt lat="29.334469" lon="103.47095"><ele>552.5003</ele><time>2026-07-02T00:04:55.000Z</time></trkpt>
        <trkpt lat="29.334459" lon="103.470927"><ele>552.1469</ele><time>2026-07-02T00:04:57.000Z</time></trkpt>
        <trkpt lat="29.334449" lon="103.470907"><ele>551.9784</ele><time>2026-07-02T00:04:59.000Z</time></trkpt>
        <trkpt lat="29.334437" lon="103.470885"><ele>551.6242</ele><time>2026-07-02T00:05:01.000Z</time></trkpt>
        <trkpt lat="29.334431" lon="103.470871"><ele>551.6123</ele><time>2026-07-02T00:05:03.000Z</time></trkpt>
        <trkpt lat="29.334425" lon="103.470855"><ele>551.6123</ele><time>2026-07-02T00:05:05.000Z</time></trkpt>
        <trkpt lat="29.334417" lon="103.470833"><ele>551.6123</ele><time>2026-07-02T00:05:07.000Z</time></trkpt>
        <trkpt lat="29.334408" lon="103.470812"><ele>551.7094</ele><time>2026-07-02T00:05:09.000Z</time></trkpt>
        <trkpt lat="29.334398" lon="103.47079"><ele>551.8516</ele><time>2026-07-02T00:05:11.000Z</time></trkpt>
        <trkpt lat="29.334387" lon="103.470769"><ele>552.5063</ele><time>2026-07-02T00:05:13.000Z</time></trkpt>
        <trkpt lat="29.334375" lon="103.47075"><ele>552.5063</ele><time>2026-07-02T00:05:15.000Z</time></trkpt>
        <trkpt lat="29.334364" lon="103.470733"><ele>552.5063</ele><time>2026-07-02T00:05:17.000Z</time></trkpt>
        <trkpt lat="29.334352" lon="103.470715"><ele>552.5063</ele><time>2026-07-02T00:05:19.000Z</time></trkpt>
        <trkpt lat="29.334341" lon="103.470695"><ele>552.5063</ele><time>2026-07-02T00:05:21.000Z</time></trkpt>
        <trkpt lat="29.33433" lon="103.470674"><ele>552.52747</ele><time>2026-07-02T00:05:23.000Z</time></trkpt>
        <trkpt lat="29.334317" lon="103.47065"><ele>552.58685</ele><time>2026-07-02T00:05:25.000Z</time></trkpt>
        <trkpt lat="29.334305" lon="103.470627"><ele>552.61487</ele><time>2026-07-02T00:05:27.000Z</time></trkpt>
        <trkpt lat="29.33429" lon="103.4706"><ele>552.6705</ele><time>2026-07-02T00:05:29.000Z</time></trkpt>
        <trkpt lat="29.334276" lon="103.470575"><ele>552.6705</ele><time>2026-07-02T00:05:31.000Z</time></trkpt>
        <trkpt lat="29.334259" lon="103.47055"><ele>552.6705</ele><time>2026-07-02T00:05:33.000Z</time></trkpt>
        <trkpt lat="29.334242" lon="103.470529"><ele>552.46545</ele><time>2026-07-02T00:05:35.000Z</time></trkpt>
        <trkpt lat="29.334226" lon="103.470509"><ele>552.20966</ele><time>2026-07-02T00:05:37.000Z</time></trkpt>
        <trkpt lat="29.334216" lon="103.470495"><ele>552.20966</ele><time>2026-07-02T00:05:39.000Z</time></trkpt>
        <trkpt lat="29.334209" lon="103.470484"><ele>552.20966</ele><time>2026-07-02T00:05:41.000Z</time></trkpt>
        <trkpt lat="29.334199" lon="103.470474"><ele>552.24036</ele><time>2026-07-02T00:05:43.000Z</time></trkpt>
        <trkpt lat="29.33419" lon="103.470465"><ele>552.45233</ele><time>2026-07-02T00:05:45.000Z</time></trkpt>
        <trkpt lat="29.334176" lon="103.470453"><ele>553.01385</ele><time>2026-07-02T00:05:47.000Z</time></trkpt>
        <trkpt lat="29.334159" lon="103.47044"><ele>553.3086</ele><time>2026-07-02T00:05:49.000Z</time></trkpt>
        <trkpt lat="29.334141" lon="103.470423"><ele>553.6763</ele><time>2026-07-02T00:05:51.000Z</time></trkpt>
        <trkpt lat="29.334126" lon="103.470403"><ele>554.0288</ele><time>2026-07-02T00:05:53.000Z</time></trkpt>
        <trkpt lat="29.334114" lon="103.470381"><ele>554.1935</ele><time>2026-07-02T00:05:55.000Z</time></trkpt>
        <trkpt lat="29.334104" lon="103.470358"><ele>554.1935</ele><time>2026-07-02T00:05:57.000Z</time></trkpt>
        <trkpt lat="29.334097" lon="103.470342"><ele>554.1935</ele><time>2026-07-02T00:05:59.000Z</time></trkpt>
        <trkpt lat="29.334093" lon="103.47033"><ele>554.05927</ele><time>2026-07-02T00:06:01.000Z</time></trkpt>
        <trkpt lat="29.334087" lon="103.470314"><ele>553.98914</ele><time>2026-07-02T00:06:03.000Z</time></trkpt>
        <trkpt lat="29.334081" lon="103.470295"><ele>553.6548</ele><time>2026-07-02T00:06:05.000Z</time></trkpt>
        <trkpt lat="29.334075" lon="103.470274"><ele>553.1262</ele><time>2026-07-02T00:06:07.000Z</time></trkpt>
        <trkpt lat="29.334068" lon="103.470256"><ele>552.90906</ele><time>2026-07-02T00:06:09.000Z</time></trkpt>
        <trkpt lat="29.33406" lon="103.470234"><ele>552.76</ele><time>2026-07-02T00:06:11.000Z</time></trkpt>
        <trkpt lat="29.334051" lon="103.470211"><ele>552.3905</ele><time>2026-07-02T00:06:13.000Z</time></trkpt>
        <trkpt lat="29.334042" lon="103.470187"><ele>552.14056</ele><time>2026-07-02T00:06:15.000Z</time></trkpt>
        <trkpt lat="29.334035" lon="103.470164"><ele>551.96893</ele><time>2026-07-02T00:06:17.000Z</time></trkpt>
        <trkpt lat="29.334031" lon="103.470141"><ele>551.8908</ele><time>2026-07-02T00:06:19.000Z</time></trkpt>
        <trkpt lat="29.334028" lon="103.470118"><ele>551.8373</ele><time>2026-07-02T00:06:21.000Z</time></trkpt>
        <trkpt lat="29.334024" lon="103.470099"><ele>551.55115</ele><time>2026-07-02T00:06:23.000Z</time></trkpt>
        <trkpt lat="29.334019" lon="103.470086"><ele>551.5025</ele><time>2026-07-02T00:06:25.000Z</time></trkpt>
        <trkpt lat="29.334011" lon="103.47007"><ele>551.5025</ele><time>2026-07-02T00:06:27.000Z</time></trkpt>
        <trkpt lat="29.334001" lon="103.470054"><ele>551.55115</ele><time>2026-07-02T00:06:29.000Z</time></trkpt>
        <trkpt lat="29.333996" lon="103.470044"><ele>551.6323</ele><time>2026-07-02T00:06:31.000Z</time></trkpt>
        <trkpt lat="29.333989" lon="103.470032"><ele>551.8403</ele><time>2026-07-02T00:06:33.000Z</time></trkpt>
        <trkpt lat="29.333982" lon="103.470018"><ele>551.8403</ele><time>2026-07-02T00:06:35.000Z</time></trkpt>
        <trkpt lat="29.333972" lon="103.470003"><ele>551.8403</ele><time>2026-07-02T00:06:37.000Z</time></trkpt>
        <trkpt lat="29.333961" lon="103.469987"><ele>551.7047</ele><time>2026-07-02T00:06:39.000Z</time></trkpt>
        <trkpt lat="29.333951" lon="103.469973"><ele>551.4278</ele><time>2026-07-02T00:06:41.000Z</time></trkpt>
        <trkpt lat="29.333941" lon="103.469959"><ele>551.2784</ele><time>2026-07-02T00:06:43.000Z</time></trkpt>
        <trkpt lat="29.333933" lon="103.469946"><ele>550.8978</ele><time>2026-07-02T00:06:45.000Z</time></trkpt>
        <trkpt lat="29.333926" lon="103.46993"><ele>550.6114</ele><time>2026-07-02T00:06:47.000Z</time></trkpt>
        <trkpt lat="29.333919" lon="103.469913"><ele>550.27625</ele><time>2026-07-02T00:06:49.000Z</time></trkpt>
        <trkpt lat="29.333914" lon="103.469892"><ele>550.1275</ele><time>2026-07-02T00:06:51.000Z</time></trkpt>
        <trkpt lat="29.33391" lon="103.469869"><ele>550.11426</ele><time>2026-07-02T00:06:53.000Z</time></trkpt>
        <trkpt lat="29.333906" lon="103.469846"><ele>550.08496</ele><time>2026-07-02T00:06:55.000Z</time></trkpt>
        <trkpt lat="29.333902" lon="103.469823"><ele>550.0109</ele><time>2026-07-02T00:06:57.000Z</time></trkpt>
        <trkpt lat="29.333897" lon="103.469806"><ele>549.87897</ele><time>2026-07-02T00:06:59.000Z</time></trkpt>
        <trkpt lat="29.333887" lon="103.469784"><ele>549.72327</ele><time>2026-07-02T00:07:01.000Z</time></trkpt>
        <trkpt lat="29.333877" lon="103.469761"><ele>549.2333</ele><time>2026-07-02T00:07:03.000Z</time></trkpt>
        <trkpt lat="29.333866" lon="103.469736"><ele>549.1572</ele><time>2026-07-02T00:07:05.000Z</time></trkpt>
        <trkpt lat="29.333858" lon="103.469714"><ele>549.1191</ele><time>2026-07-02T00:07:07.000Z</time></trkpt>
        <trkpt lat="29.333853" lon="103.469698"><ele>548.9178</ele><time>2026-07-02T00:07:09.000Z</time></trkpt>
        <trkpt lat="29.333846" lon="103.469681"><ele>548.73535</ele><time>2026-07-02T00:07:11.000Z</time></trkpt>
        <trkpt lat="29.33384" lon="103.469663"><ele>548.44476</ele><time>2026-07-02T00:07:13.000Z</time></trkpt>
        <trkpt lat="29.333833" lon="103.469645"><ele>548.2995</ele><time>2026-07-02T00:07:15.000Z</time></trkpt>
        <trkpt lat="29.333827" lon="103.469623"><ele>548.2995</ele><time>2026-07-02T00:07:17.000Z</time></trkpt>
        <trkpt lat="29.333819" lon="103.469601"><ele>548.2995</ele><time>2026-07-02T00:07:19.000Z</time></trkpt>
        <trkpt lat="29.333809" lon="103.469579"><ele>548.2995</ele><time>2026-07-02T00:07:21.000Z</time></trkpt>
        <trkpt lat="29.333802" lon="103.469559"><ele>548.2995</ele><time>2026-07-02T00:07:23.000Z</time></trkpt>
        <trkpt lat="29.333795" lon="103.469536"><ele>548.2534</ele><time>2026-07-02T00:07:25.000Z</time></trkpt>
        <trkpt lat="29.333788" lon="103.469511"><ele>548.2534</ele><time>2026-07-02T00:07:27.000Z</time></trkpt>
        <trkpt lat="29.33378" lon="103.469488"><ele>548.2534</ele><time>2026-07-02T00:07:29.000Z</time></trkpt>
        <trkpt lat="29.333772" lon="103.469465"><ele>548.34094</ele><time>2026-07-02T00:07:31.000Z</time></trkpt>
        <trkpt lat="29.333767" lon="103.469445"><ele>548.81836</ele><time>2026-07-02T00:07:33.000Z</time></trkpt>
        <trkpt lat="29.333766" lon="103.469427"><ele>549.3603</ele><time>2026-07-02T00:07:35.000Z</time></trkpt>
        <trkpt lat="29.333764" lon="103.46941"><ele>549.38556</ele><time>2026-07-02T00:07:37.000Z</time></trkpt>
        <trkpt lat="29.333761" lon="103.469392"><ele>549.38556</ele><time>2026-07-02T00:07:39.000Z</time></trkpt>
        <trkpt lat="29.333755" lon="103.469373"><ele>549.37946</ele><time>2026-07-02T00:07:41.000Z</time></trkpt>
        <trkpt lat="29.333747" lon="103.469348"><ele>549.37946</ele><time>2026-07-02T00:07:43.000Z</time></trkpt>
        <trkpt lat="29.333739" lon="103.469325"><ele>548.65063</ele><time>2026-07-02T00:07:45.000Z</time></trkpt>
        <trkpt lat="29.333733" lon="103.469307"><ele>547.668</ele><time>2026-07-02T00:07:47.000Z</time></trkpt>
        <trkpt lat="29.333731" lon="103.469296"><ele>547.0132</ele><time>2026-07-02T00:07:49.000Z</time></trkpt>
        <trkpt lat="29.333728" lon="103.469281"><ele>546.3555</ele><time>2026-07-02T00:07:51.000Z</time></trkpt>
        <trkpt lat="29.333723" lon="103.469264"><ele>545.80066</ele><time>2026-07-02T00:07:53.000Z</time></trkpt>
        <trkpt lat="29.333719" lon="103.469246"><ele>544.90594</ele><time>2026-07-02T00:07:55.000Z</time></trkpt>
        <trkpt lat="29.333715" lon="103.469231"><ele>544.07904</ele><time>2026-07-02T00:07:57.000Z</time></trkpt>
        <trkpt lat="29.33371" lon="103.469211"><ele>543.1216</ele><time>2026-07-02T00:07:59.000Z</time></trkpt>
        <trkpt lat="29.333703" lon="103.469189"><ele>542.3968</ele><time>2026-07-02T00:08:01.000Z</time></trkpt>
        <trkpt lat="29.333696" lon="103.469165"><ele>542.1925</ele><time>2026-07-02T00:08:03.000Z</time></trkpt>
        <trkpt lat="29.333692" lon="103.469144"><ele>541.5971</ele><time>2026-07-02T00:08:05.000Z</time></trkpt>
        <trkpt lat="29.333688" lon="103.469122"><ele>541.2172</ele><time>2026-07-02T00:08:07.000Z</time></trkpt>
        <trkpt lat="29.333687" lon="103.469107"><ele>540.95245</ele><time>2026-07-02T00:08:09.000Z</time></trkpt>
        <trkpt lat="29.333685" lon="103.469091"><ele>540.8881</ele><time>2026-07-02T00:08:11.000Z</time></trkpt>
        <trkpt lat="29.333682" lon="103.469075"><ele>540.8881</ele><time>2026-07-02T00:08:13.000Z</time></trkpt>
        <trkpt lat="29.333676" lon="103.469055"><ele>540.8881</ele><time>2026-07-02T00:08:15.000Z</time></trkpt>
        <trkpt lat="29.333671" lon="103.469032"><ele>540.8799</ele><time>2026-07-02T00:08:17.000Z</time></trkpt>
        <trkpt lat="29.333667" lon="103.469008"><ele>540.8799</ele><time>2026-07-02T00:08:19.000Z</time></trkpt>
        <trkpt lat="29.333665" lon="103.468986"><ele>540.7309</ele><time>2026-07-02T00:08:21.000Z</time></trkpt>
        <trkpt lat="29.333664" lon="103.468975"><ele>540.38135</ele><time>2026-07-02T00:08:23.000Z</time></trkpt>
        <trkpt lat="29.333662" lon="103.46896"><ele>539.9706</ele><time>2026-07-02T00:08:25.000Z</time></trkpt>
        <trkpt lat="29.33366" lon="103.468941"><ele>539.94434</ele><time>2026-07-02T00:08:27.000Z</time></trkpt>
        <trkpt lat="29.333656" lon="103.468926"><ele>539.845</ele><time>2026-07-02T00:08:29.000Z</time></trkpt>
        <trkpt lat="29.333651" lon="103.468909"><ele>539.82117</ele><time>2026-07-02T00:08:31.000Z</time></trkpt>
        <trkpt lat="29.333644" lon="103.468888"><ele>539.7827</ele><time>2026-07-02T00:08:33.000Z</time></trkpt>
        <trkpt lat="29.333637" lon="103.468869"><ele>539.6271</ele><time>2026-07-02T00:08:35.000Z</time></trkpt>
        <trkpt lat="29.333629" lon="103.468848"><ele>539.1927</ele><time>2026-07-02T00:08:37.000Z</time></trkpt>
        <trkpt lat="29.333619" lon="103.468823"><ele>538.74786</ele><time>2026-07-02T00:08:39.000Z</time></trkpt>
        <trkpt lat="29.33361" lon="103.468802"><ele>538.28406</ele><time>2026-07-02T00:08:41.000Z</time></trkpt>
        <trkpt lat="29.333599" lon="103.468782"><ele>538.1349</ele><time>2026-07-02T00:08:43.000Z</time></trkpt>
        <trkpt lat="29.333586" lon="103.468765"><ele>538.0732</ele><time>2026-07-02T00:08:45.000Z</time></trkpt>
        <trkpt lat="29.33357" lon="103.468747"><ele>538.0732</ele><time>2026-07-02T00:08:47.000Z</time></trkpt>
        <trkpt lat="29.333551" lon="103.468728"><ele>538.0732</ele><time>2026-07-02T00:08:49.000Z</time></trkpt>
        <trkpt lat="29.333531" lon="103.468711"><ele>538.26904</ele><time>2026-07-02T00:08:51.000Z</time></trkpt>
        <trkpt lat="29.333513" lon="103.468701"><ele>538.43524</ele><time>2026-07-02T00:08:53.000Z</time></trkpt>
        <trkpt lat="29.333494" lon="103.468692"><ele>538.43524</ele><time>2026-07-02T00:08:55.000Z</time></trkpt>
        <trkpt lat="29.333481" lon="103.468688"><ele>538.43524</ele><time>2026-07-02T00:08:57.000Z</time></trkpt>
        <trkpt lat="29.333465" lon="103.468683"><ele>537.98334</ele><time>2026-07-02T00:08:59.000Z</time></trkpt>
        <trkpt lat="29.333448" lon="103.468678"><ele>537.6685</ele><time>2026-07-02T00:09:01.000Z</time></trkpt>
        <trkpt lat="29.333428" lon="103.468674"><ele>537.6685</ele><time>2026-07-02T00:09:03.000Z</time></trkpt>
        <trkpt lat="29.333408" lon="103.468669"><ele>537.6685</ele><time>2026-07-02T00:09:05.000Z</time></trkpt>
        <trkpt lat="29.333389" lon="103.468662"><ele>537.8145</ele><time>2026-07-02T00:09:07.000Z</time></trkpt>
        <trkpt lat="29.333372" lon="103.468654"><ele>537.87213</ele><time>2026-07-02T00:09:09.000Z</time></trkpt>
        <trkpt lat="29.333355" lon="103.468644"><ele>537.87213</ele><time>2026-07-02T00:09:11.000Z</time></trkpt>
        <trkpt lat="29.333339" lon="103.46863"><ele>537.87213</ele><time>2026-07-02T00:09:13.000Z</time></trkpt>
        <trkpt lat="29.333326" lon="103.468614"><ele>537.8637</ele><time>2026-07-02T00:09:15.000Z</time></trkpt>
        <trkpt lat="29.333313" lon="103.468599"><ele>537.7145</ele><time>2026-07-02T00:09:17.000Z</time></trkpt>
        <trkpt lat="29.3333" lon="103.468585"><ele>537.68994</ele><time>2026-07-02T00:09:19.000Z</time></trkpt>
        <trkpt lat="29.333285" lon="103.468573"><ele>537.1956</ele><time>2026-07-02T00:09:21.000Z</time></trkpt>
        <trkpt lat="29.333268" lon="103.468563"><ele>536.94</ele><time>2026-07-02T00:09:23.000Z</time></trkpt>
        <trkpt lat="29.333249" lon="103.468553"><ele>536.93274</ele><time>2026-07-02T00:09:25.000Z</time></trkpt>
        <trkpt lat="29.333232" lon="103.468544"><ele>536.9087</ele><time>2026-07-02T00:09:27.000Z</time></trkpt>
        <trkpt lat="29.333221" lon="103.468537"><ele>536.7374</ele><time>2026-07-02T00:09:29.000Z</time></trkpt>
        <trkpt lat="29.333208" lon="103.46853"><ele>536.56586</ele><time>2026-07-02T00:09:31.000Z</time></trkpt>
        <trkpt lat="29.333192" lon="103.46852"><ele>536.42206</ele><time>2026-07-02T00:09:33.000Z</time></trkpt>
        <trkpt lat="29.333173" lon="103.468508"><ele>536.4109</ele><time>2026-07-02T00:09:35.000Z</time></trkpt>
        <trkpt lat="29.333157" lon="103.468496"><ele>536.4109</ele><time>2026-07-02T00:09:37.000Z</time></trkpt>
        <trkpt lat="29.333145" lon="103.468486"><ele>536.42206</ele><time>2026-07-02T00:09:39.000Z</time></trkpt>
        <trkpt lat="29.333131" lon="103.468476"><ele>536.5885</ele><time>2026-07-02T00:09:41.000Z</time></trkpt>
        <trkpt lat="29.333113" lon="103.468464"><ele>536.756</ele><time>2026-07-02T00:09:43.000Z</time></trkpt>
        <trkpt lat="29.333092" lon="103.468455"><ele>536.8942</ele><time>2026-07-02T00:09:45.000Z</time></trkpt>
        <trkpt lat="29.333071" lon="103.468448"><ele>537.02356</ele><time>2026-07-02T00:09:47.000Z</time></trkpt>
        <trkpt lat="29.333051" lon="103.468442"><ele>537.148</ele><time>2026-07-02T00:09:49.000Z</time></trkpt>
        <trkpt lat="29.333031" lon="103.468438"><ele>537.14954</ele><time>2026-07-02T00:09:51.000Z</time></trkpt>
        <trkpt lat="29.33301" lon="103.468432"><ele>537.14954</ele><time>2026-07-02T00:09:53.000Z</time></trkpt>
        <trkpt lat="29.332991" lon="103.468425"><ele>537.148</ele><time>2026-07-02T00:09:55.000Z</time></trkpt>
        <trkpt lat="29.332974" lon="103.468415"><ele>536.95056</ele><time>2026-07-02T00:09:57.000Z</time></trkpt>
        <trkpt lat="29.332958" lon="103.468407"><ele>536.8188</ele><time>2026-07-02T00:09:59.000Z</time></trkpt>
        <trkpt lat="29.332937" lon="103.468397"><ele>536.8188</ele><time>2026-07-02T00:10:01.000Z</time></trkpt>
        <trkpt lat="29.332926" lon="103.468391"><ele>536.8077</ele><time>2026-07-02T00:10:03.000Z</time></trkpt>
        <trkpt lat="29.332915" lon="103.468384"><ele>536.6953</ele><time>2026-07-02T00:10:05.000Z</time></trkpt>
        <trkpt lat="29.3329" lon="103.468376"><ele>536.6953</ele><time>2026-07-02T00:10:07.000Z</time></trkpt>
        <trkpt lat="29.332884" lon="103.468371"><ele>536.3635</ele><time>2026-07-02T00:10:09.000Z</time></trkpt>
        <trkpt lat="29.33286" lon="103.468366"><ele>536.181</ele><time>2026-07-02T00:10:11.000Z</time></trkpt>
        <trkpt lat="29.332832" lon="103.46836"><ele>536.121</ele><time>2026-07-02T00:10:13.000Z</time></trkpt>
        <trkpt lat="29.332803" lon="103.468351"><ele>536.0794</ele><time>2026-07-02T00:10:15.000Z</time></trkpt>
        <trkpt lat="29.33278" lon="103.46834"><ele>536.0794</ele><time>2026-07-02T00:10:17.000Z</time></trkpt>
        <trkpt lat="29.332761" lon="103.468327"><ele>536.0794</ele><time>2026-07-02T00:10:19.000Z</time></trkpt>
        <trkpt lat="29.332745" lon="103.468313"><ele>536.2282</ele><time>2026-07-02T00:10:21.000Z</time></trkpt>
        <trkpt lat="29.332729" lon="103.468298"><ele>537.09717</ele><time>2026-07-02T00:10:23.000Z</time></trkpt>
        <trkpt lat="29.332712" lon="103.468278"><ele>537.5029</ele><time>2026-07-02T00:10:25.000Z</time></trkpt>
        <trkpt lat="29.3327" lon="103.468258"><ele>537.62585</ele><time>2026-07-02T00:10:27.000Z</time></trkpt>
        <trkpt lat="29.332686" lon="103.46823"><ele>537.62585</ele><time>2026-07-02T00:10:29.000Z</time></trkpt>
        <trkpt lat="29.332671" lon="103.468202"><ele>537.62585</ele><time>2026-07-02T00:10:31.000Z</time></trkpt>
        <trkpt lat="29.33266" lon="103.468178"><ele>537.40186</ele><time>2026-07-02T00:10:33.000Z</time></trkpt>
        <trkpt lat="29.332653" lon="103.468161"><ele>536.90466</ele><time>2026-07-02T00:10:35.000Z</time></trkpt>
        <trkpt lat="29.332649" lon="103.468144"><ele>536.63055</ele><time>2026-07-02T00:10:37.000Z</time></trkpt>
        <trkpt lat="29.332647" lon="103.468129"><ele>536.14905</ele><time>2026-07-02T00:10:39.000Z</time></trkpt>
        <trkpt lat="29.332646" lon="103.468114"><ele>535.6926</ele><time>2026-07-02T00:10:41.000Z</time></trkpt>
        <trkpt lat="29.332645" lon="103.468097"><ele>535.10333</ele><time>2026-07-02T00:10:43.000Z</time></trkpt>
        <trkpt lat="29.332642" lon="103.468077"><ele>534.3101</ele><time>2026-07-02T00:10:45.000Z</time></trkpt>
        <trkpt lat="29.332638" lon="103.468055"><ele>533.75085</ele><time>2026-07-02T00:10:47.000Z</time></trkpt>
        <trkpt lat="29.332632" lon="103.46803"><ele>533.5062</ele><time>2026-07-02T00:10:49.000Z</time></trkpt>
        <trkpt lat="29.332624" lon="103.468005"><ele>533.16296</ele><time>2026-07-02T00:10:51.000Z</time></trkpt>
        <trkpt lat="29.332618" lon="103.467978"><ele>533.0531</ele><time>2026-07-02T00:10:53.000Z</time></trkpt>
        <trkpt lat="29.332613" lon="103.467957"><ele>533.0531</ele><time>2026-07-02T00:10:55.000Z</time></trkpt>
        <trkpt lat="29.332606" lon="103.467936"><ele>533.0531</ele><time>2026-07-02T00:10:57.000Z</time></trkpt>
        <trkpt lat="29.332598" lon="103.467915"><ele>533.0531</ele><time>2026-07-02T00:10:59.000Z</time></trkpt>
        <trkpt lat="29.332597" lon="103.467898"><ele>533.0531</ele><time>2026-07-02T00:11:01.000Z</time></trkpt>
        <trkpt lat="29.332597" lon="103.467886"><ele>532.1977</ele><time>2026-07-02T00:11:03.000Z</time></trkpt>
        <trkpt lat="29.332596" lon="103.467885"><ele>531.54535</ele><time>2026-07-02T00:11:05.000Z</time></trkpt>
        <trkpt lat="29.332567" lon="103.467881"><ele>530.96405</ele><time>2026-07-02T00:11:23.000Z</time></trkpt>
      </trkseg>
  </trk>
</gpx>